<?xml version="1.0" encoding="UTF-8" standalone="no" ?>
<gpx xmlns="http://www.topografix.com/GPX/1/1" xmlns:xsi="http://www.w3.org/2001/XMLSchema-instance" xsi:schemaLocation="http://www.topografix.com/GPX/1/1 http://www.topografix.com/GPX/1/1/gpx.xsd" version="1.1" creator="VisuGPX - https://www.visugpx.com">
  <metadata>
    <name>Folleux 27/06/2021</name>
    <desc><![CDATA[Sortie VTT Folleux du dimanche 27 juin 2021]]></desc>
  </metadata>
  <trk>
    <name><![CDATA[Nivillac Cyclisme]]></name>
    <trkseg>
      <trkpt lat="47.56932" lon="-2.27466">
        <ele>10</ele>
        <time>2021-06-27T06:26:29.000Z</time>
      </trkpt>
      <trkpt lat="47.56927" lon="-2.27466">
        <ele>10</ele>
        <time>2021-06-27T06:26:32.000Z</time>
      </trkpt>
      <trkpt lat="47.56926" lon="-2.27464">
        <ele>9.8000001907349</ele>
        <time>2021-06-27T06:26:33.000Z</time>
      </trkpt>
      <trkpt lat="47.56924" lon="-2.27462">
        <ele>9.8000001907349</ele>
        <time>2021-06-27T06:26:35.000Z</time>
      </trkpt>
      <trkpt lat="47.56923" lon="-2.27461">
        <ele>9.8000001907349</ele>
        <time>2021-06-27T06:26:37.000Z</time>
      </trkpt>
      <trkpt lat="47.56942" lon="-2.27456">
        <ele>9.8000001907349</ele>
        <time>2021-06-27T06:28:05.000Z</time>
      </trkpt>
      <trkpt lat="47.56941" lon="-2.27453">
        <ele>9.8000001907349</ele>
        <time>2021-06-27T06:28:07.000Z</time>
      </trkpt>
      <trkpt lat="47.5694" lon="-2.27452">
        <ele>9.8000001907349</ele>
        <time>2021-06-27T06:28:08.000Z</time>
      </trkpt>
      <trkpt lat="47.56941" lon="-2.27446">
        <ele>9.8000001907349</ele>
        <time>2021-06-27T06:28:15.000Z</time>
      </trkpt>
      <trkpt lat="47.56942" lon="-2.27441">
        <ele>9.8000001907349</ele>
        <time>2021-06-27T06:28:17.000Z</time>
      </trkpt>
      <trkpt lat="47.56944" lon="-2.27418">
        <ele>10.199999809265</ele>
        <time>2021-06-27T06:28:22.000Z</time>
      </trkpt>
      <trkpt lat="47.56944" lon="-2.27413">
        <ele>10.60000038147</ele>
        <time>2021-06-27T06:28:23.000Z</time>
      </trkpt>
      <trkpt lat="47.56945" lon="-2.27408">
        <ele>11</ele>
        <time>2021-06-27T06:28:24.000Z</time>
      </trkpt>
      <trkpt lat="47.56945" lon="-2.27404">
        <ele>11.39999961853</ele>
        <time>2021-06-27T06:28:25.000Z</time>
      </trkpt>
      <trkpt lat="47.56945" lon="-2.27399">
        <ele>11.800000190735</ele>
        <time>2021-06-27T06:28:26.000Z</time>
      </trkpt>
      <trkpt lat="47.56944" lon="-2.27389">
        <ele>11.800000190735</ele>
        <time>2021-06-27T06:28:29.000Z</time>
      </trkpt>
      <trkpt lat="47.56939" lon="-2.27383">
        <ele>12.199999809265</ele>
        <time>2021-06-27T06:28:31.000Z</time>
      </trkpt>
      <trkpt lat="47.56937" lon="-2.2738">
        <ele>12.800000190735</ele>
        <time>2021-06-27T06:28:32.000Z</time>
      </trkpt>
      <trkpt lat="47.56935" lon="-2.27376">
        <ele>13.199999809265</ele>
        <time>2021-06-27T06:28:33.000Z</time>
      </trkpt>
      <trkpt lat="47.56934" lon="-2.27373">
        <ele>13.60000038147</ele>
        <time>2021-06-27T06:28:34.000Z</time>
      </trkpt>
      <trkpt lat="47.56932" lon="-2.27371">
        <ele>14</ele>
        <time>2021-06-27T06:28:35.000Z</time>
      </trkpt>
      <trkpt lat="47.56922" lon="-2.27366">
        <ele>14.39999961853</ele>
        <time>2021-06-27T06:28:39.000Z</time>
      </trkpt>
      <trkpt lat="47.56919" lon="-2.27365">
        <ele>14.800000190735</ele>
        <time>2021-06-27T06:28:40.000Z</time>
      </trkpt>
      <trkpt lat="47.56916" lon="-2.27363">
        <ele>15.199999809265</ele>
        <time>2021-06-27T06:28:41.000Z</time>
      </trkpt>
      <trkpt lat="47.56914" lon="-2.27362">
        <ele>16</ele>
        <time>2021-06-27T06:28:42.000Z</time>
      </trkpt>
      <trkpt lat="47.56899" lon="-2.27355">
        <ele>16.39999961853</ele>
        <time>2021-06-27T06:28:48.000Z</time>
      </trkpt>
      <trkpt lat="47.56897" lon="-2.27354">
        <ele>17</ele>
        <time>2021-06-27T06:28:49.000Z</time>
      </trkpt>
      <trkpt lat="47.56895" lon="-2.27353">
        <ele>17.39999961853</ele>
        <time>2021-06-27T06:28:50.000Z</time>
      </trkpt>
      <trkpt lat="47.56892" lon="-2.27352">
        <ele>17.799999237061</ele>
        <time>2021-06-27T06:28:51.000Z</time>
      </trkpt>
      <trkpt lat="47.5689" lon="-2.27351">
        <ele>18.200000762939</ele>
        <time>2021-06-27T06:28:52.000Z</time>
      </trkpt>
      <trkpt lat="47.56883" lon="-2.27348">
        <ele>18.200000762939</ele>
        <time>2021-06-27T06:28:55.000Z</time>
      </trkpt>
      <trkpt lat="47.56874" lon="-2.27345">
        <ele>18.60000038147</ele>
        <time>2021-06-27T06:28:59.000Z</time>
      </trkpt>
      <trkpt lat="47.56872" lon="-2.27343">
        <ele>19</ele>
        <time>2021-06-27T06:29:00.000Z</time>
      </trkpt>
      <trkpt lat="47.5687" lon="-2.27343">
        <ele>19.39999961853</ele>
        <time>2021-06-27T06:29:01.000Z</time>
      </trkpt>
      <trkpt lat="47.56868" lon="-2.27342">
        <ele>19.799999237061</ele>
        <time>2021-06-27T06:29:02.000Z</time>
      </trkpt>
      <trkpt lat="47.56866" lon="-2.27341">
        <ele>20.200000762939</ele>
        <time>2021-06-27T06:29:03.000Z</time>
      </trkpt>
      <trkpt lat="47.56857" lon="-2.27339">
        <ele>20.200000762939</ele>
        <time>2021-06-27T06:29:07.000Z</time>
      </trkpt>
      <trkpt lat="47.56849" lon="-2.27337">
        <ele>20.799999237061</ele>
        <time>2021-06-27T06:29:11.000Z</time>
      </trkpt>
      <trkpt lat="47.56847" lon="-2.27337">
        <ele>21.200000762939</ele>
        <time>2021-06-27T06:29:12.000Z</time>
      </trkpt>
      <trkpt lat="47.56844" lon="-2.27336">
        <ele>21.60000038147</ele>
        <time>2021-06-27T06:29:13.000Z</time>
      </trkpt>
      <trkpt lat="47.56842" lon="-2.27335">
        <ele>22</ele>
        <time>2021-06-27T06:29:14.000Z</time>
      </trkpt>
      <trkpt lat="47.56839" lon="-2.27334">
        <ele>22.39999961853</ele>
        <time>2021-06-27T06:29:15.000Z</time>
      </trkpt>
      <trkpt lat="47.56822" lon="-2.27328">
        <ele>22.39999961853</ele>
        <time>2021-06-27T06:29:22.000Z</time>
      </trkpt>
      <trkpt lat="47.56817" lon="-2.27326">
        <ele>22.799999237061</ele>
        <time>2021-06-27T06:29:24.000Z</time>
      </trkpt>
      <trkpt lat="47.56815" lon="-2.27325">
        <ele>23.200000762939</ele>
        <time>2021-06-27T06:29:25.000Z</time>
      </trkpt>
      <trkpt lat="47.56812" lon="-2.27324">
        <ele>23.60000038147</ele>
        <time>2021-06-27T06:29:26.000Z</time>
      </trkpt>
      <trkpt lat="47.5681" lon="-2.27324">
        <ele>24</ele>
        <time>2021-06-27T06:29:27.000Z</time>
      </trkpt>
      <trkpt lat="47.56808" lon="-2.27323">
        <ele>24.60000038147</ele>
        <time>2021-06-27T06:29:28.000Z</time>
      </trkpt>
      <trkpt lat="47.56794" lon="-2.27321">
        <ele>24.60000038147</ele>
        <time>2021-06-27T06:29:34.000Z</time>
      </trkpt>
      <trkpt lat="47.56784" lon="-2.27315">
        <ele>25</ele>
        <time>2021-06-27T06:29:37.000Z</time>
      </trkpt>
      <trkpt lat="47.5678" lon="-2.27314">
        <ele>25.39999961853</ele>
        <time>2021-06-27T06:29:38.000Z</time>
      </trkpt>
      <trkpt lat="47.56777" lon="-2.27312">
        <ele>25.799999237061</ele>
        <time>2021-06-27T06:29:39.000Z</time>
      </trkpt>
      <trkpt lat="47.56774" lon="-2.27311">
        <ele>26.200000762939</ele>
        <time>2021-06-27T06:29:40.000Z</time>
      </trkpt>
      <trkpt lat="47.56771" lon="-2.27309">
        <ele>26.60000038147</ele>
        <time>2021-06-27T06:29:41.000Z</time>
      </trkpt>
      <trkpt lat="47.56761" lon="-2.27299">
        <ele>26.60000038147</ele>
        <time>2021-06-27T06:29:47.000Z</time>
      </trkpt>
      <trkpt lat="47.56758" lon="-2.27295">
        <ele>27</ele>
        <time>2021-06-27T06:29:49.000Z</time>
      </trkpt>
      <trkpt lat="47.56758" lon="-2.27292">
        <ele>27.39999961853</ele>
        <time>2021-06-27T06:29:50.000Z</time>
      </trkpt>
      <trkpt lat="47.56757" lon="-2.27289">
        <ele>28</ele>
        <time>2021-06-27T06:29:51.000Z</time>
      </trkpt>
      <trkpt lat="47.56756" lon="-2.27287">
        <ele>28.39999961853</ele>
        <time>2021-06-27T06:29:52.000Z</time>
      </trkpt>
      <trkpt lat="47.56755" lon="-2.27284">
        <ele>28.799999237061</ele>
        <time>2021-06-27T06:29:53.000Z</time>
      </trkpt>
      <trkpt lat="47.56751" lon="-2.27271">
        <ele>29.60000038147</ele>
        <time>2021-06-27T06:29:57.000Z</time>
      </trkpt>
      <trkpt lat="47.56751" lon="-2.27268">
        <ele>30</ele>
        <time>2021-06-27T06:29:58.000Z</time>
      </trkpt>
      <trkpt lat="47.5675" lon="-2.27265">
        <ele>30.39999961853</ele>
        <time>2021-06-27T06:29:59.000Z</time>
      </trkpt>
      <trkpt lat="47.56749" lon="-2.27262">
        <ele>30.799999237061</ele>
        <time>2021-06-27T06:30:00.000Z</time>
      </trkpt>
      <trkpt lat="47.56748" lon="-2.27255">
        <ele>30.799999237061</ele>
        <time>2021-06-27T06:30:03.000Z</time>
      </trkpt>
      <trkpt lat="47.56741" lon="-2.27225">
        <ele>30.799999237061</ele>
        <time>2021-06-27T06:30:12.000Z</time>
      </trkpt>
      <trkpt lat="47.56736" lon="-2.272">
        <ele>30.799999237061</ele>
        <time>2021-06-27T06:30:17.000Z</time>
      </trkpt>
      <trkpt lat="47.56729" lon="-2.27163">
        <ele>30.799999237061</ele>
        <time>2021-06-27T06:30:23.000Z</time>
      </trkpt>
      <trkpt lat="47.56721" lon="-2.27128">
        <ele>30.799999237061</ele>
        <time>2021-06-27T06:30:29.000Z</time>
      </trkpt>
      <trkpt lat="47.5672" lon="-2.27123">
        <ele>31.200000762939</ele>
        <time>2021-06-27T06:30:30.000Z</time>
      </trkpt>
      <trkpt lat="47.56719" lon="-2.27117">
        <ele>31.60000038147</ele>
        <time>2021-06-27T06:30:31.000Z</time>
      </trkpt>
      <trkpt lat="47.56717" lon="-2.27112">
        <ele>32.200000762939</ele>
        <time>2021-06-27T06:30:32.000Z</time>
      </trkpt>
      <trkpt lat="47.56717" lon="-2.27096">
        <ele>32.599998474121</ele>
        <time>2021-06-27T06:30:33.000Z</time>
      </trkpt>
      <trkpt lat="47.56716" lon="-2.2709">
        <ele>33</ele>
        <time>2021-06-27T06:30:34.000Z</time>
      </trkpt>
      <trkpt lat="47.56714" lon="-2.27079">
        <ele>33</ele>
        <time>2021-06-27T06:30:36.000Z</time>
      </trkpt>
      <trkpt lat="47.5671" lon="-2.27057">
        <ele>33.400001525879</ele>
        <time>2021-06-27T06:30:41.000Z</time>
      </trkpt>
      <trkpt lat="47.56709" lon="-2.27053">
        <ele>33.799999237061</ele>
        <time>2021-06-27T06:30:42.000Z</time>
      </trkpt>
      <trkpt lat="47.56708" lon="-2.27049">
        <ele>34.200000762939</ele>
        <time>2021-06-27T06:30:43.000Z</time>
      </trkpt>
      <trkpt lat="47.56707" lon="-2.27045">
        <ele>34.599998474121</ele>
        <time>2021-06-27T06:30:44.000Z</time>
      </trkpt>
      <trkpt lat="47.56706" lon="-2.2704">
        <ele>35</ele>
        <time>2021-06-27T06:30:45.000Z</time>
      </trkpt>
      <trkpt lat="47.56702" lon="-2.27019">
        <ele>35.400001525879</ele>
        <time>2021-06-27T06:30:50.000Z</time>
      </trkpt>
      <trkpt lat="47.56702" lon="-2.27015">
        <ele>35.799999237061</ele>
        <time>2021-06-27T06:30:51.000Z</time>
      </trkpt>
      <trkpt lat="47.56701" lon="-2.2701">
        <ele>36.400001525879</ele>
        <time>2021-06-27T06:30:52.000Z</time>
      </trkpt>
      <trkpt lat="47.567" lon="-2.27005">
        <ele>36.799999237061</ele>
        <time>2021-06-27T06:30:53.000Z</time>
      </trkpt>
      <trkpt lat="47.56699" lon="-2.27001">
        <ele>37.200000762939</ele>
        <time>2021-06-27T06:30:54.000Z</time>
      </trkpt>
      <trkpt lat="47.56693" lon="-2.26971">
        <ele>37.200000762939</ele>
        <time>2021-06-27T06:31:01.000Z</time>
      </trkpt>
      <trkpt lat="47.56688" lon="-2.26946">
        <ele>37.599998474121</ele>
        <time>2021-06-27T06:31:07.000Z</time>
      </trkpt>
      <trkpt lat="47.56687" lon="-2.26942">
        <ele>38</ele>
        <time>2021-06-27T06:31:08.000Z</time>
      </trkpt>
      <trkpt lat="47.56687" lon="-2.26938">
        <ele>38.400001525879</ele>
        <time>2021-06-27T06:31:09.000Z</time>
      </trkpt>
      <trkpt lat="47.56686" lon="-2.26934">
        <ele>38.799999237061</ele>
        <time>2021-06-27T06:31:10.000Z</time>
      </trkpt>
      <trkpt lat="47.56685" lon="-2.2693">
        <ele>39.400001525879</ele>
        <time>2021-06-27T06:31:11.000Z</time>
      </trkpt>
      <trkpt lat="47.56678" lon="-2.26896">
        <ele>39.400001525879</ele>
        <time>2021-06-27T06:31:19.000Z</time>
      </trkpt>
      <trkpt lat="47.5667" lon="-2.2686">
        <ele>39.400001525879</ele>
        <time>2021-06-27T06:31:27.000Z</time>
      </trkpt>
      <trkpt lat="47.56664" lon="-2.26824">
        <ele>39.400001525879</ele>
        <time>2021-06-27T06:31:35.000Z</time>
      </trkpt>
      <trkpt lat="47.56673" lon="-2.26817">
        <ele>39.400001525879</ele>
        <time>2021-06-27T06:31:39.000Z</time>
      </trkpt>
      <trkpt lat="47.56677" lon="-2.26818">
        <ele>39.400001525879</ele>
        <time>2021-06-27T06:31:40.000Z</time>
      </trkpt>
      <trkpt lat="47.56686" lon="-2.26819">
        <ele>39.400001525879</ele>
        <time>2021-06-27T06:31:42.000Z</time>
      </trkpt>
      <trkpt lat="47.56695" lon="-2.26821">
        <ele>39.400001525879</ele>
        <time>2021-06-27T06:31:44.000Z</time>
      </trkpt>
      <trkpt lat="47.56736" lon="-2.26826">
        <ele>39.400001525879</ele>
        <time>2021-06-27T06:31:53.000Z</time>
      </trkpt>
      <trkpt lat="47.56775" lon="-2.26831">
        <ele>39.400001525879</ele>
        <time>2021-06-27T06:32:02.000Z</time>
      </trkpt>
      <trkpt lat="47.56789" lon="-2.2683">
        <ele>39</ele>
        <time>2021-06-27T06:32:05.000Z</time>
      </trkpt>
      <trkpt lat="47.56793" lon="-2.2683">
        <ele>38.400001525879</ele>
        <time>2021-06-27T06:32:06.000Z</time>
      </trkpt>
      <trkpt lat="47.56797" lon="-2.2683">
        <ele>38</ele>
        <time>2021-06-27T06:32:07.000Z</time>
      </trkpt>
      <trkpt lat="47.56801" lon="-2.2683">
        <ele>37.599998474121</ele>
        <time>2021-06-27T06:32:08.000Z</time>
      </trkpt>
      <trkpt lat="47.56805" lon="-2.2683">
        <ele>37.200000762939</ele>
        <time>2021-06-27T06:32:09.000Z</time>
      </trkpt>
      <trkpt lat="47.56809" lon="-2.2683">
        <ele>37.200000762939</ele>
        <time>2021-06-27T06:32:10.000Z</time>
      </trkpt>
      <trkpt lat="47.56817" lon="-2.2683">
        <ele>36.799999237061</ele>
        <time>2021-06-27T06:32:12.000Z</time>
      </trkpt>
      <trkpt lat="47.56822" lon="-2.26831">
        <ele>36.400001525879</ele>
        <time>2021-06-27T06:32:13.000Z</time>
      </trkpt>
      <trkpt lat="47.56828" lon="-2.26831">
        <ele>36</ele>
        <time>2021-06-27T06:32:14.000Z</time>
      </trkpt>
      <trkpt lat="47.56833" lon="-2.26832">
        <ele>35.599998474121</ele>
        <time>2021-06-27T06:32:15.000Z</time>
      </trkpt>
      <trkpt lat="47.56839" lon="-2.26833">
        <ele>34.799999237061</ele>
        <time>2021-06-27T06:32:16.000Z</time>
      </trkpt>
      <trkpt lat="47.56845" lon="-2.26834">
        <ele>34.200000762939</ele>
        <time>2021-06-27T06:32:17.000Z</time>
      </trkpt>
      <trkpt lat="47.56853" lon="-2.26835">
        <ele>33.599998474121</ele>
        <time>2021-06-27T06:32:18.000Z</time>
      </trkpt>
      <trkpt lat="47.56863" lon="-2.26837">
        <ele>32.799999237061</ele>
        <time>2021-06-27T06:32:19.000Z</time>
      </trkpt>
      <trkpt lat="47.56874" lon="-2.26838">
        <ele>32</ele>
        <time>2021-06-27T06:32:20.000Z</time>
      </trkpt>
      <trkpt lat="47.56883" lon="-2.26839">
        <ele>31.200000762939</ele>
        <time>2021-06-27T06:32:21.000Z</time>
      </trkpt>
      <trkpt lat="47.56891" lon="-2.26839">
        <ele>30.200000762939</ele>
        <time>2021-06-27T06:32:22.000Z</time>
      </trkpt>
      <trkpt lat="47.56898" lon="-2.26837">
        <ele>29.200000762939</ele>
        <time>2021-06-27T06:32:23.000Z</time>
      </trkpt>
      <trkpt lat="47.56905" lon="-2.26834">
        <ele>28.39999961853</ele>
        <time>2021-06-27T06:32:24.000Z</time>
      </trkpt>
      <trkpt lat="47.56911" lon="-2.26829">
        <ele>26.60000038147</ele>
        <time>2021-06-27T06:32:25.000Z</time>
      </trkpt>
      <trkpt lat="47.56916" lon="-2.26825">
        <ele>25.60000038147</ele>
        <time>2021-06-27T06:32:26.000Z</time>
      </trkpt>
      <trkpt lat="47.56919" lon="-2.2682">
        <ele>24.799999237061</ele>
        <time>2021-06-27T06:32:27.000Z</time>
      </trkpt>
      <trkpt lat="47.56922" lon="-2.26807">
        <ele>24.799999237061</ele>
        <time>2021-06-27T06:32:29.000Z</time>
      </trkpt>
      <trkpt lat="47.56924" lon="-2.26797">
        <ele>24.799999237061</ele>
        <time>2021-06-27T06:32:31.000Z</time>
      </trkpt>
      <trkpt lat="47.56926" lon="-2.26787">
        <ele>25.200000762939</ele>
        <time>2021-06-27T06:32:34.000Z</time>
      </trkpt>
      <trkpt lat="47.56927" lon="-2.26786">
        <ele>25.799999237061</ele>
        <time>2021-06-27T06:32:35.000Z</time>
      </trkpt>
      <trkpt lat="47.56928" lon="-2.26785">
        <ele>26.200000762939</ele>
        <time>2021-06-27T06:32:36.000Z</time>
      </trkpt>
      <trkpt lat="47.56928" lon="-2.26786">
        <ele>26.60000038147</ele>
        <time>2021-06-27T06:32:37.000Z</time>
      </trkpt>
      <trkpt lat="47.56929" lon="-2.26789">
        <ele>27.200000762939</ele>
        <time>2021-06-27T06:32:38.000Z</time>
      </trkpt>
      <trkpt lat="47.56929" lon="-2.26793">
        <ele>27.200000762939</ele>
        <time>2021-06-27T06:32:39.000Z</time>
      </trkpt>
      <trkpt lat="47.56929" lon="-2.26826">
        <ele>27.200000762939</ele>
        <time>2021-06-27T06:32:45.000Z</time>
      </trkpt>
      <trkpt lat="47.5693" lon="-2.26833">
        <ele>27.200000762939</ele>
        <time>2021-06-27T06:32:46.000Z</time>
      </trkpt>
      <trkpt lat="47.56936" lon="-2.26855">
        <ele>27.200000762939</ele>
        <time>2021-06-27T06:32:49.000Z</time>
      </trkpt>
      <trkpt lat="47.5694" lon="-2.26867">
        <ele>27.200000762939</ele>
        <time>2021-06-27T06:32:51.000Z</time>
      </trkpt>
      <trkpt lat="47.5695" lon="-2.26891">
        <ele>27.200000762939</ele>
        <time>2021-06-27T06:32:55.000Z</time>
      </trkpt>
      <trkpt lat="47.56974" lon="-2.26937">
        <ele>27.200000762939</ele>
        <time>2021-06-27T06:33:02.000Z</time>
      </trkpt>
      <trkpt lat="47.56986" lon="-2.26955">
        <ele>27.200000762939</ele>
        <time>2021-06-27T06:33:05.000Z</time>
      </trkpt>
      <trkpt lat="47.56996" lon="-2.26965">
        <ele>27.200000762939</ele>
        <time>2021-06-27T06:33:07.000Z</time>
      </trkpt>
      <trkpt lat="47.57007" lon="-2.26975">
        <ele>27.200000762939</ele>
        <time>2021-06-27T06:33:09.000Z</time>
      </trkpt>
      <trkpt lat="47.57025" lon="-2.26992">
        <ele>27.200000762939</ele>
        <time>2021-06-27T06:33:13.000Z</time>
      </trkpt>
      <trkpt lat="47.57049" lon="-2.27016">
        <ele>27.200000762939</ele>
        <time>2021-06-27T06:33:19.000Z</time>
      </trkpt>
      <trkpt lat="47.57068" lon="-2.27035">
        <ele>27.200000762939</ele>
        <time>2021-06-27T06:33:24.000Z</time>
      </trkpt>
      <trkpt lat="47.57075" lon="-2.27041">
        <ele>27.200000762939</ele>
        <time>2021-06-27T06:33:26.000Z</time>
      </trkpt>
      <trkpt lat="47.57107" lon="-2.27068">
        <ele>27.200000762939</ele>
        <time>2021-06-27T06:33:33.000Z</time>
      </trkpt>
      <trkpt lat="47.57128" lon="-2.27084">
        <ele>26.60000038147</ele>
        <time>2021-06-27T06:33:38.000Z</time>
      </trkpt>
      <trkpt lat="47.57132" lon="-2.27086">
        <ele>25.799999237061</ele>
        <time>2021-06-27T06:33:39.000Z</time>
      </trkpt>
      <trkpt lat="47.57137" lon="-2.27089">
        <ele>25.39999961853</ele>
        <time>2021-06-27T06:33:40.000Z</time>
      </trkpt>
      <trkpt lat="47.57142" lon="-2.27092">
        <ele>25</ele>
        <time>2021-06-27T06:33:41.000Z</time>
      </trkpt>
      <trkpt lat="47.57146" lon="-2.27094">
        <ele>24.60000038147</ele>
        <time>2021-06-27T06:33:42.000Z</time>
      </trkpt>
      <trkpt lat="47.57151" lon="-2.27097">
        <ele>24</ele>
        <time>2021-06-27T06:33:43.000Z</time>
      </trkpt>
      <trkpt lat="47.57156" lon="-2.27099">
        <ele>23.60000038147</ele>
        <time>2021-06-27T06:33:44.000Z</time>
      </trkpt>
      <trkpt lat="47.5716" lon="-2.27102">
        <ele>23</ele>
        <time>2021-06-27T06:33:45.000Z</time>
      </trkpt>
      <trkpt lat="47.57165" lon="-2.27105">
        <ele>22.39999961853</ele>
        <time>2021-06-27T06:33:46.000Z</time>
      </trkpt>
      <trkpt lat="47.57169" lon="-2.2711">
        <ele>22</ele>
        <time>2021-06-27T06:33:47.000Z</time>
      </trkpt>
      <trkpt lat="47.57174" lon="-2.27118">
        <ele>21.39999961853</ele>
        <time>2021-06-27T06:33:48.000Z</time>
      </trkpt>
      <trkpt lat="47.57178" lon="-2.27125">
        <ele>20.799999237061</ele>
        <time>2021-06-27T06:33:49.000Z</time>
      </trkpt>
      <trkpt lat="47.57181" lon="-2.27133">
        <ele>20.39999961853</ele>
        <time>2021-06-27T06:33:50.000Z</time>
      </trkpt>
      <trkpt lat="47.57183" lon="-2.27141">
        <ele>20.39999961853</ele>
        <time>2021-06-27T06:33:51.000Z</time>
      </trkpt>
      <trkpt lat="47.57184" lon="-2.27151">
        <ele>20</ele>
        <time>2021-06-27T06:33:52.000Z</time>
      </trkpt>
      <trkpt lat="47.57184" lon="-2.27161">
        <ele>19.39999961853</ele>
        <time>2021-06-27T06:33:53.000Z</time>
      </trkpt>
      <trkpt lat="47.57185" lon="-2.27171">
        <ele>19</ele>
        <time>2021-06-27T06:33:54.000Z</time>
      </trkpt>
      <trkpt lat="47.57185" lon="-2.27182">
        <ele>18.60000038147</ele>
        <time>2021-06-27T06:33:55.000Z</time>
      </trkpt>
      <trkpt lat="47.57186" lon="-2.27193">
        <ele>18.200000762939</ele>
        <time>2021-06-27T06:33:56.000Z</time>
      </trkpt>
      <trkpt lat="47.57187" lon="-2.27203">
        <ele>18.200000762939</ele>
        <time>2021-06-27T06:33:57.000Z</time>
      </trkpt>
      <trkpt lat="47.57188" lon="-2.27212">
        <ele>17.799999237061</ele>
        <time>2021-06-27T06:33:58.000Z</time>
      </trkpt>
      <trkpt lat="47.57189" lon="-2.27222">
        <ele>17.39999961853</ele>
        <time>2021-06-27T06:33:59.000Z</time>
      </trkpt>
      <trkpt lat="47.57189" lon="-2.2723">
        <ele>17</ele>
        <time>2021-06-27T06:34:00.000Z</time>
      </trkpt>
      <trkpt lat="47.57189" lon="-2.27239">
        <ele>16.60000038147</ele>
        <time>2021-06-27T06:34:01.000Z</time>
      </trkpt>
      <trkpt lat="47.5719" lon="-2.27247">
        <ele>16.200000762939</ele>
        <time>2021-06-27T06:34:02.000Z</time>
      </trkpt>
      <trkpt lat="47.5719" lon="-2.27274">
        <ele>16.200000762939</ele>
        <time>2021-06-27T06:34:06.000Z</time>
      </trkpt>
      <trkpt lat="47.57194" lon="-2.27313">
        <ele>16.200000762939</ele>
        <time>2021-06-27T06:34:12.000Z</time>
      </trkpt>
      <trkpt lat="47.57194" lon="-2.2732">
        <ele>16.200000762939</ele>
        <time>2021-06-27T06:34:13.000Z</time>
      </trkpt>
      <trkpt lat="47.57196" lon="-2.27359">
        <ele>16.200000762939</ele>
        <time>2021-06-27T06:34:18.000Z</time>
      </trkpt>
      <trkpt lat="47.57199" lon="-2.27423">
        <ele>15.60000038147</ele>
        <time>2021-06-27T06:34:25.000Z</time>
      </trkpt>
      <trkpt lat="47.572" lon="-2.27432">
        <ele>15.199999809265</ele>
        <time>2021-06-27T06:34:26.000Z</time>
      </trkpt>
      <trkpt lat="47.57201" lon="-2.27442">
        <ele>14.60000038147</ele>
        <time>2021-06-27T06:34:27.000Z</time>
      </trkpt>
      <trkpt lat="47.57201" lon="-2.27452">
        <ele>14.199999809265</ele>
        <time>2021-06-27T06:34:28.000Z</time>
      </trkpt>
      <trkpt lat="47.57202" lon="-2.27463">
        <ele>13</ele>
        <time>2021-06-27T06:34:29.000Z</time>
      </trkpt>
      <trkpt lat="47.57202" lon="-2.27474">
        <ele>12.39999961853</ele>
        <time>2021-06-27T06:34:30.000Z</time>
      </trkpt>
      <trkpt lat="47.57202" lon="-2.27485">
        <ele>11.800000190735</ele>
        <time>2021-06-27T06:34:31.000Z</time>
      </trkpt>
      <trkpt lat="47.57203" lon="-2.27497">
        <ele>11.199999809265</ele>
        <time>2021-06-27T06:34:32.000Z</time>
      </trkpt>
      <trkpt lat="47.57205" lon="-2.27542">
        <ele>10.60000038147</ele>
        <time>2021-06-27T06:34:36.000Z</time>
      </trkpt>
      <trkpt lat="47.57206" lon="-2.27552">
        <ele>10.199999809265</ele>
        <time>2021-06-27T06:34:37.000Z</time>
      </trkpt>
      <trkpt lat="47.57206" lon="-2.27563">
        <ele>9.8000001907349</ele>
        <time>2021-06-27T06:34:38.000Z</time>
      </trkpt>
      <trkpt lat="47.57206" lon="-2.27574">
        <ele>9.1999998092651</ele>
        <time>2021-06-27T06:34:39.000Z</time>
      </trkpt>
      <trkpt lat="47.57207" lon="-2.27583">
        <ele>8.8000001907349</ele>
        <time>2021-06-27T06:34:40.000Z</time>
      </trkpt>
      <trkpt lat="47.5721" lon="-2.27609">
        <ele>8.8000001907349</ele>
        <time>2021-06-27T06:34:43.000Z</time>
      </trkpt>
      <trkpt lat="47.57223" lon="-2.27668">
        <ele>8.8000001907349</ele>
        <time>2021-06-27T06:34:50.000Z</time>
      </trkpt>
      <trkpt lat="47.5723" lon="-2.27701">
        <ele>8.8000001907349</ele>
        <time>2021-06-27T06:34:54.000Z</time>
      </trkpt>
      <trkpt lat="47.57234" lon="-2.27717">
        <ele>8.8000001907349</ele>
        <time>2021-06-27T06:34:56.000Z</time>
      </trkpt>
      <trkpt lat="47.57243" lon="-2.2775">
        <ele>8.3999996185303</ele>
        <time>2021-06-27T06:35:00.000Z</time>
      </trkpt>
      <trkpt lat="47.57245" lon="-2.27759">
        <ele>8</ele>
        <time>2021-06-27T06:35:01.000Z</time>
      </trkpt>
      <trkpt lat="47.57247" lon="-2.27769">
        <ele>7.5999999046326</ele>
        <time>2021-06-27T06:35:02.000Z</time>
      </trkpt>
      <trkpt lat="47.57249" lon="-2.27779">
        <ele>7</ele>
        <time>2021-06-27T06:35:03.000Z</time>
      </trkpt>
      <trkpt lat="47.5725" lon="-2.27789">
        <ele>6.5999999046326</ele>
        <time>2021-06-27T06:35:04.000Z</time>
      </trkpt>
      <trkpt lat="47.57254" lon="-2.27805">
        <ele>6.5999999046326</ele>
        <time>2021-06-27T06:35:06.000Z</time>
      </trkpt>
      <trkpt lat="47.5726" lon="-2.27825">
        <ele>6.5999999046326</ele>
        <time>2021-06-27T06:35:09.000Z</time>
      </trkpt>
      <trkpt lat="47.57263" lon="-2.27835">
        <ele>6.5999999046326</ele>
        <time>2021-06-27T06:35:11.000Z</time>
      </trkpt>
      <trkpt lat="47.57268" lon="-2.27855">
        <ele>6.5999999046326</ele>
        <time>2021-06-27T06:35:17.000Z</time>
      </trkpt>
      <trkpt lat="47.5727" lon="-2.27857">
        <ele>6.5999999046326</ele>
        <time>2021-06-27T06:35:18.000Z</time>
      </trkpt>
      <trkpt lat="47.57275" lon="-2.2786">
        <ele>6.5999999046326</ele>
        <time>2021-06-27T06:35:21.000Z</time>
      </trkpt>
      <trkpt lat="47.57277" lon="-2.27861">
        <ele>6.5999999046326</ele>
        <time>2021-06-27T06:35:22.000Z</time>
      </trkpt>
      <trkpt lat="47.57278" lon="-2.27861">
        <ele>7</ele>
        <time>2021-06-27T06:35:23.000Z</time>
      </trkpt>
      <trkpt lat="47.5728" lon="-2.27861">
        <ele>7.4000000953674</ele>
        <time>2021-06-27T06:35:24.000Z</time>
      </trkpt>
      <trkpt lat="47.57282" lon="-2.2786">
        <ele>8</ele>
        <time>2021-06-27T06:35:25.000Z</time>
      </trkpt>
      <trkpt lat="47.57284" lon="-2.27858">
        <ele>8.3999996185303</ele>
        <time>2021-06-27T06:35:26.000Z</time>
      </trkpt>
      <trkpt lat="47.57285" lon="-2.27857">
        <ele>8.8000001907349</ele>
        <time>2021-06-27T06:35:27.000Z</time>
      </trkpt>
      <trkpt lat="47.57287" lon="-2.27855">
        <ele>8.8000001907349</ele>
        <time>2021-06-27T06:35:28.000Z</time>
      </trkpt>
      <trkpt lat="47.57289" lon="-2.2785">
        <ele>8.8000001907349</ele>
        <time>2021-06-27T06:35:30.000Z</time>
      </trkpt>
      <trkpt lat="47.57292" lon="-2.27844">
        <ele>8.8000001907349</ele>
        <time>2021-06-27T06:35:33.000Z</time>
      </trkpt>
      <trkpt lat="47.57293" lon="-2.27843">
        <ele>8.8000001907349</ele>
        <time>2021-06-27T06:35:34.000Z</time>
      </trkpt>
      <trkpt lat="47.57301" lon="-2.27841">
        <ele>8.8000001907349</ele>
        <time>2021-06-27T06:35:39.000Z</time>
      </trkpt>
      <trkpt lat="47.57318" lon="-2.27838">
        <ele>8.8000001907349</ele>
        <time>2021-06-27T06:35:45.000Z</time>
      </trkpt>
      <trkpt lat="47.57332" lon="-2.27837">
        <ele>8.8000001907349</ele>
        <time>2021-06-27T06:35:51.000Z</time>
      </trkpt>
      <trkpt lat="47.57344" lon="-2.27843">
        <ele>8.8000001907349</ele>
        <time>2021-06-27T06:35:56.000Z</time>
      </trkpt>
      <trkpt lat="47.57367" lon="-2.27852">
        <ele>8.8000001907349</ele>
        <time>2021-06-27T06:36:01.000Z</time>
      </trkpt>
      <trkpt lat="47.57373" lon="-2.27848">
        <ele>8.3999996185303</ele>
        <time>2021-06-27T06:36:03.000Z</time>
      </trkpt>
      <trkpt lat="47.57375" lon="-2.27844">
        <ele>8</ele>
        <time>2021-06-27T06:36:04.000Z</time>
      </trkpt>
      <trkpt lat="47.57376" lon="-2.27842">
        <ele>7.5999999046326</ele>
        <time>2021-06-27T06:36:05.000Z</time>
      </trkpt>
      <trkpt lat="47.57378" lon="-2.27838">
        <ele>7</ele>
        <time>2021-06-27T06:36:06.000Z</time>
      </trkpt>
      <trkpt lat="47.57379" lon="-2.27835">
        <ele>6.5999999046326</ele>
        <time>2021-06-27T06:36:07.000Z</time>
      </trkpt>
      <trkpt lat="47.5738" lon="-2.2783">
        <ele>6.5999999046326</ele>
        <time>2021-06-27T06:36:09.000Z</time>
      </trkpt>
      <trkpt lat="47.57381" lon="-2.27823">
        <ele>7</ele>
        <time>2021-06-27T06:36:11.000Z</time>
      </trkpt>
      <trkpt lat="47.57381" lon="-2.27819">
        <ele>7.5999999046326</ele>
        <time>2021-06-27T06:36:12.000Z</time>
      </trkpt>
      <trkpt lat="47.57381" lon="-2.27817">
        <ele>8</ele>
        <time>2021-06-27T06:36:13.000Z</time>
      </trkpt>
      <trkpt lat="47.57381" lon="-2.27815">
        <ele>8.3999996185303</ele>
        <time>2021-06-27T06:36:14.000Z</time>
      </trkpt>
      <trkpt lat="47.5738" lon="-2.27811">
        <ele>8.8000001907349</ele>
        <time>2021-06-27T06:36:15.000Z</time>
      </trkpt>
      <trkpt lat="47.57379" lon="-2.27807">
        <ele>8.8000001907349</ele>
        <time>2021-06-27T06:36:16.000Z</time>
      </trkpt>
      <trkpt lat="47.57382" lon="-2.27785">
        <ele>8.8000001907349</ele>
        <time>2021-06-27T06:36:21.000Z</time>
      </trkpt>
      <trkpt lat="47.57382" lon="-2.27779">
        <ele>9.1999998092651</ele>
        <time>2021-06-27T06:36:22.000Z</time>
      </trkpt>
      <trkpt lat="47.57382" lon="-2.27773">
        <ele>9.6000003814697</ele>
        <time>2021-06-27T06:36:23.000Z</time>
      </trkpt>
      <trkpt lat="47.57382" lon="-2.27768">
        <ele>10.199999809265</ele>
        <time>2021-06-27T06:36:24.000Z</time>
      </trkpt>
      <trkpt lat="47.57383" lon="-2.27764">
        <ele>10.60000038147</ele>
        <time>2021-06-27T06:36:25.000Z</time>
      </trkpt>
      <trkpt lat="47.57385" lon="-2.2776">
        <ele>11</ele>
        <time>2021-06-27T06:36:26.000Z</time>
      </trkpt>
      <trkpt lat="47.57387" lon="-2.27754">
        <ele>11</ele>
        <time>2021-06-27T06:36:28.000Z</time>
      </trkpt>
      <trkpt lat="47.57387" lon="-2.27746">
        <ele>11</ele>
        <time>2021-06-27T06:36:31.000Z</time>
      </trkpt>
      <trkpt lat="47.57388" lon="-2.27743">
        <ele>11</ele>
        <time>2021-06-27T06:36:33.000Z</time>
      </trkpt>
      <trkpt lat="47.57397" lon="-2.27735">
        <ele>11</ele>
        <time>2021-06-27T06:36:37.000Z</time>
      </trkpt>
      <trkpt lat="47.57403" lon="-2.27729">
        <ele>11</ele>
        <time>2021-06-27T06:36:42.000Z</time>
      </trkpt>
      <trkpt lat="47.57404" lon="-2.27727">
        <ele>11</ele>
        <time>2021-06-27T06:36:45.000Z</time>
      </trkpt>
      <trkpt lat="47.57407" lon="-2.27716">
        <ele>10.39999961853</ele>
        <time>2021-06-27T06:36:52.000Z</time>
      </trkpt>
      <trkpt lat="47.57407" lon="-2.27713">
        <ele>9.8000001907349</ele>
        <time>2021-06-27T06:36:53.000Z</time>
      </trkpt>
      <trkpt lat="47.57406" lon="-2.27709">
        <ele>9.3999996185303</ele>
        <time>2021-06-27T06:36:54.000Z</time>
      </trkpt>
      <trkpt lat="47.57404" lon="-2.27707">
        <ele>8.8000001907349</ele>
        <time>2021-06-27T06:36:55.000Z</time>
      </trkpt>
      <trkpt lat="47.57405" lon="-2.27704">
        <ele>8.3999996185303</ele>
        <time>2021-06-27T06:36:56.000Z</time>
      </trkpt>
      <trkpt lat="47.57405" lon="-2.27701">
        <ele>8.3999996185303</ele>
        <time>2021-06-27T06:36:57.000Z</time>
      </trkpt>
      <trkpt lat="47.57407" lon="-2.27669">
        <ele>8.3999996185303</ele>
        <time>2021-06-27T06:37:04.000Z</time>
      </trkpt>
      <trkpt lat="47.57407" lon="-2.27649">
        <ele>8.3999996185303</ele>
        <time>2021-06-27T06:37:08.000Z</time>
      </trkpt>
      <trkpt lat="47.57409" lon="-2.27637">
        <ele>8.3999996185303</ele>
        <time>2021-06-27T06:37:10.000Z</time>
      </trkpt>
      <trkpt lat="47.57413" lon="-2.27629">
        <ele>8.3999996185303</ele>
        <time>2021-06-27T06:37:12.000Z</time>
      </trkpt>
      <trkpt lat="47.57417" lon="-2.27626">
        <ele>8.3999996185303</ele>
        <time>2021-06-27T06:37:14.000Z</time>
      </trkpt>
      <trkpt lat="47.57424" lon="-2.27612">
        <ele>8.3999996185303</ele>
        <time>2021-06-27T06:37:19.000Z</time>
      </trkpt>
      <trkpt lat="47.57425" lon="-2.27609">
        <ele>8.3999996185303</ele>
        <time>2021-06-27T06:37:20.000Z</time>
      </trkpt>
      <trkpt lat="47.57425" lon="-2.27601">
        <ele>8.3999996185303</ele>
        <time>2021-06-27T06:37:24.000Z</time>
      </trkpt>
      <trkpt lat="47.57427" lon="-2.27598">
        <ele>8</ele>
        <time>2021-06-27T06:37:26.000Z</time>
      </trkpt>
      <trkpt lat="47.57427" lon="-2.27597">
        <ele>7.4000000953674</ele>
        <time>2021-06-27T06:37:27.000Z</time>
      </trkpt>
      <trkpt lat="47.57427" lon="-2.27596">
        <ele>7</ele>
        <time>2021-06-27T06:37:28.000Z</time>
      </trkpt>
      <trkpt lat="47.57427" lon="-2.27593">
        <ele>6.5999999046326</ele>
        <time>2021-06-27T06:37:29.000Z</time>
      </trkpt>
      <trkpt lat="47.57426" lon="-2.27589">
        <ele>6.1999998092651</ele>
        <time>2021-06-27T06:37:30.000Z</time>
      </trkpt>
      <trkpt lat="47.57421" lon="-2.27573">
        <ele>5.8000001907349</ele>
        <time>2021-06-27T06:37:34.000Z</time>
      </trkpt>
      <trkpt lat="47.57419" lon="-2.27571">
        <ele>5.4000000953674</ele>
        <time>2021-06-27T06:37:35.000Z</time>
      </trkpt>
      <trkpt lat="47.57416" lon="-2.27569">
        <ele>4.8000001907349</ele>
        <time>2021-06-27T06:37:36.000Z</time>
      </trkpt>
      <trkpt lat="47.57413" lon="-2.27567">
        <ele>4.4000000953674</ele>
        <time>2021-06-27T06:37:37.000Z</time>
      </trkpt>
      <trkpt lat="47.57411" lon="-2.27566">
        <ele>4</ele>
        <time>2021-06-27T06:37:38.000Z</time>
      </trkpt>
      <trkpt lat="47.57403" lon="-2.27562">
        <ele>4</ele>
        <time>2021-06-27T06:37:41.000Z</time>
      </trkpt>
      <trkpt lat="47.57393" lon="-2.27554">
        <ele>4</ele>
        <time>2021-06-27T06:37:48.000Z</time>
      </trkpt>
      <trkpt lat="47.5738" lon="-2.2754">
        <ele>4</ele>
        <time>2021-06-27T06:37:54.000Z</time>
      </trkpt>
      <trkpt lat="47.57376" lon="-2.27532">
        <ele>3.5999999046326</ele>
        <time>2021-06-27T06:37:56.000Z</time>
      </trkpt>
      <trkpt lat="47.57374" lon="-2.27528">
        <ele>3.2000000476837</ele>
        <time>2021-06-27T06:37:57.000Z</time>
      </trkpt>
      <trkpt lat="47.57372" lon="-2.27524">
        <ele>2.7999999523163</ele>
        <time>2021-06-27T06:37:58.000Z</time>
      </trkpt>
      <trkpt lat="47.5737" lon="-2.27521">
        <ele>2.4000000953674</ele>
        <time>2021-06-27T06:37:59.000Z</time>
      </trkpt>
      <trkpt lat="47.57369" lon="-2.27518">
        <ele>2</ele>
        <time>2021-06-27T06:38:00.000Z</time>
      </trkpt>
      <trkpt lat="47.57368" lon="-2.27512">
        <ele>1.6000000238419</ele>
        <time>2021-06-27T06:38:02.000Z</time>
      </trkpt>
      <trkpt lat="47.57367" lon="-2.27508">
        <ele>1.2000000476837</ele>
        <time>2021-06-27T06:38:03.000Z</time>
      </trkpt>
      <trkpt lat="47.57367" lon="-2.27503">
        <ele>0.60000002384186</ele>
        <time>2021-06-27T06:38:04.000Z</time>
      </trkpt>
      <trkpt lat="47.57367" lon="-2.27495">
        <ele>-0.40000000596046</ele>
        <time>2021-06-27T06:38:05.000Z</time>
      </trkpt>
      <trkpt lat="47.57368" lon="-2.27487">
        <ele>-1</ele>
        <time>2021-06-27T06:38:06.000Z</time>
      </trkpt>
      <trkpt lat="47.57365" lon="-2.27475">
        <ele>-1.6000000238419</ele>
        <time>2021-06-27T06:38:07.000Z</time>
      </trkpt>
      <trkpt lat="47.57364" lon="-2.27464">
        <ele>-2.4000000953674</ele>
        <time>2021-06-27T06:38:08.000Z</time>
      </trkpt>
      <trkpt lat="47.57362" lon="-2.27456">
        <ele>-3</ele>
        <time>2021-06-27T06:38:09.000Z</time>
      </trkpt>
      <trkpt lat="47.57362" lon="-2.27449">
        <ele>-3.5999999046326</ele>
        <time>2021-06-27T06:38:10.000Z</time>
      </trkpt>
      <trkpt lat="47.57362" lon="-2.27444">
        <ele>-4.1999998092651</ele>
        <time>2021-06-27T06:38:11.000Z</time>
      </trkpt>
      <trkpt lat="47.57362" lon="-2.27438">
        <ele>-4.5999999046326</ele>
        <time>2021-06-27T06:38:12.000Z</time>
      </trkpt>
      <trkpt lat="47.5736" lon="-2.27431">
        <ele>-5.1999998092651</ele>
        <time>2021-06-27T06:38:13.000Z</time>
      </trkpt>
      <trkpt lat="47.57362" lon="-2.27413">
        <ele>-5.1999998092651</ele>
        <time>2021-06-27T06:38:17.000Z</time>
      </trkpt>
      <trkpt lat="47.57368" lon="-2.27395">
        <ele>-5.1999998092651</ele>
        <time>2021-06-27T06:38:22.000Z</time>
      </trkpt>
      <trkpt lat="47.57369" lon="-2.27385">
        <ele>-5.1999998092651</ele>
        <time>2021-06-27T06:38:27.000Z</time>
      </trkpt>
      <trkpt lat="47.57371" lon="-2.27366">
        <ele>-5.1999998092651</ele>
        <time>2021-06-27T06:38:32.000Z</time>
      </trkpt>
      <trkpt lat="47.57371" lon="-2.27336">
        <ele>-5.1999998092651</ele>
        <time>2021-06-27T06:38:40.000Z</time>
      </trkpt>
      <trkpt lat="47.5737" lon="-2.27328">
        <ele>-5.8000001907349</ele>
        <time>2021-06-27T06:38:42.000Z</time>
      </trkpt>
      <trkpt lat="47.57369" lon="-2.27322">
        <ele>-6.4000000953674</ele>
        <time>2021-06-27T06:38:43.000Z</time>
      </trkpt>
      <trkpt lat="47.57371" lon="-2.27315">
        <ele>-6.8000001907349</ele>
        <time>2021-06-27T06:38:44.000Z</time>
      </trkpt>
      <trkpt lat="47.57371" lon="-2.27311">
        <ele>-7.4000000953674</ele>
        <time>2021-06-27T06:38:45.000Z</time>
      </trkpt>
      <trkpt lat="47.57372" lon="-2.27308">
        <ele>-8</ele>
        <time>2021-06-27T06:38:46.000Z</time>
      </trkpt>
      <trkpt lat="47.57371" lon="-2.27305">
        <ele>-8.3999996185303</ele>
        <time>2021-06-27T06:38:47.000Z</time>
      </trkpt>
      <trkpt lat="47.57371" lon="-2.27303">
        <ele>-9</ele>
        <time>2021-06-27T06:38:48.000Z</time>
      </trkpt>
      <trkpt lat="47.5737" lon="-2.27301">
        <ele>-9.3999996185303</ele>
        <time>2021-06-27T06:38:49.000Z</time>
      </trkpt>
      <trkpt lat="47.57369" lon="-2.273">
        <ele>-10</ele>
        <time>2021-06-27T06:38:50.000Z</time>
      </trkpt>
      <trkpt lat="47.57368" lon="-2.27298">
        <ele>-10</ele>
        <time>2021-06-27T06:38:51.000Z</time>
      </trkpt>
      <trkpt lat="47.57361" lon="-2.27285">
        <ele>-10</ele>
        <time>2021-06-27T06:38:57.000Z</time>
      </trkpt>
      <trkpt lat="47.57359" lon="-2.27283">
        <ele>-10</ele>
        <time>2021-06-27T06:38:58.000Z</time>
      </trkpt>
      <trkpt lat="47.57357" lon="-2.27279">
        <ele>-9.3999996185303</ele>
        <time>2021-06-27T06:39:00.000Z</time>
      </trkpt>
      <trkpt lat="47.57355" lon="-2.27277">
        <ele>-9</ele>
        <time>2021-06-27T06:39:01.000Z</time>
      </trkpt>
      <trkpt lat="47.57354" lon="-2.27274">
        <ele>-8.6000003814697</ele>
        <time>2021-06-27T06:39:02.000Z</time>
      </trkpt>
      <trkpt lat="47.57353" lon="-2.27272">
        <ele>-8</ele>
        <time>2021-06-27T06:39:03.000Z</time>
      </trkpt>
      <trkpt lat="47.57352" lon="-2.27271">
        <ele>-7.5999999046326</ele>
        <time>2021-06-27T06:39:04.000Z</time>
      </trkpt>
      <trkpt lat="47.57351" lon="-2.27269">
        <ele>-7.5999999046326</ele>
        <time>2021-06-27T06:39:05.000Z</time>
      </trkpt>
      <trkpt lat="47.57351" lon="-2.27268">
        <ele>-7.1999998092651</ele>
        <time>2021-06-27T06:39:06.000Z</time>
      </trkpt>
      <trkpt lat="47.57349" lon="-2.27266">
        <ele>-6.8000001907349</ele>
        <time>2021-06-27T06:39:07.000Z</time>
      </trkpt>
      <trkpt lat="47.57347" lon="-2.27264">
        <ele>-6.4000000953674</ele>
        <time>2021-06-27T06:39:08.000Z</time>
      </trkpt>
      <trkpt lat="47.57346" lon="-2.27263">
        <ele>-6</ele>
        <time>2021-06-27T06:39:09.000Z</time>
      </trkpt>
      <trkpt lat="47.57344" lon="-2.27257">
        <ele>-5.5999999046326</ele>
        <time>2021-06-27T06:39:10.000Z</time>
      </trkpt>
      <trkpt lat="47.57342" lon="-2.27249">
        <ele>-5.5999999046326</ele>
        <time>2021-06-27T06:39:12.000Z</time>
      </trkpt>
      <trkpt lat="47.57345" lon="-2.27243">
        <ele>-5.5999999046326</ele>
        <time>2021-06-27T06:39:17.000Z</time>
      </trkpt>
      <trkpt lat="47.57352" lon="-2.2724">
        <ele>-5.1999998092651</ele>
        <time>2021-06-27T06:39:20.000Z</time>
      </trkpt>
      <trkpt lat="47.57354" lon="-2.27239">
        <ele>-4.5999999046326</ele>
        <time>2021-06-27T06:39:21.000Z</time>
      </trkpt>
      <trkpt lat="47.57356" lon="-2.27237">
        <ele>-4.1999998092651</ele>
        <time>2021-06-27T06:39:22.000Z</time>
      </trkpt>
      <trkpt lat="47.57358" lon="-2.27235">
        <ele>-3.7999999523163</ele>
        <time>2021-06-27T06:39:23.000Z</time>
      </trkpt>
      <trkpt lat="47.5736" lon="-2.27233">
        <ele>-3.4000000953674</ele>
        <time>2021-06-27T06:39:24.000Z</time>
      </trkpt>
      <trkpt lat="47.57371" lon="-2.2723">
        <ele>-3.4000000953674</ele>
        <time>2021-06-27T06:39:30.000Z</time>
      </trkpt>
      <trkpt lat="47.57376" lon="-2.27224">
        <ele>-3.4000000953674</ele>
        <time>2021-06-27T06:39:34.000Z</time>
      </trkpt>
      <trkpt lat="47.57377" lon="-2.27222">
        <ele>-3.4000000953674</ele>
        <time>2021-06-27T06:39:35.000Z</time>
      </trkpt>
      <trkpt lat="47.57379" lon="-2.27215">
        <ele>-3</ele>
        <time>2021-06-27T06:39:39.000Z</time>
      </trkpt>
      <trkpt lat="47.5738" lon="-2.27212">
        <ele>-2.4000000953674</ele>
        <time>2021-06-27T06:39:40.000Z</time>
      </trkpt>
      <trkpt lat="47.57381" lon="-2.2721">
        <ele>-2</ele>
        <time>2021-06-27T06:39:41.000Z</time>
      </trkpt>
      <trkpt lat="47.57381" lon="-2.27207">
        <ele>-1.6000000238419</ele>
        <time>2021-06-27T06:39:42.000Z</time>
      </trkpt>
      <trkpt lat="47.5738" lon="-2.27205">
        <ele>-1.2000000476837</ele>
        <time>2021-06-27T06:39:43.000Z</time>
      </trkpt>
      <trkpt lat="47.57381" lon="-2.27203">
        <ele>-0.80000001192093</ele>
        <time>2021-06-27T06:39:44.000Z</time>
      </trkpt>
      <trkpt lat="47.57382" lon="-2.27198">
        <ele>-0.40000000596046</ele>
        <time>2021-06-27T06:39:45.000Z</time>
      </trkpt>
      <trkpt lat="47.57384" lon="-2.27193">
        <ele>15.3</ele>
        <time>2021-06-27T06:39:46.000Z</time>
      </trkpt>
      <trkpt lat="47.57385" lon="-2.2719">
        <ele>0.60000002384186</ele>
        <time>2021-06-27T06:39:47.000Z</time>
      </trkpt>
      <trkpt lat="47.57386" lon="-2.27187">
        <ele>1</ele>
        <time>2021-06-27T06:39:48.000Z</time>
      </trkpt>
      <trkpt lat="47.57389" lon="-2.27174">
        <ele>1</ele>
        <time>2021-06-27T06:39:53.000Z</time>
      </trkpt>
      <trkpt lat="47.5739" lon="-2.27156">
        <ele>1</ele>
        <time>2021-06-27T06:40:01.000Z</time>
      </trkpt>
      <trkpt lat="47.5739" lon="-2.27139">
        <ele>1</ele>
        <time>2021-06-27T06:40:07.000Z</time>
      </trkpt>
      <trkpt lat="47.57389" lon="-2.27137">
        <ele>1</ele>
        <time>2021-06-27T06:40:08.000Z</time>
      </trkpt>
      <trkpt lat="47.57386" lon="-2.27132">
        <ele>1.3999999761581</ele>
        <time>2021-06-27T06:40:11.000Z</time>
      </trkpt>
      <trkpt lat="47.57385" lon="-2.2713">
        <ele>1.7999999523163</ele>
        <time>2021-06-27T06:40:12.000Z</time>
      </trkpt>
      <trkpt lat="47.57384" lon="-2.27129">
        <ele>2.2000000476837</ele>
        <time>2021-06-27T06:40:13.000Z</time>
      </trkpt>
      <trkpt lat="47.57383" lon="-2.27128">
        <ele>2.5999999046326</ele>
        <time>2021-06-27T06:40:14.000Z</time>
      </trkpt>
      <trkpt lat="47.57383" lon="-2.27127">
        <ele>3</ele>
        <time>2021-06-27T06:40:15.000Z</time>
      </trkpt>
      <trkpt lat="47.57383" lon="-2.27126">
        <ele>3</ele>
        <time>2021-06-27T06:40:16.000Z</time>
      </trkpt>
      <trkpt lat="47.57374" lon="-2.27114">
        <ele>5.4000000953674</ele>
        <time>2021-06-27T06:40:25.000Z</time>
      </trkpt>
      <trkpt lat="47.57373" lon="-2.27109">
        <ele>5.4000000953674</ele>
        <time>2021-06-27T06:40:27.000Z</time>
      </trkpt>
      <trkpt lat="47.57368" lon="-2.27103">
        <ele>5.4000000953674</ele>
        <time>2021-06-27T06:40:33.000Z</time>
      </trkpt>
      <trkpt lat="47.57359" lon="-2.2709">
        <ele>5.4000000953674</ele>
        <time>2021-06-27T06:40:41.000Z</time>
      </trkpt>
      <trkpt lat="47.57356" lon="-2.27081">
        <ele>5.4000000953674</ele>
        <time>2021-06-27T06:40:44.000Z</time>
      </trkpt>
      <trkpt lat="47.57346" lon="-2.27064">
        <ele>5.4000000953674</ele>
        <time>2021-06-27T06:40:51.000Z</time>
      </trkpt>
      <trkpt lat="47.57336" lon="-2.27058">
        <ele>5.8000001907349</ele>
        <time>2021-06-27T06:40:57.000Z</time>
      </trkpt>
      <trkpt lat="47.57334" lon="-2.27056">
        <ele>6.8000001907349</ele>
        <time>2021-06-27T06:40:58.000Z</time>
      </trkpt>
      <trkpt lat="47.57331" lon="-2.27055">
        <ele>7.1999998092651</ele>
        <time>2021-06-27T06:40:59.000Z</time>
      </trkpt>
      <trkpt lat="47.57328" lon="-2.27052">
        <ele>7.5999999046326</ele>
        <time>2021-06-27T06:41:00.000Z</time>
      </trkpt>
      <trkpt lat="47.57324" lon="-2.27049">
        <ele>7.5999999046326</ele>
        <time>2021-06-27T06:41:02.000Z</time>
      </trkpt>
      <trkpt lat="47.57344" lon="-2.26985">
        <ele>-2.2000000476837</ele>
        <time>2021-06-27T06:42:18.000Z</time>
      </trkpt>
      <trkpt lat="47.57342" lon="-2.26982">
        <ele>-2.2000000476837</ele>
        <time>2021-06-27T06:42:19.000Z</time>
      </trkpt>
      <trkpt lat="47.57336" lon="-2.26968">
        <ele>-1.7999999523163</ele>
        <time>2021-06-27T06:42:23.000Z</time>
      </trkpt>
      <trkpt lat="47.57335" lon="-2.26964">
        <ele>-1.2000000476837</ele>
        <time>2021-06-27T06:42:24.000Z</time>
      </trkpt>
      <trkpt lat="47.57333" lon="-2.26961">
        <ele>-0.80000001192093</ele>
        <time>2021-06-27T06:42:25.000Z</time>
      </trkpt>
      <trkpt lat="47.57332" lon="-2.26956">
        <ele>-0.40000000596046</ele>
        <time>2021-06-27T06:42:26.000Z</time>
      </trkpt>
      <trkpt lat="47.57332" lon="-2.26953">
        <ele>18.2</ele>
        <time>2021-06-27T06:42:27.000Z</time>
      </trkpt>
      <trkpt lat="47.5733" lon="-2.26942">
        <ele>0.40000000596046</ele>
        <time>2021-06-27T06:42:30.000Z</time>
      </trkpt>
      <trkpt lat="47.57329" lon="-2.26939">
        <ele>0.80000001192093</ele>
        <time>2021-06-27T06:42:31.000Z</time>
      </trkpt>
      <trkpt lat="47.57328" lon="-2.26936">
        <ele>1.2000000476837</ele>
        <time>2021-06-27T06:42:32.000Z</time>
      </trkpt>
      <trkpt lat="47.57327" lon="-2.26934">
        <ele>1.7999999523163</ele>
        <time>2021-06-27T06:42:33.000Z</time>
      </trkpt>
      <trkpt lat="47.57326" lon="-2.26931">
        <ele>2.2000000476837</ele>
        <time>2021-06-27T06:42:34.000Z</time>
      </trkpt>
      <trkpt lat="47.57324" lon="-2.26923">
        <ele>2.5999999046326</ele>
        <time>2021-06-27T06:42:37.000Z</time>
      </trkpt>
      <trkpt lat="47.57323" lon="-2.26921">
        <ele>3</ele>
        <time>2021-06-27T06:42:38.000Z</time>
      </trkpt>
      <trkpt lat="47.57323" lon="-2.26918">
        <ele>3.4000000953674</ele>
        <time>2021-06-27T06:42:39.000Z</time>
      </trkpt>
      <trkpt lat="47.57322" lon="-2.26915">
        <ele>3.7999999523163</ele>
        <time>2021-06-27T06:42:40.000Z</time>
      </trkpt>
      <trkpt lat="47.57322" lon="-2.26912">
        <ele>4.1999998092651</ele>
        <time>2021-06-27T06:42:41.000Z</time>
      </trkpt>
      <trkpt lat="47.57321" lon="-2.26893">
        <ele>4.5999999046326</ele>
        <time>2021-06-27T06:42:45.000Z</time>
      </trkpt>
      <trkpt lat="47.57321" lon="-2.26889">
        <ele>5</ele>
        <time>2021-06-27T06:42:46.000Z</time>
      </trkpt>
      <trkpt lat="47.57321" lon="-2.26886">
        <ele>5.5999999046326</ele>
        <time>2021-06-27T06:42:47.000Z</time>
      </trkpt>
      <trkpt lat="47.57322" lon="-2.26883">
        <ele>6</ele>
        <time>2021-06-27T06:42:48.000Z</time>
      </trkpt>
      <trkpt lat="47.57323" lon="-2.26879">
        <ele>6.4000000953674</ele>
        <time>2021-06-27T06:42:49.000Z</time>
      </trkpt>
      <trkpt lat="47.57323" lon="-2.26868">
        <ele>6.8000001907349</ele>
        <time>2021-06-27T06:42:53.000Z</time>
      </trkpt>
      <trkpt lat="47.57323" lon="-2.26864">
        <ele>7.1999998092651</ele>
        <time>2021-06-27T06:42:54.000Z</time>
      </trkpt>
      <trkpt lat="47.57322" lon="-2.26861">
        <ele>7.8000001907349</ele>
        <time>2021-06-27T06:42:55.000Z</time>
      </trkpt>
      <trkpt lat="47.57321" lon="-2.26857">
        <ele>8.1999998092651</ele>
        <time>2021-06-27T06:42:56.000Z</time>
      </trkpt>
      <trkpt lat="47.5732" lon="-2.26854">
        <ele>8.6000003814697</ele>
        <time>2021-06-27T06:42:57.000Z</time>
      </trkpt>
      <trkpt lat="47.57319" lon="-2.26846">
        <ele>9</ele>
        <time>2021-06-27T06:43:00.000Z</time>
      </trkpt>
      <trkpt lat="47.57319" lon="-2.26843">
        <ele>9.6000003814697</ele>
        <time>2021-06-27T06:43:01.000Z</time>
      </trkpt>
      <trkpt lat="47.57319" lon="-2.2684">
        <ele>10.39999961853</ele>
        <time>2021-06-27T06:43:02.000Z</time>
      </trkpt>
      <trkpt lat="47.57319" lon="-2.26837">
        <ele>10.800000190735</ele>
        <time>2021-06-27T06:43:03.000Z</time>
      </trkpt>
      <trkpt lat="47.57318" lon="-2.26825">
        <ele>11.39999961853</ele>
        <time>2021-06-27T06:43:07.000Z</time>
      </trkpt>
      <trkpt lat="47.57317" lon="-2.26822">
        <ele>11.800000190735</ele>
        <time>2021-06-27T06:43:08.000Z</time>
      </trkpt>
      <trkpt lat="47.57317" lon="-2.26819">
        <ele>12.199999809265</ele>
        <time>2021-06-27T06:43:09.000Z</time>
      </trkpt>
      <trkpt lat="47.57316" lon="-2.26816">
        <ele>12.60000038147</ele>
        <time>2021-06-27T06:43:10.000Z</time>
      </trkpt>
      <trkpt lat="47.57316" lon="-2.26813">
        <ele>13.199999809265</ele>
        <time>2021-06-27T06:43:11.000Z</time>
      </trkpt>
      <trkpt lat="47.57315" lon="-2.26804">
        <ele>13.199999809265</ele>
        <time>2021-06-27T06:43:14.000Z</time>
      </trkpt>
      <trkpt lat="47.57315" lon="-2.268">
        <ele>13.60000038147</ele>
        <time>2021-06-27T06:43:15.000Z</time>
      </trkpt>
      <trkpt lat="47.57315" lon="-2.26797">
        <ele>14</ele>
        <time>2021-06-27T06:43:16.000Z</time>
      </trkpt>
      <trkpt lat="47.57314" lon="-2.26794">
        <ele>14.39999961853</ele>
        <time>2021-06-27T06:43:17.000Z</time>
      </trkpt>
      <trkpt lat="47.57314" lon="-2.2679">
        <ele>14.800000190735</ele>
        <time>2021-06-27T06:43:18.000Z</time>
      </trkpt>
      <trkpt lat="47.57313" lon="-2.26787">
        <ele>15.199999809265</ele>
        <time>2021-06-27T06:43:19.000Z</time>
      </trkpt>
      <trkpt lat="47.57311" lon="-2.2677">
        <ele>15.60000038147</ele>
        <time>2021-06-27T06:43:24.000Z</time>
      </trkpt>
      <trkpt lat="47.57311" lon="-2.26768">
        <ele>16</ele>
        <time>2021-06-27T06:43:25.000Z</time>
      </trkpt>
      <trkpt lat="47.57311" lon="-2.26764">
        <ele>16.39999961853</ele>
        <time>2021-06-27T06:43:26.000Z</time>
      </trkpt>
      <trkpt lat="47.57311" lon="-2.26762">
        <ele>17.39999961853</ele>
        <time>2021-06-27T06:43:27.000Z</time>
      </trkpt>
      <trkpt lat="47.57308" lon="-2.26739">
        <ele>17.39999961853</ele>
        <time>2021-06-27T06:43:34.000Z</time>
      </trkpt>
      <trkpt lat="47.57306" lon="-2.26716">
        <ele>17.39999961853</ele>
        <time>2021-06-27T06:43:42.000Z</time>
      </trkpt>
      <trkpt lat="47.57311" lon="-2.26704">
        <ele>17.39999961853</ele>
        <time>2021-06-27T06:43:47.000Z</time>
      </trkpt>
      <trkpt lat="47.57323" lon="-2.26685">
        <ele>17.39999961853</ele>
        <time>2021-06-27T06:43:54.000Z</time>
      </trkpt>
      <trkpt lat="47.57326" lon="-2.26665">
        <ele>17.39999961853</ele>
        <time>2021-06-27T06:43:59.000Z</time>
      </trkpt>
      <trkpt lat="47.57328" lon="-2.26644">
        <ele>17.39999961853</ele>
        <time>2021-06-27T06:44:04.000Z</time>
      </trkpt>
      <trkpt lat="47.57329" lon="-2.26631">
        <ele>17.799999237061</ele>
        <time>2021-06-27T06:44:07.000Z</time>
      </trkpt>
      <trkpt lat="47.57329" lon="-2.26628">
        <ele>18.200000762939</ele>
        <time>2021-06-27T06:44:08.000Z</time>
      </trkpt>
      <trkpt lat="47.57329" lon="-2.26623">
        <ele>18.60000038147</ele>
        <time>2021-06-27T06:44:09.000Z</time>
      </trkpt>
      <trkpt lat="47.5733" lon="-2.26619">
        <ele>19</ele>
        <time>2021-06-27T06:44:10.000Z</time>
      </trkpt>
      <trkpt lat="47.57331" lon="-2.26614">
        <ele>19.39999961853</ele>
        <time>2021-06-27T06:44:11.000Z</time>
      </trkpt>
      <trkpt lat="47.57332" lon="-2.2661">
        <ele>19.39999961853</ele>
        <time>2021-06-27T06:44:12.000Z</time>
      </trkpt>
      <trkpt lat="47.57334" lon="-2.26582">
        <ele>19.39999961853</ele>
        <time>2021-06-27T06:44:19.000Z</time>
      </trkpt>
      <trkpt lat="47.57336" lon="-2.26572">
        <ele>19.799999237061</ele>
        <time>2021-06-27T06:44:22.000Z</time>
      </trkpt>
      <trkpt lat="47.57336" lon="-2.26568">
        <ele>20.200000762939</ele>
        <time>2021-06-27T06:44:23.000Z</time>
      </trkpt>
      <trkpt lat="47.57337" lon="-2.26565">
        <ele>20.60000038147</ele>
        <time>2021-06-27T06:44:24.000Z</time>
      </trkpt>
      <trkpt lat="47.57337" lon="-2.26561">
        <ele>21</ele>
        <time>2021-06-27T06:44:25.000Z</time>
      </trkpt>
      <trkpt lat="47.57337" lon="-2.26557">
        <ele>21.39999961853</ele>
        <time>2021-06-27T06:44:26.000Z</time>
      </trkpt>
      <trkpt lat="47.57339" lon="-2.26551">
        <ele>21.39999961853</ele>
        <time>2021-06-27T06:44:28.000Z</time>
      </trkpt>
      <trkpt lat="47.5734" lon="-2.26534">
        <ele>22</ele>
        <time>2021-06-27T06:44:33.000Z</time>
      </trkpt>
      <trkpt lat="47.57341" lon="-2.26529">
        <ele>22.39999961853</ele>
        <time>2021-06-27T06:44:34.000Z</time>
      </trkpt>
      <trkpt lat="47.57341" lon="-2.26526">
        <ele>22.799999237061</ele>
        <time>2021-06-27T06:44:35.000Z</time>
      </trkpt>
      <trkpt lat="47.57341" lon="-2.26523">
        <ele>23.200000762939</ele>
        <time>2021-06-27T06:44:36.000Z</time>
      </trkpt>
      <trkpt lat="47.57341" lon="-2.2652">
        <ele>23.60000038147</ele>
        <time>2021-06-27T06:44:37.000Z</time>
      </trkpt>
      <trkpt lat="47.57342" lon="-2.26513">
        <ele>23.60000038147</ele>
        <time>2021-06-27T06:44:40.000Z</time>
      </trkpt>
      <trkpt lat="47.57342" lon="-2.26511">
        <ele>24.60000038147</ele>
        <time>2021-06-27T06:44:41.000Z</time>
      </trkpt>
      <trkpt lat="47.57343" lon="-2.26509">
        <ele>25</ele>
        <time>2021-06-27T06:44:42.000Z</time>
      </trkpt>
      <trkpt lat="47.57343" lon="-2.26507">
        <ele>25.39999961853</ele>
        <time>2021-06-27T06:44:43.000Z</time>
      </trkpt>
      <trkpt lat="47.57343" lon="-2.26504">
        <ele>25.799999237061</ele>
        <time>2021-06-27T06:44:44.000Z</time>
      </trkpt>
      <trkpt lat="47.57343" lon="-2.26494">
        <ele>25.799999237061</ele>
        <time>2021-06-27T06:44:47.000Z</time>
      </trkpt>
      <trkpt lat="47.57344" lon="-2.26491">
        <ele>26.200000762939</ele>
        <time>2021-06-27T06:44:48.000Z</time>
      </trkpt>
      <trkpt lat="47.57344" lon="-2.26487">
        <ele>26.60000038147</ele>
        <time>2021-06-27T06:44:49.000Z</time>
      </trkpt>
      <trkpt lat="47.57344" lon="-2.26484">
        <ele>27</ele>
        <time>2021-06-27T06:44:50.000Z</time>
      </trkpt>
      <trkpt lat="47.57345" lon="-2.26481">
        <ele>27.60000038147</ele>
        <time>2021-06-27T06:44:51.000Z</time>
      </trkpt>
      <trkpt lat="47.57345" lon="-2.26478">
        <ele>28</ele>
        <time>2021-06-27T06:44:52.000Z</time>
      </trkpt>
      <trkpt lat="47.57346" lon="-2.26473">
        <ele>28</ele>
        <time>2021-06-27T06:44:54.000Z</time>
      </trkpt>
      <trkpt lat="47.57348" lon="-2.26468">
        <ele>28.39999961853</ele>
        <time>2021-06-27T06:44:56.000Z</time>
      </trkpt>
      <trkpt lat="47.57349" lon="-2.26465">
        <ele>28.799999237061</ele>
        <time>2021-06-27T06:44:57.000Z</time>
      </trkpt>
      <trkpt lat="47.5735" lon="-2.26462">
        <ele>29.200000762939</ele>
        <time>2021-06-27T06:44:58.000Z</time>
      </trkpt>
      <trkpt lat="47.57351" lon="-2.2646">
        <ele>29.60000038147</ele>
        <time>2021-06-27T06:44:59.000Z</time>
      </trkpt>
      <trkpt lat="47.57352" lon="-2.26459">
        <ele>30</ele>
        <time>2021-06-27T06:45:00.000Z</time>
      </trkpt>
      <trkpt lat="47.57353" lon="-2.26457">
        <ele>30</ele>
        <time>2021-06-27T06:45:01.000Z</time>
      </trkpt>
      <trkpt lat="47.57356" lon="-2.26454">
        <ele>30</ele>
        <time>2021-06-27T06:45:03.000Z</time>
      </trkpt>
      <trkpt lat="47.5736" lon="-2.26452">
        <ele>30.799999237061</ele>
        <time>2021-06-27T06:45:06.000Z</time>
      </trkpt>
      <trkpt lat="47.57362" lon="-2.26451">
        <ele>31.200000762939</ele>
        <time>2021-06-27T06:45:07.000Z</time>
      </trkpt>
      <trkpt lat="47.57363" lon="-2.26451">
        <ele>31.60000038147</ele>
        <time>2021-06-27T06:45:08.000Z</time>
      </trkpt>
      <trkpt lat="47.57365" lon="-2.2645">
        <ele>32</ele>
        <time>2021-06-27T06:45:09.000Z</time>
      </trkpt>
      <trkpt lat="47.57371" lon="-2.26449">
        <ele>32</ele>
        <time>2021-06-27T06:45:12.000Z</time>
      </trkpt>
      <trkpt lat="47.57383" lon="-2.26445">
        <ele>32</ele>
        <time>2021-06-27T06:45:17.000Z</time>
      </trkpt>
      <trkpt lat="47.57405" lon="-2.26434">
        <ele>32</ele>
        <time>2021-06-27T06:45:23.000Z</time>
      </trkpt>
      <trkpt lat="47.57418" lon="-2.26423">
        <ele>31.60000038147</ele>
        <time>2021-06-27T06:45:26.000Z</time>
      </trkpt>
      <trkpt lat="47.57422" lon="-2.26419">
        <ele>31.200000762939</ele>
        <time>2021-06-27T06:45:27.000Z</time>
      </trkpt>
      <trkpt lat="47.57426" lon="-2.26415">
        <ele>30.799999237061</ele>
        <time>2021-06-27T06:45:28.000Z</time>
      </trkpt>
      <trkpt lat="47.5743" lon="-2.26412">
        <ele>30.39999961853</ele>
        <time>2021-06-27T06:45:29.000Z</time>
      </trkpt>
      <trkpt lat="47.57434" lon="-2.2641">
        <ele>30</ele>
        <time>2021-06-27T06:45:30.000Z</time>
      </trkpt>
      <trkpt lat="47.57446" lon="-2.26406">
        <ele>29.39999961853</ele>
        <time>2021-06-27T06:45:33.000Z</time>
      </trkpt>
      <trkpt lat="47.5745" lon="-2.26404">
        <ele>29</ele>
        <time>2021-06-27T06:45:34.000Z</time>
      </trkpt>
      <trkpt lat="47.57454" lon="-2.26403">
        <ele>28.60000038147</ele>
        <time>2021-06-27T06:45:35.000Z</time>
      </trkpt>
      <trkpt lat="47.57458" lon="-2.26402">
        <ele>28.200000762939</ele>
        <time>2021-06-27T06:45:36.000Z</time>
      </trkpt>
      <trkpt lat="47.57462" lon="-2.264">
        <ele>27.60000038147</ele>
        <time>2021-06-27T06:45:37.000Z</time>
      </trkpt>
      <trkpt lat="47.57466" lon="-2.26399">
        <ele>27.200000762939</ele>
        <time>2021-06-27T06:45:38.000Z</time>
      </trkpt>
      <trkpt lat="47.57469" lon="-2.26396">
        <ele>26.60000038147</ele>
        <time>2021-06-27T06:45:39.000Z</time>
      </trkpt>
      <trkpt lat="47.57473" lon="-2.26392">
        <ele>26.200000762939</ele>
        <time>2021-06-27T06:45:40.000Z</time>
      </trkpt>
      <trkpt lat="47.57478" lon="-2.26388">
        <ele>25.60000038147</ele>
        <time>2021-06-27T06:45:41.000Z</time>
      </trkpt>
      <trkpt lat="47.57483" lon="-2.26385">
        <ele>25</ele>
        <time>2021-06-27T06:45:42.000Z</time>
      </trkpt>
      <trkpt lat="47.57487" lon="-2.26379">
        <ele>24.200000762939</ele>
        <time>2021-06-27T06:45:43.000Z</time>
      </trkpt>
      <trkpt lat="47.5749" lon="-2.26373">
        <ele>23.60000038147</ele>
        <time>2021-06-27T06:45:44.000Z</time>
      </trkpt>
      <trkpt lat="47.57493" lon="-2.26367">
        <ele>23</ele>
        <time>2021-06-27T06:45:45.000Z</time>
      </trkpt>
      <trkpt lat="47.57496" lon="-2.26361">
        <ele>23</ele>
        <time>2021-06-27T06:45:46.000Z</time>
      </trkpt>
      <trkpt lat="47.57501" lon="-2.26346">
        <ele>22.60000038147</ele>
        <time>2021-06-27T06:45:48.000Z</time>
      </trkpt>
      <trkpt lat="47.57504" lon="-2.26338">
        <ele>22.200000762939</ele>
        <time>2021-06-27T06:45:49.000Z</time>
      </trkpt>
      <trkpt lat="47.57506" lon="-2.2633">
        <ele>21.799999237061</ele>
        <time>2021-06-27T06:45:50.000Z</time>
      </trkpt>
      <trkpt lat="47.57508" lon="-2.26323">
        <ele>21.200000762939</ele>
        <time>2021-06-27T06:45:51.000Z</time>
      </trkpt>
      <trkpt lat="47.5751" lon="-2.26318">
        <ele>20.799999237061</ele>
        <time>2021-06-27T06:45:52.000Z</time>
      </trkpt>
      <trkpt lat="47.57514" lon="-2.26298">
        <ele>20.799999237061</ele>
        <time>2021-06-27T06:45:57.000Z</time>
      </trkpt>
      <trkpt lat="47.57514" lon="-2.26288">
        <ele>21.200000762939</ele>
        <time>2021-06-27T06:45:59.000Z</time>
      </trkpt>
      <trkpt lat="47.57512" lon="-2.26284">
        <ele>21.799999237061</ele>
        <time>2021-06-27T06:46:00.000Z</time>
      </trkpt>
      <trkpt lat="47.57512" lon="-2.2628">
        <ele>22.200000762939</ele>
        <time>2021-06-27T06:46:01.000Z</time>
      </trkpt>
      <trkpt lat="47.57512" lon="-2.26276">
        <ele>22.60000038147</ele>
        <time>2021-06-27T06:46:02.000Z</time>
      </trkpt>
      <trkpt lat="47.57512" lon="-2.26272">
        <ele>23</ele>
        <time>2021-06-27T06:46:03.000Z</time>
      </trkpt>
      <trkpt lat="47.57513" lon="-2.26265">
        <ele>23.39999961853</ele>
        <time>2021-06-27T06:46:05.000Z</time>
      </trkpt>
      <trkpt lat="47.57512" lon="-2.26261">
        <ele>23.799999237061</ele>
        <time>2021-06-27T06:46:06.000Z</time>
      </trkpt>
      <trkpt lat="47.57512" lon="-2.26256">
        <ele>24.200000762939</ele>
        <time>2021-06-27T06:46:07.000Z</time>
      </trkpt>
      <trkpt lat="47.57512" lon="-2.26252">
        <ele>24.60000038147</ele>
        <time>2021-06-27T06:46:08.000Z</time>
      </trkpt>
      <trkpt lat="47.57512" lon="-2.26247">
        <ele>25</ele>
        <time>2021-06-27T06:46:09.000Z</time>
      </trkpt>
      <trkpt lat="47.57512" lon="-2.26239">
        <ele>25</ele>
        <time>2021-06-27T06:46:11.000Z</time>
      </trkpt>
      <trkpt lat="47.57507" lon="-2.26204">
        <ele>25</ele>
        <time>2021-06-27T06:46:18.000Z</time>
      </trkpt>
      <trkpt lat="47.57502" lon="-2.26193">
        <ele>25.39999961853</ele>
        <time>2021-06-27T06:46:20.000Z</time>
      </trkpt>
      <trkpt lat="47.57501" lon="-2.26189">
        <ele>25.799999237061</ele>
        <time>2021-06-27T06:46:21.000Z</time>
      </trkpt>
      <trkpt lat="47.57499" lon="-2.26184">
        <ele>26.39999961853</ele>
        <time>2021-06-27T06:46:22.000Z</time>
      </trkpt>
      <trkpt lat="47.57498" lon="-2.26179">
        <ele>26.799999237061</ele>
        <time>2021-06-27T06:46:23.000Z</time>
      </trkpt>
      <trkpt lat="47.57496" lon="-2.26175">
        <ele>27.200000762939</ele>
        <time>2021-06-27T06:46:24.000Z</time>
      </trkpt>
      <trkpt lat="47.57489" lon="-2.26151">
        <ele>27.200000762939</ele>
        <time>2021-06-27T06:46:29.000Z</time>
      </trkpt>
      <trkpt lat="47.57483" lon="-2.26125">
        <ele>27.200000762939</ele>
        <time>2021-06-27T06:46:34.000Z</time>
      </trkpt>
      <trkpt lat="47.57476" lon="-2.261">
        <ele>27.200000762939</ele>
        <time>2021-06-27T06:46:40.000Z</time>
      </trkpt>
      <trkpt lat="47.57468" lon="-2.26067">
        <ele>27.200000762939</ele>
        <time>2021-06-27T06:46:45.000Z</time>
      </trkpt>
      <trkpt lat="47.57466" lon="-2.26061">
        <ele>26.799999237061</ele>
        <time>2021-06-27T06:46:46.000Z</time>
      </trkpt>
      <trkpt lat="47.57464" lon="-2.26054">
        <ele>26.39999961853</ele>
        <time>2021-06-27T06:46:47.000Z</time>
      </trkpt>
      <trkpt lat="47.57463" lon="-2.26047">
        <ele>25.799999237061</ele>
        <time>2021-06-27T06:46:48.000Z</time>
      </trkpt>
      <trkpt lat="47.5746" lon="-2.26039">
        <ele>25.39999961853</ele>
        <time>2021-06-27T06:46:49.000Z</time>
      </trkpt>
      <trkpt lat="47.57458" lon="-2.26032">
        <ele>25</ele>
        <time>2021-06-27T06:46:50.000Z</time>
      </trkpt>
      <trkpt lat="47.57455" lon="-2.26026">
        <ele>24.39999961853</ele>
        <time>2021-06-27T06:46:51.000Z</time>
      </trkpt>
      <trkpt lat="47.57453" lon="-2.26019">
        <ele>24</ele>
        <time>2021-06-27T06:46:52.000Z</time>
      </trkpt>
      <trkpt lat="47.5745" lon="-2.26012">
        <ele>23.39999961853</ele>
        <time>2021-06-27T06:46:53.000Z</time>
      </trkpt>
      <trkpt lat="47.57447" lon="-2.26006">
        <ele>22.799999237061</ele>
        <time>2021-06-27T06:46:54.000Z</time>
      </trkpt>
      <trkpt lat="47.57444" lon="-2.25999">
        <ele>22.200000762939</ele>
        <time>2021-06-27T06:46:55.000Z</time>
      </trkpt>
      <trkpt lat="47.57441" lon="-2.25992">
        <ele>21.60000038147</ele>
        <time>2021-06-27T06:46:56.000Z</time>
      </trkpt>
      <trkpt lat="47.57439" lon="-2.25985">
        <ele>21</ele>
        <time>2021-06-27T06:46:57.000Z</time>
      </trkpt>
      <trkpt lat="47.57434" lon="-2.25973">
        <ele>20.39999961853</ele>
        <time>2021-06-27T06:46:58.000Z</time>
      </trkpt>
      <trkpt lat="47.5743" lon="-2.25962">
        <ele>19.799999237061</ele>
        <time>2021-06-27T06:46:59.000Z</time>
      </trkpt>
      <trkpt lat="47.57427" lon="-2.25952">
        <ele>18.799999237061</ele>
        <time>2021-06-27T06:47:00.000Z</time>
      </trkpt>
      <trkpt lat="47.57424" lon="-2.25941">
        <ele>18</ele>
        <time>2021-06-27T06:47:01.000Z</time>
      </trkpt>
      <trkpt lat="47.57421" lon="-2.2593">
        <ele>17</ele>
        <time>2021-06-27T06:47:02.000Z</time>
      </trkpt>
      <trkpt lat="47.57418" lon="-2.25918">
        <ele>16</ele>
        <time>2021-06-27T06:47:03.000Z</time>
      </trkpt>
      <trkpt lat="47.57414" lon="-2.25908">
        <ele>14.800000190735</ele>
        <time>2021-06-27T06:47:04.000Z</time>
      </trkpt>
      <trkpt lat="47.57411" lon="-2.25898">
        <ele>13.60000038147</ele>
        <time>2021-06-27T06:47:05.000Z</time>
      </trkpt>
      <trkpt lat="47.57408" lon="-2.25888">
        <ele>12.60000038147</ele>
        <time>2021-06-27T06:47:06.000Z</time>
      </trkpt>
      <trkpt lat="47.57405" lon="-2.25879">
        <ele>11.39999961853</ele>
        <time>2021-06-27T06:47:07.000Z</time>
      </trkpt>
      <trkpt lat="47.57405" lon="-2.2587">
        <ele>9.3999996185303</ele>
        <time>2021-06-27T06:47:08.000Z</time>
      </trkpt>
      <trkpt lat="47.57405" lon="-2.25861">
        <ele>8.6000003814697</ele>
        <time>2021-06-27T06:47:09.000Z</time>
      </trkpt>
      <trkpt lat="47.57406" lon="-2.25851">
        <ele>7.8000001907349</ele>
        <time>2021-06-27T06:47:10.000Z</time>
      </trkpt>
      <trkpt lat="47.57407" lon="-2.25844">
        <ele>6.8000001907349</ele>
        <time>2021-06-27T06:47:11.000Z</time>
      </trkpt>
      <trkpt lat="47.57409" lon="-2.25836">
        <ele>6</ele>
        <time>2021-06-27T06:47:12.000Z</time>
      </trkpt>
      <trkpt lat="47.57411" lon="-2.25827">
        <ele>5.4000000953674</ele>
        <time>2021-06-27T06:47:13.000Z</time>
      </trkpt>
      <trkpt lat="47.57413" lon="-2.25819">
        <ele>5</ele>
        <time>2021-06-27T06:47:14.000Z</time>
      </trkpt>
      <trkpt lat="47.57416" lon="-2.25809">
        <ele>4.5999999046326</ele>
        <time>2021-06-27T06:47:15.000Z</time>
      </trkpt>
      <trkpt lat="47.57418" lon="-2.25799">
        <ele>4.1999998092651</ele>
        <time>2021-06-27T06:47:16.000Z</time>
      </trkpt>
      <trkpt lat="47.5742" lon="-2.25789">
        <ele>3.5999999046326</ele>
        <time>2021-06-27T06:47:17.000Z</time>
      </trkpt>
      <trkpt lat="47.57422" lon="-2.2578">
        <ele>3</ele>
        <time>2021-06-27T06:47:18.000Z</time>
      </trkpt>
      <trkpt lat="47.57424" lon="-2.25773">
        <ele>2.4000000953674</ele>
        <time>2021-06-27T06:47:19.000Z</time>
      </trkpt>
      <trkpt lat="47.57425" lon="-2.25768">
        <ele>1.7999999523163</ele>
        <time>2021-06-27T06:47:20.000Z</time>
      </trkpt>
      <trkpt lat="47.57425" lon="-2.25764">
        <ele>1.2000000476837</ele>
        <time>2021-06-27T06:47:21.000Z</time>
      </trkpt>
      <trkpt lat="47.57426" lon="-2.25752">
        <ele>1.6000000238419</ele>
        <time>2021-06-27T06:47:24.000Z</time>
      </trkpt>
      <trkpt lat="47.57425" lon="-2.25749">
        <ele>2.2000000476837</ele>
        <time>2021-06-27T06:47:25.000Z</time>
      </trkpt>
      <trkpt lat="47.57425" lon="-2.25745">
        <ele>2.5999999046326</ele>
        <time>2021-06-27T06:47:26.000Z</time>
      </trkpt>
      <trkpt lat="47.57424" lon="-2.25742">
        <ele>3</ele>
        <time>2021-06-27T06:47:27.000Z</time>
      </trkpt>
      <trkpt lat="47.57424" lon="-2.25739">
        <ele>3.4000000953674</ele>
        <time>2021-06-27T06:47:28.000Z</time>
      </trkpt>
      <trkpt lat="47.57425" lon="-2.25724">
        <ele>3.4000000953674</ele>
        <time>2021-06-27T06:47:32.000Z</time>
      </trkpt>
      <trkpt lat="47.57421" lon="-2.25692">
        <ele>3.4000000953674</ele>
        <time>2021-06-27T06:47:37.000Z</time>
      </trkpt>
      <trkpt lat="47.5742" lon="-2.25684">
        <ele>3</ele>
        <time>2021-06-27T06:47:39.000Z</time>
      </trkpt>
      <trkpt lat="47.5742" lon="-2.2568">
        <ele>2.5999999046326</ele>
        <time>2021-06-27T06:47:40.000Z</time>
      </trkpt>
      <trkpt lat="47.5742" lon="-2.25676">
        <ele>2</ele>
        <time>2021-06-27T06:47:41.000Z</time>
      </trkpt>
      <trkpt lat="47.57424" lon="-2.25672">
        <ele>1.6000000238419</ele>
        <time>2021-06-27T06:47:42.000Z</time>
      </trkpt>
      <trkpt lat="47.57427" lon="-2.25669">
        <ele>1</ele>
        <time>2021-06-27T06:47:43.000Z</time>
      </trkpt>
      <trkpt lat="47.5743" lon="-2.25667">
        <ele>0.60000002384186</ele>
        <time>2021-06-27T06:47:44.000Z</time>
      </trkpt>
      <trkpt lat="47.57439" lon="-2.25665">
        <ele>0.20000000298023</ele>
        <time>2021-06-27T06:47:45.000Z</time>
      </trkpt>
      <trkpt lat="47.57447" lon="-2.25664">
        <ele>-0.20000000298023</ele>
        <time>2021-06-27T06:47:46.000Z</time>
      </trkpt>
      <trkpt lat="47.57456" lon="-2.25662">
        <ele>-0.60000002384186</ele>
        <time>2021-06-27T06:47:47.000Z</time>
      </trkpt>
      <trkpt lat="47.57465" lon="-2.2566">
        <ele>-1.2000000476837</ele>
        <time>2021-06-27T06:47:48.000Z</time>
      </trkpt>
      <trkpt lat="47.57473" lon="-2.25657">
        <ele>-1.7999999523163</ele>
        <time>2021-06-27T06:47:49.000Z</time>
      </trkpt>
      <trkpt lat="47.57494" lon="-2.25649">
        <ele>-2.4000000953674</ele>
        <time>2021-06-27T06:47:50.000Z</time>
      </trkpt>
      <trkpt lat="47.57505" lon="-2.25647">
        <ele>-3.2000000476837</ele>
        <time>2021-06-27T06:47:51.000Z</time>
      </trkpt>
      <trkpt lat="47.5752" lon="-2.25644">
        <ele>-4</ele>
        <time>2021-06-27T06:47:52.000Z</time>
      </trkpt>
      <trkpt lat="47.57534" lon="-2.25643">
        <ele>-4.8000001907349</ele>
        <time>2021-06-27T06:47:53.000Z</time>
      </trkpt>
      <trkpt lat="47.57547" lon="-2.25642">
        <ele>-5.4000000953674</ele>
        <time>2021-06-27T06:47:54.000Z</time>
      </trkpt>
      <trkpt lat="47.5756" lon="-2.25642">
        <ele>-6.1999998092651</ele>
        <time>2021-06-27T06:47:55.000Z</time>
      </trkpt>
      <trkpt lat="47.57573" lon="-2.2564">
        <ele>-7.5999999046326</ele>
        <time>2021-06-27T06:47:56.000Z</time>
      </trkpt>
      <trkpt lat="47.57585" lon="-2.25638">
        <ele>-8.3999996185303</ele>
        <time>2021-06-27T06:47:57.000Z</time>
      </trkpt>
      <trkpt lat="47.57596" lon="-2.25636">
        <ele>-9.1999998092651</ele>
        <time>2021-06-27T06:47:58.000Z</time>
      </trkpt>
      <trkpt lat="47.57605" lon="-2.25635">
        <ele>-9.8000001907349</ele>
        <time>2021-06-27T06:47:59.000Z</time>
      </trkpt>
      <trkpt lat="47.57615" lon="-2.25633">
        <ele>-10.60000038147</ele>
        <time>2021-06-27T06:48:00.000Z</time>
      </trkpt>
      <trkpt lat="47.57624" lon="-2.25632">
        <ele>-11</ele>
        <time>2021-06-27T06:48:01.000Z</time>
      </trkpt>
      <trkpt lat="47.57634" lon="-2.25631">
        <ele>-11.39999961853</ele>
        <time>2021-06-27T06:48:02.000Z</time>
      </trkpt>
      <trkpt lat="47.57642" lon="-2.25631">
        <ele>-11.800000190735</ele>
        <time>2021-06-27T06:48:03.000Z</time>
      </trkpt>
      <trkpt lat="47.57649" lon="-2.2563">
        <ele>-12.199999809265</ele>
        <time>2021-06-27T06:48:04.000Z</time>
      </trkpt>
      <trkpt lat="47.57656" lon="-2.25629">
        <ele>-12.60000038147</ele>
        <time>2021-06-27T06:48:05.000Z</time>
      </trkpt>
      <trkpt lat="47.57663" lon="-2.25629">
        <ele>-12.60000038147</ele>
        <time>2021-06-27T06:48:06.000Z</time>
      </trkpt>
      <trkpt lat="47.5767" lon="-2.25628">
        <ele>-13</ele>
        <time>2021-06-27T06:48:07.000Z</time>
      </trkpt>
      <trkpt lat="47.57678" lon="-2.25627">
        <ele>-13.39999961853</ele>
        <time>2021-06-27T06:48:08.000Z</time>
      </trkpt>
      <trkpt lat="47.57684" lon="-2.25626">
        <ele>-13.800000190735</ele>
        <time>2021-06-27T06:48:09.000Z</time>
      </trkpt>
      <trkpt lat="47.57691" lon="-2.25627">
        <ele>-14.199999809265</ele>
        <time>2021-06-27T06:48:10.000Z</time>
      </trkpt>
      <trkpt lat="47.57698" lon="-2.25626">
        <ele>-14.60000038147</ele>
        <time>2021-06-27T06:48:11.000Z</time>
      </trkpt>
      <trkpt lat="47.57705" lon="-2.25626">
        <ele>-14.60000038147</ele>
        <time>2021-06-27T06:48:12.000Z</time>
      </trkpt>
      <trkpt lat="47.57747" lon="-2.25621">
        <ele>-14.60000038147</ele>
        <time>2021-06-27T06:48:19.000Z</time>
      </trkpt>
      <trkpt lat="47.5775" lon="-2.25619">
        <ele>-14.60000038147</ele>
        <time>2021-06-27T06:48:20.000Z</time>
      </trkpt>
      <trkpt lat="47.57753" lon="-2.25611">
        <ele>-15.199999809265</ele>
        <time>2021-06-27T06:48:22.000Z</time>
      </trkpt>
      <trkpt lat="47.57752" lon="-2.25607">
        <ele>-15.60000038147</ele>
        <time>2021-06-27T06:48:23.000Z</time>
      </trkpt>
      <trkpt lat="47.57751" lon="-2.25603">
        <ele>-16</ele>
        <time>2021-06-27T06:48:24.000Z</time>
      </trkpt>
      <trkpt lat="47.57749" lon="-2.25598">
        <ele>-16.39999961853</ele>
        <time>2021-06-27T06:48:25.000Z</time>
      </trkpt>
      <trkpt lat="47.57748" lon="-2.25593">
        <ele>-16.799999237061</ele>
        <time>2021-06-27T06:48:26.000Z</time>
      </trkpt>
      <trkpt lat="47.57746" lon="-2.25588">
        <ele>-16.799999237061</ele>
        <time>2021-06-27T06:48:27.000Z</time>
      </trkpt>
      <trkpt lat="47.57736" lon="-2.25561">
        <ele>-16.799999237061</ele>
        <time>2021-06-27T06:48:32.000Z</time>
      </trkpt>
      <trkpt lat="47.57733" lon="-2.2555">
        <ele>-16.799999237061</ele>
        <time>2021-06-27T06:48:34.000Z</time>
      </trkpt>
      <trkpt lat="47.57715" lon="-2.25504">
        <ele>-16.799999237061</ele>
        <time>2021-06-27T06:48:42.000Z</time>
      </trkpt>
      <trkpt lat="47.57705" lon="-2.25479">
        <ele>-16.799999237061</ele>
        <time>2021-06-27T06:48:47.000Z</time>
      </trkpt>
      <trkpt lat="47.57699" lon="-2.25463">
        <ele>-16.799999237061</ele>
        <time>2021-06-27T06:48:50.000Z</time>
      </trkpt>
      <trkpt lat="47.57695" lon="-2.25447">
        <ele>-16.799999237061</ele>
        <time>2021-06-27T06:48:53.000Z</time>
      </trkpt>
      <trkpt lat="47.57683" lon="-2.25427">
        <ele>-16.799999237061</ele>
        <time>2021-06-27T06:48:58.000Z</time>
      </trkpt>
      <trkpt lat="47.57672" lon="-2.25419">
        <ele>-16.799999237061</ele>
        <time>2021-06-27T06:49:02.000Z</time>
      </trkpt>
      <trkpt lat="47.5767" lon="-2.25415">
        <ele>-16.799999237061</ele>
        <time>2021-06-27T06:49:03.000Z</time>
      </trkpt>
      <trkpt lat="47.5767" lon="-2.25406">
        <ele>-16.799999237061</ele>
        <time>2021-06-27T06:49:05.000Z</time>
      </trkpt>
      <trkpt lat="47.57671" lon="-2.25395">
        <ele>-16.799999237061</ele>
        <time>2021-06-27T06:49:07.000Z</time>
      </trkpt>
      <trkpt lat="47.57671" lon="-2.25375">
        <ele>-16.799999237061</ele>
        <time>2021-06-27T06:49:11.000Z</time>
      </trkpt>
      <trkpt lat="47.5767" lon="-2.25371">
        <ele>-16.799999237061</ele>
        <time>2021-06-27T06:49:12.000Z</time>
      </trkpt>
      <trkpt lat="47.57659" lon="-2.25349">
        <ele>-16.799999237061</ele>
        <time>2021-06-27T06:49:17.000Z</time>
      </trkpt>
      <trkpt lat="47.57645" lon="-2.25324">
        <ele>-16.799999237061</ele>
        <time>2021-06-27T06:49:23.000Z</time>
      </trkpt>
      <trkpt lat="47.57626" lon="-2.25322">
        <ele>-16.799999237061</ele>
        <time>2021-06-27T06:49:28.000Z</time>
      </trkpt>
      <trkpt lat="47.5762" lon="-2.25319">
        <ele>-16.799999237061</ele>
        <time>2021-06-27T06:49:30.000Z</time>
      </trkpt>
      <trkpt lat="47.57616" lon="-2.25311">
        <ele>-16.799999237061</ele>
        <time>2021-06-27T06:49:32.000Z</time>
      </trkpt>
      <trkpt lat="47.57618" lon="-2.25292">
        <ele>-16.799999237061</ele>
        <time>2021-06-27T06:49:36.000Z</time>
      </trkpt>
      <trkpt lat="47.57619" lon="-2.25287">
        <ele>-16.799999237061</ele>
        <time>2021-06-27T06:49:37.000Z</time>
      </trkpt>
      <trkpt lat="47.5762" lon="-2.25262">
        <ele>-16.799999237061</ele>
        <time>2021-06-27T06:49:42.000Z</time>
      </trkpt>
      <trkpt lat="47.57611" lon="-2.25235">
        <ele>-16.799999237061</ele>
        <time>2021-06-27T06:49:48.000Z</time>
      </trkpt>
      <trkpt lat="47.576" lon="-2.25212">
        <ele>-16.799999237061</ele>
        <time>2021-06-27T06:49:54.000Z</time>
      </trkpt>
      <trkpt lat="47.57587" lon="-2.252">
        <ele>-16.799999237061</ele>
        <time>2021-06-27T06:49:59.000Z</time>
      </trkpt>
      <trkpt lat="47.57563" lon="-2.25185">
        <ele>-16.799999237061</ele>
        <time>2021-06-27T06:50:07.000Z</time>
      </trkpt>
      <trkpt lat="47.57542" lon="-2.25179">
        <ele>-16.799999237061</ele>
        <time>2021-06-27T06:50:13.000Z</time>
      </trkpt>
      <trkpt lat="47.57522" lon="-2.25174">
        <ele>-16.799999237061</ele>
        <time>2021-06-27T06:50:20.000Z</time>
      </trkpt>
      <trkpt lat="47.57512" lon="-2.25157">
        <ele>-16.799999237061</ele>
        <time>2021-06-27T06:50:25.000Z</time>
      </trkpt>
      <trkpt lat="47.5751" lon="-2.25143">
        <ele>-16.799999237061</ele>
        <time>2021-06-27T06:50:28.000Z</time>
      </trkpt>
      <trkpt lat="47.57512" lon="-2.25139">
        <ele>-16.799999237061</ele>
        <time>2021-06-27T06:50:29.000Z</time>
      </trkpt>
      <trkpt lat="47.57516" lon="-2.25119">
        <ele>-16.799999237061</ele>
        <time>2021-06-27T06:50:33.000Z</time>
      </trkpt>
      <trkpt lat="47.57518" lon="-2.25109">
        <ele>-16.799999237061</ele>
        <time>2021-06-27T06:50:35.000Z</time>
      </trkpt>
      <trkpt lat="47.57516" lon="-2.25089">
        <ele>-16.799999237061</ele>
        <time>2021-06-27T06:50:39.000Z</time>
      </trkpt>
      <trkpt lat="47.5751" lon="-2.25076">
        <ele>-16.799999237061</ele>
        <time>2021-06-27T06:50:43.000Z</time>
      </trkpt>
      <trkpt lat="47.57498" lon="-2.25059">
        <ele>-16.799999237061</ele>
        <time>2021-06-27T06:50:49.000Z</time>
      </trkpt>
      <trkpt lat="47.57486" lon="-2.25047">
        <ele>-16.799999237061</ele>
        <time>2021-06-27T06:50:55.000Z</time>
      </trkpt>
      <trkpt lat="47.57478" lon="-2.25035">
        <ele>-16.799999237061</ele>
        <time>2021-06-27T06:51:00.000Z</time>
      </trkpt>
      <trkpt lat="47.57469" lon="-2.25024">
        <ele>-16.799999237061</ele>
        <time>2021-06-27T06:51:04.000Z</time>
      </trkpt>
      <trkpt lat="47.57458" lon="-2.25008">
        <ele>-16.799999237061</ele>
        <time>2021-06-27T06:51:09.000Z</time>
      </trkpt>
      <trkpt lat="47.57445" lon="-2.24996">
        <ele>-16.799999237061</ele>
        <time>2021-06-27T06:51:16.000Z</time>
      </trkpt>
      <trkpt lat="47.57435" lon="-2.24986">
        <ele>-16.799999237061</ele>
        <time>2021-06-27T06:51:22.000Z</time>
      </trkpt>
      <trkpt lat="47.57421" lon="-2.24977">
        <ele>-16.799999237061</ele>
        <time>2021-06-27T06:51:29.000Z</time>
      </trkpt>
      <trkpt lat="47.57403" lon="-2.24957">
        <ele>-16.799999237061</ele>
        <time>2021-06-27T06:51:35.000Z</time>
      </trkpt>
      <trkpt lat="47.57386" lon="-2.24944">
        <ele>-16.799999237061</ele>
        <time>2021-06-27T06:51:41.000Z</time>
      </trkpt>
      <trkpt lat="47.5738" lon="-2.24941">
        <ele>-16.799999237061</ele>
        <time>2021-06-27T06:51:43.000Z</time>
      </trkpt>
      <trkpt lat="47.57375" lon="-2.24943">
        <ele>-16.799999237061</ele>
        <time>2021-06-27T06:51:45.000Z</time>
      </trkpt>
      <trkpt lat="47.57361" lon="-2.24941">
        <ele>-16.799999237061</ele>
        <time>2021-06-27T06:51:50.000Z</time>
      </trkpt>
      <trkpt lat="47.57352" lon="-2.24935">
        <ele>-16.39999961853</ele>
        <time>2021-06-27T06:51:54.000Z</time>
      </trkpt>
      <trkpt lat="47.57351" lon="-2.24934">
        <ele>-15.800000190735</ele>
        <time>2021-06-27T06:51:55.000Z</time>
      </trkpt>
      <trkpt lat="47.57349" lon="-2.24933">
        <ele>-15.39999961853</ele>
        <time>2021-06-27T06:51:56.000Z</time>
      </trkpt>
      <trkpt lat="47.57348" lon="-2.24931">
        <ele>-15</ele>
        <time>2021-06-27T06:51:57.000Z</time>
      </trkpt>
      <trkpt lat="47.57347" lon="-2.24929">
        <ele>-14.60000038147</ele>
        <time>2021-06-27T06:51:58.000Z</time>
      </trkpt>
      <trkpt lat="47.57343" lon="-2.24924">
        <ele>-14.199999809265</ele>
        <time>2021-06-27T06:52:01.000Z</time>
      </trkpt>
      <trkpt lat="47.57342" lon="-2.24922">
        <ele>-13.800000190735</ele>
        <time>2021-06-27T06:52:02.000Z</time>
      </trkpt>
      <trkpt lat="47.57341" lon="-2.24919">
        <ele>-13</ele>
        <time>2021-06-27T06:52:03.000Z</time>
      </trkpt>
      <trkpt lat="47.57339" lon="-2.24917">
        <ele>-12.60000038147</ele>
        <time>2021-06-27T06:52:04.000Z</time>
      </trkpt>
      <trkpt lat="47.57333" lon="-2.24907">
        <ele>-12.199999809265</ele>
        <time>2021-06-27T06:52:08.000Z</time>
      </trkpt>
      <trkpt lat="47.57332" lon="-2.24905">
        <ele>-11.800000190735</ele>
        <time>2021-06-27T06:52:09.000Z</time>
      </trkpt>
      <trkpt lat="47.57331" lon="-2.24902">
        <ele>-11.39999961853</ele>
        <time>2021-06-27T06:52:10.000Z</time>
      </trkpt>
      <trkpt lat="47.5733" lon="-2.249">
        <ele>-11</ele>
        <time>2021-06-27T06:52:11.000Z</time>
      </trkpt>
      <trkpt lat="47.57329" lon="-2.24898">
        <ele>-10.60000038147</ele>
        <time>2021-06-27T06:52:12.000Z</time>
      </trkpt>
      <trkpt lat="47.57326" lon="-2.24887">
        <ele>-10.60000038147</ele>
        <time>2021-06-27T06:52:18.000Z</time>
      </trkpt>
      <trkpt lat="47.57324" lon="-2.2488">
        <ele>-10</ele>
        <time>2021-06-27T06:52:22.000Z</time>
      </trkpt>
      <trkpt lat="47.57323" lon="-2.24877">
        <ele>-9.6000003814697</ele>
        <time>2021-06-27T06:52:23.000Z</time>
      </trkpt>
      <trkpt lat="47.57323" lon="-2.24874">
        <ele>-9.1999998092651</ele>
        <time>2021-06-27T06:52:24.000Z</time>
      </trkpt>
      <trkpt lat="47.57322" lon="-2.24872">
        <ele>-8.8000001907349</ele>
        <time>2021-06-27T06:52:25.000Z</time>
      </trkpt>
      <trkpt lat="47.57321" lon="-2.24871">
        <ele>-8.3999996185303</ele>
        <time>2021-06-27T06:52:26.000Z</time>
      </trkpt>
      <trkpt lat="47.57318" lon="-2.24866">
        <ele>-8.3999996185303</ele>
        <time>2021-06-27T06:52:29.000Z</time>
      </trkpt>
      <trkpt lat="47.57316" lon="-2.24862">
        <ele>-8.3999996185303</ele>
        <time>2021-06-27T06:52:31.000Z</time>
      </trkpt>
      <trkpt lat="47.57312" lon="-2.24853">
        <ele>-8.3999996185303</ele>
        <time>2021-06-27T06:52:35.000Z</time>
      </trkpt>
      <trkpt lat="47.5731" lon="-2.24851">
        <ele>-8.3999996185303</ele>
        <time>2021-06-27T06:52:36.000Z</time>
      </trkpt>
      <trkpt lat="47.57301" lon="-2.24848">
        <ele>-8.3999996185303</ele>
        <time>2021-06-27T06:52:39.000Z</time>
      </trkpt>
      <trkpt lat="47.57297" lon="-2.24849">
        <ele>-8.3999996185303</ele>
        <time>2021-06-27T06:52:40.000Z</time>
      </trkpt>
      <trkpt lat="47.5729" lon="-2.24854">
        <ele>-8.3999996185303</ele>
        <time>2021-06-27T06:52:42.000Z</time>
      </trkpt>
      <trkpt lat="47.57287" lon="-2.24858">
        <ele>-8.3999996185303</ele>
        <time>2021-06-27T06:52:43.000Z</time>
      </trkpt>
      <trkpt lat="47.57286" lon="-2.24871">
        <ele>-8.3999996185303</ele>
        <time>2021-06-27T06:52:47.000Z</time>
      </trkpt>
      <trkpt lat="47.57287" lon="-2.24876">
        <ele>-8.3999996185303</ele>
        <time>2021-06-27T06:52:48.000Z</time>
      </trkpt>
      <trkpt lat="47.57291" lon="-2.24895">
        <ele>-8.8000001907349</ele>
        <time>2021-06-27T06:52:52.000Z</time>
      </trkpt>
      <trkpt lat="47.57291" lon="-2.24899">
        <ele>-9.8000001907349</ele>
        <time>2021-06-27T06:52:53.000Z</time>
      </trkpt>
      <trkpt lat="47.5729" lon="-2.24901">
        <ele>-10.199999809265</ele>
        <time>2021-06-27T06:52:54.000Z</time>
      </trkpt>
      <trkpt lat="47.57288" lon="-2.24904">
        <ele>-10.60000038147</ele>
        <time>2021-06-27T06:52:55.000Z</time>
      </trkpt>
      <trkpt lat="47.57282" lon="-2.24908">
        <ele>-10.60000038147</ele>
        <time>2021-06-27T06:52:57.000Z</time>
      </trkpt>
      <trkpt lat="47.57278" lon="-2.2491">
        <ele>-11</ele>
        <time>2021-06-27T06:53:00.000Z</time>
      </trkpt>
      <trkpt lat="47.57277" lon="-2.24911">
        <ele>-11.60000038147</ele>
        <time>2021-06-27T06:53:01.000Z</time>
      </trkpt>
      <trkpt lat="47.57276" lon="-2.24911">
        <ele>-12</ele>
        <time>2021-06-27T06:53:02.000Z</time>
      </trkpt>
      <trkpt lat="47.57276" lon="-2.24912">
        <ele>-12.39999961853</ele>
        <time>2021-06-27T06:53:03.000Z</time>
      </trkpt>
      <trkpt lat="47.57275" lon="-2.24912">
        <ele>-12.800000190735</ele>
        <time>2021-06-27T06:53:04.000Z</time>
      </trkpt>
      <trkpt lat="47.57268" lon="-2.24912">
        <ele>-12.800000190735</ele>
        <time>2021-06-27T06:53:09.000Z</time>
      </trkpt>
      <trkpt lat="47.5726" lon="-2.24913">
        <ele>-12.800000190735</ele>
        <time>2021-06-27T06:53:15.000Z</time>
      </trkpt>
      <trkpt lat="47.57258" lon="-2.24912">
        <ele>-12.800000190735</ele>
        <time>2021-06-27T06:53:17.000Z</time>
      </trkpt>
      <trkpt lat="47.57257" lon="-2.24912">
        <ele>-11.800000190735</ele>
        <time>2021-06-27T06:53:18.000Z</time>
      </trkpt>
      <trkpt lat="47.57256" lon="-2.24912">
        <ele>-11.39999961853</ele>
        <time>2021-06-27T06:53:19.000Z</time>
      </trkpt>
      <trkpt lat="47.57255" lon="-2.24912">
        <ele>-11</ele>
        <time>2021-06-27T06:53:20.000Z</time>
      </trkpt>
      <trkpt lat="47.57254" lon="-2.24911">
        <ele>-10.39999961853</ele>
        <time>2021-06-27T06:53:21.000Z</time>
      </trkpt>
      <trkpt lat="47.57253" lon="-2.24911">
        <ele>-10.39999961853</ele>
        <time>2021-06-27T06:53:22.000Z</time>
      </trkpt>
      <trkpt lat="47.57224" lon="-2.24914">
        <ele>18.9</ele>
        <time>2021-06-27T06:55:02.000Z</time>
      </trkpt>
      <trkpt lat="47.57221" lon="-2.24915">
        <ele>0.40000000596046</ele>
        <time>2021-06-27T06:55:03.000Z</time>
      </trkpt>
      <trkpt lat="47.57219" lon="-2.24916">
        <ele>0.80000001192093</ele>
        <time>2021-06-27T06:55:04.000Z</time>
      </trkpt>
      <trkpt lat="47.57217" lon="-2.24917">
        <ele>1.3999999761581</ele>
        <time>2021-06-27T06:55:05.000Z</time>
      </trkpt>
      <trkpt lat="47.57214" lon="-2.24917">
        <ele>1.7999999523163</ele>
        <time>2021-06-27T06:55:06.000Z</time>
      </trkpt>
      <trkpt lat="47.57212" lon="-2.24918">
        <ele>2.2000000476837</ele>
        <time>2021-06-27T06:55:07.000Z</time>
      </trkpt>
      <trkpt lat="47.57206" lon="-2.2492">
        <ele>2.2000000476837</ele>
        <time>2021-06-27T06:55:10.000Z</time>
      </trkpt>
      <trkpt lat="47.57204" lon="-2.24921">
        <ele>2.5999999046326</ele>
        <time>2021-06-27T06:55:11.000Z</time>
      </trkpt>
      <trkpt lat="47.57202" lon="-2.24921">
        <ele>3.2000000476837</ele>
        <time>2021-06-27T06:55:12.000Z</time>
      </trkpt>
      <trkpt lat="47.57201" lon="-2.24921">
        <ele>3.5999999046326</ele>
        <time>2021-06-27T06:55:13.000Z</time>
      </trkpt>
      <trkpt lat="47.57199" lon="-2.24922">
        <ele>4</ele>
        <time>2021-06-27T06:55:14.000Z</time>
      </trkpt>
      <trkpt lat="47.57197" lon="-2.24923">
        <ele>4.4000000953674</ele>
        <time>2021-06-27T06:55:15.000Z</time>
      </trkpt>
      <trkpt lat="47.57191" lon="-2.24924">
        <ele>4.4000000953674</ele>
        <time>2021-06-27T06:55:18.000Z</time>
      </trkpt>
      <trkpt lat="47.57189" lon="-2.24924">
        <ele>4.8000001907349</ele>
        <time>2021-06-27T06:55:19.000Z</time>
      </trkpt>
      <trkpt lat="47.57188" lon="-2.24925">
        <ele>5.1999998092651</ele>
        <time>2021-06-27T06:55:20.000Z</time>
      </trkpt>
      <trkpt lat="47.57187" lon="-2.24925">
        <ele>6</ele>
        <time>2021-06-27T06:55:21.000Z</time>
      </trkpt>
      <trkpt lat="47.57185" lon="-2.24925">
        <ele>6.4000000953674</ele>
        <time>2021-06-27T06:55:22.000Z</time>
      </trkpt>
      <trkpt lat="47.5718" lon="-2.24926">
        <ele>6.4000000953674</ele>
        <time>2021-06-27T06:55:26.000Z</time>
      </trkpt>
      <trkpt lat="47.57176" lon="-2.24927">
        <ele>6.8000001907349</ele>
        <time>2021-06-27T06:55:29.000Z</time>
      </trkpt>
      <trkpt lat="47.57175" lon="-2.24927">
        <ele>7.1999998092651</ele>
        <time>2021-06-27T06:55:30.000Z</time>
      </trkpt>
      <trkpt lat="47.57174" lon="-2.24927">
        <ele>7.5999999046326</ele>
        <time>2021-06-27T06:55:31.000Z</time>
      </trkpt>
      <trkpt lat="47.57171" lon="-2.24929">
        <ele>8</ele>
        <time>2021-06-27T06:55:32.000Z</time>
      </trkpt>
      <trkpt lat="47.57167" lon="-2.2493">
        <ele>8.3999996185303</ele>
        <time>2021-06-27T06:55:33.000Z</time>
      </trkpt>
      <trkpt lat="47.57157" lon="-2.24932">
        <ele>8.3999996185303</ele>
        <time>2021-06-27T06:55:39.000Z</time>
      </trkpt>
      <trkpt lat="47.57155" lon="-2.24933">
        <ele>8.8000001907349</ele>
        <time>2021-06-27T06:55:41.000Z</time>
      </trkpt>
      <trkpt lat="47.57146" lon="-2.24932">
        <ele>10.60000038147</ele>
        <time>2021-06-27T06:55:48.000Z</time>
      </trkpt>
      <trkpt lat="47.57141" lon="-2.24933">
        <ele>10.60000038147</ele>
        <time>2021-06-27T06:55:50.000Z</time>
      </trkpt>
      <trkpt lat="47.57123" lon="-2.2494">
        <ele>10.60000038147</ele>
        <time>2021-06-27T06:55:56.000Z</time>
      </trkpt>
      <trkpt lat="47.57113" lon="-2.24947">
        <ele>10.60000038147</ele>
        <time>2021-06-27T06:56:02.000Z</time>
      </trkpt>
      <trkpt lat="47.571" lon="-2.24951">
        <ele>10.60000038147</ele>
        <time>2021-06-27T06:56:07.000Z</time>
      </trkpt>
      <trkpt lat="47.57098" lon="-2.2495">
        <ele>10.60000038147</ele>
        <time>2021-06-27T06:56:08.000Z</time>
      </trkpt>
      <trkpt lat="47.57093" lon="-2.24943">
        <ele>10.60000038147</ele>
        <time>2021-06-27T06:56:12.000Z</time>
      </trkpt>
      <trkpt lat="47.57086" lon="-2.24931">
        <ele>10.60000038147</ele>
        <time>2021-06-27T06:56:17.000Z</time>
      </trkpt>
      <trkpt lat="47.57084" lon="-2.24928">
        <ele>10.60000038147</ele>
        <time>2021-06-27T06:56:18.000Z</time>
      </trkpt>
      <trkpt lat="47.57079" lon="-2.24911">
        <ele>10.60000038147</ele>
        <time>2021-06-27T06:56:23.000Z</time>
      </trkpt>
      <trkpt lat="47.57072" lon="-2.24887">
        <ele>10.60000038147</ele>
        <time>2021-06-27T06:56:29.000Z</time>
      </trkpt>
      <trkpt lat="47.57069" lon="-2.24871">
        <ele>11</ele>
        <time>2021-06-27T06:56:33.000Z</time>
      </trkpt>
      <trkpt lat="47.57068" lon="-2.24867">
        <ele>11.39999961853</ele>
        <time>2021-06-27T06:56:34.000Z</time>
      </trkpt>
      <trkpt lat="47.57067" lon="-2.24863">
        <ele>12.199999809265</ele>
        <time>2021-06-27T06:56:35.000Z</time>
      </trkpt>
      <trkpt lat="47.57065" lon="-2.2486">
        <ele>12.60000038147</ele>
        <time>2021-06-27T06:56:36.000Z</time>
      </trkpt>
      <trkpt lat="47.57061" lon="-2.24845">
        <ele>12.60000038147</ele>
        <time>2021-06-27T06:56:40.000Z</time>
      </trkpt>
      <trkpt lat="47.57058" lon="-2.2483">
        <ele>13</ele>
        <time>2021-06-27T06:56:44.000Z</time>
      </trkpt>
      <trkpt lat="47.57057" lon="-2.24826">
        <ele>13.39999961853</ele>
        <time>2021-06-27T06:56:45.000Z</time>
      </trkpt>
      <trkpt lat="47.57056" lon="-2.24822">
        <ele>13.800000190735</ele>
        <time>2021-06-27T06:56:46.000Z</time>
      </trkpt>
      <trkpt lat="47.57056" lon="-2.24818">
        <ele>14.199999809265</ele>
        <time>2021-06-27T06:56:47.000Z</time>
      </trkpt>
      <trkpt lat="47.57055" lon="-2.24814">
        <ele>14.60000038147</ele>
        <time>2021-06-27T06:56:48.000Z</time>
      </trkpt>
      <trkpt lat="47.57053" lon="-2.248">
        <ele>14.60000038147</ele>
        <time>2021-06-27T06:56:51.000Z</time>
      </trkpt>
      <trkpt lat="47.57051" lon="-2.24787">
        <ele>15.199999809265</ele>
        <time>2021-06-27T06:56:54.000Z</time>
      </trkpt>
      <trkpt lat="47.5705" lon="-2.24783">
        <ele>15.60000038147</ele>
        <time>2021-06-27T06:56:55.000Z</time>
      </trkpt>
      <trkpt lat="47.57049" lon="-2.24779">
        <ele>16</ele>
        <time>2021-06-27T06:56:56.000Z</time>
      </trkpt>
      <trkpt lat="47.57048" lon="-2.24775">
        <ele>16.39999961853</ele>
        <time>2021-06-27T06:56:57.000Z</time>
      </trkpt>
      <trkpt lat="47.57047" lon="-2.24772">
        <ele>17</ele>
        <time>2021-06-27T06:56:58.000Z</time>
      </trkpt>
      <trkpt lat="47.57045" lon="-2.2476">
        <ele>17.39999961853</ele>
        <time>2021-06-27T06:57:01.000Z</time>
      </trkpt>
      <trkpt lat="47.57044" lon="-2.24756">
        <ele>17.799999237061</ele>
        <time>2021-06-27T06:57:02.000Z</time>
      </trkpt>
      <trkpt lat="47.57043" lon="-2.24753">
        <ele>18.200000762939</ele>
        <time>2021-06-27T06:57:03.000Z</time>
      </trkpt>
      <trkpt lat="47.57043" lon="-2.2475">
        <ele>18.60000038147</ele>
        <time>2021-06-27T06:57:04.000Z</time>
      </trkpt>
      <trkpt lat="47.57042" lon="-2.24746">
        <ele>19</ele>
        <time>2021-06-27T06:57:05.000Z</time>
      </trkpt>
      <trkpt lat="47.57039" lon="-2.24736">
        <ele>19</ele>
        <time>2021-06-27T06:57:08.000Z</time>
      </trkpt>
      <trkpt lat="47.57037" lon="-2.24726">
        <ele>19.39999961853</ele>
        <time>2021-06-27T06:57:11.000Z</time>
      </trkpt>
      <trkpt lat="47.57036" lon="-2.24723">
        <ele>19.799999237061</ele>
        <time>2021-06-27T06:57:12.000Z</time>
      </trkpt>
      <trkpt lat="47.57036" lon="-2.24719">
        <ele>20.200000762939</ele>
        <time>2021-06-27T06:57:13.000Z</time>
      </trkpt>
      <trkpt lat="47.57035" lon="-2.24716">
        <ele>20.60000038147</ele>
        <time>2021-06-27T06:57:14.000Z</time>
      </trkpt>
      <trkpt lat="47.57035" lon="-2.24712">
        <ele>21</ele>
        <time>2021-06-27T06:57:15.000Z</time>
      </trkpt>
      <trkpt lat="47.57034" lon="-2.24709">
        <ele>21</ele>
        <time>2021-06-27T06:57:16.000Z</time>
      </trkpt>
      <trkpt lat="47.5703" lon="-2.24698">
        <ele>21</ele>
        <time>2021-06-27T06:57:19.000Z</time>
      </trkpt>
      <trkpt lat="47.57025" lon="-2.2468">
        <ele>21.39999961853</ele>
        <time>2021-06-27T06:57:23.000Z</time>
      </trkpt>
      <trkpt lat="47.57024" lon="-2.24675">
        <ele>21.799999237061</ele>
        <time>2021-06-27T06:57:24.000Z</time>
      </trkpt>
      <trkpt lat="47.57023" lon="-2.2467">
        <ele>22.60000038147</ele>
        <time>2021-06-27T06:57:25.000Z</time>
      </trkpt>
      <trkpt lat="47.57022" lon="-2.24666">
        <ele>23.200000762939</ele>
        <time>2021-06-27T06:57:26.000Z</time>
      </trkpt>
      <trkpt lat="47.57018" lon="-2.24631">
        <ele>23.200000762939</ele>
        <time>2021-06-27T06:57:33.000Z</time>
      </trkpt>
      <trkpt lat="47.57016" lon="-2.24622">
        <ele>23.60000038147</ele>
        <time>2021-06-27T06:57:35.000Z</time>
      </trkpt>
      <trkpt lat="47.57015" lon="-2.24617">
        <ele>24</ele>
        <time>2021-06-27T06:57:36.000Z</time>
      </trkpt>
      <trkpt lat="47.57015" lon="-2.24613">
        <ele>24.39999961853</ele>
        <time>2021-06-27T06:57:37.000Z</time>
      </trkpt>
      <trkpt lat="47.57014" lon="-2.24608">
        <ele>24.799999237061</ele>
        <time>2021-06-27T06:57:38.000Z</time>
      </trkpt>
      <trkpt lat="47.57013" lon="-2.24604">
        <ele>25.200000762939</ele>
        <time>2021-06-27T06:57:39.000Z</time>
      </trkpt>
      <trkpt lat="47.57012" lon="-2.24592">
        <ele>25.200000762939</ele>
        <time>2021-06-27T06:57:42.000Z</time>
      </trkpt>
      <trkpt lat="47.57009" lon="-2.24567">
        <ele>25.60000038147</ele>
        <time>2021-06-27T06:57:48.000Z</time>
      </trkpt>
      <trkpt lat="47.57008" lon="-2.24563">
        <ele>26.39999961853</ele>
        <time>2021-06-27T06:57:49.000Z</time>
      </trkpt>
      <trkpt lat="47.57007" lon="-2.24558">
        <ele>26.799999237061</ele>
        <time>2021-06-27T06:57:50.000Z</time>
      </trkpt>
      <trkpt lat="47.57007" lon="-2.24554">
        <ele>27.200000762939</ele>
        <time>2021-06-27T06:57:51.000Z</time>
      </trkpt>
      <trkpt lat="47.57004" lon="-2.24536">
        <ele>27.200000762939</ele>
        <time>2021-06-27T06:57:55.000Z</time>
      </trkpt>
      <trkpt lat="47.56996" lon="-2.24494">
        <ele>27.200000762939</ele>
        <time>2021-06-27T06:58:03.000Z</time>
      </trkpt>
      <trkpt lat="47.56991" lon="-2.2447">
        <ele>27.200000762939</ele>
        <time>2021-06-27T06:58:07.000Z</time>
      </trkpt>
      <trkpt lat="47.5699" lon="-2.24464">
        <ele>27.200000762939</ele>
        <time>2021-06-27T06:58:08.000Z</time>
      </trkpt>
      <trkpt lat="47.56986" lon="-2.24434">
        <ele>28</ele>
        <time>2021-06-27T06:58:13.000Z</time>
      </trkpt>
      <trkpt lat="47.56985" lon="-2.24428">
        <ele>28.60000038147</ele>
        <time>2021-06-27T06:58:14.000Z</time>
      </trkpt>
      <trkpt lat="47.56984" lon="-2.24421">
        <ele>29</ele>
        <time>2021-06-27T06:58:15.000Z</time>
      </trkpt>
      <trkpt lat="47.56983" lon="-2.24415">
        <ele>29.39999961853</ele>
        <time>2021-06-27T06:58:16.000Z</time>
      </trkpt>
      <trkpt lat="47.5698" lon="-2.24402">
        <ele>29.39999961853</ele>
        <time>2021-06-27T06:58:18.000Z</time>
      </trkpt>
      <trkpt lat="47.56976" lon="-2.24376">
        <ele>29.39999961853</ele>
        <time>2021-06-27T06:58:22.000Z</time>
      </trkpt>
      <trkpt lat="47.56974" lon="-2.24364">
        <ele>29.39999961853</ele>
        <time>2021-06-27T06:58:24.000Z</time>
      </trkpt>
      <trkpt lat="47.56972" lon="-2.24352">
        <ele>29.39999961853</ele>
        <time>2021-06-27T06:58:26.000Z</time>
      </trkpt>
      <trkpt lat="47.5697" lon="-2.2434">
        <ele>29.39999961853</ele>
        <time>2021-06-27T06:58:28.000Z</time>
      </trkpt>
      <trkpt lat="47.56968" lon="-2.24327">
        <ele>29.39999961853</ele>
        <time>2021-06-27T06:58:30.000Z</time>
      </trkpt>
      <trkpt lat="47.56965" lon="-2.24314">
        <ele>29.39999961853</ele>
        <time>2021-06-27T06:58:32.000Z</time>
      </trkpt>
      <trkpt lat="47.56963" lon="-2.24302">
        <ele>29.39999961853</ele>
        <time>2021-06-27T06:58:34.000Z</time>
      </trkpt>
      <trkpt lat="47.56956" lon="-2.24258">
        <ele>29.39999961853</ele>
        <time>2021-06-27T06:58:41.000Z</time>
      </trkpt>
      <trkpt lat="47.5695" lon="-2.24233">
        <ele>29.799999237061</ele>
        <time>2021-06-27T06:58:46.000Z</time>
      </trkpt>
      <trkpt lat="47.56949" lon="-2.24229">
        <ele>30.200000762939</ele>
        <time>2021-06-27T06:58:47.000Z</time>
      </trkpt>
      <trkpt lat="47.56948" lon="-2.24225">
        <ele>30.60000038147</ele>
        <time>2021-06-27T06:58:48.000Z</time>
      </trkpt>
      <trkpt lat="47.56947" lon="-2.24221">
        <ele>31</ele>
        <time>2021-06-27T06:58:49.000Z</time>
      </trkpt>
      <trkpt lat="47.56947" lon="-2.24217">
        <ele>31.39999961853</ele>
        <time>2021-06-27T06:58:50.000Z</time>
      </trkpt>
      <trkpt lat="47.56945" lon="-2.24209">
        <ele>31.39999961853</ele>
        <time>2021-06-27T06:58:54.000Z</time>
      </trkpt>
      <trkpt lat="47.56945" lon="-2.24209">
        <ele>31.39999961853</ele>
        <time>2021-06-27T06:58:55.000Z</time>
      </trkpt>
      <trkpt lat="47.56943" lon="-2.24205">
        <ele>31.39999961853</ele>
        <time>2021-06-27T06:59:23.000Z</time>
      </trkpt>
      <trkpt lat="47.56939" lon="-2.24206">
        <ele>31.39999961853</ele>
        <time>2021-06-27T06:59:25.000Z</time>
      </trkpt>
      <trkpt lat="47.56928" lon="-2.24211">
        <ele>31.39999961853</ele>
        <time>2021-06-27T06:59:29.000Z</time>
      </trkpt>
      <trkpt lat="47.56925" lon="-2.24212">
        <ele>31.39999961853</ele>
        <time>2021-06-27T06:59:30.000Z</time>
      </trkpt>
      <trkpt lat="47.56914" lon="-2.24204">
        <ele>31.39999961853</ele>
        <time>2021-06-27T06:59:34.000Z</time>
      </trkpt>
      <trkpt lat="47.56908" lon="-2.24181">
        <ele>31.39999961853</ele>
        <time>2021-06-27T06:59:39.000Z</time>
      </trkpt>
      <trkpt lat="47.569" lon="-2.24148">
        <ele>31.39999961853</ele>
        <time>2021-06-27T06:59:45.000Z</time>
      </trkpt>
      <trkpt lat="47.56892" lon="-2.24108">
        <ele>31.39999961853</ele>
        <time>2021-06-27T06:59:52.000Z</time>
      </trkpt>
      <trkpt lat="47.56882" lon="-2.24067">
        <ele>31.39999961853</ele>
        <time>2021-06-27T06:59:59.000Z</time>
      </trkpt>
      <trkpt lat="47.56872" lon="-2.24022">
        <ele>31.39999961853</ele>
        <time>2021-06-27T07:00:07.000Z</time>
      </trkpt>
      <trkpt lat="47.56865" lon="-2.23985">
        <ele>31.39999961853</ele>
        <time>2021-06-27T07:00:14.000Z</time>
      </trkpt>
      <trkpt lat="47.56857" lon="-2.23947">
        <ele>31.39999961853</ele>
        <time>2021-06-27T07:00:23.000Z</time>
      </trkpt>
      <trkpt lat="47.56851" lon="-2.23922">
        <ele>31.39999961853</ele>
        <time>2021-06-27T07:00:29.000Z</time>
      </trkpt>
      <trkpt lat="47.56843" lon="-2.23892">
        <ele>31.39999961853</ele>
        <time>2021-06-27T07:00:36.000Z</time>
      </trkpt>
      <trkpt lat="47.56837" lon="-2.23873">
        <ele>31.39999961853</ele>
        <time>2021-06-27T07:00:41.000Z</time>
      </trkpt>
      <trkpt lat="47.56834" lon="-2.23854">
        <ele>31.39999961853</ele>
        <time>2021-06-27T07:00:45.000Z</time>
      </trkpt>
      <trkpt lat="47.56827" lon="-2.23822">
        <ele>31.39999961853</ele>
        <time>2021-06-27T07:00:51.000Z</time>
      </trkpt>
      <trkpt lat="47.5682" lon="-2.23787">
        <ele>31.39999961853</ele>
        <time>2021-06-27T07:00:57.000Z</time>
      </trkpt>
      <trkpt lat="47.5681" lon="-2.23754">
        <ele>31.39999961853</ele>
        <time>2021-06-27T07:01:03.000Z</time>
      </trkpt>
      <trkpt lat="47.56805" lon="-2.23738">
        <ele>31</ele>
        <time>2021-06-27T07:01:06.000Z</time>
      </trkpt>
      <trkpt lat="47.56804" lon="-2.23733">
        <ele>30.60000038147</ele>
        <time>2021-06-27T07:01:07.000Z</time>
      </trkpt>
      <trkpt lat="47.56802" lon="-2.23728">
        <ele>30.200000762939</ele>
        <time>2021-06-27T07:01:08.000Z</time>
      </trkpt>
      <trkpt lat="47.56801" lon="-2.23724">
        <ele>29.60000038147</ele>
        <time>2021-06-27T07:01:09.000Z</time>
      </trkpt>
      <trkpt lat="47.568" lon="-2.2372">
        <ele>29.200000762939</ele>
        <time>2021-06-27T07:01:10.000Z</time>
      </trkpt>
      <trkpt lat="47.56796" lon="-2.23702">
        <ele>29.200000762939</ele>
        <time>2021-06-27T07:01:14.000Z</time>
      </trkpt>
      <trkpt lat="47.56791" lon="-2.23683">
        <ele>28.799999237061</ele>
        <time>2021-06-27T07:01:19.000Z</time>
      </trkpt>
      <trkpt lat="47.56791" lon="-2.2368">
        <ele>28.39999961853</ele>
        <time>2021-06-27T07:01:20.000Z</time>
      </trkpt>
      <trkpt lat="47.56792" lon="-2.23678">
        <ele>28</ele>
        <time>2021-06-27T07:01:21.000Z</time>
      </trkpt>
      <trkpt lat="47.56793" lon="-2.23675">
        <ele>27.60000038147</ele>
        <time>2021-06-27T07:01:22.000Z</time>
      </trkpt>
      <trkpt lat="47.56794" lon="-2.23673">
        <ele>27.200000762939</ele>
        <time>2021-06-27T07:01:23.000Z</time>
      </trkpt>
      <trkpt lat="47.56794" lon="-2.23668">
        <ele>27.200000762939</ele>
        <time>2021-06-27T07:01:25.000Z</time>
      </trkpt>
      <trkpt lat="47.56793" lon="-2.23664">
        <ele>26.60000038147</ele>
        <time>2021-06-27T07:01:26.000Z</time>
      </trkpt>
      <trkpt lat="47.56792" lon="-2.23661">
        <ele>26.200000762939</ele>
        <time>2021-06-27T07:01:27.000Z</time>
      </trkpt>
      <trkpt lat="47.56791" lon="-2.23658">
        <ele>25.799999237061</ele>
        <time>2021-06-27T07:01:28.000Z</time>
      </trkpt>
      <trkpt lat="47.56789" lon="-2.23655">
        <ele>25.39999961853</ele>
        <time>2021-06-27T07:01:29.000Z</time>
      </trkpt>
      <trkpt lat="47.56788" lon="-2.23651">
        <ele>25</ele>
        <time>2021-06-27T07:01:30.000Z</time>
      </trkpt>
      <trkpt lat="47.56785" lon="-2.2364">
        <ele>25</ele>
        <time>2021-06-27T07:01:33.000Z</time>
      </trkpt>
      <trkpt lat="47.56784" lon="-2.23637">
        <ele>25</ele>
        <time>2021-06-27T07:01:34.000Z</time>
      </trkpt>
      <trkpt lat="47.56781" lon="-2.23633">
        <ele>24.60000038147</ele>
        <time>2021-06-27T07:01:36.000Z</time>
      </trkpt>
      <trkpt lat="47.5678" lon="-2.23633">
        <ele>24.200000762939</ele>
        <time>2021-06-27T07:01:37.000Z</time>
      </trkpt>
      <trkpt lat="47.56779" lon="-2.23633">
        <ele>23.799999237061</ele>
        <time>2021-06-27T07:01:38.000Z</time>
      </trkpt>
      <trkpt lat="47.56778" lon="-2.23634">
        <ele>23.39999961853</ele>
        <time>2021-06-27T07:01:39.000Z</time>
      </trkpt>
      <trkpt lat="47.56778" lon="-2.23636">
        <ele>23</ele>
        <time>2021-06-27T07:01:40.000Z</time>
      </trkpt>
      <trkpt lat="47.56777" lon="-2.23637">
        <ele>23</ele>
        <time>2021-06-27T07:01:41.000Z</time>
      </trkpt>
      <trkpt lat="47.56772" lon="-2.23652">
        <ele>23</ele>
        <time>2021-06-27T07:01:47.000Z</time>
      </trkpt>
      <trkpt lat="47.56771" lon="-2.23654">
        <ele>23.39999961853</ele>
        <time>2021-06-27T07:01:48.000Z</time>
      </trkpt>
      <trkpt lat="47.56769" lon="-2.23656">
        <ele>23.799999237061</ele>
        <time>2021-06-27T07:01:49.000Z</time>
      </trkpt>
      <trkpt lat="47.56767" lon="-2.23657">
        <ele>24.200000762939</ele>
        <time>2021-06-27T07:01:50.000Z</time>
      </trkpt>
      <trkpt lat="47.56765" lon="-2.23658">
        <ele>24.60000038147</ele>
        <time>2021-06-27T07:01:51.000Z</time>
      </trkpt>
      <trkpt lat="47.56764" lon="-2.23658">
        <ele>25</ele>
        <time>2021-06-27T07:01:52.000Z</time>
      </trkpt>
      <trkpt lat="47.56758" lon="-2.2366">
        <ele>25</ele>
        <time>2021-06-27T07:01:57.000Z</time>
      </trkpt>
      <trkpt lat="47.56754" lon="-2.23654">
        <ele>25</ele>
        <time>2021-06-27T07:02:01.000Z</time>
      </trkpt>
      <trkpt lat="47.56752" lon="-2.2365">
        <ele>25</ele>
        <time>2021-06-27T07:02:03.000Z</time>
      </trkpt>
      <trkpt lat="47.5675" lon="-2.23647">
        <ele>24.60000038147</ele>
        <time>2021-06-27T07:02:04.000Z</time>
      </trkpt>
      <trkpt lat="47.56749" lon="-2.23645">
        <ele>24.200000762939</ele>
        <time>2021-06-27T07:02:05.000Z</time>
      </trkpt>
      <trkpt lat="47.56748" lon="-2.23644">
        <ele>23.799999237061</ele>
        <time>2021-06-27T07:02:06.000Z</time>
      </trkpt>
      <trkpt lat="47.56747" lon="-2.23643">
        <ele>23.39999961853</ele>
        <time>2021-06-27T07:02:07.000Z</time>
      </trkpt>
      <trkpt lat="47.56746" lon="-2.23644">
        <ele>23</ele>
        <time>2021-06-27T07:02:08.000Z</time>
      </trkpt>
      <trkpt lat="47.56745" lon="-2.23645">
        <ele>23</ele>
        <time>2021-06-27T07:02:09.000Z</time>
      </trkpt>
      <trkpt lat="47.56741" lon="-2.23648">
        <ele>23</ele>
        <time>2021-06-27T07:02:12.000Z</time>
      </trkpt>
      <trkpt lat="47.56737" lon="-2.23649">
        <ele>23</ele>
        <time>2021-06-27T07:02:14.000Z</time>
      </trkpt>
      <trkpt lat="47.56734" lon="-2.23651">
        <ele>23</ele>
        <time>2021-06-27T07:02:16.000Z</time>
      </trkpt>
      <trkpt lat="47.56733" lon="-2.23655">
        <ele>23.39999961853</ele>
        <time>2021-06-27T07:02:18.000Z</time>
      </trkpt>
      <trkpt lat="47.56733" lon="-2.23657">
        <ele>23.799999237061</ele>
        <time>2021-06-27T07:02:19.000Z</time>
      </trkpt>
      <trkpt lat="47.56732" lon="-2.2366">
        <ele>24.60000038147</ele>
        <time>2021-06-27T07:02:20.000Z</time>
      </trkpt>
      <trkpt lat="47.56733" lon="-2.23664">
        <ele>25</ele>
        <time>2021-06-27T07:02:21.000Z</time>
      </trkpt>
      <trkpt lat="47.56731" lon="-2.23673">
        <ele>25.39999961853</ele>
        <time>2021-06-27T07:02:25.000Z</time>
      </trkpt>
      <trkpt lat="47.5673" lon="-2.23675">
        <ele>25.799999237061</ele>
        <time>2021-06-27T07:02:26.000Z</time>
      </trkpt>
      <trkpt lat="47.5673" lon="-2.23678">
        <ele>26.200000762939</ele>
        <time>2021-06-27T07:02:27.000Z</time>
      </trkpt>
      <trkpt lat="47.56729" lon="-2.23681">
        <ele>26.60000038147</ele>
        <time>2021-06-27T07:02:28.000Z</time>
      </trkpt>
      <trkpt lat="47.56728" lon="-2.23682">
        <ele>27</ele>
        <time>2021-06-27T07:02:29.000Z</time>
      </trkpt>
      <trkpt lat="47.56725" lon="-2.23681">
        <ele>27</ele>
        <time>2021-06-27T07:02:33.000Z</time>
      </trkpt>
      <trkpt lat="47.56716" lon="-2.23681">
        <ele>27</ele>
        <time>2021-06-27T07:02:39.000Z</time>
      </trkpt>
      <trkpt lat="47.56711" lon="-2.23692">
        <ele>27.60000038147</ele>
        <time>2021-06-27T07:02:44.000Z</time>
      </trkpt>
      <trkpt lat="47.56711" lon="-2.23695">
        <ele>28.39999961853</ele>
        <time>2021-06-27T07:02:45.000Z</time>
      </trkpt>
      <trkpt lat="47.5671" lon="-2.23697">
        <ele>28.799999237061</ele>
        <time>2021-06-27T07:02:46.000Z</time>
      </trkpt>
      <trkpt lat="47.56708" lon="-2.23699">
        <ele>29.200000762939</ele>
        <time>2021-06-27T07:02:47.000Z</time>
      </trkpt>
      <trkpt lat="47.567" lon="-2.23701">
        <ele>29.200000762939</ele>
        <time>2021-06-27T07:02:52.000Z</time>
      </trkpt>
      <trkpt lat="47.56697" lon="-2.23695">
        <ele>29.200000762939</ele>
        <time>2021-06-27T07:02:55.000Z</time>
      </trkpt>
      <trkpt lat="47.56692" lon="-2.23685">
        <ele>29.200000762939</ele>
        <time>2021-06-27T07:02:58.000Z</time>
      </trkpt>
      <trkpt lat="47.56691" lon="-2.23681">
        <ele>29.200000762939</ele>
        <time>2021-06-27T07:02:59.000Z</time>
      </trkpt>
      <trkpt lat="47.56687" lon="-2.23669">
        <ele>29.200000762939</ele>
        <time>2021-06-27T07:03:03.000Z</time>
      </trkpt>
      <trkpt lat="47.56687" lon="-2.23667">
        <ele>29.200000762939</ele>
        <time>2021-06-27T07:03:04.000Z</time>
      </trkpt>
      <trkpt lat="47.56694" lon="-2.2366">
        <ele>29.200000762939</ele>
        <time>2021-06-27T07:03:09.000Z</time>
      </trkpt>
      <trkpt lat="47.56695" lon="-2.23659">
        <ele>29.200000762939</ele>
        <time>2021-06-27T07:03:10.000Z</time>
      </trkpt>
      <trkpt lat="47.56707" lon="-2.2365">
        <ele>28.799999237061</ele>
        <time>2021-06-27T07:03:16.000Z</time>
      </trkpt>
      <trkpt lat="47.56709" lon="-2.23648">
        <ele>28.39999961853</ele>
        <time>2021-06-27T07:03:17.000Z</time>
      </trkpt>
      <trkpt lat="47.56711" lon="-2.23645">
        <ele>28</ele>
        <time>2021-06-27T07:03:18.000Z</time>
      </trkpt>
      <trkpt lat="47.56714" lon="-2.23643">
        <ele>27.60000038147</ele>
        <time>2021-06-27T07:03:19.000Z</time>
      </trkpt>
      <trkpt lat="47.56716" lon="-2.23639">
        <ele>27.200000762939</ele>
        <time>2021-06-27T07:03:20.000Z</time>
      </trkpt>
      <trkpt lat="47.56719" lon="-2.23635">
        <ele>27.200000762939</ele>
        <time>2021-06-27T07:03:22.000Z</time>
      </trkpt>
      <trkpt lat="47.5672" lon="-2.23627">
        <ele>26.799999237061</ele>
        <time>2021-06-27T07:03:25.000Z</time>
      </trkpt>
      <trkpt lat="47.5672" lon="-2.23625">
        <ele>26.200000762939</ele>
        <time>2021-06-27T07:03:26.000Z</time>
      </trkpt>
      <trkpt lat="47.56721" lon="-2.23622">
        <ele>25.799999237061</ele>
        <time>2021-06-27T07:03:27.000Z</time>
      </trkpt>
      <trkpt lat="47.56721" lon="-2.2362">
        <ele>25.39999961853</ele>
        <time>2021-06-27T07:03:28.000Z</time>
      </trkpt>
      <trkpt lat="47.56723" lon="-2.2362">
        <ele>25</ele>
        <time>2021-06-27T07:03:29.000Z</time>
      </trkpt>
      <trkpt lat="47.56724" lon="-2.23619">
        <ele>25</ele>
        <time>2021-06-27T07:03:30.000Z</time>
      </trkpt>
      <trkpt lat="47.56725" lon="-2.23619">
        <ele>24.39999961853</ele>
        <time>2021-06-27T07:03:31.000Z</time>
      </trkpt>
      <trkpt lat="47.56726" lon="-2.23619">
        <ele>24</ele>
        <time>2021-06-27T07:03:32.000Z</time>
      </trkpt>
      <trkpt lat="47.56727" lon="-2.23618">
        <ele>23.60000038147</ele>
        <time>2021-06-27T07:03:33.000Z</time>
      </trkpt>
      <trkpt lat="47.56727" lon="-2.23618">
        <ele>23.200000762939</ele>
        <time>2021-06-27T07:03:34.000Z</time>
      </trkpt>
      <trkpt lat="47.56728" lon="-2.23617">
        <ele>22.60000038147</ele>
        <time>2021-06-27T07:03:35.000Z</time>
      </trkpt>
      <trkpt lat="47.56728" lon="-2.23616">
        <ele>22.60000038147</ele>
        <time>2021-06-27T07:03:36.000Z</time>
      </trkpt>
      <trkpt lat="47.56745" lon="-2.23604">
        <ele>20.60000038147</ele>
        <time>2021-06-27T07:04:01.000Z</time>
      </trkpt>
      <trkpt lat="47.56751" lon="-2.23608">
        <ele>20.60000038147</ele>
        <time>2021-06-27T07:04:05.000Z</time>
      </trkpt>
      <trkpt lat="47.56756" lon="-2.23609">
        <ele>20.60000038147</ele>
        <time>2021-06-27T07:04:07.000Z</time>
      </trkpt>
      <trkpt lat="47.56768" lon="-2.23607">
        <ele>20.60000038147</ele>
        <time>2021-06-27T07:04:13.000Z</time>
      </trkpt>
      <trkpt lat="47.56778" lon="-2.23605">
        <ele>20.60000038147</ele>
        <time>2021-06-27T07:04:17.000Z</time>
      </trkpt>
      <trkpt lat="47.5678" lon="-2.23605">
        <ele>20.60000038147</ele>
        <time>2021-06-27T07:04:18.000Z</time>
      </trkpt>
      <trkpt lat="47.5679" lon="-2.23615">
        <ele>20.60000038147</ele>
        <time>2021-06-27T07:04:24.000Z</time>
      </trkpt>
      <trkpt lat="47.56798" lon="-2.23634">
        <ele>20.60000038147</ele>
        <time>2021-06-27T07:04:30.000Z</time>
      </trkpt>
      <trkpt lat="47.56802" lon="-2.23652">
        <ele>20.60000038147</ele>
        <time>2021-06-27T07:04:35.000Z</time>
      </trkpt>
      <trkpt lat="47.56802" lon="-2.23654">
        <ele>21</ele>
        <time>2021-06-27T07:04:36.000Z</time>
      </trkpt>
      <trkpt lat="47.56803" lon="-2.23656">
        <ele>21.39999961853</ele>
        <time>2021-06-27T07:04:37.000Z</time>
      </trkpt>
      <trkpt lat="47.56803" lon="-2.23657">
        <ele>21.799999237061</ele>
        <time>2021-06-27T07:04:38.000Z</time>
      </trkpt>
      <trkpt lat="47.56804" lon="-2.23659">
        <ele>22.200000762939</ele>
        <time>2021-06-27T07:04:39.000Z</time>
      </trkpt>
      <trkpt lat="47.56804" lon="-2.2366">
        <ele>22.60000038147</ele>
        <time>2021-06-27T07:04:40.000Z</time>
      </trkpt>
      <trkpt lat="47.56805" lon="-2.23662">
        <ele>22.60000038147</ele>
        <time>2021-06-27T07:04:42.000Z</time>
      </trkpt>
      <trkpt lat="47.56809" lon="-2.23667">
        <ele>22.60000038147</ele>
        <time>2021-06-27T07:04:57.000Z</time>
      </trkpt>
      <trkpt lat="47.56816" lon="-2.23668">
        <ele>22.60000038147</ele>
        <time>2021-06-27T07:05:00.000Z</time>
      </trkpt>
      <trkpt lat="47.56822" lon="-2.23667">
        <ele>22.200000762939</ele>
        <time>2021-06-27T07:05:02.000Z</time>
      </trkpt>
      <trkpt lat="47.56825" lon="-2.23667">
        <ele>21.799999237061</ele>
        <time>2021-06-27T07:05:03.000Z</time>
      </trkpt>
      <trkpt lat="47.56828" lon="-2.23668">
        <ele>21.39999961853</ele>
        <time>2021-06-27T07:05:04.000Z</time>
      </trkpt>
      <trkpt lat="47.56831" lon="-2.2367">
        <ele>21</ele>
        <time>2021-06-27T07:05:05.000Z</time>
      </trkpt>
      <trkpt lat="47.56834" lon="-2.23671">
        <ele>20.60000038147</ele>
        <time>2021-06-27T07:05:06.000Z</time>
      </trkpt>
      <trkpt lat="47.56837" lon="-2.23672">
        <ele>20.200000762939</ele>
        <time>2021-06-27T07:05:07.000Z</time>
      </trkpt>
      <trkpt lat="47.5684" lon="-2.23675">
        <ele>19.799999237061</ele>
        <time>2021-06-27T07:05:08.000Z</time>
      </trkpt>
      <trkpt lat="47.56844" lon="-2.23678">
        <ele>19.39999961853</ele>
        <time>2021-06-27T07:05:09.000Z</time>
      </trkpt>
      <trkpt lat="47.56847" lon="-2.23683">
        <ele>19</ele>
        <time>2021-06-27T07:05:10.000Z</time>
      </trkpt>
      <trkpt lat="47.5685" lon="-2.23687">
        <ele>18.39999961853</ele>
        <time>2021-06-27T07:05:11.000Z</time>
      </trkpt>
      <trkpt lat="47.56854" lon="-2.2369">
        <ele>17.799999237061</ele>
        <time>2021-06-27T07:05:12.000Z</time>
      </trkpt>
      <trkpt lat="47.56858" lon="-2.23693">
        <ele>16.60000038147</ele>
        <time>2021-06-27T07:05:13.000Z</time>
      </trkpt>
      <trkpt lat="47.56862" lon="-2.23695">
        <ele>16</ele>
        <time>2021-06-27T07:05:14.000Z</time>
      </trkpt>
      <trkpt lat="47.56867" lon="-2.23693">
        <ele>15.39999961853</ele>
        <time>2021-06-27T07:05:15.000Z</time>
      </trkpt>
      <trkpt lat="47.56871" lon="-2.23692">
        <ele>14.800000190735</ele>
        <time>2021-06-27T07:05:16.000Z</time>
      </trkpt>
      <trkpt lat="47.56874" lon="-2.2369">
        <ele>14.199999809265</ele>
        <time>2021-06-27T07:05:17.000Z</time>
      </trkpt>
      <trkpt lat="47.56877" lon="-2.23688">
        <ele>13.60000038147</ele>
        <time>2021-06-27T07:05:18.000Z</time>
      </trkpt>
      <trkpt lat="47.5688" lon="-2.23687">
        <ele>13</ele>
        <time>2021-06-27T07:05:19.000Z</time>
      </trkpt>
      <trkpt lat="47.56883" lon="-2.23685">
        <ele>12.199999809265</ele>
        <time>2021-06-27T07:05:20.000Z</time>
      </trkpt>
      <trkpt lat="47.56886" lon="-2.23683">
        <ele>11.60000038147</ele>
        <time>2021-06-27T07:05:21.000Z</time>
      </trkpt>
      <trkpt lat="47.56889" lon="-2.2368">
        <ele>11</ele>
        <time>2021-06-27T07:05:22.000Z</time>
      </trkpt>
      <trkpt lat="47.56891" lon="-2.23678">
        <ele>10.39999961853</ele>
        <time>2021-06-27T07:05:23.000Z</time>
      </trkpt>
      <trkpt lat="47.56894" lon="-2.23676">
        <ele>9.8000001907349</ele>
        <time>2021-06-27T07:05:24.000Z</time>
      </trkpt>
      <trkpt lat="47.56897" lon="-2.23673">
        <ele>9.1999998092651</ele>
        <time>2021-06-27T07:05:25.000Z</time>
      </trkpt>
      <trkpt lat="47.569" lon="-2.23669">
        <ele>8.6000003814697</ele>
        <time>2021-06-27T07:05:26.000Z</time>
      </trkpt>
      <trkpt lat="47.56904" lon="-2.23664">
        <ele>8</ele>
        <time>2021-06-27T07:05:27.000Z</time>
      </trkpt>
      <trkpt lat="47.56907" lon="-2.23659">
        <ele>7.4000000953674</ele>
        <time>2021-06-27T07:05:28.000Z</time>
      </trkpt>
      <trkpt lat="47.56911" lon="-2.23655">
        <ele>7</ele>
        <time>2021-06-27T07:05:29.000Z</time>
      </trkpt>
      <trkpt lat="47.56915" lon="-2.23651">
        <ele>6.5999999046326</ele>
        <time>2021-06-27T07:05:30.000Z</time>
      </trkpt>
      <trkpt lat="47.56919" lon="-2.23648">
        <ele>6.1999998092651</ele>
        <time>2021-06-27T07:05:31.000Z</time>
      </trkpt>
      <trkpt lat="47.56924" lon="-2.23648">
        <ele>5.8000001907349</ele>
        <time>2021-06-27T07:05:32.000Z</time>
      </trkpt>
      <trkpt lat="47.56929" lon="-2.23647">
        <ele>5.4000000953674</ele>
        <time>2021-06-27T07:05:33.000Z</time>
      </trkpt>
      <trkpt lat="47.56947" lon="-2.23642">
        <ele>5.4000000953674</ele>
        <time>2021-06-27T07:05:36.000Z</time>
      </trkpt>
      <trkpt lat="47.5699" lon="-2.23628">
        <ele>5.4000000953674</ele>
        <time>2021-06-27T07:05:43.000Z</time>
      </trkpt>
      <trkpt lat="47.56998" lon="-2.23623">
        <ele>5.4000000953674</ele>
        <time>2021-06-27T07:05:46.000Z</time>
      </trkpt>
      <trkpt lat="47.57" lon="-2.23619">
        <ele>5.4000000953674</ele>
        <time>2021-06-27T07:05:48.000Z</time>
      </trkpt>
      <trkpt lat="47.57001" lon="-2.23613">
        <ele>5.4000000953674</ele>
        <time>2021-06-27T07:05:50.000Z</time>
      </trkpt>
      <trkpt lat="47.57001" lon="-2.23587">
        <ele>5.4000000953674</ele>
        <time>2021-06-27T07:05:54.000Z</time>
      </trkpt>
      <trkpt lat="47.57" lon="-2.23579">
        <ele>5.4000000953674</ele>
        <time>2021-06-27T07:05:55.000Z</time>
      </trkpt>
      <trkpt lat="47.57" lon="-2.2357">
        <ele>4.8000001907349</ele>
        <time>2021-06-27T07:05:56.000Z</time>
      </trkpt>
      <trkpt lat="47.56999" lon="-2.23561">
        <ele>4.4000000953674</ele>
        <time>2021-06-27T07:05:57.000Z</time>
      </trkpt>
      <trkpt lat="47.56999" lon="-2.2355">
        <ele>4</ele>
        <time>2021-06-27T07:05:58.000Z</time>
      </trkpt>
      <trkpt lat="47.56998" lon="-2.23539">
        <ele>3.5999999046326</ele>
        <time>2021-06-27T07:05:59.000Z</time>
      </trkpt>
      <trkpt lat="47.56998" lon="-2.23527">
        <ele>3.2000000476837</ele>
        <time>2021-06-27T07:06:00.000Z</time>
      </trkpt>
      <trkpt lat="47.56996" lon="-2.23504">
        <ele>2.7999999523163</ele>
        <time>2021-06-27T07:06:02.000Z</time>
      </trkpt>
      <trkpt lat="47.56995" lon="-2.23491">
        <ele>2.4000000953674</ele>
        <time>2021-06-27T07:06:03.000Z</time>
      </trkpt>
      <trkpt lat="47.56994" lon="-2.23478">
        <ele>2</ele>
        <time>2021-06-27T07:06:04.000Z</time>
      </trkpt>
      <trkpt lat="47.56993" lon="-2.23465">
        <ele>1.6000000238419</ele>
        <time>2021-06-27T07:06:05.000Z</time>
      </trkpt>
      <trkpt lat="47.56991" lon="-2.23451">
        <ele>1</ele>
        <time>2021-06-27T07:06:06.000Z</time>
      </trkpt>
      <trkpt lat="47.5699" lon="-2.23438">
        <ele>0.60000002384186</ele>
        <time>2021-06-27T07:06:07.000Z</time>
      </trkpt>
      <trkpt lat="47.56988" lon="-2.23425">
        <ele>18.3</ele>
        <time>2021-06-27T07:06:08.000Z</time>
      </trkpt>
      <trkpt lat="47.56987" lon="-2.23411">
        <ele>-0.40000000596046</ele>
        <time>2021-06-27T07:06:09.000Z</time>
      </trkpt>
      <trkpt lat="47.56986" lon="-2.23399">
        <ele>-0.80000001192093</ele>
        <time>2021-06-27T07:06:10.000Z</time>
      </trkpt>
      <trkpt lat="47.56984" lon="-2.23386">
        <ele>-1.3999999761581</ele>
        <time>2021-06-27T07:06:11.000Z</time>
      </trkpt>
      <trkpt lat="47.56983" lon="-2.23374">
        <ele>-2</ele>
        <time>2021-06-27T07:06:12.000Z</time>
      </trkpt>
      <trkpt lat="47.56982" lon="-2.23362">
        <ele>-2.5999999046326</ele>
        <time>2021-06-27T07:06:13.000Z</time>
      </trkpt>
      <trkpt lat="47.56981" lon="-2.23351">
        <ele>-3.2000000476837</ele>
        <time>2021-06-27T07:06:14.000Z</time>
      </trkpt>
      <trkpt lat="47.5698" lon="-2.23339">
        <ele>-3.7999999523163</ele>
        <time>2021-06-27T07:06:15.000Z</time>
      </trkpt>
      <trkpt lat="47.56976" lon="-2.23295">
        <ele>-3.7999999523163</ele>
        <time>2021-06-27T07:06:19.000Z</time>
      </trkpt>
      <trkpt lat="47.56972" lon="-2.23263">
        <ele>-4.1999998092651</ele>
        <time>2021-06-27T07:06:22.000Z</time>
      </trkpt>
      <trkpt lat="47.56971" lon="-2.23253">
        <ele>-4.5999999046326</ele>
        <time>2021-06-27T07:06:23.000Z</time>
      </trkpt>
      <trkpt lat="47.5697" lon="-2.23243">
        <ele>-5</ele>
        <time>2021-06-27T07:06:24.000Z</time>
      </trkpt>
      <trkpt lat="47.56969" lon="-2.23233">
        <ele>-5.4000000953674</ele>
        <time>2021-06-27T07:06:25.000Z</time>
      </trkpt>
      <trkpt lat="47.56968" lon="-2.23224">
        <ele>-5.8000001907349</ele>
        <time>2021-06-27T07:06:26.000Z</time>
      </trkpt>
      <trkpt lat="47.56967" lon="-2.23215">
        <ele>-5.8000001907349</ele>
        <time>2021-06-27T07:06:27.000Z</time>
      </trkpt>
      <trkpt lat="47.56958" lon="-2.23146">
        <ele>-5.8000001907349</ele>
        <time>2021-06-27T07:06:35.000Z</time>
      </trkpt>
      <trkpt lat="47.56948" lon="-2.23085">
        <ele>-5.8000001907349</ele>
        <time>2021-06-27T07:06:43.000Z</time>
      </trkpt>
      <trkpt lat="47.56939" lon="-2.23019">
        <ele>-5</ele>
        <time>2021-06-27T07:06:52.000Z</time>
      </trkpt>
      <trkpt lat="47.56938" lon="-2.23012">
        <ele>-4.5999999046326</ele>
        <time>2021-06-27T07:06:53.000Z</time>
      </trkpt>
      <trkpt lat="47.56937" lon="-2.23005">
        <ele>-4.1999998092651</ele>
        <time>2021-06-27T07:06:54.000Z</time>
      </trkpt>
      <trkpt lat="47.56936" lon="-2.22999">
        <ele>-3.7999999523163</ele>
        <time>2021-06-27T07:06:55.000Z</time>
      </trkpt>
      <trkpt lat="47.56933" lon="-2.22981">
        <ele>-3.7999999523163</ele>
        <time>2021-06-27T07:06:58.000Z</time>
      </trkpt>
      <trkpt lat="47.56928" lon="-2.22953">
        <ele>-3.2000000476837</ele>
        <time>2021-06-27T07:07:03.000Z</time>
      </trkpt>
      <trkpt lat="47.56928" lon="-2.22948">
        <ele>-2.7999999523163</ele>
        <time>2021-06-27T07:07:04.000Z</time>
      </trkpt>
      <trkpt lat="47.56927" lon="-2.22942">
        <ele>-2.4000000953674</ele>
        <time>2021-06-27T07:07:05.000Z</time>
      </trkpt>
      <trkpt lat="47.56927" lon="-2.22937">
        <ele>-2</ele>
        <time>2021-06-27T07:07:06.000Z</time>
      </trkpt>
      <trkpt lat="47.56926" lon="-2.22931">
        <ele>-1.6000000238419</ele>
        <time>2021-06-27T07:07:07.000Z</time>
      </trkpt>
      <trkpt lat="47.56924" lon="-2.22911">
        <ele>-1.2000000476837</ele>
        <time>2021-06-27T07:07:11.000Z</time>
      </trkpt>
      <trkpt lat="47.56923" lon="-2.22906">
        <ele>-0.60000002384186</ele>
        <time>2021-06-27T07:07:12.000Z</time>
      </trkpt>
      <trkpt lat="47.56922" lon="-2.22902">
        <ele>-0.20000000298023</ele>
        <time>2021-06-27T07:07:13.000Z</time>
      </trkpt>
      <trkpt lat="47.56921" lon="-2.22897">
        <ele>0.20000000298023</ele>
        <time>2021-06-27T07:07:14.000Z</time>
      </trkpt>
      <trkpt lat="47.5692" lon="-2.22892">
        <ele>0.60000002384186</ele>
        <time>2021-06-27T07:07:15.000Z</time>
      </trkpt>
      <trkpt lat="47.56918" lon="-2.22878">
        <ele>1</ele>
        <time>2021-06-27T07:07:18.000Z</time>
      </trkpt>
      <trkpt lat="47.56917" lon="-2.22873">
        <ele>1.3999999761581</ele>
        <time>2021-06-27T07:07:19.000Z</time>
      </trkpt>
      <trkpt lat="47.56916" lon="-2.22869">
        <ele>1.7999999523163</ele>
        <time>2021-06-27T07:07:20.000Z</time>
      </trkpt>
      <trkpt lat="47.56916" lon="-2.22864">
        <ele>2.2000000476837</ele>
        <time>2021-06-27T07:07:21.000Z</time>
      </trkpt>
      <trkpt lat="47.56916" lon="-2.2286">
        <ele>2.7999999523163</ele>
        <time>2021-06-27T07:07:22.000Z</time>
      </trkpt>
      <trkpt lat="47.56915" lon="-2.22837">
        <ele>3.2000000476837</ele>
        <time>2021-06-27T07:07:27.000Z</time>
      </trkpt>
      <trkpt lat="47.56914" lon="-2.22833">
        <ele>3.5999999046326</ele>
        <time>2021-06-27T07:07:28.000Z</time>
      </trkpt>
      <trkpt lat="47.56914" lon="-2.22828">
        <ele>4</ele>
        <time>2021-06-27T07:07:29.000Z</time>
      </trkpt>
      <trkpt lat="47.56913" lon="-2.22823">
        <ele>4.4000000953674</ele>
        <time>2021-06-27T07:07:30.000Z</time>
      </trkpt>
      <trkpt lat="47.56913" lon="-2.22818">
        <ele>4.8000001907349</ele>
        <time>2021-06-27T07:07:31.000Z</time>
      </trkpt>
      <trkpt lat="47.56911" lon="-2.22793">
        <ele>4.8000001907349</ele>
        <time>2021-06-27T07:07:36.000Z</time>
      </trkpt>
      <trkpt lat="47.56911" lon="-2.22773">
        <ele>5.1999998092651</ele>
        <time>2021-06-27T07:07:40.000Z</time>
      </trkpt>
      <trkpt lat="47.56911" lon="-2.22767">
        <ele>6</ele>
        <time>2021-06-27T07:07:41.000Z</time>
      </trkpt>
      <trkpt lat="47.56911" lon="-2.22761">
        <ele>6.4000000953674</ele>
        <time>2021-06-27T07:07:42.000Z</time>
      </trkpt>
      <trkpt lat="47.56911" lon="-2.22755">
        <ele>6.8000001907349</ele>
        <time>2021-06-27T07:07:43.000Z</time>
      </trkpt>
      <trkpt lat="47.56911" lon="-2.22749">
        <ele>6.8000001907349</ele>
        <time>2021-06-27T07:07:44.000Z</time>
      </trkpt>
      <trkpt lat="47.5691" lon="-2.22701">
        <ele>6.8000001907349</ele>
        <time>2021-06-27T07:07:51.000Z</time>
      </trkpt>
      <trkpt lat="47.56909" lon="-2.22674">
        <ele>6.8000001907349</ele>
        <time>2021-06-27T07:07:55.000Z</time>
      </trkpt>
      <trkpt lat="47.56909" lon="-2.22662">
        <ele>6.8000001907349</ele>
        <time>2021-06-27T07:07:57.000Z</time>
      </trkpt>
      <trkpt lat="47.5691" lon="-2.22641">
        <ele>6.8000001907349</ele>
        <time>2021-06-27T07:08:02.000Z</time>
      </trkpt>
      <trkpt lat="47.56913" lon="-2.22622">
        <ele>6.8000001907349</ele>
        <time>2021-06-27T07:08:08.000Z</time>
      </trkpt>
      <trkpt lat="47.56919" lon="-2.22622">
        <ele>6.4000000953674</ele>
        <time>2021-06-27T07:08:12.000Z</time>
      </trkpt>
      <trkpt lat="47.56921" lon="-2.22623">
        <ele>6</ele>
        <time>2021-06-27T07:08:13.000Z</time>
      </trkpt>
      <trkpt lat="47.56923" lon="-2.22623">
        <ele>5.5999999046326</ele>
        <time>2021-06-27T07:08:14.000Z</time>
      </trkpt>
      <trkpt lat="47.56925" lon="-2.22621">
        <ele>5.1999998092651</ele>
        <time>2021-06-27T07:08:15.000Z</time>
      </trkpt>
      <trkpt lat="47.56928" lon="-2.22621">
        <ele>4.5999999046326</ele>
        <time>2021-06-27T07:08:16.000Z</time>
      </trkpt>
      <trkpt lat="47.5693" lon="-2.2262">
        <ele>4.5999999046326</ele>
        <time>2021-06-27T07:08:17.000Z</time>
      </trkpt>
      <trkpt lat="47.56944" lon="-2.2262">
        <ele>4.5999999046326</ele>
        <time>2021-06-27T07:08:22.000Z</time>
      </trkpt>
      <trkpt lat="47.56948" lon="-2.22622">
        <ele>4.1999998092651</ele>
        <time>2021-06-27T07:08:24.000Z</time>
      </trkpt>
      <trkpt lat="47.5695" lon="-2.22624">
        <ele>3.7999999523163</ele>
        <time>2021-06-27T07:08:25.000Z</time>
      </trkpt>
      <trkpt lat="47.56952" lon="-2.22625">
        <ele>3.4000000953674</ele>
        <time>2021-06-27T07:08:26.000Z</time>
      </trkpt>
      <trkpt lat="47.56955" lon="-2.22627">
        <ele>3</ele>
        <time>2021-06-27T07:08:27.000Z</time>
      </trkpt>
      <trkpt lat="47.56957" lon="-2.22628">
        <ele>2.5999999046326</ele>
        <time>2021-06-27T07:08:28.000Z</time>
      </trkpt>
      <trkpt lat="47.56959" lon="-2.22631">
        <ele>2.2000000476837</ele>
        <time>2021-06-27T07:08:29.000Z</time>
      </trkpt>
      <trkpt lat="47.56963" lon="-2.22633">
        <ele>1.2000000476837</ele>
        <time>2021-06-27T07:08:30.000Z</time>
      </trkpt>
      <trkpt lat="47.56966" lon="-2.22634">
        <ele>0.80000001192093</ele>
        <time>2021-06-27T07:08:31.000Z</time>
      </trkpt>
      <trkpt lat="47.56969" lon="-2.22634">
        <ele>0.20000000298023</ele>
        <time>2021-06-27T07:08:32.000Z</time>
      </trkpt>
      <trkpt lat="47.56971" lon="-2.22633">
        <ele>-0.40000000596046</ele>
        <time>2021-06-27T07:08:33.000Z</time>
      </trkpt>
      <trkpt lat="47.56975" lon="-2.22633">
        <ele>-1</ele>
        <time>2021-06-27T07:08:34.000Z</time>
      </trkpt>
      <trkpt lat="47.56979" lon="-2.22631">
        <ele>-1.3999999761581</ele>
        <time>2021-06-27T07:08:35.000Z</time>
      </trkpt>
      <trkpt lat="47.56983" lon="-2.22631">
        <ele>-2</ele>
        <time>2021-06-27T07:08:36.000Z</time>
      </trkpt>
      <trkpt lat="47.56992" lon="-2.22629">
        <ele>-2</ele>
        <time>2021-06-27T07:08:38.000Z</time>
      </trkpt>
      <trkpt lat="47.57007" lon="-2.22636">
        <ele>-2</ele>
        <time>2021-06-27T07:08:43.000Z</time>
      </trkpt>
      <trkpt lat="47.57009" lon="-2.22637">
        <ele>-2.4000000953674</ele>
        <time>2021-06-27T07:08:44.000Z</time>
      </trkpt>
      <trkpt lat="47.57012" lon="-2.22637">
        <ele>-2.7999999523163</ele>
        <time>2021-06-27T07:08:45.000Z</time>
      </trkpt>
      <trkpt lat="47.57014" lon="-2.22637">
        <ele>-3.4000000953674</ele>
        <time>2021-06-27T07:08:46.000Z</time>
      </trkpt>
      <trkpt lat="47.57016" lon="-2.22637">
        <ele>-3.7999999523163</ele>
        <time>2021-06-27T07:08:47.000Z</time>
      </trkpt>
      <trkpt lat="47.57018" lon="-2.22634">
        <ele>-4.1999998092651</ele>
        <time>2021-06-27T07:08:48.000Z</time>
      </trkpt>
      <trkpt lat="47.57027" lon="-2.22622">
        <ele>-4.1999998092651</ele>
        <time>2021-06-27T07:08:54.000Z</time>
      </trkpt>
      <trkpt lat="47.57036" lon="-2.226">
        <ele>-3.7999999523163</ele>
        <time>2021-06-27T07:09:00.000Z</time>
      </trkpt>
      <trkpt lat="47.57038" lon="-2.22599">
        <ele>-3.4000000953674</ele>
        <time>2021-06-27T07:09:01.000Z</time>
      </trkpt>
      <trkpt lat="47.57041" lon="-2.22599">
        <ele>-3</ele>
        <time>2021-06-27T07:09:02.000Z</time>
      </trkpt>
      <trkpt lat="47.57044" lon="-2.22598">
        <ele>-2.4000000953674</ele>
        <time>2021-06-27T07:09:03.000Z</time>
      </trkpt>
      <trkpt lat="47.57048" lon="-2.22598">
        <ele>-2</ele>
        <time>2021-06-27T07:09:04.000Z</time>
      </trkpt>
      <trkpt lat="47.57051" lon="-2.22598">
        <ele>-2</ele>
        <time>2021-06-27T07:09:05.000Z</time>
      </trkpt>
      <trkpt lat="47.57064" lon="-2.22593">
        <ele>-2</ele>
        <time>2021-06-27T07:09:10.000Z</time>
      </trkpt>
      <trkpt lat="47.57072" lon="-2.2258">
        <ele>-2</ele>
        <time>2021-06-27T07:09:16.000Z</time>
      </trkpt>
      <trkpt lat="47.57072" lon="-2.22578">
        <ele>-2</ele>
        <time>2021-06-27T07:09:17.000Z</time>
      </trkpt>
      <trkpt lat="47.57069" lon="-2.22568">
        <ele>-2</ele>
        <time>2021-06-27T07:09:21.000Z</time>
      </trkpt>
      <trkpt lat="47.57065" lon="-2.22546">
        <ele>-2</ele>
        <time>2021-06-27T07:09:27.000Z</time>
      </trkpt>
      <trkpt lat="47.57064" lon="-2.22529">
        <ele>-2</ele>
        <time>2021-06-27T07:09:31.000Z</time>
      </trkpt>
      <trkpt lat="47.57065" lon="-2.22525">
        <ele>-2</ele>
        <time>2021-06-27T07:09:32.000Z</time>
      </trkpt>
      <trkpt lat="47.57069" lon="-2.22508">
        <ele>-2</ele>
        <time>2021-06-27T07:09:38.000Z</time>
      </trkpt>
      <trkpt lat="47.5707" lon="-2.22503">
        <ele>-2</ele>
        <time>2021-06-27T07:09:40.000Z</time>
      </trkpt>
      <trkpt lat="47.5707" lon="-2.225">
        <ele>-2.5999999046326</ele>
        <time>2021-06-27T07:09:41.000Z</time>
      </trkpt>
      <trkpt lat="47.5707" lon="-2.22498">
        <ele>-3</ele>
        <time>2021-06-27T07:09:42.000Z</time>
      </trkpt>
      <trkpt lat="47.57071" lon="-2.22494">
        <ele>-3.4000000953674</ele>
        <time>2021-06-27T07:09:43.000Z</time>
      </trkpt>
      <trkpt lat="47.57072" lon="-2.2249">
        <ele>-4.5999999046326</ele>
        <time>2021-06-27T07:09:44.000Z</time>
      </trkpt>
      <trkpt lat="47.57073" lon="-2.22486">
        <ele>-5</ele>
        <time>2021-06-27T07:09:45.000Z</time>
      </trkpt>
      <trkpt lat="47.57074" lon="-2.22482">
        <ele>-5.5999999046326</ele>
        <time>2021-06-27T07:09:46.000Z</time>
      </trkpt>
      <trkpt lat="47.57074" lon="-2.22477">
        <ele>-6.1999998092651</ele>
        <time>2021-06-27T07:09:47.000Z</time>
      </trkpt>
      <trkpt lat="47.57075" lon="-2.22473">
        <ele>-6.8000001907349</ele>
        <time>2021-06-27T07:09:48.000Z</time>
      </trkpt>
      <trkpt lat="47.57075" lon="-2.22463">
        <ele>-6.8000001907349</ele>
        <time>2021-06-27T07:09:50.000Z</time>
      </trkpt>
      <trkpt lat="47.57066" lon="-2.22434">
        <ele>-6.8000001907349</ele>
        <time>2021-06-27T07:09:57.000Z</time>
      </trkpt>
      <trkpt lat="47.57058" lon="-2.22425">
        <ele>-6.8000001907349</ele>
        <time>2021-06-27T07:10:03.000Z</time>
      </trkpt>
      <trkpt lat="47.57052" lon="-2.22414">
        <ele>-6.8000001907349</ele>
        <time>2021-06-27T07:10:09.000Z</time>
      </trkpt>
      <trkpt lat="47.57032" lon="-2.22394">
        <ele>-6.8000001907349</ele>
        <time>2021-06-27T07:10:16.000Z</time>
      </trkpt>
      <trkpt lat="47.57024" lon="-2.22381">
        <ele>-6.8000001907349</ele>
        <time>2021-06-27T07:10:20.000Z</time>
      </trkpt>
      <trkpt lat="47.5702" lon="-2.22374">
        <ele>-6.8000001907349</ele>
        <time>2021-06-27T07:10:22.000Z</time>
      </trkpt>
      <trkpt lat="47.5701" lon="-2.22361">
        <ele>-6.8000001907349</ele>
        <time>2021-06-27T07:10:27.000Z</time>
      </trkpt>
      <trkpt lat="47.57004" lon="-2.22353">
        <ele>-6.8000001907349</ele>
        <time>2021-06-27T07:10:30.000Z</time>
      </trkpt>
      <trkpt lat="47.56994" lon="-2.22333">
        <ele>-6.8000001907349</ele>
        <time>2021-06-27T07:10:33.000Z</time>
      </trkpt>
      <trkpt lat="47.56991" lon="-2.22329">
        <ele>-6.1999998092651</ele>
        <time>2021-06-27T07:10:35.000Z</time>
      </trkpt>
      <trkpt lat="47.5699" lon="-2.22328">
        <ele>-5.8000001907349</ele>
        <time>2021-06-27T07:10:36.000Z</time>
      </trkpt>
      <trkpt lat="47.56992" lon="-2.22329">
        <ele>-5</ele>
        <time>2021-06-27T07:10:38.000Z</time>
      </trkpt>
      <trkpt lat="47.56993" lon="-2.22328">
        <ele>-4.5999999046326</ele>
        <time>2021-06-27T07:10:39.000Z</time>
      </trkpt>
      <trkpt lat="47.56998" lon="-2.22327">
        <ele>-4.1999998092651</ele>
        <time>2021-06-27T07:10:42.000Z</time>
      </trkpt>
      <trkpt lat="47.56999" lon="-2.22327">
        <ele>-3.7999999523163</ele>
        <time>2021-06-27T07:10:43.000Z</time>
      </trkpt>
      <trkpt lat="47.57001" lon="-2.22328">
        <ele>-3.2000000476837</ele>
        <time>2021-06-27T07:10:44.000Z</time>
      </trkpt>
      <trkpt lat="47.57003" lon="-2.22329">
        <ele>-2.7999999523163</ele>
        <time>2021-06-27T07:10:45.000Z</time>
      </trkpt>
      <trkpt lat="47.57005" lon="-2.2233">
        <ele>-2.4000000953674</ele>
        <time>2021-06-27T07:10:46.000Z</time>
      </trkpt>
      <trkpt lat="47.57013" lon="-2.22331">
        <ele>-2</ele>
        <time>2021-06-27T07:10:50.000Z</time>
      </trkpt>
      <trkpt lat="47.57014" lon="-2.22331">
        <ele>-1.3999999761581</ele>
        <time>2021-06-27T07:10:51.000Z</time>
      </trkpt>
      <trkpt lat="47.57016" lon="-2.22331">
        <ele>-1</ele>
        <time>2021-06-27T07:10:52.000Z</time>
      </trkpt>
      <trkpt lat="47.57018" lon="-2.22331">
        <ele>-0.60000002384186</ele>
        <time>2021-06-27T07:10:53.000Z</time>
      </trkpt>
      <trkpt lat="47.5702" lon="-2.22331">
        <ele>-0.20000000298023</ele>
        <time>2021-06-27T07:10:54.000Z</time>
      </trkpt>
      <trkpt lat="47.57029" lon="-2.22333">
        <ele>-0.20000000298023</ele>
        <time>2021-06-27T07:10:58.000Z</time>
      </trkpt>
      <trkpt lat="47.57031" lon="-2.22333">
        <ele>0.20000000298023</ele>
        <time>2021-06-27T07:10:59.000Z</time>
      </trkpt>
      <trkpt lat="47.57032" lon="-2.22335">
        <ele>0.60000002384186</ele>
        <time>2021-06-27T07:11:00.000Z</time>
      </trkpt>
      <trkpt lat="47.57034" lon="-2.22336">
        <ele>1</ele>
        <time>2021-06-27T07:11:01.000Z</time>
      </trkpt>
      <trkpt lat="47.57035" lon="-2.22338">
        <ele>1.3999999761581</ele>
        <time>2021-06-27T07:11:02.000Z</time>
      </trkpt>
      <trkpt lat="47.57037" lon="-2.2234">
        <ele>1.7999999523163</ele>
        <time>2021-06-27T07:11:03.000Z</time>
      </trkpt>
      <trkpt lat="47.57052" lon="-2.22353">
        <ele>1.7999999523163</ele>
        <time>2021-06-27T07:11:10.000Z</time>
      </trkpt>
      <trkpt lat="47.57054" lon="-2.22355">
        <ele>1.3999999761581</ele>
        <time>2021-06-27T07:11:11.000Z</time>
      </trkpt>
      <trkpt lat="47.57057" lon="-2.22357">
        <ele>1</ele>
        <time>2021-06-27T07:11:12.000Z</time>
      </trkpt>
      <trkpt lat="47.5706" lon="-2.22359">
        <ele>0.60000002384186</ele>
        <time>2021-06-27T07:11:13.000Z</time>
      </trkpt>
      <trkpt lat="47.57063" lon="-2.22361">
        <ele>25.5</ele>
        <time>2021-06-27T07:11:14.000Z</time>
      </trkpt>
      <trkpt lat="47.57066" lon="-2.22362">
        <ele>-0.40000000596046</ele>
        <time>2021-06-27T07:11:15.000Z</time>
      </trkpt>
      <trkpt lat="47.57069" lon="-2.22362">
        <ele>-0.40000000596046</ele>
        <time>2021-06-27T07:11:16.000Z</time>
      </trkpt>
      <trkpt lat="47.5708" lon="-2.22365">
        <ele>-0.40000000596046</ele>
        <time>2021-06-27T07:11:21.000Z</time>
      </trkpt>
      <trkpt lat="47.57095" lon="-2.22359">
        <ele>-0.40000000596046</ele>
        <time>2021-06-27T07:11:28.000Z</time>
      </trkpt>
      <trkpt lat="47.571" lon="-2.22347">
        <ele>0.20000000298023</ele>
        <time>2021-06-27T07:11:32.000Z</time>
      </trkpt>
      <trkpt lat="47.57101" lon="-2.22345">
        <ele>0.60000002384186</ele>
        <time>2021-06-27T07:11:33.000Z</time>
      </trkpt>
      <trkpt lat="47.57102" lon="-2.22343">
        <ele>1.2000000476837</ele>
        <time>2021-06-27T07:11:34.000Z</time>
      </trkpt>
      <trkpt lat="47.57104" lon="-2.2234">
        <ele>1.6000000238419</ele>
        <time>2021-06-27T07:11:35.000Z</time>
      </trkpt>
      <trkpt lat="47.57105" lon="-2.22338">
        <ele>2</ele>
        <time>2021-06-27T07:11:36.000Z</time>
      </trkpt>
      <trkpt lat="47.57107" lon="-2.22337">
        <ele>2</ele>
        <time>2021-06-27T07:11:37.000Z</time>
      </trkpt>
      <trkpt lat="47.57114" lon="-2.22333">
        <ele>2</ele>
        <time>2021-06-27T07:11:39.000Z</time>
      </trkpt>
      <trkpt lat="47.57128" lon="-2.22324">
        <ele>2</ele>
        <time>2021-06-27T07:11:44.000Z</time>
      </trkpt>
      <trkpt lat="47.57129" lon="-2.22321">
        <ele>2</ele>
        <time>2021-06-27T07:11:45.000Z</time>
      </trkpt>
      <trkpt lat="47.57129" lon="-2.2231">
        <ele>2</ele>
        <time>2021-06-27T07:11:48.000Z</time>
      </trkpt>
      <trkpt lat="47.57125" lon="-2.22298">
        <ele>2.4000000953674</ele>
        <time>2021-06-27T07:11:51.000Z</time>
      </trkpt>
      <trkpt lat="47.57123" lon="-2.22294">
        <ele>2.7999999523163</ele>
        <time>2021-06-27T07:11:52.000Z</time>
      </trkpt>
      <trkpt lat="47.57121" lon="-2.22289">
        <ele>3.4000000953674</ele>
        <time>2021-06-27T07:11:53.000Z</time>
      </trkpt>
      <trkpt lat="47.5712" lon="-2.22284">
        <ele>3.7999999523163</ele>
        <time>2021-06-27T07:11:54.000Z</time>
      </trkpt>
      <trkpt lat="47.57119" lon="-2.22279">
        <ele>4.1999998092651</ele>
        <time>2021-06-27T07:11:55.000Z</time>
      </trkpt>
      <trkpt lat="47.57114" lon="-2.22253">
        <ele>4.1999998092651</ele>
        <time>2021-06-27T07:12:00.000Z</time>
      </trkpt>
      <trkpt lat="47.57108" lon="-2.22214">
        <ele>4.5999999046326</ele>
        <time>2021-06-27T07:12:07.000Z</time>
      </trkpt>
      <trkpt lat="47.57106" lon="-2.22209">
        <ele>5</ele>
        <time>2021-06-27T07:12:08.000Z</time>
      </trkpt>
      <trkpt lat="47.57105" lon="-2.22203">
        <ele>5.4000000953674</ele>
        <time>2021-06-27T07:12:09.000Z</time>
      </trkpt>
      <trkpt lat="47.57104" lon="-2.22198">
        <ele>5.8000001907349</ele>
        <time>2021-06-27T07:12:10.000Z</time>
      </trkpt>
      <trkpt lat="47.57103" lon="-2.22192">
        <ele>6.1999998092651</ele>
        <time>2021-06-27T07:12:11.000Z</time>
      </trkpt>
      <trkpt lat="47.57096" lon="-2.22161">
        <ele>6.1999998092651</ele>
        <time>2021-06-27T07:12:17.000Z</time>
      </trkpt>
      <trkpt lat="47.57088" lon="-2.22118">
        <ele>6.1999998092651</ele>
        <time>2021-06-27T07:12:25.000Z</time>
      </trkpt>
      <trkpt lat="47.57082" lon="-2.22084">
        <ele>6.1999998092651</ele>
        <time>2021-06-27T07:12:32.000Z</time>
      </trkpt>
      <trkpt lat="47.57074" lon="-2.22054">
        <ele>6.1999998092651</ele>
        <time>2021-06-27T07:12:39.000Z</time>
      </trkpt>
      <trkpt lat="47.57072" lon="-2.22046">
        <ele>6.1999998092651</ele>
        <time>2021-06-27T07:12:44.000Z</time>
      </trkpt>
      <trkpt lat="47.57059" lon="-2.22045">
        <ele>6.1999998092651</ele>
        <time>2021-06-27T07:17:26.000Z</time>
      </trkpt>
      <trkpt lat="47.57054" lon="-2.22046">
        <ele>6.1999998092651</ele>
        <time>2021-06-27T07:17:28.000Z</time>
      </trkpt>
      <trkpt lat="47.57037" lon="-2.22051">
        <ele>6.1999998092651</ele>
        <time>2021-06-27T07:17:33.000Z</time>
      </trkpt>
      <trkpt lat="47.57003" lon="-2.22063">
        <ele>6.1999998092651</ele>
        <time>2021-06-27T07:17:41.000Z</time>
      </trkpt>
      <trkpt lat="47.56973" lon="-2.22069">
        <ele>6.1999998092651</ele>
        <time>2021-06-27T07:17:47.000Z</time>
      </trkpt>
      <trkpt lat="47.56967" lon="-2.22068">
        <ele>6.1999998092651</ele>
        <time>2021-06-27T07:17:48.000Z</time>
      </trkpt>
      <trkpt lat="47.56935" lon="-2.22054">
        <ele>6.1999998092651</ele>
        <time>2021-06-27T07:17:54.000Z</time>
      </trkpt>
      <trkpt lat="47.569" lon="-2.22033">
        <ele>6.1999998092651</ele>
        <time>2021-06-27T07:18:01.000Z</time>
      </trkpt>
      <trkpt lat="47.5689" lon="-2.22029">
        <ele>6.1999998092651</ele>
        <time>2021-06-27T07:18:03.000Z</time>
      </trkpt>
      <trkpt lat="47.56875" lon="-2.22025">
        <ele>6.1999998092651</ele>
        <time>2021-06-27T07:18:06.000Z</time>
      </trkpt>
      <trkpt lat="47.56861" lon="-2.22023">
        <ele>6.1999998092651</ele>
        <time>2021-06-27T07:18:09.000Z</time>
      </trkpt>
      <trkpt lat="47.56852" lon="-2.22022">
        <ele>6.1999998092651</ele>
        <time>2021-06-27T07:18:11.000Z</time>
      </trkpt>
      <trkpt lat="47.56847" lon="-2.22021">
        <ele>6.1999998092651</ele>
        <time>2021-06-27T07:18:12.000Z</time>
      </trkpt>
      <trkpt lat="47.56825" lon="-2.2202">
        <ele>6.1999998092651</ele>
        <time>2021-06-27T07:18:17.000Z</time>
      </trkpt>
      <trkpt lat="47.56816" lon="-2.22022">
        <ele>6.1999998092651</ele>
        <time>2021-06-27T07:18:19.000Z</time>
      </trkpt>
      <trkpt lat="47.56812" lon="-2.22024">
        <ele>6.1999998092651</ele>
        <time>2021-06-27T07:18:20.000Z</time>
      </trkpt>
      <trkpt lat="47.56792" lon="-2.22037">
        <ele>6.1999998092651</ele>
        <time>2021-06-27T07:18:25.000Z</time>
      </trkpt>
      <trkpt lat="47.56787" lon="-2.22039">
        <ele>6.5999999046326</ele>
        <time>2021-06-27T07:18:26.000Z</time>
      </trkpt>
      <trkpt lat="47.56783" lon="-2.22042">
        <ele>7</ele>
        <time>2021-06-27T07:18:27.000Z</time>
      </trkpt>
      <trkpt lat="47.56779" lon="-2.22044">
        <ele>7.5999999046326</ele>
        <time>2021-06-27T07:18:28.000Z</time>
      </trkpt>
      <trkpt lat="47.56774" lon="-2.22045">
        <ele>8</ele>
        <time>2021-06-27T07:18:29.000Z</time>
      </trkpt>
      <trkpt lat="47.5677" lon="-2.22047">
        <ele>8.3999996185303</ele>
        <time>2021-06-27T07:18:30.000Z</time>
      </trkpt>
      <trkpt lat="47.56758" lon="-2.22051">
        <ele>8.3999996185303</ele>
        <time>2021-06-27T07:18:33.000Z</time>
      </trkpt>
      <trkpt lat="47.56742" lon="-2.22054">
        <ele>8.8000001907349</ele>
        <time>2021-06-27T07:18:37.000Z</time>
      </trkpt>
      <trkpt lat="47.56737" lon="-2.22054">
        <ele>9.1999998092651</ele>
        <time>2021-06-27T07:18:38.000Z</time>
      </trkpt>
      <trkpt lat="47.56733" lon="-2.22055">
        <ele>9.6000003814697</ele>
        <time>2021-06-27T07:18:39.000Z</time>
      </trkpt>
      <trkpt lat="47.56729" lon="-2.22054">
        <ele>10.199999809265</ele>
        <time>2021-06-27T07:18:40.000Z</time>
      </trkpt>
      <trkpt lat="47.56725" lon="-2.22054">
        <ele>10.60000038147</ele>
        <time>2021-06-27T07:18:41.000Z</time>
      </trkpt>
      <trkpt lat="47.56721" lon="-2.22055">
        <ele>10.60000038147</ele>
        <time>2021-06-27T07:18:42.000Z</time>
      </trkpt>
      <trkpt lat="47.56694" lon="-2.22059">
        <ele>11</ele>
        <time>2021-06-27T07:18:49.000Z</time>
      </trkpt>
      <trkpt lat="47.56691" lon="-2.2206">
        <ele>11.39999961853</ele>
        <time>2021-06-27T07:18:50.000Z</time>
      </trkpt>
      <trkpt lat="47.56687" lon="-2.2206">
        <ele>11.800000190735</ele>
        <time>2021-06-27T07:18:51.000Z</time>
      </trkpt>
      <trkpt lat="47.56684" lon="-2.22061">
        <ele>12.39999961853</ele>
        <time>2021-06-27T07:18:52.000Z</time>
      </trkpt>
      <trkpt lat="47.5668" lon="-2.22062">
        <ele>12.800000190735</ele>
        <time>2021-06-27T07:18:53.000Z</time>
      </trkpt>
      <trkpt lat="47.56666" lon="-2.22065">
        <ele>12.800000190735</ele>
        <time>2021-06-27T07:18:57.000Z</time>
      </trkpt>
      <trkpt lat="47.56661" lon="-2.22067">
        <ele>13.199999809265</ele>
        <time>2021-06-27T07:18:59.000Z</time>
      </trkpt>
      <trkpt lat="47.56658" lon="-2.22067">
        <ele>13.60000038147</ele>
        <time>2021-06-27T07:19:00.000Z</time>
      </trkpt>
      <trkpt lat="47.56655" lon="-2.22068">
        <ele>14</ele>
        <time>2021-06-27T07:19:01.000Z</time>
      </trkpt>
      <trkpt lat="47.56652" lon="-2.22068">
        <ele>14.39999961853</ele>
        <time>2021-06-27T07:19:02.000Z</time>
      </trkpt>
      <trkpt lat="47.56649" lon="-2.22067">
        <ele>14.800000190735</ele>
        <time>2021-06-27T07:19:03.000Z</time>
      </trkpt>
      <trkpt lat="47.56629" lon="-2.2207">
        <ele>14.800000190735</ele>
        <time>2021-06-27T07:19:10.000Z</time>
      </trkpt>
      <trkpt lat="47.56623" lon="-2.22071">
        <ele>15.60000038147</ele>
        <time>2021-06-27T07:19:12.000Z</time>
      </trkpt>
      <trkpt lat="47.56619" lon="-2.22071">
        <ele>16</ele>
        <time>2021-06-27T07:19:13.000Z</time>
      </trkpt>
      <trkpt lat="47.56616" lon="-2.22071">
        <ele>16.39999961853</ele>
        <time>2021-06-27T07:19:14.000Z</time>
      </trkpt>
      <trkpt lat="47.56613" lon="-2.22071">
        <ele>16.799999237061</ele>
        <time>2021-06-27T07:19:15.000Z</time>
      </trkpt>
      <trkpt lat="47.56603" lon="-2.22072">
        <ele>16.799999237061</ele>
        <time>2021-06-27T07:19:18.000Z</time>
      </trkpt>
      <trkpt lat="47.56581" lon="-2.22074">
        <ele>17.200000762939</ele>
        <time>2021-06-27T07:19:25.000Z</time>
      </trkpt>
      <trkpt lat="47.56578" lon="-2.22074">
        <ele>17.60000038147</ele>
        <time>2021-06-27T07:19:26.000Z</time>
      </trkpt>
      <trkpt lat="47.56575" lon="-2.22074">
        <ele>18</ele>
        <time>2021-06-27T07:19:27.000Z</time>
      </trkpt>
      <trkpt lat="47.56573" lon="-2.22074">
        <ele>18.60000038147</ele>
        <time>2021-06-27T07:19:28.000Z</time>
      </trkpt>
      <trkpt lat="47.5657" lon="-2.22075">
        <ele>19</ele>
        <time>2021-06-27T07:19:29.000Z</time>
      </trkpt>
      <trkpt lat="47.56565" lon="-2.22078">
        <ele>19</ele>
        <time>2021-06-27T07:19:31.000Z</time>
      </trkpt>
      <trkpt lat="47.56549" lon="-2.2208">
        <ele>19</ele>
        <time>2021-06-27T07:19:37.000Z</time>
      </trkpt>
      <trkpt lat="47.56546" lon="-2.2208">
        <ele>19.39999961853</ele>
        <time>2021-06-27T07:19:38.000Z</time>
      </trkpt>
      <trkpt lat="47.56543" lon="-2.2208">
        <ele>19.799999237061</ele>
        <time>2021-06-27T07:19:39.000Z</time>
      </trkpt>
      <trkpt lat="47.5654" lon="-2.22081">
        <ele>20.200000762939</ele>
        <time>2021-06-27T07:19:40.000Z</time>
      </trkpt>
      <trkpt lat="47.56537" lon="-2.22082">
        <ele>20.60000038147</ele>
        <time>2021-06-27T07:19:41.000Z</time>
      </trkpt>
      <trkpt lat="47.56534" lon="-2.22083">
        <ele>21</ele>
        <time>2021-06-27T07:19:42.000Z</time>
      </trkpt>
      <trkpt lat="47.56524" lon="-2.22084">
        <ele>21</ele>
        <time>2021-06-27T07:19:46.000Z</time>
      </trkpt>
      <trkpt lat="47.56511" lon="-2.22086">
        <ele>21.39999961853</ele>
        <time>2021-06-27T07:19:52.000Z</time>
      </trkpt>
      <trkpt lat="47.56508" lon="-2.22086">
        <ele>21.799999237061</ele>
        <time>2021-06-27T07:19:53.000Z</time>
      </trkpt>
      <trkpt lat="47.56506" lon="-2.22087">
        <ele>22.200000762939</ele>
        <time>2021-06-27T07:19:54.000Z</time>
      </trkpt>
      <trkpt lat="47.56503" lon="-2.22087">
        <ele>22.799999237061</ele>
        <time>2021-06-27T07:19:55.000Z</time>
      </trkpt>
      <trkpt lat="47.565" lon="-2.22087">
        <ele>23.200000762939</ele>
        <time>2021-06-27T07:19:56.000Z</time>
      </trkpt>
      <trkpt lat="47.56489" lon="-2.22087">
        <ele>23.200000762939</ele>
        <time>2021-06-27T07:20:00.000Z</time>
      </trkpt>
      <trkpt lat="47.56482" lon="-2.22087">
        <ele>23.60000038147</ele>
        <time>2021-06-27T07:20:03.000Z</time>
      </trkpt>
      <trkpt lat="47.5648" lon="-2.22087">
        <ele>24</ele>
        <time>2021-06-27T07:20:04.000Z</time>
      </trkpt>
      <trkpt lat="47.56477" lon="-2.22087">
        <ele>24.39999961853</ele>
        <time>2021-06-27T07:20:05.000Z</time>
      </trkpt>
      <trkpt lat="47.56474" lon="-2.22086">
        <ele>24.799999237061</ele>
        <time>2021-06-27T07:20:06.000Z</time>
      </trkpt>
      <trkpt lat="47.56471" lon="-2.22085">
        <ele>25.200000762939</ele>
        <time>2021-06-27T07:20:07.000Z</time>
      </trkpt>
      <trkpt lat="47.56461" lon="-2.22081">
        <ele>25.200000762939</ele>
        <time>2021-06-27T07:20:11.000Z</time>
      </trkpt>
      <trkpt lat="47.56458" lon="-2.22079">
        <ele>25.200000762939</ele>
        <time>2021-06-27T07:20:12.000Z</time>
      </trkpt>
      <trkpt lat="47.56445" lon="-2.22069">
        <ele>25.60000038147</ele>
        <time>2021-06-27T07:20:16.000Z</time>
      </trkpt>
      <trkpt lat="47.56441" lon="-2.22067">
        <ele>26</ele>
        <time>2021-06-27T07:20:17.000Z</time>
      </trkpt>
      <trkpt lat="47.56438" lon="-2.22064">
        <ele>26.39999961853</ele>
        <time>2021-06-27T07:20:18.000Z</time>
      </trkpt>
      <trkpt lat="47.56434" lon="-2.22062">
        <ele>26.799999237061</ele>
        <time>2021-06-27T07:20:19.000Z</time>
      </trkpt>
      <trkpt lat="47.56431" lon="-2.2206">
        <ele>27.200000762939</ele>
        <time>2021-06-27T07:20:20.000Z</time>
      </trkpt>
      <trkpt lat="47.56412" lon="-2.22049">
        <ele>28</ele>
        <time>2021-06-27T07:20:25.000Z</time>
      </trkpt>
      <trkpt lat="47.56409" lon="-2.22046">
        <ele>28.39999961853</ele>
        <time>2021-06-27T07:20:26.000Z</time>
      </trkpt>
      <trkpt lat="47.56404" lon="-2.22045">
        <ele>28.799999237061</ele>
        <time>2021-06-27T07:20:27.000Z</time>
      </trkpt>
      <trkpt lat="47.56401" lon="-2.22044">
        <ele>29.200000762939</ele>
        <time>2021-06-27T07:20:28.000Z</time>
      </trkpt>
      <trkpt lat="47.56393" lon="-2.22041">
        <ele>29.200000762939</ele>
        <time>2021-06-27T07:20:30.000Z</time>
      </trkpt>
      <trkpt lat="47.56373" lon="-2.22031">
        <ele>29.799999237061</ele>
        <time>2021-06-27T07:20:35.000Z</time>
      </trkpt>
      <trkpt lat="47.56369" lon="-2.22029">
        <ele>30.200000762939</ele>
        <time>2021-06-27T07:20:36.000Z</time>
      </trkpt>
      <trkpt lat="47.56366" lon="-2.22026">
        <ele>30.60000038147</ele>
        <time>2021-06-27T07:20:37.000Z</time>
      </trkpt>
      <trkpt lat="47.56363" lon="-2.22023">
        <ele>31</ele>
        <time>2021-06-27T07:20:38.000Z</time>
      </trkpt>
      <trkpt lat="47.5636" lon="-2.22021">
        <ele>31.39999961853</ele>
        <time>2021-06-27T07:20:39.000Z</time>
      </trkpt>
      <trkpt lat="47.56351" lon="-2.22012">
        <ele>31.39999961853</ele>
        <time>2021-06-27T07:20:42.000Z</time>
      </trkpt>
      <trkpt lat="47.56342" lon="-2.22001">
        <ele>31.39999961853</ele>
        <time>2021-06-27T07:20:45.000Z</time>
      </trkpt>
      <trkpt lat="47.56329" lon="-2.21984">
        <ele>31.39999961853</ele>
        <time>2021-06-27T07:20:49.000Z</time>
      </trkpt>
      <trkpt lat="47.56327" lon="-2.21979">
        <ele>31.39999961853</ele>
        <time>2021-06-27T07:20:50.000Z</time>
      </trkpt>
      <trkpt lat="47.56319" lon="-2.21958">
        <ele>31.39999961853</ele>
        <time>2021-06-27T07:20:54.000Z</time>
      </trkpt>
      <trkpt lat="47.56304" lon="-2.21933">
        <ele>31.39999961853</ele>
        <time>2021-06-27T07:21:00.000Z</time>
      </trkpt>
      <trkpt lat="47.56282" lon="-2.21904">
        <ele>31.39999961853</ele>
        <time>2021-06-27T07:21:07.000Z</time>
      </trkpt>
      <trkpt lat="47.56258" lon="-2.21876">
        <ele>31.39999961853</ele>
        <time>2021-06-27T07:21:14.000Z</time>
      </trkpt>
      <trkpt lat="47.56238" lon="-2.21853">
        <ele>31.39999961853</ele>
        <time>2021-06-27T07:21:19.000Z</time>
      </trkpt>
      <trkpt lat="47.5623" lon="-2.21843">
        <ele>31</ele>
        <time>2021-06-27T07:21:21.000Z</time>
      </trkpt>
      <trkpt lat="47.56226" lon="-2.21839">
        <ele>30.60000038147</ele>
        <time>2021-06-27T07:21:22.000Z</time>
      </trkpt>
      <trkpt lat="47.56222" lon="-2.21834">
        <ele>30.200000762939</ele>
        <time>2021-06-27T07:21:23.000Z</time>
      </trkpt>
      <trkpt lat="47.56218" lon="-2.2183">
        <ele>29.60000038147</ele>
        <time>2021-06-27T07:21:24.000Z</time>
      </trkpt>
      <trkpt lat="47.56214" lon="-2.21827">
        <ele>29.200000762939</ele>
        <time>2021-06-27T07:21:25.000Z</time>
      </trkpt>
      <trkpt lat="47.56193" lon="-2.21824">
        <ele>28.799999237061</ele>
        <time>2021-06-27T07:21:29.000Z</time>
      </trkpt>
      <trkpt lat="47.56188" lon="-2.21824">
        <ele>28.39999961853</ele>
        <time>2021-06-27T07:21:30.000Z</time>
      </trkpt>
      <trkpt lat="47.56182" lon="-2.21823">
        <ele>28</ele>
        <time>2021-06-27T07:21:31.000Z</time>
      </trkpt>
      <trkpt lat="47.56176" lon="-2.21823">
        <ele>27.60000038147</ele>
        <time>2021-06-27T07:21:32.000Z</time>
      </trkpt>
      <trkpt lat="47.5617" lon="-2.21822">
        <ele>27.200000762939</ele>
        <time>2021-06-27T07:21:33.000Z</time>
      </trkpt>
      <trkpt lat="47.56163" lon="-2.21821">
        <ele>27.200000762939</ele>
        <time>2021-06-27T07:21:34.000Z</time>
      </trkpt>
      <trkpt lat="47.56135" lon="-2.2181">
        <ele>26.799999237061</ele>
        <time>2021-06-27T07:21:38.000Z</time>
      </trkpt>
      <trkpt lat="47.56129" lon="-2.21808">
        <ele>26</ele>
        <time>2021-06-27T07:21:39.000Z</time>
      </trkpt>
      <trkpt lat="47.56124" lon="-2.21806">
        <ele>25.60000038147</ele>
        <time>2021-06-27T07:21:40.000Z</time>
      </trkpt>
      <trkpt lat="47.56121" lon="-2.21804">
        <ele>25.200000762939</ele>
        <time>2021-06-27T07:21:41.000Z</time>
      </trkpt>
      <trkpt lat="47.56118" lon="-2.218">
        <ele>25.200000762939</ele>
        <time>2021-06-27T07:21:42.000Z</time>
      </trkpt>
      <trkpt lat="47.56117" lon="-2.21796">
        <ele>25.200000762939</ele>
        <time>2021-06-27T07:21:43.000Z</time>
      </trkpt>
      <trkpt lat="47.56116" lon="-2.2179">
        <ele>24.799999237061</ele>
        <time>2021-06-27T07:21:44.000Z</time>
      </trkpt>
      <trkpt lat="47.56117" lon="-2.21783">
        <ele>24.39999961853</ele>
        <time>2021-06-27T07:21:45.000Z</time>
      </trkpt>
      <trkpt lat="47.56118" lon="-2.21776">
        <ele>24</ele>
        <time>2021-06-27T07:21:46.000Z</time>
      </trkpt>
      <trkpt lat="47.56118" lon="-2.21768">
        <ele>23.60000038147</ele>
        <time>2021-06-27T07:21:47.000Z</time>
      </trkpt>
      <trkpt lat="47.56119" lon="-2.21761">
        <ele>23.200000762939</ele>
        <time>2021-06-27T07:21:48.000Z</time>
      </trkpt>
      <trkpt lat="47.56122" lon="-2.21746">
        <ele>23.200000762939</ele>
        <time>2021-06-27T07:21:50.000Z</time>
      </trkpt>
      <trkpt lat="47.56134" lon="-2.21692">
        <ele>23.200000762939</ele>
        <time>2021-06-27T07:21:58.000Z</time>
      </trkpt>
      <trkpt lat="47.5614" lon="-2.21651">
        <ele>23.200000762939</ele>
        <time>2021-06-27T07:22:04.000Z</time>
      </trkpt>
      <trkpt lat="47.56148" lon="-2.21598">
        <ele>23.200000762939</ele>
        <time>2021-06-27T07:22:11.000Z</time>
      </trkpt>
      <trkpt lat="47.56158" lon="-2.21531">
        <ele>23.200000762939</ele>
        <time>2021-06-27T07:22:19.000Z</time>
      </trkpt>
      <trkpt lat="47.5616" lon="-2.21494">
        <ele>23.200000762939</ele>
        <time>2021-06-27T07:22:24.000Z</time>
      </trkpt>
      <trkpt lat="47.56157" lon="-2.21487">
        <ele>23.200000762939</ele>
        <time>2021-06-27T07:22:25.000Z</time>
      </trkpt>
      <trkpt lat="47.56142" lon="-2.21478">
        <ele>23.200000762939</ele>
        <time>2021-06-27T07:22:28.000Z</time>
      </trkpt>
      <trkpt lat="47.56128" lon="-2.21475">
        <ele>22.799999237061</ele>
        <time>2021-06-27T07:22:30.000Z</time>
      </trkpt>
      <trkpt lat="47.56121" lon="-2.21472">
        <ele>22.200000762939</ele>
        <time>2021-06-27T07:22:31.000Z</time>
      </trkpt>
      <trkpt lat="47.56113" lon="-2.21471">
        <ele>21.799999237061</ele>
        <time>2021-06-27T07:22:32.000Z</time>
      </trkpt>
      <trkpt lat="47.56105" lon="-2.21469">
        <ele>21.39999961853</ele>
        <time>2021-06-27T07:22:33.000Z</time>
      </trkpt>
      <trkpt lat="47.56097" lon="-2.21467">
        <ele>20.799999237061</ele>
        <time>2021-06-27T07:22:34.000Z</time>
      </trkpt>
      <trkpt lat="47.56079" lon="-2.21461">
        <ele>20.39999961853</ele>
        <time>2021-06-27T07:22:36.000Z</time>
      </trkpt>
      <trkpt lat="47.5607" lon="-2.21455">
        <ele>20</ele>
        <time>2021-06-27T07:22:37.000Z</time>
      </trkpt>
      <trkpt lat="47.56061" lon="-2.21449">
        <ele>19.39999961853</ele>
        <time>2021-06-27T07:22:38.000Z</time>
      </trkpt>
      <trkpt lat="47.56053" lon="-2.21441">
        <ele>19</ele>
        <time>2021-06-27T07:22:39.000Z</time>
      </trkpt>
      <trkpt lat="47.56045" lon="-2.21432">
        <ele>18.39999961853</ele>
        <time>2021-06-27T07:22:40.000Z</time>
      </trkpt>
      <trkpt lat="47.56038" lon="-2.21422">
        <ele>18</ele>
        <time>2021-06-27T07:22:41.000Z</time>
      </trkpt>
      <trkpt lat="47.56031" lon="-2.21412">
        <ele>17.60000038147</ele>
        <time>2021-06-27T07:22:42.000Z</time>
      </trkpt>
      <trkpt lat="47.56027" lon="-2.21401">
        <ele>17</ele>
        <time>2021-06-27T07:22:43.000Z</time>
      </trkpt>
      <trkpt lat="47.56022" lon="-2.21391">
        <ele>16.60000038147</ele>
        <time>2021-06-27T07:22:44.000Z</time>
      </trkpt>
      <trkpt lat="47.56019" lon="-2.2138">
        <ele>16</ele>
        <time>2021-06-27T07:22:45.000Z</time>
      </trkpt>
      <trkpt lat="47.56017" lon="-2.2137">
        <ele>15.39999961853</ele>
        <time>2021-06-27T07:22:46.000Z</time>
      </trkpt>
      <trkpt lat="47.56014" lon="-2.2136">
        <ele>15</ele>
        <time>2021-06-27T07:22:47.000Z</time>
      </trkpt>
      <trkpt lat="47.56012" lon="-2.2135">
        <ele>14.39999961853</ele>
        <time>2021-06-27T07:22:48.000Z</time>
      </trkpt>
      <trkpt lat="47.56009" lon="-2.21341">
        <ele>13.800000190735</ele>
        <time>2021-06-27T07:22:49.000Z</time>
      </trkpt>
      <trkpt lat="47.56007" lon="-2.21332">
        <ele>13.800000190735</ele>
        <time>2021-06-27T07:22:50.000Z</time>
      </trkpt>
      <trkpt lat="47.55991" lon="-2.2127">
        <ele>13.800000190735</ele>
        <time>2021-06-27T07:22:57.000Z</time>
      </trkpt>
      <trkpt lat="47.55984" lon="-2.21243">
        <ele>13.39999961853</ele>
        <time>2021-06-27T07:23:00.000Z</time>
      </trkpt>
      <trkpt lat="47.55982" lon="-2.21234">
        <ele>13</ele>
        <time>2021-06-27T07:23:01.000Z</time>
      </trkpt>
      <trkpt lat="47.5598" lon="-2.21226">
        <ele>12.60000038147</ele>
        <time>2021-06-27T07:23:02.000Z</time>
      </trkpt>
      <trkpt lat="47.55977" lon="-2.21217">
        <ele>12.199999809265</ele>
        <time>2021-06-27T07:23:03.000Z</time>
      </trkpt>
      <trkpt lat="47.55975" lon="-2.21208">
        <ele>11.800000190735</ele>
        <time>2021-06-27T07:23:04.000Z</time>
      </trkpt>
      <trkpt lat="47.55967" lon="-2.21181">
        <ele>11.800000190735</ele>
        <time>2021-06-27T07:23:07.000Z</time>
      </trkpt>
      <trkpt lat="47.55955" lon="-2.21134">
        <ele>11.39999961853</ele>
        <time>2021-06-27T07:23:12.000Z</time>
      </trkpt>
      <trkpt lat="47.55952" lon="-2.21125">
        <ele>11</ele>
        <time>2021-06-27T07:23:13.000Z</time>
      </trkpt>
      <trkpt lat="47.5595" lon="-2.21115">
        <ele>10.60000038147</ele>
        <time>2021-06-27T07:23:14.000Z</time>
      </trkpt>
      <trkpt lat="47.55947" lon="-2.21105">
        <ele>10</ele>
        <time>2021-06-27T07:23:15.000Z</time>
      </trkpt>
      <trkpt lat="47.55944" lon="-2.21095">
        <ele>9.6000003814697</ele>
        <time>2021-06-27T07:23:16.000Z</time>
      </trkpt>
      <trkpt lat="47.55936" lon="-2.21061">
        <ele>9.1999998092651</ele>
        <time>2021-06-27T07:23:19.000Z</time>
      </trkpt>
      <trkpt lat="47.55933" lon="-2.2105">
        <ele>8.8000001907349</ele>
        <time>2021-06-27T07:23:20.000Z</time>
      </trkpt>
      <trkpt lat="47.55929" lon="-2.21039">
        <ele>8.3999996185303</ele>
        <time>2021-06-27T07:23:21.000Z</time>
      </trkpt>
      <trkpt lat="47.55926" lon="-2.21026">
        <ele>8</ele>
        <time>2021-06-27T07:23:22.000Z</time>
      </trkpt>
      <trkpt lat="47.55923" lon="-2.21014">
        <ele>7.5999999046326</ele>
        <time>2021-06-27T07:23:23.000Z</time>
      </trkpt>
      <trkpt lat="47.55919" lon="-2.21001">
        <ele>7.1999998092651</ele>
        <time>2021-06-27T07:23:24.000Z</time>
      </trkpt>
      <trkpt lat="47.55916" lon="-2.20989">
        <ele>6.5999999046326</ele>
        <time>2021-06-27T07:23:25.000Z</time>
      </trkpt>
      <trkpt lat="47.55912" lon="-2.20976">
        <ele>6.1999998092651</ele>
        <time>2021-06-27T07:23:26.000Z</time>
      </trkpt>
      <trkpt lat="47.55909" lon="-2.20963">
        <ele>5.8000001907349</ele>
        <time>2021-06-27T07:23:27.000Z</time>
      </trkpt>
      <trkpt lat="47.55905" lon="-2.20951">
        <ele>5.1999998092651</ele>
        <time>2021-06-27T07:23:28.000Z</time>
      </trkpt>
      <trkpt lat="47.55902" lon="-2.20938">
        <ele>4.8000001907349</ele>
        <time>2021-06-27T07:23:29.000Z</time>
      </trkpt>
      <trkpt lat="47.55898" lon="-2.20925">
        <ele>4.1999998092651</ele>
        <time>2021-06-27T07:23:30.000Z</time>
      </trkpt>
      <trkpt lat="47.55894" lon="-2.20912">
        <ele>3.7999999523163</ele>
        <time>2021-06-27T07:23:31.000Z</time>
      </trkpt>
      <trkpt lat="47.55891" lon="-2.20899">
        <ele>3.2000000476837</ele>
        <time>2021-06-27T07:23:32.000Z</time>
      </trkpt>
      <trkpt lat="47.55887" lon="-2.20886">
        <ele>2.7999999523163</ele>
        <time>2021-06-27T07:23:33.000Z</time>
      </trkpt>
      <trkpt lat="47.55884" lon="-2.20874">
        <ele>2.4000000953674</ele>
        <time>2021-06-27T07:23:34.000Z</time>
      </trkpt>
      <trkpt lat="47.55881" lon="-2.20862">
        <ele>1.7999999523163</ele>
        <time>2021-06-27T07:23:35.000Z</time>
      </trkpt>
      <trkpt lat="47.55878" lon="-2.2085">
        <ele>1.3999999761581</ele>
        <time>2021-06-27T07:23:36.000Z</time>
      </trkpt>
      <trkpt lat="47.55874" lon="-2.20838">
        <ele>1</ele>
        <time>2021-06-27T07:23:37.000Z</time>
      </trkpt>
      <trkpt lat="47.55871" lon="-2.20826">
        <ele>0.60000002384186</ele>
        <time>2021-06-27T07:23:38.000Z</time>
      </trkpt>
      <trkpt lat="47.55871" lon="-2.208">
        <ele>0.20000000298023</ele>
        <time>2021-06-27T07:23:40.000Z</time>
      </trkpt>
      <trkpt lat="47.55874" lon="-2.20788">
        <ele>-0.20000000298023</ele>
        <time>2021-06-27T07:23:41.000Z</time>
      </trkpt>
      <trkpt lat="47.55874" lon="-2.20777">
        <ele>-0.60000002384186</ele>
        <time>2021-06-27T07:23:42.000Z</time>
      </trkpt>
      <trkpt lat="47.55875" lon="-2.20766">
        <ele>-1.3999999761581</ele>
        <time>2021-06-27T07:23:43.000Z</time>
      </trkpt>
      <trkpt lat="47.55875" lon="-2.20737">
        <ele>-1.3999999761581</ele>
        <time>2021-06-27T07:23:46.000Z</time>
      </trkpt>
      <trkpt lat="47.55876" lon="-2.20678">
        <ele>-1.3999999761581</ele>
        <time>2021-06-27T07:23:53.000Z</time>
      </trkpt>
      <trkpt lat="47.55879" lon="-2.20639">
        <ele>-1.3999999761581</ele>
        <time>2021-06-27T07:23:58.000Z</time>
      </trkpt>
      <trkpt lat="47.55887" lon="-2.20597">
        <ele>-2</ele>
        <time>2021-06-27T07:24:03.000Z</time>
      </trkpt>
      <trkpt lat="47.55888" lon="-2.2059">
        <ele>-2.4000000953674</ele>
        <time>2021-06-27T07:24:04.000Z</time>
      </trkpt>
      <trkpt lat="47.5589" lon="-2.2058">
        <ele>-2.7999999523163</ele>
        <time>2021-06-27T07:24:05.000Z</time>
      </trkpt>
      <trkpt lat="47.55892" lon="-2.20571">
        <ele>-3.2000000476837</ele>
        <time>2021-06-27T07:24:06.000Z</time>
      </trkpt>
      <trkpt lat="47.55893" lon="-2.20562">
        <ele>-3.5999999046326</ele>
        <time>2021-06-27T07:24:07.000Z</time>
      </trkpt>
      <trkpt lat="47.55899" lon="-2.20526">
        <ele>-3.5999999046326</ele>
        <time>2021-06-27T07:24:11.000Z</time>
      </trkpt>
      <trkpt lat="47.55908" lon="-2.20473">
        <ele>-3.5999999046326</ele>
        <time>2021-06-27T07:24:17.000Z</time>
      </trkpt>
      <trkpt lat="47.5592" lon="-2.20428">
        <ele>-3.5999999046326</ele>
        <time>2021-06-27T07:24:23.000Z</time>
      </trkpt>
      <trkpt lat="47.55935" lon="-2.20373">
        <ele>-3.5999999046326</ele>
        <time>2021-06-27T07:24:30.000Z</time>
      </trkpt>
      <trkpt lat="47.55947" lon="-2.20335">
        <ele>-3.5999999046326</ele>
        <time>2021-06-27T07:24:36.000Z</time>
      </trkpt>
      <trkpt lat="47.5595" lon="-2.20323">
        <ele>-3.2000000476837</ele>
        <time>2021-06-27T07:24:38.000Z</time>
      </trkpt>
      <trkpt lat="47.55952" lon="-2.20318">
        <ele>-2.7999999523163</ele>
        <time>2021-06-27T07:24:39.000Z</time>
      </trkpt>
      <trkpt lat="47.55953" lon="-2.20312">
        <ele>-2.4000000953674</ele>
        <time>2021-06-27T07:24:40.000Z</time>
      </trkpt>
      <trkpt lat="47.55955" lon="-2.20305">
        <ele>-2</ele>
        <time>2021-06-27T07:24:41.000Z</time>
      </trkpt>
      <trkpt lat="47.55957" lon="-2.20299">
        <ele>-1.6000000238419</ele>
        <time>2021-06-27T07:24:42.000Z</time>
      </trkpt>
      <trkpt lat="47.55961" lon="-2.20275">
        <ele>-1.6000000238419</ele>
        <time>2021-06-27T07:24:45.000Z</time>
      </trkpt>
      <trkpt lat="47.55968" lon="-2.20251">
        <ele>-1.6000000238419</ele>
        <time>2021-06-27T07:24:47.000Z</time>
      </trkpt>
      <trkpt lat="47.55988" lon="-2.20226">
        <ele>-1.6000000238419</ele>
        <time>2021-06-27T07:24:51.000Z</time>
      </trkpt>
      <trkpt lat="47.55992" lon="-2.20222">
        <ele>-1.6000000238419</ele>
        <time>2021-06-27T07:24:52.000Z</time>
      </trkpt>
      <trkpt lat="47.56017" lon="-2.20201">
        <ele>-1.6000000238419</ele>
        <time>2021-06-27T07:24:57.000Z</time>
      </trkpt>
      <trkpt lat="47.56028" lon="-2.20194">
        <ele>-2</ele>
        <time>2021-06-27T07:24:59.000Z</time>
      </trkpt>
      <trkpt lat="47.56034" lon="-2.20189">
        <ele>-2.4000000953674</ele>
        <time>2021-06-27T07:25:00.000Z</time>
      </trkpt>
      <trkpt lat="47.56041" lon="-2.20185">
        <ele>-3</ele>
        <time>2021-06-27T07:25:01.000Z</time>
      </trkpt>
      <trkpt lat="47.56047" lon="-2.20182">
        <ele>-3.5999999046326</ele>
        <time>2021-06-27T07:25:02.000Z</time>
      </trkpt>
      <trkpt lat="47.56054" lon="-2.20178">
        <ele>-4.1999998092651</ele>
        <time>2021-06-27T07:25:03.000Z</time>
      </trkpt>
      <trkpt lat="47.56061" lon="-2.20175">
        <ele>-4.8000001907349</ele>
        <time>2021-06-27T07:25:04.000Z</time>
      </trkpt>
      <trkpt lat="47.56073" lon="-2.20171">
        <ele>-5.4000000953674</ele>
        <time>2021-06-27T07:25:05.000Z</time>
      </trkpt>
      <trkpt lat="47.56084" lon="-2.20167">
        <ele>-6</ele>
        <time>2021-06-27T07:25:06.000Z</time>
      </trkpt>
      <trkpt lat="47.56094" lon="-2.20164">
        <ele>-6.5999999046326</ele>
        <time>2021-06-27T07:25:07.000Z</time>
      </trkpt>
      <trkpt lat="47.56104" lon="-2.2016">
        <ele>-7.4000000953674</ele>
        <time>2021-06-27T07:25:08.000Z</time>
      </trkpt>
      <trkpt lat="47.56112" lon="-2.20156">
        <ele>-8</ele>
        <time>2021-06-27T07:25:09.000Z</time>
      </trkpt>
      <trkpt lat="47.56121" lon="-2.20153">
        <ele>-8.6000003814697</ele>
        <time>2021-06-27T07:25:10.000Z</time>
      </trkpt>
      <trkpt lat="47.56144" lon="-2.20143">
        <ele>-8.6000003814697</ele>
        <time>2021-06-27T07:25:13.000Z</time>
      </trkpt>
      <trkpt lat="47.56187" lon="-2.20126">
        <ele>-8.6000003814697</ele>
        <time>2021-06-27T07:25:19.000Z</time>
      </trkpt>
      <trkpt lat="47.56196" lon="-2.20124">
        <ele>-8.6000003814697</ele>
        <time>2021-06-27T07:25:20.000Z</time>
      </trkpt>
      <trkpt lat="47.56217" lon="-2.20122">
        <ele>-8.6000003814697</ele>
        <time>2021-06-27T07:25:23.000Z</time>
      </trkpt>
      <trkpt lat="47.5623" lon="-2.20123">
        <ele>-8.6000003814697</ele>
        <time>2021-06-27T07:25:25.000Z</time>
      </trkpt>
      <trkpt lat="47.56257" lon="-2.20129">
        <ele>-8.6000003814697</ele>
        <time>2021-06-27T07:25:29.000Z</time>
      </trkpt>
      <trkpt lat="47.56298" lon="-2.20143">
        <ele>-8.6000003814697</ele>
        <time>2021-06-27T07:25:36.000Z</time>
      </trkpt>
      <trkpt lat="47.56329" lon="-2.20151">
        <ele>-8.6000003814697</ele>
        <time>2021-06-27T07:25:42.000Z</time>
      </trkpt>
      <trkpt lat="47.5635" lon="-2.20156">
        <ele>-8.6000003814697</ele>
        <time>2021-06-27T07:25:48.000Z</time>
      </trkpt>
      <trkpt lat="47.56365" lon="-2.20156">
        <ele>-8.6000003814697</ele>
        <time>2021-06-27T07:25:54.000Z</time>
      </trkpt>
      <trkpt lat="47.56372" lon="-2.20147">
        <ele>-8.6000003814697</ele>
        <time>2021-06-27T07:25:58.000Z</time>
      </trkpt>
      <trkpt lat="47.56379" lon="-2.20114">
        <ele>-8.6000003814697</ele>
        <time>2021-06-27T07:26:05.000Z</time>
      </trkpt>
      <trkpt lat="47.56388" lon="-2.20067">
        <ele>-8.6000003814697</ele>
        <time>2021-06-27T07:26:13.000Z</time>
      </trkpt>
      <trkpt lat="47.56398" lon="-2.20008">
        <ele>-8.6000003814697</ele>
        <time>2021-06-27T07:26:22.000Z</time>
      </trkpt>
      <trkpt lat="47.56405" lon="-2.19961">
        <ele>-8.6000003814697</ele>
        <time>2021-06-27T07:26:29.000Z</time>
      </trkpt>
      <trkpt lat="47.56413" lon="-2.19904">
        <ele>-8.6000003814697</ele>
        <time>2021-06-27T07:26:37.000Z</time>
      </trkpt>
      <trkpt lat="47.56421" lon="-2.19851">
        <ele>-8.6000003814697</ele>
        <time>2021-06-27T07:26:44.000Z</time>
      </trkpt>
      <trkpt lat="47.56431" lon="-2.1979">
        <ele>-8.6000003814697</ele>
        <time>2021-06-27T07:26:52.000Z</time>
      </trkpt>
      <trkpt lat="47.56441" lon="-2.19723">
        <ele>-8.6000003814697</ele>
        <time>2021-06-27T07:27:01.000Z</time>
      </trkpt>
      <trkpt lat="47.56444" lon="-2.197">
        <ele>-9</ele>
        <time>2021-06-27T07:27:04.000Z</time>
      </trkpt>
      <trkpt lat="47.56446" lon="-2.19693">
        <ele>-9.3999996185303</ele>
        <time>2021-06-27T07:27:05.000Z</time>
      </trkpt>
      <trkpt lat="47.56447" lon="-2.19685">
        <ele>-9.8000001907349</ele>
        <time>2021-06-27T07:27:06.000Z</time>
      </trkpt>
      <trkpt lat="47.56448" lon="-2.19678">
        <ele>-10.199999809265</ele>
        <time>2021-06-27T07:27:07.000Z</time>
      </trkpt>
      <trkpt lat="47.56449" lon="-2.1967">
        <ele>-10.60000038147</ele>
        <time>2021-06-27T07:27:08.000Z</time>
      </trkpt>
      <trkpt lat="47.56451" lon="-2.19656">
        <ele>-10.60000038147</ele>
        <time>2021-06-27T07:27:10.000Z</time>
      </trkpt>
      <trkpt lat="47.5646" lon="-2.19602">
        <ele>-10.60000038147</ele>
        <time>2021-06-27T07:27:17.000Z</time>
      </trkpt>
      <trkpt lat="47.56473" lon="-2.19577">
        <ele>-10.60000038147</ele>
        <time>2021-06-27T07:27:21.000Z</time>
      </trkpt>
      <trkpt lat="47.56494" lon="-2.19563">
        <ele>-10.60000038147</ele>
        <time>2021-06-27T07:27:25.000Z</time>
      </trkpt>
      <trkpt lat="47.56505" lon="-2.1956">
        <ele>-10.60000038147</ele>
        <time>2021-06-27T07:27:27.000Z</time>
      </trkpt>
      <trkpt lat="47.56537" lon="-2.19553">
        <ele>-10.60000038147</ele>
        <time>2021-06-27T07:27:33.000Z</time>
      </trkpt>
      <trkpt lat="47.56569" lon="-2.19546">
        <ele>-10.60000038147</ele>
        <time>2021-06-27T07:27:40.000Z</time>
      </trkpt>
      <trkpt lat="47.56595" lon="-2.19545">
        <ele>-10.60000038147</ele>
        <time>2021-06-27T07:27:46.000Z</time>
      </trkpt>
      <trkpt lat="47.56612" lon="-2.19545">
        <ele>-10.199999809265</ele>
        <time>2021-06-27T07:27:50.000Z</time>
      </trkpt>
      <trkpt lat="47.56616" lon="-2.19545">
        <ele>-9.8000001907349</ele>
        <time>2021-06-27T07:27:51.000Z</time>
      </trkpt>
      <trkpt lat="47.5662" lon="-2.19544">
        <ele>-9.3999996185303</ele>
        <time>2021-06-27T07:27:52.000Z</time>
      </trkpt>
      <trkpt lat="47.56624" lon="-2.19544">
        <ele>-9</ele>
        <time>2021-06-27T07:27:53.000Z</time>
      </trkpt>
      <trkpt lat="47.56627" lon="-2.19544">
        <ele>-8.6000003814697</ele>
        <time>2021-06-27T07:27:54.000Z</time>
      </trkpt>
      <trkpt lat="47.56631" lon="-2.19544">
        <ele>-8.6000003814697</ele>
        <time>2021-06-27T07:27:56.000Z</time>
      </trkpt>
      <trkpt lat="47.56636" lon="-2.19545">
        <ele>-8.6000003814697</ele>
        <time>2021-06-27T07:28:02.000Z</time>
      </trkpt>
      <trkpt lat="47.56634" lon="-2.19544">
        <ele>-8.6000003814697</ele>
        <time>2021-06-27T07:28:12.000Z</time>
      </trkpt>
      <trkpt lat="47.56629" lon="-2.19542">
        <ele>-8.6000003814697</ele>
        <time>2021-06-27T07:28:13.000Z</time>
      </trkpt>
      <trkpt lat="47.5662" lon="-2.19528">
        <ele>-8.6000003814697</ele>
        <time>2021-06-27T07:28:16.000Z</time>
      </trkpt>
      <trkpt lat="47.56619" lon="-2.19512">
        <ele>-8.6000003814697</ele>
        <time>2021-06-27T07:28:19.000Z</time>
      </trkpt>
      <trkpt lat="47.56625" lon="-2.19496">
        <ele>-8.6000003814697</ele>
        <time>2021-06-27T07:28:22.000Z</time>
      </trkpt>
      <trkpt lat="47.56631" lon="-2.19483">
        <ele>-8.6000003814697</ele>
        <time>2021-06-27T07:28:25.000Z</time>
      </trkpt>
      <trkpt lat="47.56633" lon="-2.19479">
        <ele>-8.1999998092651</ele>
        <time>2021-06-27T07:28:26.000Z</time>
      </trkpt>
      <trkpt lat="47.56635" lon="-2.19475">
        <ele>-7.5999999046326</ele>
        <time>2021-06-27T07:28:27.000Z</time>
      </trkpt>
      <trkpt lat="47.56636" lon="-2.1947">
        <ele>-7.1999998092651</ele>
        <time>2021-06-27T07:28:28.000Z</time>
      </trkpt>
      <trkpt lat="47.56638" lon="-2.19466">
        <ele>-6.8000001907349</ele>
        <time>2021-06-27T07:28:29.000Z</time>
      </trkpt>
      <trkpt lat="47.56639" lon="-2.19462">
        <ele>-6.4000000953674</ele>
        <time>2021-06-27T07:28:30.000Z</time>
      </trkpt>
      <trkpt lat="47.56646" lon="-2.19445">
        <ele>-6.4000000953674</ele>
        <time>2021-06-27T07:28:34.000Z</time>
      </trkpt>
      <trkpt lat="47.56651" lon="-2.19432">
        <ele>-6</ele>
        <time>2021-06-27T07:28:37.000Z</time>
      </trkpt>
      <trkpt lat="47.56653" lon="-2.19427">
        <ele>-5.5999999046326</ele>
        <time>2021-06-27T07:28:38.000Z</time>
      </trkpt>
      <trkpt lat="47.56654" lon="-2.19423">
        <ele>-5.1999998092651</ele>
        <time>2021-06-27T07:28:39.000Z</time>
      </trkpt>
      <trkpt lat="47.56656" lon="-2.19419">
        <ele>-4.4000000953674</ele>
        <time>2021-06-27T07:28:40.000Z</time>
      </trkpt>
      <trkpt lat="47.56662" lon="-2.19403">
        <ele>-4.4000000953674</ele>
        <time>2021-06-27T07:28:44.000Z</time>
      </trkpt>
      <trkpt lat="47.56665" lon="-2.19395">
        <ele>-3.7999999523163</ele>
        <time>2021-06-27T07:28:46.000Z</time>
      </trkpt>
      <trkpt lat="47.56666" lon="-2.19391">
        <ele>-3.4000000953674</ele>
        <time>2021-06-27T07:28:47.000Z</time>
      </trkpt>
      <trkpt lat="47.56668" lon="-2.19387">
        <ele>-3</ele>
        <time>2021-06-27T07:28:48.000Z</time>
      </trkpt>
      <trkpt lat="47.5667" lon="-2.19383">
        <ele>-2.5999999046326</ele>
        <time>2021-06-27T07:28:49.000Z</time>
      </trkpt>
      <trkpt lat="47.56671" lon="-2.19379">
        <ele>-2</ele>
        <time>2021-06-27T07:28:50.000Z</time>
      </trkpt>
      <trkpt lat="47.56673" lon="-2.19374">
        <ele>-2</ele>
        <time>2021-06-27T07:28:51.000Z</time>
      </trkpt>
      <trkpt lat="47.56687" lon="-2.19344">
        <ele>-1.6000000238419</ele>
        <time>2021-06-27T07:28:58.000Z</time>
      </trkpt>
      <trkpt lat="47.56688" lon="-2.1934">
        <ele>-1.2000000476837</ele>
        <time>2021-06-27T07:28:59.000Z</time>
      </trkpt>
      <trkpt lat="47.5669" lon="-2.19336">
        <ele>-0.80000001192093</ele>
        <time>2021-06-27T07:29:00.000Z</time>
      </trkpt>
      <trkpt lat="47.56692" lon="-2.19331">
        <ele>-0.40000000596046</ele>
        <time>2021-06-27T07:29:01.000Z</time>
      </trkpt>
      <trkpt lat="47.56694" lon="-2.19327">
        <ele>30</ele>
        <time>2021-06-27T07:29:02.000Z</time>
      </trkpt>
      <trkpt lat="47.56704" lon="-2.19303">
        <ele>31.2</ele>
        <time>2021-06-27T07:29:08.000Z</time>
      </trkpt>
      <trkpt lat="47.5671" lon="-2.19288">
        <ele>0.40000000596046</ele>
        <time>2021-06-27T07:29:12.000Z</time>
      </trkpt>
      <trkpt lat="47.56712" lon="-2.19284">
        <ele>0.80000001192093</ele>
        <time>2021-06-27T07:29:13.000Z</time>
      </trkpt>
      <trkpt lat="47.56713" lon="-2.1928">
        <ele>1.2000000476837</ele>
        <time>2021-06-27T07:29:14.000Z</time>
      </trkpt>
      <trkpt lat="47.56715" lon="-2.19277">
        <ele>1.6000000238419</ele>
        <time>2021-06-27T07:29:15.000Z</time>
      </trkpt>
      <trkpt lat="47.56716" lon="-2.19273">
        <ele>2</ele>
        <time>2021-06-27T07:29:16.000Z</time>
      </trkpt>
      <trkpt lat="47.56721" lon="-2.19263">
        <ele>2</ele>
        <time>2021-06-27T07:29:19.000Z</time>
      </trkpt>
      <trkpt lat="47.56731" lon="-2.19242">
        <ele>2.4000000953674</ele>
        <time>2021-06-27T07:29:25.000Z</time>
      </trkpt>
      <trkpt lat="47.56733" lon="-2.19238">
        <ele>2.7999999523163</ele>
        <time>2021-06-27T07:29:26.000Z</time>
      </trkpt>
      <trkpt lat="47.56735" lon="-2.19235">
        <ele>3.2000000476837</ele>
        <time>2021-06-27T07:29:27.000Z</time>
      </trkpt>
      <trkpt lat="47.56736" lon="-2.19231">
        <ele>4</ele>
        <time>2021-06-27T07:29:28.000Z</time>
      </trkpt>
      <trkpt lat="47.56747" lon="-2.19209">
        <ele>4</ele>
        <time>2021-06-27T07:29:33.000Z</time>
      </trkpt>
      <trkpt lat="47.56766" lon="-2.19178">
        <ele>4.4000000953674</ele>
        <time>2021-06-27T07:29:40.000Z</time>
      </trkpt>
      <trkpt lat="47.56768" lon="-2.19174">
        <ele>4.8000001907349</ele>
        <time>2021-06-27T07:29:41.000Z</time>
      </trkpt>
      <trkpt lat="47.56771" lon="-2.1917">
        <ele>5.4000000953674</ele>
        <time>2021-06-27T07:29:42.000Z</time>
      </trkpt>
      <trkpt lat="47.56773" lon="-2.19167">
        <ele>5.8000001907349</ele>
        <time>2021-06-27T07:29:43.000Z</time>
      </trkpt>
      <trkpt lat="47.56775" lon="-2.19163">
        <ele>6.1999998092651</ele>
        <time>2021-06-27T07:29:44.000Z</time>
      </trkpt>
      <trkpt lat="47.56784" lon="-2.19147">
        <ele>6.1999998092651</ele>
        <time>2021-06-27T07:29:48.000Z</time>
      </trkpt>
      <trkpt lat="47.56803" lon="-2.19115">
        <ele>6.5999999046326</ele>
        <time>2021-06-27T07:29:56.000Z</time>
      </trkpt>
      <trkpt lat="47.56804" lon="-2.19111">
        <ele>7</ele>
        <time>2021-06-27T07:29:57.000Z</time>
      </trkpt>
      <trkpt lat="47.56807" lon="-2.19106">
        <ele>7.4000000953674</ele>
        <time>2021-06-27T07:29:58.000Z</time>
      </trkpt>
      <trkpt lat="47.56809" lon="-2.19102">
        <ele>7.8000001907349</ele>
        <time>2021-06-27T07:29:59.000Z</time>
      </trkpt>
      <trkpt lat="47.56812" lon="-2.19098">
        <ele>8.1999998092651</ele>
        <time>2021-06-27T07:30:00.000Z</time>
      </trkpt>
      <trkpt lat="47.56819" lon="-2.19085">
        <ele>8.1999998092651</ele>
        <time>2021-06-27T07:30:03.000Z</time>
      </trkpt>
      <trkpt lat="47.56833" lon="-2.19059">
        <ele>8.1999998092651</ele>
        <time>2021-06-27T07:30:09.000Z</time>
      </trkpt>
      <trkpt lat="47.56853" lon="-2.19028">
        <ele>8.1999998092651</ele>
        <time>2021-06-27T07:30:17.000Z</time>
      </trkpt>
      <trkpt lat="47.56869" lon="-2.1901">
        <ele>8.1999998092651</ele>
        <time>2021-06-27T07:30:22.000Z</time>
      </trkpt>
      <trkpt lat="47.56882" lon="-2.18985">
        <ele>8.1999998092651</ele>
        <time>2021-06-27T07:30:27.000Z</time>
      </trkpt>
      <trkpt lat="47.56907" lon="-2.1894">
        <ele>8.1999998092651</ele>
        <time>2021-06-27T07:30:34.000Z</time>
      </trkpt>
      <trkpt lat="47.56919" lon="-2.18912">
        <ele>8.1999998092651</ele>
        <time>2021-06-27T07:30:38.000Z</time>
      </trkpt>
      <trkpt lat="47.56923" lon="-2.18897">
        <ele>8.1999998092651</ele>
        <time>2021-06-27T07:30:40.000Z</time>
      </trkpt>
      <trkpt lat="47.56925" lon="-2.18891">
        <ele>8.1999998092651</ele>
        <time>2021-06-27T07:30:41.000Z</time>
      </trkpt>
      <trkpt lat="47.56932" lon="-2.18867">
        <ele>8.1999998092651</ele>
        <time>2021-06-27T07:30:45.000Z</time>
      </trkpt>
      <trkpt lat="47.56945" lon="-2.18849">
        <ele>8.1999998092651</ele>
        <time>2021-06-27T07:30:49.000Z</time>
      </trkpt>
      <trkpt lat="47.5696" lon="-2.18842">
        <ele>8.1999998092651</ele>
        <time>2021-06-27T07:30:53.000Z</time>
      </trkpt>
      <trkpt lat="47.56965" lon="-2.1884">
        <ele>8.1999998092651</ele>
        <time>2021-06-27T07:30:54.000Z</time>
      </trkpt>
      <trkpt lat="47.56977" lon="-2.18837">
        <ele>8.1999998092651</ele>
        <time>2021-06-27T07:30:57.000Z</time>
      </trkpt>
      <trkpt lat="47.56985" lon="-2.18835">
        <ele>8.1999998092651</ele>
        <time>2021-06-27T07:30:59.000Z</time>
      </trkpt>
      <trkpt lat="47.57002" lon="-2.18831">
        <ele>8.6000003814697</ele>
        <time>2021-06-27T07:31:04.000Z</time>
      </trkpt>
      <trkpt lat="47.57005" lon="-2.1883">
        <ele>9.1999998092651</ele>
        <time>2021-06-27T07:31:05.000Z</time>
      </trkpt>
      <trkpt lat="47.57008" lon="-2.18829">
        <ele>9.6000003814697</ele>
        <time>2021-06-27T07:31:06.000Z</time>
      </trkpt>
      <trkpt lat="47.57011" lon="-2.18828">
        <ele>10</ele>
        <time>2021-06-27T07:31:07.000Z</time>
      </trkpt>
      <trkpt lat="47.57014" lon="-2.18826">
        <ele>10.60000038147</ele>
        <time>2021-06-27T07:31:08.000Z</time>
      </trkpt>
      <trkpt lat="47.5703" lon="-2.1882">
        <ele>10.60000038147</ele>
        <time>2021-06-27T07:31:13.000Z</time>
      </trkpt>
      <trkpt lat="47.57033" lon="-2.18819">
        <ele>11</ele>
        <time>2021-06-27T07:31:14.000Z</time>
      </trkpt>
      <trkpt lat="47.57037" lon="-2.18818">
        <ele>11.39999961853</ele>
        <time>2021-06-27T07:31:15.000Z</time>
      </trkpt>
      <trkpt lat="47.57041" lon="-2.18818">
        <ele>11.800000190735</ele>
        <time>2021-06-27T07:31:16.000Z</time>
      </trkpt>
      <trkpt lat="47.57044" lon="-2.18817">
        <ele>12.199999809265</ele>
        <time>2021-06-27T07:31:17.000Z</time>
      </trkpt>
      <trkpt lat="47.57047" lon="-2.18816">
        <ele>12.800000190735</ele>
        <time>2021-06-27T07:31:18.000Z</time>
      </trkpt>
      <trkpt lat="47.57057" lon="-2.18813">
        <ele>12.800000190735</ele>
        <time>2021-06-27T07:31:21.000Z</time>
      </trkpt>
      <trkpt lat="47.57073" lon="-2.18809">
        <ele>13.199999809265</ele>
        <time>2021-06-27T07:31:26.000Z</time>
      </trkpt>
      <trkpt lat="47.57077" lon="-2.18808">
        <ele>13.60000038147</ele>
        <time>2021-06-27T07:31:27.000Z</time>
      </trkpt>
      <trkpt lat="47.5708" lon="-2.18807">
        <ele>14</ele>
        <time>2021-06-27T07:31:28.000Z</time>
      </trkpt>
      <trkpt lat="47.57084" lon="-2.18806">
        <ele>14.39999961853</ele>
        <time>2021-06-27T07:31:29.000Z</time>
      </trkpt>
      <trkpt lat="47.57087" lon="-2.18805">
        <ele>14.800000190735</ele>
        <time>2021-06-27T07:31:30.000Z</time>
      </trkpt>
      <trkpt lat="47.57122" lon="-2.18794">
        <ele>14.800000190735</ele>
        <time>2021-06-27T07:31:40.000Z</time>
      </trkpt>
      <trkpt lat="47.57151" lon="-2.18784">
        <ele>14.800000190735</ele>
        <time>2021-06-27T07:31:48.000Z</time>
      </trkpt>
      <trkpt lat="47.57159" lon="-2.18782">
        <ele>14.800000190735</ele>
        <time>2021-06-27T07:31:50.000Z</time>
      </trkpt>
      <trkpt lat="47.5718" lon="-2.18774">
        <ele>14.800000190735</ele>
        <time>2021-06-27T07:31:55.000Z</time>
      </trkpt>
      <trkpt lat="47.57194" lon="-2.18768">
        <ele>14.800000190735</ele>
        <time>2021-06-27T07:31:58.000Z</time>
      </trkpt>
      <trkpt lat="47.57204" lon="-2.18759">
        <ele>14.800000190735</ele>
        <time>2021-06-27T07:32:00.000Z</time>
      </trkpt>
      <trkpt lat="47.57213" lon="-2.18747">
        <ele>14.800000190735</ele>
        <time>2021-06-27T07:32:02.000Z</time>
      </trkpt>
      <trkpt lat="47.57225" lon="-2.18724">
        <ele>14.800000190735</ele>
        <time>2021-06-27T07:32:05.000Z</time>
      </trkpt>
      <trkpt lat="47.57229" lon="-2.18715">
        <ele>14.39999961853</ele>
        <time>2021-06-27T07:32:06.000Z</time>
      </trkpt>
      <trkpt lat="47.57232" lon="-2.18705">
        <ele>13.800000190735</ele>
        <time>2021-06-27T07:32:07.000Z</time>
      </trkpt>
      <trkpt lat="47.57236" lon="-2.18694">
        <ele>13.39999961853</ele>
        <time>2021-06-27T07:32:08.000Z</time>
      </trkpt>
      <trkpt lat="47.57239" lon="-2.18683">
        <ele>13</ele>
        <time>2021-06-27T07:32:09.000Z</time>
      </trkpt>
      <trkpt lat="47.57241" lon="-2.18671">
        <ele>12.60000038147</ele>
        <time>2021-06-27T07:32:10.000Z</time>
      </trkpt>
      <trkpt lat="47.57244" lon="-2.18646">
        <ele>12</ele>
        <time>2021-06-27T07:32:12.000Z</time>
      </trkpt>
      <trkpt lat="47.57245" lon="-2.18633">
        <ele>11.60000038147</ele>
        <time>2021-06-27T07:32:13.000Z</time>
      </trkpt>
      <trkpt lat="47.57246" lon="-2.18621">
        <ele>11.199999809265</ele>
        <time>2021-06-27T07:32:14.000Z</time>
      </trkpt>
      <trkpt lat="47.57247" lon="-2.18609">
        <ele>10.800000190735</ele>
        <time>2021-06-27T07:32:15.000Z</time>
      </trkpt>
      <trkpt lat="47.57248" lon="-2.18596">
        <ele>10.199999809265</ele>
        <time>2021-06-27T07:32:16.000Z</time>
      </trkpt>
      <trkpt lat="47.57249" lon="-2.18584">
        <ele>9.8000001907349</ele>
        <time>2021-06-27T07:32:17.000Z</time>
      </trkpt>
      <trkpt lat="47.5725" lon="-2.18571">
        <ele>9.3999996185303</ele>
        <time>2021-06-27T07:32:18.000Z</time>
      </trkpt>
      <trkpt lat="47.57251" lon="-2.18558">
        <ele>8.8000001907349</ele>
        <time>2021-06-27T07:32:19.000Z</time>
      </trkpt>
      <trkpt lat="47.57253" lon="-2.18545">
        <ele>8.3999996185303</ele>
        <time>2021-06-27T07:32:20.000Z</time>
      </trkpt>
      <trkpt lat="47.57254" lon="-2.18532">
        <ele>8</ele>
        <time>2021-06-27T07:32:21.000Z</time>
      </trkpt>
      <trkpt lat="47.57255" lon="-2.18518">
        <ele>7</ele>
        <time>2021-06-27T07:32:22.000Z</time>
      </trkpt>
      <trkpt lat="47.57256" lon="-2.18506">
        <ele>6.5999999046326</ele>
        <time>2021-06-27T07:32:23.000Z</time>
      </trkpt>
      <trkpt lat="47.57257" lon="-2.18492">
        <ele>6</ele>
        <time>2021-06-27T07:32:24.000Z</time>
      </trkpt>
      <trkpt lat="47.57259" lon="-2.18479">
        <ele>5.5999999046326</ele>
        <time>2021-06-27T07:32:25.000Z</time>
      </trkpt>
      <trkpt lat="47.57259" lon="-2.18465">
        <ele>5.1999998092651</ele>
        <time>2021-06-27T07:32:26.000Z</time>
      </trkpt>
      <trkpt lat="47.57259" lon="-2.1845">
        <ele>4.8000001907349</ele>
        <time>2021-06-27T07:32:27.000Z</time>
      </trkpt>
      <trkpt lat="47.57259" lon="-2.18437">
        <ele>4.4000000953674</ele>
        <time>2021-06-27T07:32:28.000Z</time>
      </trkpt>
      <trkpt lat="47.57259" lon="-2.18423">
        <ele>4</ele>
        <time>2021-06-27T07:32:29.000Z</time>
      </trkpt>
      <trkpt lat="47.57258" lon="-2.18408">
        <ele>3.4000000953674</ele>
        <time>2021-06-27T07:32:30.000Z</time>
      </trkpt>
      <trkpt lat="47.57255" lon="-2.18395">
        <ele>2.7999999523163</ele>
        <time>2021-06-27T07:32:31.000Z</time>
      </trkpt>
      <trkpt lat="47.57253" lon="-2.18381">
        <ele>2.2000000476837</ele>
        <time>2021-06-27T07:32:32.000Z</time>
      </trkpt>
      <trkpt lat="47.57252" lon="-2.18368">
        <ele>1.6000000238419</ele>
        <time>2021-06-27T07:32:33.000Z</time>
      </trkpt>
      <trkpt lat="47.57253" lon="-2.18355">
        <ele>1</ele>
        <time>2021-06-27T07:32:34.000Z</time>
      </trkpt>
      <trkpt lat="47.57257" lon="-2.18343">
        <ele>0.40000000596046</ele>
        <time>2021-06-27T07:32:35.000Z</time>
      </trkpt>
      <trkpt lat="47.57262" lon="-2.18333">
        <ele>-0.40000000596046</ele>
        <time>2021-06-27T07:32:36.000Z</time>
      </trkpt>
      <trkpt lat="47.57268" lon="-2.18325">
        <ele>-1</ele>
        <time>2021-06-27T07:32:37.000Z</time>
      </trkpt>
      <trkpt lat="47.57274" lon="-2.18319">
        <ele>-1.3999999761581</ele>
        <time>2021-06-27T07:32:38.000Z</time>
      </trkpt>
      <trkpt lat="47.57282" lon="-2.18313">
        <ele>-2</ele>
        <time>2021-06-27T07:32:39.000Z</time>
      </trkpt>
      <trkpt lat="47.5729" lon="-2.18308">
        <ele>-2.5999999046326</ele>
        <time>2021-06-27T07:32:40.000Z</time>
      </trkpt>
      <trkpt lat="47.57298" lon="-2.18305">
        <ele>-3.2000000476837</ele>
        <time>2021-06-27T07:32:41.000Z</time>
      </trkpt>
      <trkpt lat="47.57307" lon="-2.18302">
        <ele>-3.5999999046326</ele>
        <time>2021-06-27T07:32:42.000Z</time>
      </trkpt>
      <trkpt lat="47.57316" lon="-2.183">
        <ele>-4</ele>
        <time>2021-06-27T07:32:43.000Z</time>
      </trkpt>
      <trkpt lat="47.57324" lon="-2.18298">
        <ele>-4.4000000953674</ele>
        <time>2021-06-27T07:32:44.000Z</time>
      </trkpt>
      <trkpt lat="47.57332" lon="-2.18296">
        <ele>-5</ele>
        <time>2021-06-27T07:32:45.000Z</time>
      </trkpt>
      <trkpt lat="47.57341" lon="-2.18295">
        <ele>-5.5999999046326</ele>
        <time>2021-06-27T07:32:46.000Z</time>
      </trkpt>
      <trkpt lat="47.57349" lon="-2.18295">
        <ele>-7</ele>
        <time>2021-06-27T07:32:47.000Z</time>
      </trkpt>
      <trkpt lat="47.57356" lon="-2.18294">
        <ele>-7.8000001907349</ele>
        <time>2021-06-27T07:32:48.000Z</time>
      </trkpt>
      <trkpt lat="47.57364" lon="-2.18294">
        <ele>-8.3999996185303</ele>
        <time>2021-06-27T07:32:49.000Z</time>
      </trkpt>
      <trkpt lat="47.57372" lon="-2.18292">
        <ele>-9.1999998092651</ele>
        <time>2021-06-27T07:32:50.000Z</time>
      </trkpt>
      <trkpt lat="47.5738" lon="-2.1829">
        <ele>-10</ele>
        <time>2021-06-27T07:32:51.000Z</time>
      </trkpt>
      <trkpt lat="47.57388" lon="-2.18286">
        <ele>-10.39999961853</ele>
        <time>2021-06-27T07:32:52.000Z</time>
      </trkpt>
      <trkpt lat="47.57396" lon="-2.18282">
        <ele>-10.800000190735</ele>
        <time>2021-06-27T07:32:53.000Z</time>
      </trkpt>
      <trkpt lat="47.57404" lon="-2.18279">
        <ele>-11.199999809265</ele>
        <time>2021-06-27T07:32:54.000Z</time>
      </trkpt>
      <trkpt lat="47.57412" lon="-2.18279">
        <ele>-11.60000038147</ele>
        <time>2021-06-27T07:32:55.000Z</time>
      </trkpt>
      <trkpt lat="47.57421" lon="-2.1828">
        <ele>-12</ele>
        <time>2021-06-27T07:32:56.000Z</time>
      </trkpt>
      <trkpt lat="47.5743" lon="-2.18281">
        <ele>-12.39999961853</ele>
        <time>2021-06-27T07:32:57.000Z</time>
      </trkpt>
      <trkpt lat="47.57439" lon="-2.18281">
        <ele>-13</ele>
        <time>2021-06-27T07:32:58.000Z</time>
      </trkpt>
      <trkpt lat="47.57447" lon="-2.18282">
        <ele>-13.39999961853</ele>
        <time>2021-06-27T07:32:59.000Z</time>
      </trkpt>
      <trkpt lat="47.57456" lon="-2.18283">
        <ele>-14</ele>
        <time>2021-06-27T07:33:00.000Z</time>
      </trkpt>
      <trkpt lat="47.57465" lon="-2.18283">
        <ele>-14.39999961853</ele>
        <time>2021-06-27T07:33:01.000Z</time>
      </trkpt>
      <trkpt lat="47.57474" lon="-2.18284">
        <ele>-15</ele>
        <time>2021-06-27T07:33:02.000Z</time>
      </trkpt>
      <trkpt lat="47.57483" lon="-2.18284">
        <ele>-15.60000038147</ele>
        <time>2021-06-27T07:33:03.000Z</time>
      </trkpt>
      <trkpt lat="47.57492" lon="-2.18285">
        <ele>-16.200000762939</ele>
        <time>2021-06-27T07:33:04.000Z</time>
      </trkpt>
      <trkpt lat="47.57502" lon="-2.18285">
        <ele>-16.799999237061</ele>
        <time>2021-06-27T07:33:05.000Z</time>
      </trkpt>
      <trkpt lat="47.57517" lon="-2.18286">
        <ele>-17.200000762939</ele>
        <time>2021-06-27T07:33:07.000Z</time>
      </trkpt>
      <trkpt lat="47.57525" lon="-2.18287">
        <ele>-17.60000038147</ele>
        <time>2021-06-27T07:33:08.000Z</time>
      </trkpt>
      <trkpt lat="47.57532" lon="-2.18288">
        <ele>-18</ele>
        <time>2021-06-27T07:33:09.000Z</time>
      </trkpt>
      <trkpt lat="47.57539" lon="-2.18288">
        <ele>-18.39999961853</ele>
        <time>2021-06-27T07:33:10.000Z</time>
      </trkpt>
      <trkpt lat="47.57546" lon="-2.18288">
        <ele>-18.799999237061</ele>
        <time>2021-06-27T07:33:11.000Z</time>
      </trkpt>
      <trkpt lat="47.57553" lon="-2.18289">
        <ele>-19.200000762939</ele>
        <time>2021-06-27T07:33:12.000Z</time>
      </trkpt>
      <trkpt lat="47.5756" lon="-2.18289">
        <ele>-19.60000038147</ele>
        <time>2021-06-27T07:33:13.000Z</time>
      </trkpt>
      <trkpt lat="47.57567" lon="-2.1829">
        <ele>-20</ele>
        <time>2021-06-27T07:33:14.000Z</time>
      </trkpt>
      <trkpt lat="47.57574" lon="-2.1829">
        <ele>-20.39999961853</ele>
        <time>2021-06-27T07:33:15.000Z</time>
      </trkpt>
      <trkpt lat="47.57581" lon="-2.1829">
        <ele>-20.799999237061</ele>
        <time>2021-06-27T07:33:16.000Z</time>
      </trkpt>
      <trkpt lat="47.57613" lon="-2.1829">
        <ele>-21.200000762939</ele>
        <time>2021-06-27T07:33:21.000Z</time>
      </trkpt>
      <trkpt lat="47.57619" lon="-2.1829">
        <ele>-21.60000038147</ele>
        <time>2021-06-27T07:33:22.000Z</time>
      </trkpt>
      <trkpt lat="47.57623" lon="-2.18289">
        <ele>-22</ele>
        <time>2021-06-27T07:33:23.000Z</time>
      </trkpt>
      <trkpt lat="47.57627" lon="-2.1829">
        <ele>-22.39999961853</ele>
        <time>2021-06-27T07:33:24.000Z</time>
      </trkpt>
      <trkpt lat="47.57631" lon="-2.18292">
        <ele>-22.799999237061</ele>
        <time>2021-06-27T07:33:25.000Z</time>
      </trkpt>
      <trkpt lat="47.57636" lon="-2.18309">
        <ele>-22.799999237061</ele>
        <time>2021-06-27T07:33:28.000Z</time>
      </trkpt>
      <trkpt lat="47.57636" lon="-2.18321">
        <ele>-22.799999237061</ele>
        <time>2021-06-27T07:33:30.000Z</time>
      </trkpt>
      <trkpt lat="47.57635" lon="-2.18349">
        <ele>-22.799999237061</ele>
        <time>2021-06-27T07:33:34.000Z</time>
      </trkpt>
      <trkpt lat="47.57634" lon="-2.18408">
        <ele>-22.799999237061</ele>
        <time>2021-06-27T07:33:42.000Z</time>
      </trkpt>
      <trkpt lat="47.57633" lon="-2.18466">
        <ele>-22.799999237061</ele>
        <time>2021-06-27T07:33:50.000Z</time>
      </trkpt>
      <trkpt lat="47.57633" lon="-2.18493">
        <ele>-23.39999961853</ele>
        <time>2021-06-27T07:33:54.000Z</time>
      </trkpt>
      <trkpt lat="47.57633" lon="-2.18499">
        <ele>-23.799999237061</ele>
        <time>2021-06-27T07:33:55.000Z</time>
      </trkpt>
      <trkpt lat="47.57634" lon="-2.18505">
        <ele>-24.200000762939</ele>
        <time>2021-06-27T07:33:56.000Z</time>
      </trkpt>
      <trkpt lat="47.57634" lon="-2.18511">
        <ele>-24.60000038147</ele>
        <time>2021-06-27T07:33:57.000Z</time>
      </trkpt>
      <trkpt lat="47.57634" lon="-2.18517">
        <ele>-25</ele>
        <time>2021-06-27T07:33:58.000Z</time>
      </trkpt>
      <trkpt lat="47.57633" lon="-2.18545">
        <ele>-25</ele>
        <time>2021-06-27T07:34:02.000Z</time>
      </trkpt>
      <trkpt lat="47.57633" lon="-2.18566">
        <ele>-25</ele>
        <time>2021-06-27T07:34:05.000Z</time>
      </trkpt>
      <trkpt lat="47.57634" lon="-2.18587">
        <ele>-25</ele>
        <time>2021-06-27T07:34:08.000Z</time>
      </trkpt>
      <trkpt lat="47.57636" lon="-2.18651">
        <ele>-25</ele>
        <time>2021-06-27T07:34:17.000Z</time>
      </trkpt>
      <trkpt lat="47.57641" lon="-2.18712">
        <ele>-25</ele>
        <time>2021-06-27T07:34:26.000Z</time>
      </trkpt>
      <trkpt lat="47.57643" lon="-2.18751">
        <ele>-25</ele>
        <time>2021-06-27T07:34:32.000Z</time>
      </trkpt>
      <trkpt lat="47.57642" lon="-2.18799">
        <ele>-25</ele>
        <time>2021-06-27T07:34:40.000Z</time>
      </trkpt>
      <trkpt lat="47.57641" lon="-2.18849">
        <ele>-25</ele>
        <time>2021-06-27T07:34:47.000Z</time>
      </trkpt>
      <trkpt lat="47.57639" lon="-2.18897">
        <ele>-25</ele>
        <time>2021-06-27T07:34:54.000Z</time>
      </trkpt>
      <trkpt lat="47.57637" lon="-2.18941">
        <ele>-25</ele>
        <time>2021-06-27T07:35:02.000Z</time>
      </trkpt>
      <trkpt lat="47.57636" lon="-2.18984">
        <ele>-25</ele>
        <time>2021-06-27T07:35:10.000Z</time>
      </trkpt>
      <trkpt lat="47.57636" lon="-2.19028">
        <ele>-25</ele>
        <time>2021-06-27T07:35:18.000Z</time>
      </trkpt>
      <trkpt lat="47.5764" lon="-2.19065">
        <ele>-25</ele>
        <time>2021-06-27T07:35:25.000Z</time>
      </trkpt>
      <trkpt lat="47.57644" lon="-2.19104">
        <ele>-25</ele>
        <time>2021-06-27T07:35:32.000Z</time>
      </trkpt>
      <trkpt lat="47.57646" lon="-2.19142">
        <ele>-25</ele>
        <time>2021-06-27T07:35:39.000Z</time>
      </trkpt>
      <trkpt lat="47.57643" lon="-2.19153">
        <ele>-25</ele>
        <time>2021-06-27T07:35:42.000Z</time>
      </trkpt>
      <trkpt lat="47.5764" lon="-2.19155">
        <ele>-25</ele>
        <time>2021-06-27T07:35:43.000Z</time>
      </trkpt>
      <trkpt lat="47.57622" lon="-2.1916">
        <ele>-25</ele>
        <time>2021-06-27T07:35:49.000Z</time>
      </trkpt>
      <trkpt lat="47.57613" lon="-2.19162">
        <ele>-24.60000038147</ele>
        <time>2021-06-27T07:35:52.000Z</time>
      </trkpt>
      <trkpt lat="47.5761" lon="-2.19162">
        <ele>-24.200000762939</ele>
        <time>2021-06-27T07:35:53.000Z</time>
      </trkpt>
      <trkpt lat="47.57607" lon="-2.19163">
        <ele>-23.799999237061</ele>
        <time>2021-06-27T07:35:54.000Z</time>
      </trkpt>
      <trkpt lat="47.57603" lon="-2.19164">
        <ele>-23.200000762939</ele>
        <time>2021-06-27T07:35:55.000Z</time>
      </trkpt>
      <trkpt lat="47.576" lon="-2.19165">
        <ele>-22.799999237061</ele>
        <time>2021-06-27T07:35:56.000Z</time>
      </trkpt>
      <trkpt lat="47.57579" lon="-2.1917">
        <ele>-22.799999237061</ele>
        <time>2021-06-27T07:36:02.000Z</time>
      </trkpt>
      <trkpt lat="47.57551" lon="-2.19175">
        <ele>-22.799999237061</ele>
        <time>2021-06-27T07:36:10.000Z</time>
      </trkpt>
      <trkpt lat="47.57548" lon="-2.19176">
        <ele>-22.39999961853</ele>
        <time>2021-06-27T07:36:11.000Z</time>
      </trkpt>
      <trkpt lat="47.57544" lon="-2.19176">
        <ele>-22</ele>
        <time>2021-06-27T07:36:12.000Z</time>
      </trkpt>
      <trkpt lat="47.57541" lon="-2.19177">
        <ele>-21.60000038147</ele>
        <time>2021-06-27T07:36:13.000Z</time>
      </trkpt>
      <trkpt lat="47.57537" lon="-2.19178">
        <ele>-21.200000762939</ele>
        <time>2021-06-27T07:36:14.000Z</time>
      </trkpt>
      <trkpt lat="47.57534" lon="-2.19178">
        <ele>-20.799999237061</ele>
        <time>2021-06-27T07:36:15.000Z</time>
      </trkpt>
      <trkpt lat="47.5752" lon="-2.1918">
        <ele>-20.799999237061</ele>
        <time>2021-06-27T07:36:19.000Z</time>
      </trkpt>
      <trkpt lat="47.57504" lon="-2.19182">
        <ele>-20.39999961853</ele>
        <time>2021-06-27T07:36:24.000Z</time>
      </trkpt>
      <trkpt lat="47.57501" lon="-2.19183">
        <ele>-20</ele>
        <time>2021-06-27T07:36:25.000Z</time>
      </trkpt>
      <trkpt lat="47.57497" lon="-2.19183">
        <ele>-19.39999961853</ele>
        <time>2021-06-27T07:36:26.000Z</time>
      </trkpt>
      <trkpt lat="47.57494" lon="-2.19183">
        <ele>-19</ele>
        <time>2021-06-27T07:36:27.000Z</time>
      </trkpt>
      <trkpt lat="47.57491" lon="-2.19184">
        <ele>-18.60000038147</ele>
        <time>2021-06-27T07:36:28.000Z</time>
      </trkpt>
      <trkpt lat="47.57475" lon="-2.19185">
        <ele>-18.200000762939</ele>
        <time>2021-06-27T07:36:33.000Z</time>
      </trkpt>
      <trkpt lat="47.57473" lon="-2.19185">
        <ele>-17.799999237061</ele>
        <time>2021-06-27T07:36:34.000Z</time>
      </trkpt>
      <trkpt lat="47.5747" lon="-2.19186">
        <ele>-17.39999961853</ele>
        <time>2021-06-27T07:36:35.000Z</time>
      </trkpt>
      <trkpt lat="47.57468" lon="-2.19186">
        <ele>-16.799999237061</ele>
        <time>2021-06-27T07:36:36.000Z</time>
      </trkpt>
      <trkpt lat="47.57465" lon="-2.19187">
        <ele>-16.39999961853</ele>
        <time>2021-06-27T07:36:37.000Z</time>
      </trkpt>
      <trkpt lat="47.57448" lon="-2.19191">
        <ele>-16.39999961853</ele>
        <time>2021-06-27T07:36:43.000Z</time>
      </trkpt>
      <trkpt lat="47.57445" lon="-2.19192">
        <ele>-16</ele>
        <time>2021-06-27T07:36:44.000Z</time>
      </trkpt>
      <trkpt lat="47.57442" lon="-2.19193">
        <ele>-15.60000038147</ele>
        <time>2021-06-27T07:36:45.000Z</time>
      </trkpt>
      <trkpt lat="47.5744" lon="-2.19193">
        <ele>-15.199999809265</ele>
        <time>2021-06-27T07:36:46.000Z</time>
      </trkpt>
      <trkpt lat="47.57437" lon="-2.19194">
        <ele>-14.800000190735</ele>
        <time>2021-06-27T07:36:47.000Z</time>
      </trkpt>
      <trkpt lat="47.57434" lon="-2.19195">
        <ele>-14.39999961853</ele>
        <time>2021-06-27T07:36:48.000Z</time>
      </trkpt>
      <trkpt lat="47.57429" lon="-2.19196">
        <ele>-14.39999961853</ele>
        <time>2021-06-27T07:36:50.000Z</time>
      </trkpt>
      <trkpt lat="47.57421" lon="-2.19198">
        <ele>-14</ele>
        <time>2021-06-27T07:36:53.000Z</time>
      </trkpt>
      <trkpt lat="47.57419" lon="-2.19198">
        <ele>-13.60000038147</ele>
        <time>2021-06-27T07:36:54.000Z</time>
      </trkpt>
      <trkpt lat="47.57417" lon="-2.19199">
        <ele>-13.199999809265</ele>
        <time>2021-06-27T07:36:55.000Z</time>
      </trkpt>
      <trkpt lat="47.57414" lon="-2.19199">
        <ele>-12.800000190735</ele>
        <time>2021-06-27T07:36:56.000Z</time>
      </trkpt>
      <trkpt lat="47.57412" lon="-2.19199">
        <ele>-12.39999961853</ele>
        <time>2021-06-27T07:36:57.000Z</time>
      </trkpt>
      <trkpt lat="47.57401" lon="-2.19204">
        <ele>-11.800000190735</ele>
        <time>2021-06-27T07:37:02.000Z</time>
      </trkpt>
      <trkpt lat="47.574" lon="-2.19206">
        <ele>-11.39999961853</ele>
        <time>2021-06-27T07:37:03.000Z</time>
      </trkpt>
      <trkpt lat="47.57399" lon="-2.19208">
        <ele>-11</ele>
        <time>2021-06-27T07:37:04.000Z</time>
      </trkpt>
      <trkpt lat="47.57398" lon="-2.19211">
        <ele>-10.60000038147</ele>
        <time>2021-06-27T07:37:05.000Z</time>
      </trkpt>
      <trkpt lat="47.57398" lon="-2.19215">
        <ele>-10</ele>
        <time>2021-06-27T07:37:06.000Z</time>
      </trkpt>
      <trkpt lat="47.57397" lon="-2.19218">
        <ele>-10</ele>
        <time>2021-06-27T07:37:07.000Z</time>
      </trkpt>
      <trkpt lat="47.57398" lon="-2.19226">
        <ele>-10</ele>
        <time>2021-06-27T07:37:09.000Z</time>
      </trkpt>
      <trkpt lat="47.57397" lon="-2.19251">
        <ele>-10</ele>
        <time>2021-06-27T07:37:15.000Z</time>
      </trkpt>
      <trkpt lat="47.57396" lon="-2.19259">
        <ele>-9.6000003814697</ele>
        <time>2021-06-27T07:37:18.000Z</time>
      </trkpt>
      <trkpt lat="47.57395" lon="-2.19261">
        <ele>-9.1999998092651</ele>
        <time>2021-06-27T07:37:19.000Z</time>
      </trkpt>
      <trkpt lat="47.57394" lon="-2.19263">
        <ele>-8.8000001907349</ele>
        <time>2021-06-27T07:37:20.000Z</time>
      </trkpt>
      <trkpt lat="47.57394" lon="-2.19264">
        <ele>-8.3999996185303</ele>
        <time>2021-06-27T07:37:21.000Z</time>
      </trkpt>
      <trkpt lat="47.57393" lon="-2.19266">
        <ele>-8</ele>
        <time>2021-06-27T07:37:22.000Z</time>
      </trkpt>
      <trkpt lat="47.57389" lon="-2.19272">
        <ele>-7.5999999046326</ele>
        <time>2021-06-27T07:37:26.000Z</time>
      </trkpt>
      <trkpt lat="47.57389" lon="-2.19274">
        <ele>-7</ele>
        <time>2021-06-27T07:37:27.000Z</time>
      </trkpt>
      <trkpt lat="47.57388" lon="-2.19277">
        <ele>-6.5999999046326</ele>
        <time>2021-06-27T07:37:28.000Z</time>
      </trkpt>
      <trkpt lat="47.57387" lon="-2.19279">
        <ele>-6.1999998092651</ele>
        <time>2021-06-27T07:37:29.000Z</time>
      </trkpt>
      <trkpt lat="47.57386" lon="-2.19281">
        <ele>-5.8000001907349</ele>
        <time>2021-06-27T07:37:30.000Z</time>
      </trkpt>
      <trkpt lat="47.57385" lon="-2.19286">
        <ele>-5.8000001907349</ele>
        <time>2021-06-27T07:37:33.000Z</time>
      </trkpt>
      <trkpt lat="47.57384" lon="-2.19289">
        <ele>-5.8000001907349</ele>
        <time>2021-06-27T07:37:34.000Z</time>
      </trkpt>
      <trkpt lat="47.57383" lon="-2.193">
        <ele>-5.4000000953674</ele>
        <time>2021-06-27T07:37:38.000Z</time>
      </trkpt>
      <trkpt lat="47.57383" lon="-2.19302">
        <ele>-5</ele>
        <time>2021-06-27T07:37:39.000Z</time>
      </trkpt>
      <trkpt lat="47.57382" lon="-2.19305">
        <ele>-4.5999999046326</ele>
        <time>2021-06-27T07:37:40.000Z</time>
      </trkpt>
      <trkpt lat="47.57382" lon="-2.19308">
        <ele>-4.1999998092651</ele>
        <time>2021-06-27T07:37:41.000Z</time>
      </trkpt>
      <trkpt lat="47.57382" lon="-2.19311">
        <ele>-3.7999999523163</ele>
        <time>2021-06-27T07:37:42.000Z</time>
      </trkpt>
      <trkpt lat="47.57383" lon="-2.19321">
        <ele>-3.7999999523163</ele>
        <time>2021-06-27T07:37:45.000Z</time>
      </trkpt>
      <trkpt lat="47.57384" lon="-2.19332">
        <ele>-3.4000000953674</ele>
        <time>2021-06-27T07:37:49.000Z</time>
      </trkpt>
      <trkpt lat="47.57384" lon="-2.19334">
        <ele>-3</ele>
        <time>2021-06-27T07:37:50.000Z</time>
      </trkpt>
      <trkpt lat="47.57384" lon="-2.19337">
        <ele>-2.5999999046326</ele>
        <time>2021-06-27T07:37:51.000Z</time>
      </trkpt>
      <trkpt lat="47.57384" lon="-2.1934">
        <ele>-2.2000000476837</ele>
        <time>2021-06-27T07:37:52.000Z</time>
      </trkpt>
      <trkpt lat="47.57384" lon="-2.19343">
        <ele>-1.7999999523163</ele>
        <time>2021-06-27T07:37:53.000Z</time>
      </trkpt>
      <trkpt lat="47.57381" lon="-2.19352">
        <ele>-1.7999999523163</ele>
        <time>2021-06-27T07:37:57.000Z</time>
      </trkpt>
      <trkpt lat="47.5738" lon="-2.19354">
        <ele>-1.2000000476837</ele>
        <time>2021-06-27T07:37:59.000Z</time>
      </trkpt>
      <trkpt lat="47.5738" lon="-2.19356">
        <ele>-0.80000001192093</ele>
        <time>2021-06-27T07:38:00.000Z</time>
      </trkpt>
      <trkpt lat="47.5738" lon="-2.19358">
        <ele>-0.40000000596046</ele>
        <time>2021-06-27T07:38:01.000Z</time>
      </trkpt>
      <trkpt lat="47.57378" lon="-2.1936">
        <ele>29</ele>
        <time>2021-06-27T07:38:02.000Z</time>
      </trkpt>
      <trkpt lat="47.57376" lon="-2.19362">
        <ele>0.40000000596046</ele>
        <time>2021-06-27T07:38:03.000Z</time>
      </trkpt>
      <trkpt lat="47.57376" lon="-2.19363">
        <ele>0.40000000596046</ele>
        <time>2021-06-27T07:38:04.000Z</time>
      </trkpt>
      <trkpt lat="47.57373" lon="-2.19369">
        <ele>1</ele>
        <time>2021-06-27T07:38:06.000Z</time>
      </trkpt>
      <trkpt lat="47.57372" lon="-2.19372">
        <ele>1.7999999523163</ele>
        <time>2021-06-27T07:38:07.000Z</time>
      </trkpt>
      <trkpt lat="47.57371" lon="-2.19374">
        <ele>2.2000000476837</ele>
        <time>2021-06-27T07:38:08.000Z</time>
      </trkpt>
      <trkpt lat="47.57371" lon="-2.19376">
        <ele>2.5999999046326</ele>
        <time>2021-06-27T07:38:09.000Z</time>
      </trkpt>
      <trkpt lat="47.5737" lon="-2.19378">
        <ele>2.5999999046326</ele>
        <time>2021-06-27T07:38:10.000Z</time>
      </trkpt>
      <trkpt lat="47.57369" lon="-2.19387">
        <ele>3</ele>
        <time>2021-06-27T07:38:15.000Z</time>
      </trkpt>
      <trkpt lat="47.57369" lon="-2.19389">
        <ele>3.4000000953674</ele>
        <time>2021-06-27T07:38:16.000Z</time>
      </trkpt>
      <trkpt lat="47.57369" lon="-2.19391">
        <ele>3.7999999523163</ele>
        <time>2021-06-27T07:38:17.000Z</time>
      </trkpt>
      <trkpt lat="47.57369" lon="-2.19393">
        <ele>4.4000000953674</ele>
        <time>2021-06-27T07:38:18.000Z</time>
      </trkpt>
      <trkpt lat="47.57369" lon="-2.19395">
        <ele>4.8000001907349</ele>
        <time>2021-06-27T07:38:19.000Z</time>
      </trkpt>
      <trkpt lat="47.57368" lon="-2.19399">
        <ele>4.8000001907349</ele>
        <time>2021-06-27T07:38:21.000Z</time>
      </trkpt>
      <trkpt lat="47.57349" lon="-2.19529">
        <ele>17.39999961853</ele>
        <time>2021-06-27T07:41:14.000Z</time>
      </trkpt>
      <trkpt lat="47.57351" lon="-2.19536">
        <ele>17.39999961853</ele>
        <time>2021-06-27T07:41:16.000Z</time>
      </trkpt>
      <trkpt lat="47.57358" lon="-2.19553">
        <ele>17.39999961853</ele>
        <time>2021-06-27T07:41:22.000Z</time>
      </trkpt>
      <trkpt lat="47.57362" lon="-2.19571">
        <ele>17.39999961853</ele>
        <time>2021-06-27T07:41:29.000Z</time>
      </trkpt>
      <trkpt lat="47.57362" lon="-2.19581">
        <ele>17.39999961853</ele>
        <time>2021-06-27T07:41:33.000Z</time>
      </trkpt>
      <trkpt lat="47.57364" lon="-2.19591">
        <ele>17.39999961853</ele>
        <time>2021-06-27T07:41:36.000Z</time>
      </trkpt>
      <trkpt lat="47.57369" lon="-2.1961">
        <ele>17.39999961853</ele>
        <time>2021-06-27T07:41:42.000Z</time>
      </trkpt>
      <trkpt lat="47.57374" lon="-2.19625">
        <ele>17.39999961853</ele>
        <time>2021-06-27T07:41:47.000Z</time>
      </trkpt>
      <trkpt lat="47.57377" lon="-2.19642">
        <ele>17.39999961853</ele>
        <time>2021-06-27T07:41:53.000Z</time>
      </trkpt>
      <trkpt lat="47.57376" lon="-2.19659">
        <ele>17.799999237061</ele>
        <time>2021-06-27T07:41:59.000Z</time>
      </trkpt>
      <trkpt lat="47.57374" lon="-2.19662">
        <ele>18.200000762939</ele>
        <time>2021-06-27T07:42:00.000Z</time>
      </trkpt>
      <trkpt lat="47.57374" lon="-2.19665">
        <ele>18.799999237061</ele>
        <time>2021-06-27T07:42:01.000Z</time>
      </trkpt>
      <trkpt lat="47.57372" lon="-2.19667">
        <ele>19.200000762939</ele>
        <time>2021-06-27T07:42:02.000Z</time>
      </trkpt>
      <trkpt lat="47.57371" lon="-2.19669">
        <ele>19.60000038147</ele>
        <time>2021-06-27T07:42:03.000Z</time>
      </trkpt>
      <trkpt lat="47.57369" lon="-2.19673">
        <ele>19.60000038147</ele>
        <time>2021-06-27T07:42:05.000Z</time>
      </trkpt>
      <trkpt lat="47.57359" lon="-2.1968">
        <ele>19.60000038147</ele>
        <time>2021-06-27T07:42:11.000Z</time>
      </trkpt>
      <trkpt lat="47.57342" lon="-2.19683">
        <ele>19.60000038147</ele>
        <time>2021-06-27T07:42:17.000Z</time>
      </trkpt>
      <trkpt lat="47.57325" lon="-2.19682">
        <ele>19.60000038147</ele>
        <time>2021-06-27T07:42:24.000Z</time>
      </trkpt>
      <trkpt lat="47.57298" lon="-2.19688">
        <ele>19.60000038147</ele>
        <time>2021-06-27T07:42:33.000Z</time>
      </trkpt>
      <trkpt lat="47.57282" lon="-2.19697">
        <ele>19.60000038147</ele>
        <time>2021-06-27T07:42:37.000Z</time>
      </trkpt>
      <trkpt lat="47.57253" lon="-2.19705">
        <ele>19.60000038147</ele>
        <time>2021-06-27T07:42:43.000Z</time>
      </trkpt>
      <trkpt lat="47.57248" lon="-2.19705">
        <ele>19</ele>
        <time>2021-06-27T07:42:44.000Z</time>
      </trkpt>
      <trkpt lat="47.57242" lon="-2.19705">
        <ele>18.60000038147</ele>
        <time>2021-06-27T07:42:45.000Z</time>
      </trkpt>
      <trkpt lat="47.57238" lon="-2.19705">
        <ele>18.200000762939</ele>
        <time>2021-06-27T07:42:46.000Z</time>
      </trkpt>
      <trkpt lat="47.57233" lon="-2.19704">
        <ele>17.799999237061</ele>
        <time>2021-06-27T07:42:47.000Z</time>
      </trkpt>
      <trkpt lat="47.57229" lon="-2.19703">
        <ele>17.39999961853</ele>
        <time>2021-06-27T07:42:48.000Z</time>
      </trkpt>
      <trkpt lat="47.57225" lon="-2.19702">
        <ele>17.39999961853</ele>
        <time>2021-06-27T07:42:49.000Z</time>
      </trkpt>
      <trkpt lat="47.57208" lon="-2.19697">
        <ele>17.39999961853</ele>
        <time>2021-06-27T07:42:52.000Z</time>
      </trkpt>
      <trkpt lat="47.57198" lon="-2.19692">
        <ele>17.39999961853</ele>
        <time>2021-06-27T07:42:54.000Z</time>
      </trkpt>
      <trkpt lat="47.57193" lon="-2.1969">
        <ele>17</ele>
        <time>2021-06-27T07:42:55.000Z</time>
      </trkpt>
      <trkpt lat="47.57188" lon="-2.19689">
        <ele>16.60000038147</ele>
        <time>2021-06-27T07:42:56.000Z</time>
      </trkpt>
      <trkpt lat="47.57183" lon="-2.19689">
        <ele>16</ele>
        <time>2021-06-27T07:42:57.000Z</time>
      </trkpt>
      <trkpt lat="47.57178" lon="-2.1969">
        <ele>15.60000038147</ele>
        <time>2021-06-27T07:42:58.000Z</time>
      </trkpt>
      <trkpt lat="47.57175" lon="-2.19691">
        <ele>15.199999809265</ele>
        <time>2021-06-27T07:42:59.000Z</time>
      </trkpt>
      <trkpt lat="47.57173" lon="-2.19693">
        <ele>15.199999809265</ele>
        <time>2021-06-27T07:43:00.000Z</time>
      </trkpt>
      <trkpt lat="47.57171" lon="-2.19697">
        <ele>14.800000190735</ele>
        <time>2021-06-27T07:43:01.000Z</time>
      </trkpt>
      <trkpt lat="47.57171" lon="-2.19701">
        <ele>14</ele>
        <time>2021-06-27T07:43:02.000Z</time>
      </trkpt>
      <trkpt lat="47.57171" lon="-2.19706">
        <ele>13.60000038147</ele>
        <time>2021-06-27T07:43:03.000Z</time>
      </trkpt>
      <trkpt lat="47.57172" lon="-2.19711">
        <ele>13.199999809265</ele>
        <time>2021-06-27T07:43:04.000Z</time>
      </trkpt>
      <trkpt lat="47.57173" lon="-2.19716">
        <ele>13.199999809265</ele>
        <time>2021-06-27T07:43:05.000Z</time>
      </trkpt>
      <trkpt lat="47.57174" lon="-2.19721">
        <ele>13.199999809265</ele>
        <time>2021-06-27T07:43:06.000Z</time>
      </trkpt>
      <trkpt lat="47.57184" lon="-2.19771">
        <ele>13.199999809265</ele>
        <time>2021-06-27T07:43:14.000Z</time>
      </trkpt>
      <trkpt lat="47.5719" lon="-2.19805">
        <ele>13.199999809265</ele>
        <time>2021-06-27T07:43:19.000Z</time>
      </trkpt>
      <trkpt lat="47.57191" lon="-2.19812">
        <ele>13.60000038147</ele>
        <time>2021-06-27T07:43:20.000Z</time>
      </trkpt>
      <trkpt lat="47.57192" lon="-2.19819">
        <ele>14</ele>
        <time>2021-06-27T07:43:21.000Z</time>
      </trkpt>
      <trkpt lat="47.57193" lon="-2.19826">
        <ele>14.39999961853</ele>
        <time>2021-06-27T07:43:22.000Z</time>
      </trkpt>
      <trkpt lat="47.57194" lon="-2.19833">
        <ele>14.800000190735</ele>
        <time>2021-06-27T07:43:23.000Z</time>
      </trkpt>
      <trkpt lat="47.57195" lon="-2.1984">
        <ele>15.39999961853</ele>
        <time>2021-06-27T07:43:24.000Z</time>
      </trkpt>
      <trkpt lat="47.57201" lon="-2.19873">
        <ele>15.39999961853</ele>
        <time>2021-06-27T07:43:29.000Z</time>
      </trkpt>
      <trkpt lat="47.57208" lon="-2.19919">
        <ele>15.800000190735</ele>
        <time>2021-06-27T07:43:36.000Z</time>
      </trkpt>
      <trkpt lat="47.57209" lon="-2.19925">
        <ele>16.200000762939</ele>
        <time>2021-06-27T07:43:37.000Z</time>
      </trkpt>
      <trkpt lat="47.5721" lon="-2.19932">
        <ele>16.60000038147</ele>
        <time>2021-06-27T07:43:38.000Z</time>
      </trkpt>
      <trkpt lat="47.57211" lon="-2.19938">
        <ele>17</ele>
        <time>2021-06-27T07:43:39.000Z</time>
      </trkpt>
      <trkpt lat="47.57211" lon="-2.19944">
        <ele>17.39999961853</ele>
        <time>2021-06-27T07:43:40.000Z</time>
      </trkpt>
      <trkpt lat="47.57215" lon="-2.19962">
        <ele>17.39999961853</ele>
        <time>2021-06-27T07:43:43.000Z</time>
      </trkpt>
      <trkpt lat="47.57217" lon="-2.19973">
        <ele>18</ele>
        <time>2021-06-27T07:43:45.000Z</time>
      </trkpt>
      <trkpt lat="47.57218" lon="-2.19979">
        <ele>18.39999961853</ele>
        <time>2021-06-27T07:43:46.000Z</time>
      </trkpt>
      <trkpt lat="47.57219" lon="-2.19985">
        <ele>18.799999237061</ele>
        <time>2021-06-27T07:43:47.000Z</time>
      </trkpt>
      <trkpt lat="47.5722" lon="-2.19991">
        <ele>19.200000762939</ele>
        <time>2021-06-27T07:43:48.000Z</time>
      </trkpt>
      <trkpt lat="47.57222" lon="-2.19997">
        <ele>19.799999237061</ele>
        <time>2021-06-27T07:43:49.000Z</time>
      </trkpt>
      <trkpt lat="47.57225" lon="-2.20014">
        <ele>20.200000762939</ele>
        <time>2021-06-27T07:43:52.000Z</time>
      </trkpt>
      <trkpt lat="47.57226" lon="-2.2002">
        <ele>20.60000038147</ele>
        <time>2021-06-27T07:43:53.000Z</time>
      </trkpt>
      <trkpt lat="47.57227" lon="-2.20026">
        <ele>21</ele>
        <time>2021-06-27T07:43:54.000Z</time>
      </trkpt>
      <trkpt lat="47.57228" lon="-2.20032">
        <ele>21.39999961853</ele>
        <time>2021-06-27T07:43:55.000Z</time>
      </trkpt>
      <trkpt lat="47.57229" lon="-2.20038">
        <ele>21.799999237061</ele>
        <time>2021-06-27T07:43:56.000Z</time>
      </trkpt>
      <trkpt lat="47.57233" lon="-2.2006">
        <ele>21.799999237061</ele>
        <time>2021-06-27T07:44:00.000Z</time>
      </trkpt>
      <trkpt lat="47.57237" lon="-2.20081">
        <ele>22.200000762939</ele>
        <time>2021-06-27T07:44:04.000Z</time>
      </trkpt>
      <trkpt lat="47.57237" lon="-2.20086">
        <ele>22.60000038147</ele>
        <time>2021-06-27T07:44:05.000Z</time>
      </trkpt>
      <trkpt lat="47.57238" lon="-2.20091">
        <ele>23</ele>
        <time>2021-06-27T07:44:06.000Z</time>
      </trkpt>
      <trkpt lat="47.57239" lon="-2.20096">
        <ele>23.39999961853</ele>
        <time>2021-06-27T07:44:07.000Z</time>
      </trkpt>
      <trkpt lat="47.5724" lon="-2.201">
        <ele>23.799999237061</ele>
        <time>2021-06-27T07:44:08.000Z</time>
      </trkpt>
      <trkpt lat="47.57243" lon="-2.20121">
        <ele>23.799999237061</ele>
        <time>2021-06-27T07:44:13.000Z</time>
      </trkpt>
      <trkpt lat="47.57247" lon="-2.20146">
        <ele>23.799999237061</ele>
        <time>2021-06-27T07:44:19.000Z</time>
      </trkpt>
      <trkpt lat="47.57249" lon="-2.20154">
        <ele>24.200000762939</ele>
        <time>2021-06-27T07:44:21.000Z</time>
      </trkpt>
      <trkpt lat="47.57249" lon="-2.20158">
        <ele>24.799999237061</ele>
        <time>2021-06-27T07:44:22.000Z</time>
      </trkpt>
      <trkpt lat="47.5725" lon="-2.20163">
        <ele>25.200000762939</ele>
        <time>2021-06-27T07:44:23.000Z</time>
      </trkpt>
      <trkpt lat="47.57251" lon="-2.20167">
        <ele>25.60000038147</ele>
        <time>2021-06-27T07:44:24.000Z</time>
      </trkpt>
      <trkpt lat="47.57251" lon="-2.20172">
        <ele>26</ele>
        <time>2021-06-27T07:44:25.000Z</time>
      </trkpt>
      <trkpt lat="47.57253" lon="-2.20176">
        <ele>26</ele>
        <time>2021-06-27T07:44:26.000Z</time>
      </trkpt>
      <trkpt lat="47.57261" lon="-2.20216">
        <ele>26</ele>
        <time>2021-06-27T07:44:33.000Z</time>
      </trkpt>
      <trkpt lat="47.57268" lon="-2.20262">
        <ele>26</ele>
        <time>2021-06-27T07:44:41.000Z</time>
      </trkpt>
      <trkpt lat="47.57273" lon="-2.2029">
        <ele>26.39999961853</ele>
        <time>2021-06-27T07:44:46.000Z</time>
      </trkpt>
      <trkpt lat="47.57274" lon="-2.20295">
        <ele>26.799999237061</ele>
        <time>2021-06-27T07:44:47.000Z</time>
      </trkpt>
      <trkpt lat="47.57275" lon="-2.20301">
        <ele>27.200000762939</ele>
        <time>2021-06-27T07:44:48.000Z</time>
      </trkpt>
      <trkpt lat="47.57276" lon="-2.20307">
        <ele>27.60000038147</ele>
        <time>2021-06-27T07:44:49.000Z</time>
      </trkpt>
      <trkpt lat="47.57277" lon="-2.20312">
        <ele>28</ele>
        <time>2021-06-27T07:44:50.000Z</time>
      </trkpt>
      <trkpt lat="47.57278" lon="-2.20318">
        <ele>28</ele>
        <time>2021-06-27T07:44:51.000Z</time>
      </trkpt>
      <trkpt lat="47.57283" lon="-2.20348">
        <ele>28</ele>
        <time>2021-06-27T07:44:57.000Z</time>
      </trkpt>
      <trkpt lat="47.57291" lon="-2.20392">
        <ele>28.39999961853</ele>
        <time>2021-06-27T07:45:05.000Z</time>
      </trkpt>
      <trkpt lat="47.57292" lon="-2.20398">
        <ele>29.200000762939</ele>
        <time>2021-06-27T07:45:06.000Z</time>
      </trkpt>
      <trkpt lat="47.57293" lon="-2.20403">
        <ele>29.60000038147</ele>
        <time>2021-06-27T07:45:07.000Z</time>
      </trkpt>
      <trkpt lat="47.57294" lon="-2.20409">
        <ele>30</ele>
        <time>2021-06-27T07:45:08.000Z</time>
      </trkpt>
      <trkpt lat="47.573" lon="-2.20442">
        <ele>30</ele>
        <time>2021-06-27T07:45:14.000Z</time>
      </trkpt>
      <trkpt lat="47.57306" lon="-2.20473">
        <ele>30</ele>
        <time>2021-06-27T07:45:20.000Z</time>
      </trkpt>
      <trkpt lat="47.57313" lon="-2.20523">
        <ele>30</ele>
        <time>2021-06-27T07:45:28.000Z</time>
      </trkpt>
      <trkpt lat="47.57314" lon="-2.20576">
        <ele>30</ele>
        <time>2021-06-27T07:45:36.000Z</time>
      </trkpt>
      <trkpt lat="47.57316" lon="-2.20627">
        <ele>30</ele>
        <time>2021-06-27T07:45:43.000Z</time>
      </trkpt>
      <trkpt lat="47.57321" lon="-2.20679">
        <ele>30</ele>
        <time>2021-06-27T07:45:50.000Z</time>
      </trkpt>
      <trkpt lat="47.57332" lon="-2.20733">
        <ele>30</ele>
        <time>2021-06-27T07:45:56.000Z</time>
      </trkpt>
      <trkpt lat="47.57338" lon="-2.20767">
        <ele>29.60000038147</ele>
        <time>2021-06-27T07:45:59.000Z</time>
      </trkpt>
      <trkpt lat="47.5734" lon="-2.20779">
        <ele>29.200000762939</ele>
        <time>2021-06-27T07:46:00.000Z</time>
      </trkpt>
      <trkpt lat="47.57342" lon="-2.20791">
        <ele>28.799999237061</ele>
        <time>2021-06-27T07:46:01.000Z</time>
      </trkpt>
      <trkpt lat="47.57344" lon="-2.20803">
        <ele>28.39999961853</ele>
        <time>2021-06-27T07:46:02.000Z</time>
      </trkpt>
      <trkpt lat="47.57346" lon="-2.20815">
        <ele>27.799999237061</ele>
        <time>2021-06-27T07:46:03.000Z</time>
      </trkpt>
      <trkpt lat="47.57349" lon="-2.20828">
        <ele>27.39999961853</ele>
        <time>2021-06-27T07:46:04.000Z</time>
      </trkpt>
      <trkpt lat="47.57351" lon="-2.2084">
        <ele>27</ele>
        <time>2021-06-27T07:46:05.000Z</time>
      </trkpt>
      <trkpt lat="47.57354" lon="-2.20853">
        <ele>26.60000038147</ele>
        <time>2021-06-27T07:46:06.000Z</time>
      </trkpt>
      <trkpt lat="47.57357" lon="-2.20864">
        <ele>26.200000762939</ele>
        <time>2021-06-27T07:46:07.000Z</time>
      </trkpt>
      <trkpt lat="47.5736" lon="-2.20875">
        <ele>25.60000038147</ele>
        <time>2021-06-27T07:46:08.000Z</time>
      </trkpt>
      <trkpt lat="47.57366" lon="-2.20892">
        <ele>25.60000038147</ele>
        <time>2021-06-27T07:46:10.000Z</time>
      </trkpt>
      <trkpt lat="47.57369" lon="-2.20897">
        <ele>25.200000762939</ele>
        <time>2021-06-27T07:46:11.000Z</time>
      </trkpt>
      <trkpt lat="47.5737" lon="-2.20901">
        <ele>24.799999237061</ele>
        <time>2021-06-27T07:46:12.000Z</time>
      </trkpt>
      <trkpt lat="47.5737" lon="-2.20902">
        <ele>24.200000762939</ele>
        <time>2021-06-27T07:46:13.000Z</time>
      </trkpt>
      <trkpt lat="47.5737" lon="-2.20901">
        <ele>23.799999237061</ele>
        <time>2021-06-27T07:46:14.000Z</time>
      </trkpt>
      <trkpt lat="47.5737" lon="-2.20901">
        <ele>23.200000762939</ele>
        <time>2021-06-27T07:46:34.000Z</time>
      </trkpt>
      <trkpt lat="47.57371" lon="-2.20904">
        <ele>23.200000762939</ele>
        <time>2021-06-27T07:46:36.000Z</time>
      </trkpt>
      <trkpt lat="47.57374" lon="-2.20911">
        <ele>23.200000762939</ele>
        <time>2021-06-27T07:46:39.000Z</time>
      </trkpt>
      <trkpt lat="47.5738" lon="-2.20936">
        <ele>23.200000762939</ele>
        <time>2021-06-27T07:46:45.000Z</time>
      </trkpt>
      <trkpt lat="47.57389" lon="-2.20963">
        <ele>23.200000762939</ele>
        <time>2021-06-27T07:46:50.000Z</time>
      </trkpt>
      <trkpt lat="47.57401" lon="-2.20982">
        <ele>23.799999237061</ele>
        <time>2021-06-27T07:46:55.000Z</time>
      </trkpt>
      <trkpt lat="47.57404" lon="-2.20987">
        <ele>24.200000762939</ele>
        <time>2021-06-27T07:46:56.000Z</time>
      </trkpt>
      <trkpt lat="47.57406" lon="-2.20992">
        <ele>24.60000038147</ele>
        <time>2021-06-27T07:46:57.000Z</time>
      </trkpt>
      <trkpt lat="47.57409" lon="-2.20996">
        <ele>25.200000762939</ele>
        <time>2021-06-27T07:46:58.000Z</time>
      </trkpt>
      <trkpt lat="47.57412" lon="-2.21001">
        <ele>25.60000038147</ele>
        <time>2021-06-27T07:46:59.000Z</time>
      </trkpt>
      <trkpt lat="47.57416" lon="-2.21011">
        <ele>25.60000038147</ele>
        <time>2021-06-27T07:47:01.000Z</time>
      </trkpt>
      <trkpt lat="47.5742" lon="-2.21029">
        <ele>25.60000038147</ele>
        <time>2021-06-27T07:47:04.000Z</time>
      </trkpt>
      <trkpt lat="47.57422" lon="-2.21042">
        <ele>25.60000038147</ele>
        <time>2021-06-27T07:47:06.000Z</time>
      </trkpt>
      <trkpt lat="47.57422" lon="-2.21049">
        <ele>25.60000038147</ele>
        <time>2021-06-27T07:47:07.000Z</time>
      </trkpt>
      <trkpt lat="47.57425" lon="-2.21068">
        <ele>26</ele>
        <time>2021-06-27T07:47:10.000Z</time>
      </trkpt>
      <trkpt lat="47.57426" lon="-2.21074">
        <ele>26.799999237061</ele>
        <time>2021-06-27T07:47:11.000Z</time>
      </trkpt>
      <trkpt lat="47.57427" lon="-2.21081">
        <ele>27.200000762939</ele>
        <time>2021-06-27T07:47:12.000Z</time>
      </trkpt>
      <trkpt lat="47.57429" lon="-2.21087">
        <ele>27.60000038147</ele>
        <time>2021-06-27T07:47:13.000Z</time>
      </trkpt>
      <trkpt lat="47.57432" lon="-2.21093">
        <ele>27.60000038147</ele>
        <time>2021-06-27T07:47:14.000Z</time>
      </trkpt>
      <trkpt lat="47.57442" lon="-2.21101">
        <ele>27.60000038147</ele>
        <time>2021-06-27T07:47:17.000Z</time>
      </trkpt>
      <trkpt lat="47.57458" lon="-2.21102">
        <ele>27.60000038147</ele>
        <time>2021-06-27T07:47:21.000Z</time>
      </trkpt>
      <trkpt lat="47.57462" lon="-2.21102">
        <ele>27.60000038147</ele>
        <time>2021-06-27T07:47:22.000Z</time>
      </trkpt>
      <trkpt lat="47.57475" lon="-2.21101">
        <ele>28</ele>
        <time>2021-06-27T07:47:25.000Z</time>
      </trkpt>
      <trkpt lat="47.57479" lon="-2.211">
        <ele>28.39999961853</ele>
        <time>2021-06-27T07:47:26.000Z</time>
      </trkpt>
      <trkpt lat="47.57483" lon="-2.21099">
        <ele>28.799999237061</ele>
        <time>2021-06-27T07:47:27.000Z</time>
      </trkpt>
      <trkpt lat="47.57488" lon="-2.21098">
        <ele>29.200000762939</ele>
        <time>2021-06-27T07:47:28.000Z</time>
      </trkpt>
      <trkpt lat="47.57493" lon="-2.21098">
        <ele>29.60000038147</ele>
        <time>2021-06-27T07:47:29.000Z</time>
      </trkpt>
      <trkpt lat="47.57497" lon="-2.21097">
        <ele>29.60000038147</ele>
        <time>2021-06-27T07:47:30.000Z</time>
      </trkpt>
      <trkpt lat="47.57528" lon="-2.2109">
        <ele>29.60000038147</ele>
        <time>2021-06-27T07:47:36.000Z</time>
      </trkpt>
      <trkpt lat="47.5756" lon="-2.21079">
        <ele>29.60000038147</ele>
        <time>2021-06-27T07:47:42.000Z</time>
      </trkpt>
      <trkpt lat="47.57589" lon="-2.21071">
        <ele>29.60000038147</ele>
        <time>2021-06-27T07:47:48.000Z</time>
      </trkpt>
      <trkpt lat="47.57618" lon="-2.21059">
        <ele>29.60000038147</ele>
        <time>2021-06-27T07:47:54.000Z</time>
      </trkpt>
      <trkpt lat="47.57622" lon="-2.21055">
        <ele>29.60000038147</ele>
        <time>2021-06-27T07:47:55.000Z</time>
      </trkpt>
      <trkpt lat="47.57631" lon="-2.21038">
        <ele>29.60000038147</ele>
        <time>2021-06-27T07:47:58.000Z</time>
      </trkpt>
      <trkpt lat="47.57636" lon="-2.21028">
        <ele>29.60000038147</ele>
        <time>2021-06-27T07:48:00.000Z</time>
      </trkpt>
      <trkpt lat="47.57644" lon="-2.21016">
        <ele>29.200000762939</ele>
        <time>2021-06-27T07:48:03.000Z</time>
      </trkpt>
      <trkpt lat="47.57647" lon="-2.21012">
        <ele>28.799999237061</ele>
        <time>2021-06-27T07:48:04.000Z</time>
      </trkpt>
      <trkpt lat="47.5765" lon="-2.21009">
        <ele>28.39999961853</ele>
        <time>2021-06-27T07:48:05.000Z</time>
      </trkpt>
      <trkpt lat="47.57652" lon="-2.21007">
        <ele>27.799999237061</ele>
        <time>2021-06-27T07:48:06.000Z</time>
      </trkpt>
      <trkpt lat="47.57656" lon="-2.21004">
        <ele>27.39999961853</ele>
        <time>2021-06-27T07:48:07.000Z</time>
      </trkpt>
      <trkpt lat="47.57658" lon="-2.21002">
        <ele>27.39999961853</ele>
        <time>2021-06-27T07:48:08.000Z</time>
      </trkpt>
      <trkpt lat="47.57667" lon="-2.20996">
        <ele>27</ele>
        <time>2021-06-27T07:48:11.000Z</time>
      </trkpt>
      <trkpt lat="47.57671" lon="-2.20995">
        <ele>26.60000038147</ele>
        <time>2021-06-27T07:48:12.000Z</time>
      </trkpt>
      <trkpt lat="47.57674" lon="-2.20993">
        <ele>26.200000762939</ele>
        <time>2021-06-27T07:48:13.000Z</time>
      </trkpt>
      <trkpt lat="47.57676" lon="-2.20991">
        <ele>25.799999237061</ele>
        <time>2021-06-27T07:48:14.000Z</time>
      </trkpt>
      <trkpt lat="47.5768" lon="-2.20988">
        <ele>25.39999961853</ele>
        <time>2021-06-27T07:48:15.000Z</time>
      </trkpt>
      <trkpt lat="47.57685" lon="-2.20987">
        <ele>25</ele>
        <time>2021-06-27T07:48:17.000Z</time>
      </trkpt>
      <trkpt lat="47.57686" lon="-2.20987">
        <ele>24.60000038147</ele>
        <time>2021-06-27T07:48:18.000Z</time>
      </trkpt>
      <trkpt lat="47.57687" lon="-2.20986">
        <ele>24</ele>
        <time>2021-06-27T07:48:19.000Z</time>
      </trkpt>
      <trkpt lat="47.57689" lon="-2.20985">
        <ele>23.60000038147</ele>
        <time>2021-06-27T07:48:20.000Z</time>
      </trkpt>
      <trkpt lat="47.5769" lon="-2.20985">
        <ele>23.200000762939</ele>
        <time>2021-06-27T07:48:21.000Z</time>
      </trkpt>
      <trkpt lat="47.57694" lon="-2.20983">
        <ele>22.799999237061</ele>
        <time>2021-06-27T07:48:24.000Z</time>
      </trkpt>
      <trkpt lat="47.57694" lon="-2.20984">
        <ele>21.799999237061</ele>
        <time>2021-06-27T07:48:25.000Z</time>
      </trkpt>
      <trkpt lat="47.57712" lon="-2.20977">
        <ele>17.799999237061</ele>
        <time>2021-06-27T07:49:11.000Z</time>
      </trkpt>
      <trkpt lat="47.57713" lon="-2.20976">
        <ele>17.39999961853</ele>
        <time>2021-06-27T07:49:12.000Z</time>
      </trkpt>
      <trkpt lat="47.57715" lon="-2.20975">
        <ele>17</ele>
        <time>2021-06-27T07:49:13.000Z</time>
      </trkpt>
      <trkpt lat="47.57716" lon="-2.20974">
        <ele>16</ele>
        <time>2021-06-27T07:49:14.000Z</time>
      </trkpt>
      <trkpt lat="47.57716" lon="-2.20974">
        <ele>15.60000038147</ele>
        <time>2021-06-27T07:49:15.000Z</time>
      </trkpt>
      <trkpt lat="47.57718" lon="-2.20973">
        <ele>15</ele>
        <time>2021-06-27T07:49:16.000Z</time>
      </trkpt>
      <trkpt lat="47.57722" lon="-2.20972">
        <ele>14.60000038147</ele>
        <time>2021-06-27T07:49:17.000Z</time>
      </trkpt>
      <trkpt lat="47.57728" lon="-2.20971">
        <ele>14</ele>
        <time>2021-06-27T07:49:19.000Z</time>
      </trkpt>
      <trkpt lat="47.57732" lon="-2.2097">
        <ele>13.60000038147</ele>
        <time>2021-06-27T07:49:20.000Z</time>
      </trkpt>
      <trkpt lat="47.57735" lon="-2.2097">
        <ele>13.199999809265</ele>
        <time>2021-06-27T07:49:21.000Z</time>
      </trkpt>
      <trkpt lat="47.57739" lon="-2.2097">
        <ele>12.800000190735</ele>
        <time>2021-06-27T07:49:22.000Z</time>
      </trkpt>
      <trkpt lat="47.57742" lon="-2.2097">
        <ele>12.39999961853</ele>
        <time>2021-06-27T07:49:23.000Z</time>
      </trkpt>
      <trkpt lat="47.57745" lon="-2.20971">
        <ele>12.39999961853</ele>
        <time>2021-06-27T07:49:24.000Z</time>
      </trkpt>
      <trkpt lat="47.57748" lon="-2.20971">
        <ele>11.800000190735</ele>
        <time>2021-06-27T07:49:25.000Z</time>
      </trkpt>
      <trkpt lat="47.57754" lon="-2.20969">
        <ele>11.39999961853</ele>
        <time>2021-06-27T07:49:26.000Z</time>
      </trkpt>
      <trkpt lat="47.57756" lon="-2.20967">
        <ele>11</ele>
        <time>2021-06-27T07:49:27.000Z</time>
      </trkpt>
      <trkpt lat="47.57757" lon="-2.20964">
        <ele>10.60000038147</ele>
        <time>2021-06-27T07:49:28.000Z</time>
      </trkpt>
      <trkpt lat="47.57759" lon="-2.20959">
        <ele>10.199999809265</ele>
        <time>2021-06-27T07:49:29.000Z</time>
      </trkpt>
      <trkpt lat="47.57765" lon="-2.20947">
        <ele>10.199999809265</ele>
        <time>2021-06-27T07:49:32.000Z</time>
      </trkpt>
      <trkpt lat="47.57774" lon="-2.20941">
        <ele>10.199999809265</ele>
        <time>2021-06-27T07:49:34.000Z</time>
      </trkpt>
      <trkpt lat="47.57779" lon="-2.20937">
        <ele>10.199999809265</ele>
        <time>2021-06-27T07:49:35.000Z</time>
      </trkpt>
      <trkpt lat="47.57789" lon="-2.20927">
        <ele>9.8000001907349</ele>
        <time>2021-06-27T07:49:37.000Z</time>
      </trkpt>
      <trkpt lat="47.57794" lon="-2.20921">
        <ele>9.3999996185303</ele>
        <time>2021-06-27T07:49:38.000Z</time>
      </trkpt>
      <trkpt lat="47.57799" lon="-2.20915">
        <ele>8.3999996185303</ele>
        <time>2021-06-27T07:49:39.000Z</time>
      </trkpt>
      <trkpt lat="47.57803" lon="-2.20907">
        <ele>8</ele>
        <time>2021-06-27T07:49:40.000Z</time>
      </trkpt>
      <trkpt lat="47.5781" lon="-2.20892">
        <ele>7.5999999046326</ele>
        <time>2021-06-27T07:49:42.000Z</time>
      </trkpt>
      <trkpt lat="47.57813" lon="-2.20885">
        <ele>7.1999998092651</ele>
        <time>2021-06-27T07:49:43.000Z</time>
      </trkpt>
      <trkpt lat="47.57815" lon="-2.20876">
        <ele>6.8000001907349</ele>
        <time>2021-06-27T07:49:44.000Z</time>
      </trkpt>
      <trkpt lat="47.57815" lon="-2.20866">
        <ele>6.4000000953674</ele>
        <time>2021-06-27T07:49:45.000Z</time>
      </trkpt>
      <trkpt lat="47.57814" lon="-2.20855">
        <ele>6</ele>
        <time>2021-06-27T07:49:46.000Z</time>
      </trkpt>
      <trkpt lat="47.57813" lon="-2.20843">
        <ele>6</ele>
        <time>2021-06-27T07:49:47.000Z</time>
      </trkpt>
      <trkpt lat="47.57812" lon="-2.20832">
        <ele>6</ele>
        <time>2021-06-27T07:49:48.000Z</time>
      </trkpt>
      <trkpt lat="47.5781" lon="-2.20821">
        <ele>5.4000000953674</ele>
        <time>2021-06-27T07:49:49.000Z</time>
      </trkpt>
      <trkpt lat="47.57808" lon="-2.2081">
        <ele>5</ele>
        <time>2021-06-27T07:49:50.000Z</time>
      </trkpt>
      <trkpt lat="47.57805" lon="-2.20798">
        <ele>4.5999999046326</ele>
        <time>2021-06-27T07:49:51.000Z</time>
      </trkpt>
      <trkpt lat="47.57803" lon="-2.20786">
        <ele>4.1999998092651</ele>
        <time>2021-06-27T07:49:52.000Z</time>
      </trkpt>
      <trkpt lat="47.578" lon="-2.20774">
        <ele>3.7999999523163</ele>
        <time>2021-06-27T07:49:53.000Z</time>
      </trkpt>
      <trkpt lat="47.57796" lon="-2.20748">
        <ele>3.2000000476837</ele>
        <time>2021-06-27T07:49:55.000Z</time>
      </trkpt>
      <trkpt lat="47.57794" lon="-2.20735">
        <ele>2.7999999523163</ele>
        <time>2021-06-27T07:49:56.000Z</time>
      </trkpt>
      <trkpt lat="47.57791" lon="-2.20723">
        <ele>2.2000000476837</ele>
        <time>2021-06-27T07:49:57.000Z</time>
      </trkpt>
      <trkpt lat="47.57789" lon="-2.2071">
        <ele>1.7999999523163</ele>
        <time>2021-06-27T07:49:58.000Z</time>
      </trkpt>
      <trkpt lat="47.57786" lon="-2.20699">
        <ele>1.2000000476837</ele>
        <time>2021-06-27T07:49:59.000Z</time>
      </trkpt>
      <trkpt lat="47.57783" lon="-2.20687">
        <ele>0.60000002384186</ele>
        <time>2021-06-27T07:50:00.000Z</time>
      </trkpt>
      <trkpt lat="47.5778" lon="-2.20676">
        <ele>20.6</ele>
        <time>2021-06-27T07:50:01.000Z</time>
      </trkpt>
      <trkpt lat="47.57777" lon="-2.20665">
        <ele>-0.60000002384186</ele>
        <time>2021-06-27T07:50:02.000Z</time>
      </trkpt>
      <trkpt lat="47.57775" lon="-2.20655">
        <ele>-1.2000000476837</ele>
        <time>2021-06-27T07:50:03.000Z</time>
      </trkpt>
      <trkpt lat="47.57773" lon="-2.20645">
        <ele>-2.2000000476837</ele>
        <time>2021-06-27T07:50:04.000Z</time>
      </trkpt>
      <trkpt lat="47.57771" lon="-2.20636">
        <ele>-2.5999999046326</ele>
        <time>2021-06-27T07:50:05.000Z</time>
      </trkpt>
      <trkpt lat="47.5777" lon="-2.20628">
        <ele>-3.4000000953674</ele>
        <time>2021-06-27T07:50:06.000Z</time>
      </trkpt>
      <trkpt lat="47.5777" lon="-2.20622">
        <ele>-4</ele>
        <time>2021-06-27T07:50:07.000Z</time>
      </trkpt>
      <trkpt lat="47.5777" lon="-2.20618">
        <ele>-4.8000001907349</ele>
        <time>2021-06-27T07:50:08.000Z</time>
      </trkpt>
      <trkpt lat="47.5777" lon="-2.20614">
        <ele>-5.4000000953674</ele>
        <time>2021-06-27T07:50:09.000Z</time>
      </trkpt>
      <trkpt lat="47.5777" lon="-2.20611">
        <ele>-6.1999998092651</ele>
        <time>2021-06-27T07:50:10.000Z</time>
      </trkpt>
      <trkpt lat="47.57769" lon="-2.20609">
        <ele>-7</ele>
        <time>2021-06-27T07:50:11.000Z</time>
      </trkpt>
      <trkpt lat="47.57768" lon="-2.20608">
        <ele>-7.5999999046326</ele>
        <time>2021-06-27T07:50:12.000Z</time>
      </trkpt>
      <trkpt lat="47.57768" lon="-2.20608">
        <ele>-8.3999996185303</ele>
        <time>2021-06-27T07:50:13.000Z</time>
      </trkpt>
      <trkpt lat="47.57767" lon="-2.20607">
        <ele>-8.3999996185303</ele>
        <time>2021-06-27T07:50:14.000Z</time>
      </trkpt>
      <trkpt lat="47.57769" lon="-2.2061">
        <ele>-8.3999996185303</ele>
        <time>2021-06-27T07:50:41.000Z</time>
      </trkpt>
      <trkpt lat="47.57771" lon="-2.20611">
        <ele>-8.3999996185303</ele>
        <time>2021-06-27T07:50:42.000Z</time>
      </trkpt>
      <trkpt lat="47.57777" lon="-2.20616">
        <ele>-8.3999996185303</ele>
        <time>2021-06-27T07:50:48.000Z</time>
      </trkpt>
      <trkpt lat="47.57777" lon="-2.20617">
        <ele>-8.3999996185303</ele>
        <time>2021-06-27T07:51:22.000Z</time>
      </trkpt>
      <trkpt lat="47.57775" lon="-2.20616">
        <ele>-8.3999996185303</ele>
        <time>2021-06-27T07:51:25.000Z</time>
      </trkpt>
      <trkpt lat="47.57772" lon="-2.20616">
        <ele>-8.3999996185303</ele>
        <time>2021-06-27T07:51:27.000Z</time>
      </trkpt>
      <trkpt lat="47.5777" lon="-2.20619">
        <ele>-8.3999996185303</ele>
        <time>2021-06-27T07:51:30.000Z</time>
      </trkpt>
      <trkpt lat="47.57769" lon="-2.20622">
        <ele>-8.3999996185303</ele>
        <time>2021-06-27T07:51:31.000Z</time>
      </trkpt>
      <trkpt lat="47.57767" lon="-2.20639">
        <ele>-8.3999996185303</ele>
        <time>2021-06-27T07:51:36.000Z</time>
      </trkpt>
      <trkpt lat="47.57767" lon="-2.20643">
        <ele>-8.3999996185303</ele>
        <time>2021-06-27T07:51:37.000Z</time>
      </trkpt>
      <trkpt lat="47.57772" lon="-2.20664">
        <ele>-8.3999996185303</ele>
        <time>2021-06-27T07:51:43.000Z</time>
      </trkpt>
      <trkpt lat="47.57776" lon="-2.20674">
        <ele>-8</ele>
        <time>2021-06-27T07:51:46.000Z</time>
      </trkpt>
      <trkpt lat="47.57776" lon="-2.20678">
        <ele>-7.5999999046326</ele>
        <time>2021-06-27T07:51:47.000Z</time>
      </trkpt>
      <trkpt lat="47.57777" lon="-2.20683">
        <ele>-7.1999998092651</ele>
        <time>2021-06-27T07:51:48.000Z</time>
      </trkpt>
      <trkpt lat="47.57778" lon="-2.20687">
        <ele>-6.5999999046326</ele>
        <time>2021-06-27T07:51:49.000Z</time>
      </trkpt>
      <trkpt lat="47.57779" lon="-2.20691">
        <ele>-6.1999998092651</ele>
        <time>2021-06-27T07:51:50.000Z</time>
      </trkpt>
      <trkpt lat="47.57785" lon="-2.20715">
        <ele>-6.1999998092651</ele>
        <time>2021-06-27T07:51:56.000Z</time>
      </trkpt>
      <trkpt lat="47.57786" lon="-2.20722">
        <ele>-5.8000001907349</ele>
        <time>2021-06-27T07:51:58.000Z</time>
      </trkpt>
      <trkpt lat="47.57786" lon="-2.20726">
        <ele>-5.4000000953674</ele>
        <time>2021-06-27T07:51:59.000Z</time>
      </trkpt>
      <trkpt lat="47.57786" lon="-2.2073">
        <ele>-5</ele>
        <time>2021-06-27T07:52:00.000Z</time>
      </trkpt>
      <trkpt lat="47.57787" lon="-2.20733">
        <ele>-4.5999999046326</ele>
        <time>2021-06-27T07:52:01.000Z</time>
      </trkpt>
      <trkpt lat="47.57787" lon="-2.20737">
        <ele>-4.1999998092651</ele>
        <time>2021-06-27T07:52:02.000Z</time>
      </trkpt>
      <trkpt lat="47.57788" lon="-2.20749">
        <ele>-4.1999998092651</ele>
        <time>2021-06-27T07:52:05.000Z</time>
      </trkpt>
      <trkpt lat="47.5779" lon="-2.20761">
        <ele>-3.4000000953674</ele>
        <time>2021-06-27T07:52:08.000Z</time>
      </trkpt>
      <trkpt lat="47.5779" lon="-2.20764">
        <ele>-3</ele>
        <time>2021-06-27T07:52:09.000Z</time>
      </trkpt>
      <trkpt lat="47.57791" lon="-2.20768">
        <ele>-2.5999999046326</ele>
        <time>2021-06-27T07:52:10.000Z</time>
      </trkpt>
      <trkpt lat="47.57791" lon="-2.20772">
        <ele>-2.2000000476837</ele>
        <time>2021-06-27T07:52:11.000Z</time>
      </trkpt>
      <trkpt lat="47.57796" lon="-2.20795">
        <ele>-1.7999999523163</ele>
        <time>2021-06-27T07:52:17.000Z</time>
      </trkpt>
      <trkpt lat="47.57797" lon="-2.20798">
        <ele>-1.3999999761581</ele>
        <time>2021-06-27T07:52:18.000Z</time>
      </trkpt>
      <trkpt lat="47.57798" lon="-2.20802">
        <ele>-1</ele>
        <time>2021-06-27T07:52:19.000Z</time>
      </trkpt>
      <trkpt lat="47.57799" lon="-2.20805">
        <ele>-0.60000002384186</ele>
        <time>2021-06-27T07:52:20.000Z</time>
      </trkpt>
      <trkpt lat="47.578" lon="-2.20809">
        <ele>-0.20000000298023</ele>
        <time>2021-06-27T07:52:21.000Z</time>
      </trkpt>
      <trkpt lat="47.57802" lon="-2.20819">
        <ele>-0.20000000298023</ele>
        <time>2021-06-27T07:52:24.000Z</time>
      </trkpt>
      <trkpt lat="47.57807" lon="-2.20833">
        <ele>0.20000000298023</ele>
        <time>2021-06-27T07:52:28.000Z</time>
      </trkpt>
      <trkpt lat="47.57808" lon="-2.20837">
        <ele>0.60000002384186</ele>
        <time>2021-06-27T07:52:29.000Z</time>
      </trkpt>
      <trkpt lat="47.57808" lon="-2.20841">
        <ele>1</ele>
        <time>2021-06-27T07:52:30.000Z</time>
      </trkpt>
      <trkpt lat="47.57809" lon="-2.20846">
        <ele>1.6000000238419</ele>
        <time>2021-06-27T07:52:31.000Z</time>
      </trkpt>
      <trkpt lat="47.57809" lon="-2.2085">
        <ele>2</ele>
        <time>2021-06-27T07:52:32.000Z</time>
      </trkpt>
      <trkpt lat="47.5781" lon="-2.20866">
        <ele>2</ele>
        <time>2021-06-27T07:52:36.000Z</time>
      </trkpt>
      <trkpt lat="47.5781" lon="-2.2088">
        <ele>2.4000000953674</ele>
        <time>2021-06-27T07:52:40.000Z</time>
      </trkpt>
      <trkpt lat="47.57809" lon="-2.20884">
        <ele>2.7999999523163</ele>
        <time>2021-06-27T07:52:41.000Z</time>
      </trkpt>
      <trkpt lat="47.57809" lon="-2.20888">
        <ele>3.2000000476837</ele>
        <time>2021-06-27T07:52:42.000Z</time>
      </trkpt>
      <trkpt lat="47.57808" lon="-2.2089">
        <ele>3.5999999046326</ele>
        <time>2021-06-27T07:52:43.000Z</time>
      </trkpt>
      <trkpt lat="47.57808" lon="-2.20894">
        <ele>4</ele>
        <time>2021-06-27T07:52:44.000Z</time>
      </trkpt>
      <trkpt lat="47.57803" lon="-2.20906">
        <ele>4</ele>
        <time>2021-06-27T07:52:48.000Z</time>
      </trkpt>
      <trkpt lat="47.57796" lon="-2.20917">
        <ele>4.4000000953674</ele>
        <time>2021-06-27T07:52:51.000Z</time>
      </trkpt>
      <trkpt lat="47.57794" lon="-2.20919">
        <ele>4.8000001907349</ele>
        <time>2021-06-27T07:52:52.000Z</time>
      </trkpt>
      <trkpt lat="47.57791" lon="-2.20921">
        <ele>5.1999998092651</ele>
        <time>2021-06-27T07:52:53.000Z</time>
      </trkpt>
      <trkpt lat="47.57788" lon="-2.20924">
        <ele>5.5999999046326</ele>
        <time>2021-06-27T07:52:54.000Z</time>
      </trkpt>
      <trkpt lat="47.57786" lon="-2.20926">
        <ele>6</ele>
        <time>2021-06-27T07:52:55.000Z</time>
      </trkpt>
      <trkpt lat="47.57773" lon="-2.2094">
        <ele>6.4000000953674</ele>
        <time>2021-06-27T07:53:01.000Z</time>
      </trkpt>
      <trkpt lat="47.5777" lon="-2.20942">
        <ele>6.8000001907349</ele>
        <time>2021-06-27T07:53:02.000Z</time>
      </trkpt>
      <trkpt lat="47.57768" lon="-2.20945">
        <ele>7.4000000953674</ele>
        <time>2021-06-27T07:53:03.000Z</time>
      </trkpt>
      <trkpt lat="47.57767" lon="-2.20947">
        <ele>7.8000001907349</ele>
        <time>2021-06-27T07:53:04.000Z</time>
      </trkpt>
      <trkpt lat="47.57765" lon="-2.2095">
        <ele>8.1999998092651</ele>
        <time>2021-06-27T07:53:05.000Z</time>
      </trkpt>
      <trkpt lat="47.57762" lon="-2.20958">
        <ele>8.1999998092651</ele>
        <time>2021-06-27T07:53:07.000Z</time>
      </trkpt>
      <trkpt lat="47.57762" lon="-2.20975">
        <ele>8.1999998092651</ele>
        <time>2021-06-27T07:53:11.000Z</time>
      </trkpt>
      <trkpt lat="47.57763" lon="-2.20978">
        <ele>8.6000003814697</ele>
        <time>2021-06-27T07:53:12.000Z</time>
      </trkpt>
      <trkpt lat="47.57765" lon="-2.2098">
        <ele>9</ele>
        <time>2021-06-27T07:53:13.000Z</time>
      </trkpt>
      <trkpt lat="47.57768" lon="-2.2098">
        <ele>9.3999996185303</ele>
        <time>2021-06-27T07:53:14.000Z</time>
      </trkpt>
      <trkpt lat="47.57771" lon="-2.20981">
        <ele>9.8000001907349</ele>
        <time>2021-06-27T07:53:15.000Z</time>
      </trkpt>
      <trkpt lat="47.57773" lon="-2.20981">
        <ele>10.199999809265</ele>
        <time>2021-06-27T07:53:16.000Z</time>
      </trkpt>
      <trkpt lat="47.57776" lon="-2.20982">
        <ele>10.199999809265</ele>
        <time>2021-06-27T07:53:17.000Z</time>
      </trkpt>
      <trkpt lat="47.57786" lon="-2.20986">
        <ele>10.199999809265</ele>
        <time>2021-06-27T07:53:21.000Z</time>
      </trkpt>
      <trkpt lat="47.57805" lon="-2.21003">
        <ele>10.199999809265</ele>
        <time>2021-06-27T07:53:27.000Z</time>
      </trkpt>
      <trkpt lat="47.57812" lon="-2.21015">
        <ele>10.60000038147</ele>
        <time>2021-06-27T07:53:30.000Z</time>
      </trkpt>
      <trkpt lat="47.57814" lon="-2.21018">
        <ele>11.199999809265</ele>
        <time>2021-06-27T07:53:31.000Z</time>
      </trkpt>
      <trkpt lat="47.57815" lon="-2.21022">
        <ele>11.60000038147</ele>
        <time>2021-06-27T07:53:32.000Z</time>
      </trkpt>
      <trkpt lat="47.57816" lon="-2.21025">
        <ele>12</ele>
        <time>2021-06-27T07:53:33.000Z</time>
      </trkpt>
      <trkpt lat="47.57816" lon="-2.21029">
        <ele>12.39999961853</ele>
        <time>2021-06-27T07:53:34.000Z</time>
      </trkpt>
      <trkpt lat="47.57821" lon="-2.21045">
        <ele>12.39999961853</ele>
        <time>2021-06-27T07:53:38.000Z</time>
      </trkpt>
      <trkpt lat="47.57824" lon="-2.21064">
        <ele>12.800000190735</ele>
        <time>2021-06-27T07:53:43.000Z</time>
      </trkpt>
      <trkpt lat="47.57825" lon="-2.21068">
        <ele>13.199999809265</ele>
        <time>2021-06-27T07:53:44.000Z</time>
      </trkpt>
      <trkpt lat="47.57826" lon="-2.21073">
        <ele>13.60000038147</ele>
        <time>2021-06-27T07:53:45.000Z</time>
      </trkpt>
      <trkpt lat="47.57826" lon="-2.21077">
        <ele>14.60000038147</ele>
        <time>2021-06-27T07:53:46.000Z</time>
      </trkpt>
      <trkpt lat="47.57833" lon="-2.21099">
        <ele>15</ele>
        <time>2021-06-27T07:53:52.000Z</time>
      </trkpt>
      <trkpt lat="47.57835" lon="-2.21102">
        <ele>15.39999961853</ele>
        <time>2021-06-27T07:53:53.000Z</time>
      </trkpt>
      <trkpt lat="47.57837" lon="-2.21106">
        <ele>15.800000190735</ele>
        <time>2021-06-27T07:53:54.000Z</time>
      </trkpt>
      <trkpt lat="47.57839" lon="-2.21109">
        <ele>16.200000762939</ele>
        <time>2021-06-27T07:53:55.000Z</time>
      </trkpt>
      <trkpt lat="47.57841" lon="-2.21111">
        <ele>16.60000038147</ele>
        <time>2021-06-27T07:53:56.000Z</time>
      </trkpt>
      <trkpt lat="47.57843" lon="-2.21114">
        <ele>16.60000038147</ele>
        <time>2021-06-27T07:53:57.000Z</time>
      </trkpt>
      <trkpt lat="47.57853" lon="-2.21131">
        <ele>16.60000038147</ele>
        <time>2021-06-27T07:54:02.000Z</time>
      </trkpt>
      <trkpt lat="47.57855" lon="-2.21134">
        <ele>17</ele>
        <time>2021-06-27T07:54:03.000Z</time>
      </trkpt>
      <trkpt lat="47.57858" lon="-2.21138">
        <ele>17.39999961853</ele>
        <time>2021-06-27T07:54:04.000Z</time>
      </trkpt>
      <trkpt lat="47.5786" lon="-2.21141">
        <ele>18</ele>
        <time>2021-06-27T07:54:05.000Z</time>
      </trkpt>
      <trkpt lat="47.57862" lon="-2.21146">
        <ele>18.39999961853</ele>
        <time>2021-06-27T07:54:06.000Z</time>
      </trkpt>
      <trkpt lat="47.57865" lon="-2.21149">
        <ele>18.799999237061</ele>
        <time>2021-06-27T07:54:07.000Z</time>
      </trkpt>
      <trkpt lat="47.57877" lon="-2.21175">
        <ele>19.200000762939</ele>
        <time>2021-06-27T07:54:13.000Z</time>
      </trkpt>
      <trkpt lat="47.57878" lon="-2.21179">
        <ele>19.60000038147</ele>
        <time>2021-06-27T07:54:14.000Z</time>
      </trkpt>
      <trkpt lat="47.57879" lon="-2.21184">
        <ele>20.200000762939</ele>
        <time>2021-06-27T07:54:15.000Z</time>
      </trkpt>
      <trkpt lat="47.57879" lon="-2.21189">
        <ele>20.60000038147</ele>
        <time>2021-06-27T07:54:16.000Z</time>
      </trkpt>
      <trkpt lat="47.5788" lon="-2.21194">
        <ele>21</ele>
        <time>2021-06-27T07:54:17.000Z</time>
      </trkpt>
      <trkpt lat="47.57879" lon="-2.21203">
        <ele>21</ele>
        <time>2021-06-27T07:54:19.000Z</time>
      </trkpt>
      <trkpt lat="47.57877" lon="-2.21229">
        <ele>21.39999961853</ele>
        <time>2021-06-27T07:54:24.000Z</time>
      </trkpt>
      <trkpt lat="47.57876" lon="-2.21233">
        <ele>21.799999237061</ele>
        <time>2021-06-27T07:54:25.000Z</time>
      </trkpt>
      <trkpt lat="47.57875" lon="-2.21238">
        <ele>22.200000762939</ele>
        <time>2021-06-27T07:54:26.000Z</time>
      </trkpt>
      <trkpt lat="47.57874" lon="-2.21242">
        <ele>22.60000038147</ele>
        <time>2021-06-27T07:54:27.000Z</time>
      </trkpt>
      <trkpt lat="47.57874" lon="-2.21247">
        <ele>23</ele>
        <time>2021-06-27T07:54:28.000Z</time>
      </trkpt>
      <trkpt lat="47.57871" lon="-2.2127">
        <ele>23</ele>
        <time>2021-06-27T07:54:33.000Z</time>
      </trkpt>
      <trkpt lat="47.5787" lon="-2.2128">
        <ele>23.799999237061</ele>
        <time>2021-06-27T07:54:35.000Z</time>
      </trkpt>
      <trkpt lat="47.5787" lon="-2.21284">
        <ele>24.200000762939</ele>
        <time>2021-06-27T07:54:36.000Z</time>
      </trkpt>
      <trkpt lat="47.57869" lon="-2.21288">
        <ele>24.60000038147</ele>
        <time>2021-06-27T07:54:37.000Z</time>
      </trkpt>
      <trkpt lat="47.57868" lon="-2.21291">
        <ele>25.200000762939</ele>
        <time>2021-06-27T07:54:38.000Z</time>
      </trkpt>
      <trkpt lat="47.57867" lon="-2.21295">
        <ele>25.200000762939</ele>
        <time>2021-06-27T07:54:39.000Z</time>
      </trkpt>
      <trkpt lat="47.57861" lon="-2.21317">
        <ele>25.200000762939</ele>
        <time>2021-06-27T07:54:46.000Z</time>
      </trkpt>
      <trkpt lat="47.57861" lon="-2.2132">
        <ele>25.60000038147</ele>
        <time>2021-06-27T07:54:48.000Z</time>
      </trkpt>
      <trkpt lat="47.5786" lon="-2.21322">
        <ele>26</ele>
        <time>2021-06-27T07:54:49.000Z</time>
      </trkpt>
      <trkpt lat="47.5786" lon="-2.21324">
        <ele>26.39999961853</ele>
        <time>2021-06-27T07:54:50.000Z</time>
      </trkpt>
      <trkpt lat="47.5786" lon="-2.21325">
        <ele>26.799999237061</ele>
        <time>2021-06-27T07:54:51.000Z</time>
      </trkpt>
      <trkpt lat="47.5786" lon="-2.21327">
        <ele>27.200000762939</ele>
        <time>2021-06-27T07:54:52.000Z</time>
      </trkpt>
      <trkpt lat="47.5786" lon="-2.21328">
        <ele>27.200000762939</ele>
        <time>2021-06-27T07:54:53.000Z</time>
      </trkpt>
      <trkpt lat="47.57867" lon="-2.2134">
        <ele>27.200000762939</ele>
        <time>2021-06-27T07:54:59.000Z</time>
      </trkpt>
      <trkpt lat="47.57869" lon="-2.21347">
        <ele>26.60000038147</ele>
        <time>2021-06-27T07:55:01.000Z</time>
      </trkpt>
      <trkpt lat="47.57871" lon="-2.21352">
        <ele>26.200000762939</ele>
        <time>2021-06-27T07:55:02.000Z</time>
      </trkpt>
      <trkpt lat="47.57873" lon="-2.21357">
        <ele>25.799999237061</ele>
        <time>2021-06-27T07:55:03.000Z</time>
      </trkpt>
      <trkpt lat="47.57874" lon="-2.21361">
        <ele>25.39999961853</ele>
        <time>2021-06-27T07:55:04.000Z</time>
      </trkpt>
      <trkpt lat="47.57876" lon="-2.21366">
        <ele>25</ele>
        <time>2021-06-27T07:55:05.000Z</time>
      </trkpt>
      <trkpt lat="47.57878" lon="-2.2137">
        <ele>24.39999961853</ele>
        <time>2021-06-27T07:55:06.000Z</time>
      </trkpt>
      <trkpt lat="47.5788" lon="-2.21376">
        <ele>24</ele>
        <time>2021-06-27T07:55:07.000Z</time>
      </trkpt>
      <trkpt lat="47.57881" lon="-2.21381">
        <ele>23.60000038147</ele>
        <time>2021-06-27T07:55:08.000Z</time>
      </trkpt>
      <trkpt lat="47.57883" lon="-2.21388">
        <ele>23.200000762939</ele>
        <time>2021-06-27T07:55:09.000Z</time>
      </trkpt>
      <trkpt lat="47.57884" lon="-2.21394">
        <ele>22.60000038147</ele>
        <time>2021-06-27T07:55:10.000Z</time>
      </trkpt>
      <trkpt lat="47.57885" lon="-2.214">
        <ele>22.200000762939</ele>
        <time>2021-06-27T07:55:11.000Z</time>
      </trkpt>
      <trkpt lat="47.57886" lon="-2.21405">
        <ele>21.799999237061</ele>
        <time>2021-06-27T07:55:12.000Z</time>
      </trkpt>
      <trkpt lat="47.57885" lon="-2.21409">
        <ele>21.39999961853</ele>
        <time>2021-06-27T07:55:13.000Z</time>
      </trkpt>
      <trkpt lat="47.57884" lon="-2.21413">
        <ele>21</ele>
        <time>2021-06-27T07:55:14.000Z</time>
      </trkpt>
      <trkpt lat="47.57882" lon="-2.21415">
        <ele>20.39999961853</ele>
        <time>2021-06-27T07:55:15.000Z</time>
      </trkpt>
      <trkpt lat="47.5787" lon="-2.21424">
        <ele>20.39999961853</ele>
        <time>2021-06-27T07:55:19.000Z</time>
      </trkpt>
      <trkpt lat="47.57868" lon="-2.21432">
        <ele>20</ele>
        <time>2021-06-27T07:55:21.000Z</time>
      </trkpt>
      <trkpt lat="47.57867" lon="-2.21437">
        <ele>19.60000038147</ele>
        <time>2021-06-27T07:55:22.000Z</time>
      </trkpt>
      <trkpt lat="47.57866" lon="-2.21442">
        <ele>19.200000762939</ele>
        <time>2021-06-27T07:55:23.000Z</time>
      </trkpt>
      <trkpt lat="47.57865" lon="-2.21446">
        <ele>18.60000038147</ele>
        <time>2021-06-27T07:55:24.000Z</time>
      </trkpt>
      <trkpt lat="47.57865" lon="-2.21449">
        <ele>17.39999961853</ele>
        <time>2021-06-27T07:55:25.000Z</time>
      </trkpt>
      <trkpt lat="47.57865" lon="-2.21451">
        <ele>16.60000038147</ele>
        <time>2021-06-27T07:55:26.000Z</time>
      </trkpt>
      <trkpt lat="47.57866" lon="-2.21454">
        <ele>16</ele>
        <time>2021-06-27T07:55:27.000Z</time>
      </trkpt>
      <trkpt lat="47.57867" lon="-2.21455">
        <ele>15.199999809265</ele>
        <time>2021-06-27T07:55:28.000Z</time>
      </trkpt>
      <trkpt lat="47.57868" lon="-2.21457">
        <ele>14.60000038147</ele>
        <time>2021-06-27T07:55:29.000Z</time>
      </trkpt>
      <trkpt lat="47.5787" lon="-2.21458">
        <ele>14</ele>
        <time>2021-06-27T07:55:30.000Z</time>
      </trkpt>
      <trkpt lat="47.57872" lon="-2.2146">
        <ele>13.39999961853</ele>
        <time>2021-06-27T07:55:31.000Z</time>
      </trkpt>
      <trkpt lat="47.57873" lon="-2.21463">
        <ele>12.800000190735</ele>
        <time>2021-06-27T07:55:32.000Z</time>
      </trkpt>
      <trkpt lat="47.57874" lon="-2.21463">
        <ele>12.39999961853</ele>
        <time>2021-06-27T07:55:33.000Z</time>
      </trkpt>
      <trkpt lat="47.57875" lon="-2.21464">
        <ele>11.800000190735</ele>
        <time>2021-06-27T07:55:34.000Z</time>
      </trkpt>
      <trkpt lat="47.57876" lon="-2.21463">
        <ele>11.800000190735</ele>
        <time>2021-06-27T07:55:35.000Z</time>
      </trkpt>
      <trkpt lat="47.57881" lon="-2.21463">
        <ele>11.199999809265</ele>
        <time>2021-06-27T07:55:36.000Z</time>
      </trkpt>
      <trkpt lat="47.57884" lon="-2.21464">
        <ele>10.800000190735</ele>
        <time>2021-06-27T07:55:37.000Z</time>
      </trkpt>
      <trkpt lat="47.57887" lon="-2.21464">
        <ele>10.39999961853</ele>
        <time>2021-06-27T07:55:38.000Z</time>
      </trkpt>
      <trkpt lat="47.57889" lon="-2.21465">
        <ele>9.8000001907349</ele>
        <time>2021-06-27T07:55:39.000Z</time>
      </trkpt>
      <trkpt lat="47.57891" lon="-2.21467">
        <ele>9.3999996185303</ele>
        <time>2021-06-27T07:55:40.000Z</time>
      </trkpt>
      <trkpt lat="47.57894" lon="-2.21467">
        <ele>8.8000001907349</ele>
        <time>2021-06-27T07:55:41.000Z</time>
      </trkpt>
      <trkpt lat="47.57896" lon="-2.21467">
        <ele>8.3999996185303</ele>
        <time>2021-06-27T07:55:42.000Z</time>
      </trkpt>
      <trkpt lat="47.57897" lon="-2.21465">
        <ele>8</ele>
        <time>2021-06-27T07:55:43.000Z</time>
      </trkpt>
      <trkpt lat="47.57899" lon="-2.21464">
        <ele>7.5999999046326</ele>
        <time>2021-06-27T07:55:44.000Z</time>
      </trkpt>
      <trkpt lat="47.57901" lon="-2.21462">
        <ele>7</ele>
        <time>2021-06-27T07:55:45.000Z</time>
      </trkpt>
      <trkpt lat="47.57903" lon="-2.2146">
        <ele>6.5999999046326</ele>
        <time>2021-06-27T07:55:46.000Z</time>
      </trkpt>
      <trkpt lat="47.57904" lon="-2.21457">
        <ele>6.1999998092651</ele>
        <time>2021-06-27T07:55:47.000Z</time>
      </trkpt>
      <trkpt lat="47.57906" lon="-2.21456">
        <ele>5.5999999046326</ele>
        <time>2021-06-27T07:55:48.000Z</time>
      </trkpt>
      <trkpt lat="47.57908" lon="-2.21454">
        <ele>5.1999998092651</ele>
        <time>2021-06-27T07:55:49.000Z</time>
      </trkpt>
      <trkpt lat="47.5791" lon="-2.21453">
        <ele>4.1999998092651</ele>
        <time>2021-06-27T07:55:50.000Z</time>
      </trkpt>
      <trkpt lat="47.57913" lon="-2.21452">
        <ele>3.7999999523163</ele>
        <time>2021-06-27T07:55:51.000Z</time>
      </trkpt>
      <trkpt lat="47.57915" lon="-2.21451">
        <ele>3.2000000476837</ele>
        <time>2021-06-27T07:55:52.000Z</time>
      </trkpt>
      <trkpt lat="47.57917" lon="-2.2145">
        <ele>2.5999999046326</ele>
        <time>2021-06-27T07:55:53.000Z</time>
      </trkpt>
      <trkpt lat="47.57919" lon="-2.2145">
        <ele>2.2000000476837</ele>
        <time>2021-06-27T07:55:54.000Z</time>
      </trkpt>
      <trkpt lat="47.57922" lon="-2.21448">
        <ele>1.6000000238419</ele>
        <time>2021-06-27T07:55:55.000Z</time>
      </trkpt>
      <trkpt lat="47.57926" lon="-2.21448">
        <ele>1</ele>
        <time>2021-06-27T07:55:56.000Z</time>
      </trkpt>
      <trkpt lat="47.57929" lon="-2.21447">
        <ele>0.40000000596046</ele>
        <time>2021-06-27T07:55:57.000Z</time>
      </trkpt>
      <trkpt lat="47.57932" lon="-2.21446">
        <ele>-0.20000000298023</ele>
        <time>2021-06-27T07:55:58.000Z</time>
      </trkpt>
      <trkpt lat="47.57935" lon="-2.21445">
        <ele>-0.80000001192093</ele>
        <time>2021-06-27T07:55:59.000Z</time>
      </trkpt>
      <trkpt lat="47.57938" lon="-2.21444">
        <ele>-1.6000000238419</ele>
        <time>2021-06-27T07:56:00.000Z</time>
      </trkpt>
      <trkpt lat="47.5794" lon="-2.21444">
        <ele>-2.2000000476837</ele>
        <time>2021-06-27T07:56:01.000Z</time>
      </trkpt>
      <trkpt lat="47.57942" lon="-2.21445">
        <ele>-3</ele>
        <time>2021-06-27T07:56:02.000Z</time>
      </trkpt>
      <trkpt lat="47.57944" lon="-2.21445">
        <ele>-3.7999999523163</ele>
        <time>2021-06-27T07:56:03.000Z</time>
      </trkpt>
      <trkpt lat="47.57946" lon="-2.21446">
        <ele>-4.4000000953674</ele>
        <time>2021-06-27T07:56:04.000Z</time>
      </trkpt>
      <trkpt lat="47.57948" lon="-2.21447">
        <ele>-5</ele>
        <time>2021-06-27T07:56:05.000Z</time>
      </trkpt>
      <trkpt lat="47.5795" lon="-2.21448">
        <ele>-5.5999999046326</ele>
        <time>2021-06-27T07:56:06.000Z</time>
      </trkpt>
      <trkpt lat="47.57952" lon="-2.21448">
        <ele>-6</ele>
        <time>2021-06-27T07:56:07.000Z</time>
      </trkpt>
      <trkpt lat="47.57953" lon="-2.21449">
        <ele>-6.5999999046326</ele>
        <time>2021-06-27T07:56:08.000Z</time>
      </trkpt>
      <trkpt lat="47.57964" lon="-2.21454">
        <ele>-6.5999999046326</ele>
        <time>2021-06-27T07:56:14.000Z</time>
      </trkpt>
      <trkpt lat="47.57978" lon="-2.21462">
        <ele>-6.5999999046326</ele>
        <time>2021-06-27T07:56:21.000Z</time>
      </trkpt>
      <trkpt lat="47.5798" lon="-2.21475">
        <ele>-6.5999999046326</ele>
        <time>2021-06-27T07:56:27.000Z</time>
      </trkpt>
      <trkpt lat="47.57981" lon="-2.21486">
        <ele>-6.5999999046326</ele>
        <time>2021-06-27T07:56:32.000Z</time>
      </trkpt>
      <trkpt lat="47.57981" lon="-2.21488">
        <ele>-6.5999999046326</ele>
        <time>2021-06-27T07:56:33.000Z</time>
      </trkpt>
      <trkpt lat="47.57985" lon="-2.21513">
        <ele>-6.1999998092651</ele>
        <time>2021-06-27T07:56:39.000Z</time>
      </trkpt>
      <trkpt lat="47.57986" lon="-2.2152">
        <ele>-5.8000001907349</ele>
        <time>2021-06-27T07:56:40.000Z</time>
      </trkpt>
      <trkpt lat="47.57986" lon="-2.21526">
        <ele>-5.4000000953674</ele>
        <time>2021-06-27T07:56:41.000Z</time>
      </trkpt>
      <trkpt lat="47.57987" lon="-2.21531">
        <ele>-5</ele>
        <time>2021-06-27T07:56:42.000Z</time>
      </trkpt>
      <trkpt lat="47.57987" lon="-2.21536">
        <ele>-4.5999999046326</ele>
        <time>2021-06-27T07:56:43.000Z</time>
      </trkpt>
      <trkpt lat="47.57988" lon="-2.21544">
        <ele>-4.5999999046326</ele>
        <time>2021-06-27T07:56:45.000Z</time>
      </trkpt>
      <trkpt lat="47.57987" lon="-2.21552">
        <ele>-4.1999998092651</ele>
        <time>2021-06-27T07:56:49.000Z</time>
      </trkpt>
      <trkpt lat="47.57987" lon="-2.21554">
        <ele>-3.5999999046326</ele>
        <time>2021-06-27T07:56:50.000Z</time>
      </trkpt>
      <trkpt lat="47.57987" lon="-2.21556">
        <ele>-3.2000000476837</ele>
        <time>2021-06-27T07:56:51.000Z</time>
      </trkpt>
      <trkpt lat="47.57987" lon="-2.21559">
        <ele>-2.7999999523163</ele>
        <time>2021-06-27T07:56:52.000Z</time>
      </trkpt>
      <trkpt lat="47.57987" lon="-2.21561">
        <ele>-2.4000000953674</ele>
        <time>2021-06-27T07:56:53.000Z</time>
      </trkpt>
      <trkpt lat="47.57988" lon="-2.21576">
        <ele>-2.4000000953674</ele>
        <time>2021-06-27T07:56:57.000Z</time>
      </trkpt>
      <trkpt lat="47.57991" lon="-2.21594">
        <ele>-2.4000000953674</ele>
        <time>2021-06-27T07:57:03.000Z</time>
      </trkpt>
      <trkpt lat="47.57991" lon="-2.21606">
        <ele>-2</ele>
        <time>2021-06-27T07:57:08.000Z</time>
      </trkpt>
      <trkpt lat="47.57991" lon="-2.21608">
        <ele>-1.3999999761581</ele>
        <time>2021-06-27T07:57:09.000Z</time>
      </trkpt>
      <trkpt lat="47.57991" lon="-2.21611">
        <ele>-1</ele>
        <time>2021-06-27T07:57:10.000Z</time>
      </trkpt>
      <trkpt lat="47.57992" lon="-2.21614">
        <ele>-0.60000002384186</ele>
        <time>2021-06-27T07:57:11.000Z</time>
      </trkpt>
      <trkpt lat="47.57992" lon="-2.21617">
        <ele>-0.20000000298023</ele>
        <time>2021-06-27T07:57:12.000Z</time>
      </trkpt>
      <trkpt lat="47.57992" lon="-2.21628">
        <ele>-0.20000000298023</ele>
        <time>2021-06-27T07:57:16.000Z</time>
      </trkpt>
      <trkpt lat="47.57997" lon="-2.21643">
        <ele>-0.20000000298023</ele>
        <time>2021-06-27T07:57:22.000Z</time>
      </trkpt>
      <trkpt lat="47.57999" lon="-2.21664">
        <ele>-0.20000000298023</ele>
        <time>2021-06-27T07:57:28.000Z</time>
      </trkpt>
      <trkpt lat="47.58003" lon="-2.21677">
        <ele>-0.20000000298023</ele>
        <time>2021-06-27T07:57:34.000Z</time>
      </trkpt>
      <trkpt lat="47.58006" lon="-2.21692">
        <ele>0.20000000298023</ele>
        <time>2021-06-27T07:57:38.000Z</time>
      </trkpt>
      <trkpt lat="47.58007" lon="-2.21695">
        <ele>0.60000002384186</ele>
        <time>2021-06-27T07:57:39.000Z</time>
      </trkpt>
      <trkpt lat="47.58015" lon="-2.2173">
        <ele>1.7999999523163</ele>
        <time>2021-06-27T07:57:53.000Z</time>
      </trkpt>
      <trkpt lat="47.58018" lon="-2.21748">
        <ele>1.7999999523163</ele>
        <time>2021-06-27T07:57:59.000Z</time>
      </trkpt>
      <trkpt lat="47.58021" lon="-2.21757">
        <ele>1.3999999761581</ele>
        <time>2021-06-27T07:58:01.000Z</time>
      </trkpt>
      <trkpt lat="47.58024" lon="-2.21762">
        <ele>1</ele>
        <time>2021-06-27T07:58:02.000Z</time>
      </trkpt>
      <trkpt lat="47.58025" lon="-2.21766">
        <ele>0.60000002384186</ele>
        <time>2021-06-27T07:58:03.000Z</time>
      </trkpt>
      <trkpt lat="47.58026" lon="-2.2177">
        <ele>24.9</ele>
        <time>2021-06-27T07:58:04.000Z</time>
      </trkpt>
      <trkpt lat="47.58026" lon="-2.21773">
        <ele>-0.40000000596046</ele>
        <time>2021-06-27T07:58:05.000Z</time>
      </trkpt>
      <trkpt lat="47.5803" lon="-2.21787">
        <ele>-0.40000000596046</ele>
        <time>2021-06-27T07:58:11.000Z</time>
      </trkpt>
      <trkpt lat="47.58031" lon="-2.21792">
        <ele>-0.80000001192093</ele>
        <time>2021-06-27T07:58:14.000Z</time>
      </trkpt>
      <trkpt lat="47.5803" lon="-2.21796">
        <ele>-1.2000000476837</ele>
        <time>2021-06-27T07:58:15.000Z</time>
      </trkpt>
      <trkpt lat="47.5803" lon="-2.21799">
        <ele>-1.6000000238419</ele>
        <time>2021-06-27T07:58:16.000Z</time>
      </trkpt>
      <trkpt lat="47.58029" lon="-2.21803">
        <ele>-2.4000000953674</ele>
        <time>2021-06-27T07:58:17.000Z</time>
      </trkpt>
      <trkpt lat="47.58027" lon="-2.21827">
        <ele>-2.4000000953674</ele>
        <time>2021-06-27T07:58:24.000Z</time>
      </trkpt>
      <trkpt lat="47.58027" lon="-2.21831">
        <ele>-2</ele>
        <time>2021-06-27T07:58:25.000Z</time>
      </trkpt>
      <trkpt lat="47.58027" lon="-2.21834">
        <ele>-1.6000000238419</ele>
        <time>2021-06-27T07:58:26.000Z</time>
      </trkpt>
      <trkpt lat="47.58027" lon="-2.21838">
        <ele>-1</ele>
        <time>2021-06-27T07:58:27.000Z</time>
      </trkpt>
      <trkpt lat="47.58026" lon="-2.2184">
        <ele>-0.60000002384186</ele>
        <time>2021-06-27T07:58:28.000Z</time>
      </trkpt>
      <trkpt lat="47.58027" lon="-2.21844">
        <ele>-0.20000000298023</ele>
        <time>2021-06-27T07:58:29.000Z</time>
      </trkpt>
      <trkpt lat="47.58028" lon="-2.21849">
        <ele>-0.20000000298023</ele>
        <time>2021-06-27T07:58:30.000Z</time>
      </trkpt>
      <trkpt lat="47.58034" lon="-2.21868">
        <ele>-0.20000000298023</ele>
        <time>2021-06-27T07:58:35.000Z</time>
      </trkpt>
      <trkpt lat="47.5804" lon="-2.21889">
        <ele>-0.20000000298023</ele>
        <time>2021-06-27T07:58:39.000Z</time>
      </trkpt>
      <trkpt lat="47.58042" lon="-2.21897">
        <ele>0.60000002384186</ele>
        <time>2021-06-27T07:58:41.000Z</time>
      </trkpt>
      <trkpt lat="47.58042" lon="-2.21899">
        <ele>1</ele>
        <time>2021-06-27T07:58:42.000Z</time>
      </trkpt>
      <trkpt lat="47.58043" lon="-2.21903">
        <ele>1.3999999761581</ele>
        <time>2021-06-27T07:58:43.000Z</time>
      </trkpt>
      <trkpt lat="47.58044" lon="-2.21905">
        <ele>1.7999999523163</ele>
        <time>2021-06-27T07:58:44.000Z</time>
      </trkpt>
      <trkpt lat="47.58045" lon="-2.21907">
        <ele>1.7999999523163</ele>
        <time>2021-06-27T07:58:45.000Z</time>
      </trkpt>
      <trkpt lat="47.58049" lon="-2.21931">
        <ele>1.7999999523163</ele>
        <time>2021-06-27T07:58:53.000Z</time>
      </trkpt>
      <trkpt lat="47.58054" lon="-2.21946">
        <ele>1.3999999761581</ele>
        <time>2021-06-27T07:58:58.000Z</time>
      </trkpt>
      <trkpt lat="47.58055" lon="-2.21949">
        <ele>1</ele>
        <time>2021-06-27T07:58:59.000Z</time>
      </trkpt>
      <trkpt lat="47.58057" lon="-2.21952">
        <ele>0.60000002384186</ele>
        <time>2021-06-27T07:59:00.000Z</time>
      </trkpt>
      <trkpt lat="47.58058" lon="-2.21957">
        <ele>0.20000000298023</ele>
        <time>2021-06-27T07:59:01.000Z</time>
      </trkpt>
      <trkpt lat="47.58059" lon="-2.2196">
        <ele>-0.20000000298023</ele>
        <time>2021-06-27T07:59:02.000Z</time>
      </trkpt>
      <trkpt lat="47.58061" lon="-2.21973">
        <ele>-0.60000002384186</ele>
        <time>2021-06-27T07:59:07.000Z</time>
      </trkpt>
      <trkpt lat="47.58062" lon="-2.21977">
        <ele>-1</ele>
        <time>2021-06-27T07:59:08.000Z</time>
      </trkpt>
      <trkpt lat="47.58062" lon="-2.21981">
        <ele>-1.6000000238419</ele>
        <time>2021-06-27T07:59:09.000Z</time>
      </trkpt>
      <trkpt lat="47.58062" lon="-2.21984">
        <ele>-2</ele>
        <time>2021-06-27T07:59:10.000Z</time>
      </trkpt>
      <trkpt lat="47.58062" lon="-2.21988">
        <ele>-2.4000000953674</ele>
        <time>2021-06-27T07:59:11.000Z</time>
      </trkpt>
      <trkpt lat="47.58065" lon="-2.22001">
        <ele>-2</ele>
        <time>2021-06-27T07:59:14.000Z</time>
      </trkpt>
      <trkpt lat="47.58067" lon="-2.22006">
        <ele>-1.6000000238419</ele>
        <time>2021-06-27T07:59:15.000Z</time>
      </trkpt>
      <trkpt lat="47.58069" lon="-2.22012">
        <ele>-1.2000000476837</ele>
        <time>2021-06-27T07:59:16.000Z</time>
      </trkpt>
      <trkpt lat="47.58071" lon="-2.22018">
        <ele>-0.60000002384186</ele>
        <time>2021-06-27T07:59:17.000Z</time>
      </trkpt>
      <trkpt lat="47.58073" lon="-2.22023">
        <ele>-0.20000000298023</ele>
        <time>2021-06-27T07:59:18.000Z</time>
      </trkpt>
      <trkpt lat="47.58076" lon="-2.22057">
        <ele>-0.20000000298023</ele>
        <time>2021-06-27T07:59:25.000Z</time>
      </trkpt>
      <trkpt lat="47.58078" lon="-2.22082">
        <ele>-0.20000000298023</ele>
        <time>2021-06-27T07:59:31.000Z</time>
      </trkpt>
      <trkpt lat="47.5808" lon="-2.22094">
        <ele>-0.20000000298023</ele>
        <time>2021-06-27T07:59:36.000Z</time>
      </trkpt>
      <trkpt lat="47.58086" lon="-2.22109">
        <ele>-0.20000000298023</ele>
        <time>2021-06-27T07:59:42.000Z</time>
      </trkpt>
      <trkpt lat="47.58086" lon="-2.22115">
        <ele>-0.20000000298023</ele>
        <time>2021-06-27T07:59:44.000Z</time>
      </trkpt>
      <trkpt lat="47.58088" lon="-2.22128">
        <ele>-0.20000000298023</ele>
        <time>2021-06-27T07:59:49.000Z</time>
      </trkpt>
      <trkpt lat="47.58088" lon="-2.22131">
        <ele>-0.60000002384186</ele>
        <time>2021-06-27T07:59:50.000Z</time>
      </trkpt>
      <trkpt lat="47.58088" lon="-2.22135">
        <ele>-1</ele>
        <time>2021-06-27T07:59:51.000Z</time>
      </trkpt>
      <trkpt lat="47.58088" lon="-2.22139">
        <ele>-1.3999999761581</ele>
        <time>2021-06-27T07:59:52.000Z</time>
      </trkpt>
      <trkpt lat="47.58087" lon="-2.22143">
        <ele>-1.7999999523163</ele>
        <time>2021-06-27T07:59:53.000Z</time>
      </trkpt>
      <trkpt lat="47.58087" lon="-2.22147">
        <ele>-2.4000000953674</ele>
        <time>2021-06-27T07:59:54.000Z</time>
      </trkpt>
      <trkpt lat="47.58087" lon="-2.22152">
        <ele>-2.4000000953674</ele>
        <time>2021-06-27T07:59:56.000Z</time>
      </trkpt>
      <trkpt lat="47.58091" lon="-2.22162">
        <ele>-2.4000000953674</ele>
        <time>2021-06-27T07:59:59.000Z</time>
      </trkpt>
      <trkpt lat="47.58094" lon="-2.22178">
        <ele>-2.4000000953674</ele>
        <time>2021-06-27T08:00:03.000Z</time>
      </trkpt>
      <trkpt lat="47.58094" lon="-2.22183">
        <ele>-2.7999999523163</ele>
        <time>2021-06-27T08:00:04.000Z</time>
      </trkpt>
      <trkpt lat="47.58094" lon="-2.22186">
        <ele>-3.2000000476837</ele>
        <time>2021-06-27T08:00:05.000Z</time>
      </trkpt>
      <trkpt lat="47.58094" lon="-2.2219">
        <ele>-3.5999999046326</ele>
        <time>2021-06-27T08:00:06.000Z</time>
      </trkpt>
      <trkpt lat="47.58094" lon="-2.22193">
        <ele>-4</ele>
        <time>2021-06-27T08:00:07.000Z</time>
      </trkpt>
      <trkpt lat="47.58095" lon="-2.22197">
        <ele>-4.4000000953674</ele>
        <time>2021-06-27T08:00:08.000Z</time>
      </trkpt>
      <trkpt lat="47.58097" lon="-2.2221">
        <ele>-4.4000000953674</ele>
        <time>2021-06-27T08:00:12.000Z</time>
      </trkpt>
      <trkpt lat="47.581" lon="-2.22219">
        <ele>-4</ele>
        <time>2021-06-27T08:00:14.000Z</time>
      </trkpt>
      <trkpt lat="47.581" lon="-2.22223">
        <ele>-3.5999999046326</ele>
        <time>2021-06-27T08:00:15.000Z</time>
      </trkpt>
      <trkpt lat="47.58101" lon="-2.22227">
        <ele>-3.2000000476837</ele>
        <time>2021-06-27T08:00:16.000Z</time>
      </trkpt>
      <trkpt lat="47.58101" lon="-2.22229">
        <ele>-2.5999999046326</ele>
        <time>2021-06-27T08:00:17.000Z</time>
      </trkpt>
      <trkpt lat="47.58102" lon="-2.22232">
        <ele>-2.2000000476837</ele>
        <time>2021-06-27T08:00:18.000Z</time>
      </trkpt>
      <trkpt lat="47.58103" lon="-2.22239">
        <ele>-2.2000000476837</ele>
        <time>2021-06-27T08:00:23.000Z</time>
      </trkpt>
      <trkpt lat="47.58103" lon="-2.22241">
        <ele>-2.2000000476837</ele>
        <time>2021-06-27T08:00:24.000Z</time>
      </trkpt>
      <trkpt lat="47.58103" lon="-2.22245">
        <ele>-2.2000000476837</ele>
        <time>2021-06-27T08:00:26.000Z</time>
      </trkpt>
      <trkpt lat="47.58105" lon="-2.2225">
        <ele>-2.2000000476837</ele>
        <time>2021-06-27T08:00:29.000Z</time>
      </trkpt>
      <trkpt lat="47.58105" lon="-2.22255">
        <ele>-2.7999999523163</ele>
        <time>2021-06-27T08:00:31.000Z</time>
      </trkpt>
      <trkpt lat="47.58105" lon="-2.22257">
        <ele>-3.2000000476837</ele>
        <time>2021-06-27T08:00:32.000Z</time>
      </trkpt>
      <trkpt lat="47.58105" lon="-2.22259">
        <ele>-3.5999999046326</ele>
        <time>2021-06-27T08:00:33.000Z</time>
      </trkpt>
      <trkpt lat="47.58105" lon="-2.22262">
        <ele>-4</ele>
        <time>2021-06-27T08:00:34.000Z</time>
      </trkpt>
      <trkpt lat="47.58106" lon="-2.22265">
        <ele>-4.4000000953674</ele>
        <time>2021-06-27T08:00:35.000Z</time>
      </trkpt>
      <trkpt lat="47.58106" lon="-2.22268">
        <ele>-4.4000000953674</ele>
        <time>2021-06-27T08:00:36.000Z</time>
      </trkpt>
      <trkpt lat="47.58112" lon="-2.2229">
        <ele>-5</ele>
        <time>2021-06-27T08:00:42.000Z</time>
      </trkpt>
      <trkpt lat="47.58114" lon="-2.22295">
        <ele>-5.5999999046326</ele>
        <time>2021-06-27T08:00:43.000Z</time>
      </trkpt>
      <trkpt lat="47.58116" lon="-2.22299">
        <ele>-6.1999998092651</ele>
        <time>2021-06-27T08:00:44.000Z</time>
      </trkpt>
      <trkpt lat="47.58117" lon="-2.22304">
        <ele>-7.4000000953674</ele>
        <time>2021-06-27T08:00:45.000Z</time>
      </trkpt>
      <trkpt lat="47.58119" lon="-2.22309">
        <ele>-8</ele>
        <time>2021-06-27T08:00:46.000Z</time>
      </trkpt>
      <trkpt lat="47.58119" lon="-2.22314">
        <ele>-8.6000003814697</ele>
        <time>2021-06-27T08:00:47.000Z</time>
      </trkpt>
      <trkpt lat="47.58119" lon="-2.22319">
        <ele>-9.1999998092651</ele>
        <time>2021-06-27T08:00:48.000Z</time>
      </trkpt>
      <trkpt lat="47.58119" lon="-2.22339">
        <ele>-9.8000001907349</ele>
        <time>2021-06-27T08:00:51.000Z</time>
      </trkpt>
      <trkpt lat="47.58118" lon="-2.22346">
        <ele>-10.199999809265</ele>
        <time>2021-06-27T08:00:52.000Z</time>
      </trkpt>
      <trkpt lat="47.58118" lon="-2.22353">
        <ele>-10.60000038147</ele>
        <time>2021-06-27T08:00:53.000Z</time>
      </trkpt>
      <trkpt lat="47.58119" lon="-2.2236">
        <ele>-11</ele>
        <time>2021-06-27T08:00:54.000Z</time>
      </trkpt>
      <trkpt lat="47.5812" lon="-2.22366">
        <ele>-11.39999961853</ele>
        <time>2021-06-27T08:00:55.000Z</time>
      </trkpt>
      <trkpt lat="47.58121" lon="-2.22371">
        <ele>-12</ele>
        <time>2021-06-27T08:00:56.000Z</time>
      </trkpt>
      <trkpt lat="47.58121" lon="-2.22377">
        <ele>-12.39999961853</ele>
        <time>2021-06-27T08:00:57.000Z</time>
      </trkpt>
      <trkpt lat="47.58123" lon="-2.22383">
        <ele>-13</ele>
        <time>2021-06-27T08:00:58.000Z</time>
      </trkpt>
      <trkpt lat="47.58125" lon="-2.22388">
        <ele>-13.39999961853</ele>
        <time>2021-06-27T08:00:59.000Z</time>
      </trkpt>
      <trkpt lat="47.58126" lon="-2.22393">
        <ele>-14</ele>
        <time>2021-06-27T08:01:00.000Z</time>
      </trkpt>
      <trkpt lat="47.58127" lon="-2.22399">
        <ele>-14.39999961853</ele>
        <time>2021-06-27T08:01:01.000Z</time>
      </trkpt>
      <trkpt lat="47.5813" lon="-2.22406">
        <ele>-14.800000190735</ele>
        <time>2021-06-27T08:01:02.000Z</time>
      </trkpt>
      <trkpt lat="47.58133" lon="-2.22411">
        <ele>-15.199999809265</ele>
        <time>2021-06-27T08:01:03.000Z</time>
      </trkpt>
      <trkpt lat="47.58138" lon="-2.22414">
        <ele>-15.60000038147</ele>
        <time>2021-06-27T08:01:04.000Z</time>
      </trkpt>
      <trkpt lat="47.58143" lon="-2.22416">
        <ele>-16</ele>
        <time>2021-06-27T08:01:05.000Z</time>
      </trkpt>
      <trkpt lat="47.58152" lon="-2.22418">
        <ele>-16.60000038147</ele>
        <time>2021-06-27T08:01:07.000Z</time>
      </trkpt>
      <trkpt lat="47.58155" lon="-2.22419">
        <ele>-17</ele>
        <time>2021-06-27T08:01:08.000Z</time>
      </trkpt>
      <trkpt lat="47.58157" lon="-2.22421">
        <ele>-17.60000038147</ele>
        <time>2021-06-27T08:01:09.000Z</time>
      </trkpt>
      <trkpt lat="47.58157" lon="-2.22422">
        <ele>-18.60000038147</ele>
        <time>2021-06-27T08:01:10.000Z</time>
      </trkpt>
      <trkpt lat="47.5816" lon="-2.22425">
        <ele>-20.799999237061</ele>
        <time>2021-06-27T08:02:06.000Z</time>
      </trkpt>
      <trkpt lat="47.58161" lon="-2.22427">
        <ele>-20.799999237061</ele>
        <time>2021-06-27T08:02:07.000Z</time>
      </trkpt>
      <trkpt lat="47.58163" lon="-2.22445">
        <ele>-20.799999237061</ele>
        <time>2021-06-27T08:02:13.000Z</time>
      </trkpt>
      <trkpt lat="47.58156" lon="-2.22477">
        <ele>-20.799999237061</ele>
        <time>2021-06-27T08:02:20.000Z</time>
      </trkpt>
      <trkpt lat="47.58147" lon="-2.22516">
        <ele>-20.799999237061</ele>
        <time>2021-06-27T08:02:28.000Z</time>
      </trkpt>
      <trkpt lat="47.58135" lon="-2.22566">
        <ele>-20.799999237061</ele>
        <time>2021-06-27T08:02:38.000Z</time>
      </trkpt>
      <trkpt lat="47.58128" lon="-2.22602">
        <ele>-20.799999237061</ele>
        <time>2021-06-27T08:02:45.000Z</time>
      </trkpt>
      <trkpt lat="47.58121" lon="-2.22644">
        <ele>-20.799999237061</ele>
        <time>2021-06-27T08:02:53.000Z</time>
      </trkpt>
      <trkpt lat="47.58116" lon="-2.22665">
        <ele>-20.799999237061</ele>
        <time>2021-06-27T08:02:58.000Z</time>
      </trkpt>
      <trkpt lat="47.58112" lon="-2.22679">
        <ele>-20.799999237061</ele>
        <time>2021-06-27T08:03:07.000Z</time>
      </trkpt>
      <trkpt lat="47.58107" lon="-2.22683">
        <ele>-20.39999961853</ele>
        <time>2021-06-27T08:03:10.000Z</time>
      </trkpt>
      <trkpt lat="47.58106" lon="-2.22685">
        <ele>-19.799999237061</ele>
        <time>2021-06-27T08:03:11.000Z</time>
      </trkpt>
      <trkpt lat="47.58104" lon="-2.22686">
        <ele>-19.39999961853</ele>
        <time>2021-06-27T08:03:12.000Z</time>
      </trkpt>
      <trkpt lat="47.58103" lon="-2.22687">
        <ele>-19</ele>
        <time>2021-06-27T08:03:13.000Z</time>
      </trkpt>
      <trkpt lat="47.58101" lon="-2.22688">
        <ele>-18.60000038147</ele>
        <time>2021-06-27T08:03:14.000Z</time>
      </trkpt>
      <trkpt lat="47.58095" lon="-2.22695">
        <ele>-18.60000038147</ele>
        <time>2021-06-27T08:03:20.000Z</time>
      </trkpt>
      <trkpt lat="47.58094" lon="-2.22696">
        <ele>-18.200000762939</ele>
        <time>2021-06-27T08:03:21.000Z</time>
      </trkpt>
      <trkpt lat="47.58093" lon="-2.22698">
        <ele>-17.799999237061</ele>
        <time>2021-06-27T08:03:22.000Z</time>
      </trkpt>
      <trkpt lat="47.58093" lon="-2.22698">
        <ele>-17.39999961853</ele>
        <time>2021-06-27T08:03:23.000Z</time>
      </trkpt>
      <trkpt lat="47.58092" lon="-2.227">
        <ele>-17</ele>
        <time>2021-06-27T08:03:24.000Z</time>
      </trkpt>
      <trkpt lat="47.58091" lon="-2.22702">
        <ele>-16.60000038147</ele>
        <time>2021-06-27T08:03:25.000Z</time>
      </trkpt>
      <trkpt lat="47.5809" lon="-2.22704">
        <ele>-16.60000038147</ele>
        <time>2021-06-27T08:03:27.000Z</time>
      </trkpt>
      <trkpt lat="47.58084" lon="-2.22711">
        <ele>-16.200000762939</ele>
        <time>2021-06-27T08:03:32.000Z</time>
      </trkpt>
      <trkpt lat="47.58082" lon="-2.22712">
        <ele>-15.800000190735</ele>
        <time>2021-06-27T08:03:33.000Z</time>
      </trkpt>
      <trkpt lat="47.58081" lon="-2.22713">
        <ele>-15.199999809265</ele>
        <time>2021-06-27T08:03:34.000Z</time>
      </trkpt>
      <trkpt lat="47.5808" lon="-2.22714">
        <ele>-14.800000190735</ele>
        <time>2021-06-27T08:03:35.000Z</time>
      </trkpt>
      <trkpt lat="47.58079" lon="-2.22715">
        <ele>-14.39999961853</ele>
        <time>2021-06-27T08:03:36.000Z</time>
      </trkpt>
      <trkpt lat="47.58074" lon="-2.22718">
        <ele>-14.39999961853</ele>
        <time>2021-06-27T08:03:41.000Z</time>
      </trkpt>
      <trkpt lat="47.58072" lon="-2.22718">
        <ele>-14</ele>
        <time>2021-06-27T08:03:42.000Z</time>
      </trkpt>
      <trkpt lat="47.58071" lon="-2.22719">
        <ele>-13.60000038147</ele>
        <time>2021-06-27T08:03:43.000Z</time>
      </trkpt>
      <trkpt lat="47.5807" lon="-2.22718">
        <ele>-13.199999809265</ele>
        <time>2021-06-27T08:03:44.000Z</time>
      </trkpt>
      <trkpt lat="47.58069" lon="-2.22718">
        <ele>-12.60000038147</ele>
        <time>2021-06-27T08:03:45.000Z</time>
      </trkpt>
      <trkpt lat="47.58068" lon="-2.22718">
        <ele>-12.199999809265</ele>
        <time>2021-06-27T08:03:46.000Z</time>
      </trkpt>
      <trkpt lat="47.58066" lon="-2.22717">
        <ele>-11.800000190735</ele>
        <time>2021-06-27T08:03:48.000Z</time>
      </trkpt>
      <trkpt lat="47.58066" lon="-2.22717">
        <ele>-11.39999961853</ele>
        <time>2021-06-27T08:03:49.000Z</time>
      </trkpt>
      <trkpt lat="47.58064" lon="-2.22716">
        <ele>-11</ele>
        <time>2021-06-27T08:03:50.000Z</time>
      </trkpt>
      <trkpt lat="47.58063" lon="-2.22716">
        <ele>-10.60000038147</ele>
        <time>2021-06-27T08:03:51.000Z</time>
      </trkpt>
      <trkpt lat="47.58062" lon="-2.22715">
        <ele>-10.199999809265</ele>
        <time>2021-06-27T08:03:52.000Z</time>
      </trkpt>
      <trkpt lat="47.58059" lon="-2.2271">
        <ele>-10.199999809265</ele>
        <time>2021-06-27T08:03:56.000Z</time>
      </trkpt>
      <trkpt lat="47.58058" lon="-2.22708">
        <ele>-9.8000001907349</ele>
        <time>2021-06-27T08:03:57.000Z</time>
      </trkpt>
      <trkpt lat="47.58057" lon="-2.22707">
        <ele>-9.1999998092651</ele>
        <time>2021-06-27T08:03:58.000Z</time>
      </trkpt>
      <trkpt lat="47.58056" lon="-2.22705">
        <ele>-8.8000001907349</ele>
        <time>2021-06-27T08:03:59.000Z</time>
      </trkpt>
      <trkpt lat="47.58055" lon="-2.22703">
        <ele>-8.3999996185303</ele>
        <time>2021-06-27T08:04:00.000Z</time>
      </trkpt>
      <trkpt lat="47.58053" lon="-2.22701">
        <ele>-8</ele>
        <time>2021-06-27T08:04:01.000Z</time>
      </trkpt>
      <trkpt lat="47.58051" lon="-2.22697">
        <ele>-8</ele>
        <time>2021-06-27T08:04:03.000Z</time>
      </trkpt>
      <trkpt lat="47.58049" lon="-2.22695">
        <ele>-8</ele>
        <time>2021-06-27T08:04:04.000Z</time>
      </trkpt>
      <trkpt lat="47.58044" lon="-2.22683">
        <ele>-8</ele>
        <time>2021-06-27T08:04:09.000Z</time>
      </trkpt>
      <trkpt lat="47.58042" lon="-2.22678">
        <ele>-8</ele>
        <time>2021-06-27T08:04:12.000Z</time>
      </trkpt>
      <trkpt lat="47.58042" lon="-2.22672">
        <ele>-7.5999999046326</ele>
        <time>2021-06-27T08:04:15.000Z</time>
      </trkpt>
      <trkpt lat="47.58042" lon="-2.22669">
        <ele>-6.8000001907349</ele>
        <time>2021-06-27T08:04:16.000Z</time>
      </trkpt>
      <trkpt lat="47.58041" lon="-2.22667">
        <ele>-6.4000000953674</ele>
        <time>2021-06-27T08:04:17.000Z</time>
      </trkpt>
      <trkpt lat="47.58041" lon="-2.22665">
        <ele>-6</ele>
        <time>2021-06-27T08:04:18.000Z</time>
      </trkpt>
      <trkpt lat="47.5804" lon="-2.22659">
        <ele>-6</ele>
        <time>2021-06-27T08:04:21.000Z</time>
      </trkpt>
      <trkpt lat="47.58038" lon="-2.22643">
        <ele>-6</ele>
        <time>2021-06-27T08:04:29.000Z</time>
      </trkpt>
      <trkpt lat="47.58034" lon="-2.2263">
        <ele>-5.5999999046326</ele>
        <time>2021-06-27T08:04:35.000Z</time>
      </trkpt>
      <trkpt lat="47.58033" lon="-2.22628">
        <ele>-5.1999998092651</ele>
        <time>2021-06-27T08:04:36.000Z</time>
      </trkpt>
      <trkpt lat="47.58032" lon="-2.22627">
        <ele>-4.8000001907349</ele>
        <time>2021-06-27T08:04:37.000Z</time>
      </trkpt>
      <trkpt lat="47.58031" lon="-2.22625">
        <ele>-4.4000000953674</ele>
        <time>2021-06-27T08:04:38.000Z</time>
      </trkpt>
      <trkpt lat="47.5803" lon="-2.22625">
        <ele>-4</ele>
        <time>2021-06-27T08:04:39.000Z</time>
      </trkpt>
      <trkpt lat="47.58029" lon="-2.22624">
        <ele>-4</ele>
        <time>2021-06-27T08:04:40.000Z</time>
      </trkpt>
      <trkpt lat="47.58025" lon="-2.22623">
        <ele>-4</ele>
        <time>2021-06-27T08:04:43.000Z</time>
      </trkpt>
      <trkpt lat="47.58024" lon="-2.22623">
        <ele>-3.5999999046326</ele>
        <time>2021-06-27T08:04:44.000Z</time>
      </trkpt>
      <trkpt lat="47.58022" lon="-2.22622">
        <ele>-3.2000000476837</ele>
        <time>2021-06-27T08:04:45.000Z</time>
      </trkpt>
      <trkpt lat="47.58021" lon="-2.22622">
        <ele>-2.7999999523163</ele>
        <time>2021-06-27T08:04:46.000Z</time>
      </trkpt>
      <trkpt lat="47.5802" lon="-2.22621">
        <ele>-2.4000000953674</ele>
        <time>2021-06-27T08:04:47.000Z</time>
      </trkpt>
      <trkpt lat="47.58019" lon="-2.22621">
        <ele>-2</ele>
        <time>2021-06-27T08:04:48.000Z</time>
      </trkpt>
      <trkpt lat="47.58015" lon="-2.22619">
        <ele>-2</ele>
        <time>2021-06-27T08:04:51.000Z</time>
      </trkpt>
      <trkpt lat="47.5801" lon="-2.22616">
        <ele>-1.3999999761581</ele>
        <time>2021-06-27T08:04:55.000Z</time>
      </trkpt>
      <trkpt lat="47.5801" lon="-2.22616">
        <ele>-1</ele>
        <time>2021-06-27T08:04:56.000Z</time>
      </trkpt>
      <trkpt lat="47.58008" lon="-2.22614">
        <ele>-0.60000002384186</ele>
        <time>2021-06-27T08:04:57.000Z</time>
      </trkpt>
      <trkpt lat="47.58007" lon="-2.22614">
        <ele>-0.20000000298023</ele>
        <time>2021-06-27T08:04:58.000Z</time>
      </trkpt>
      <trkpt lat="47.58006" lon="-2.22613">
        <ele>0.20000000298023</ele>
        <time>2021-06-27T08:04:59.000Z</time>
      </trkpt>
      <trkpt lat="47.57998" lon="-2.22606">
        <ele>0.20000000298023</ele>
        <time>2021-06-27T08:05:06.000Z</time>
      </trkpt>
      <trkpt lat="47.57995" lon="-2.22606">
        <ele>0.60000002384186</ele>
        <time>2021-06-27T08:05:08.000Z</time>
      </trkpt>
      <trkpt lat="47.57993" lon="-2.22606">
        <ele>1</ele>
        <time>2021-06-27T08:05:09.000Z</time>
      </trkpt>
      <trkpt lat="47.57992" lon="-2.22606">
        <ele>1.3999999761581</ele>
        <time>2021-06-27T08:05:10.000Z</time>
      </trkpt>
      <trkpt lat="47.57991" lon="-2.22606">
        <ele>2</ele>
        <time>2021-06-27T08:05:11.000Z</time>
      </trkpt>
      <trkpt lat="47.5799" lon="-2.22606">
        <ele>2.4000000953674</ele>
        <time>2021-06-27T08:05:12.000Z</time>
      </trkpt>
      <trkpt lat="47.5799" lon="-2.22607">
        <ele>2.4000000953674</ele>
        <time>2021-06-27T08:05:13.000Z</time>
      </trkpt>
      <trkpt lat="47.57986" lon="-2.22612">
        <ele>2.4000000953674</ele>
        <time>2021-06-27T08:05:19.000Z</time>
      </trkpt>
      <trkpt lat="47.57984" lon="-2.22616">
        <ele>2.7999999523163</ele>
        <time>2021-06-27T08:05:23.000Z</time>
      </trkpt>
      <trkpt lat="47.57983" lon="-2.22618">
        <ele>3.2000000476837</ele>
        <time>2021-06-27T08:05:24.000Z</time>
      </trkpt>
      <trkpt lat="47.57983" lon="-2.22618">
        <ele>3.5999999046326</ele>
        <time>2021-06-27T08:05:25.000Z</time>
      </trkpt>
      <trkpt lat="47.57982" lon="-2.2262">
        <ele>4</ele>
        <time>2021-06-27T08:05:26.000Z</time>
      </trkpt>
      <trkpt lat="47.57982" lon="-2.22621">
        <ele>4.4000000953674</ele>
        <time>2021-06-27T08:05:27.000Z</time>
      </trkpt>
      <trkpt lat="47.5798" lon="-2.22629">
        <ele>4.4000000953674</ele>
        <time>2021-06-27T08:05:34.000Z</time>
      </trkpt>
      <trkpt lat="47.57978" lon="-2.22633">
        <ele>4.8000001907349</ele>
        <time>2021-06-27T08:05:36.000Z</time>
      </trkpt>
      <trkpt lat="47.57978" lon="-2.22635">
        <ele>5.1999998092651</ele>
        <time>2021-06-27T08:05:37.000Z</time>
      </trkpt>
      <trkpt lat="47.57978" lon="-2.22635">
        <ele>5.5999999046326</ele>
        <time>2021-06-27T08:05:38.000Z</time>
      </trkpt>
      <trkpt lat="47.57977" lon="-2.22636">
        <ele>6</ele>
        <time>2021-06-27T08:05:39.000Z</time>
      </trkpt>
      <trkpt lat="47.57976" lon="-2.22638">
        <ele>6.4000000953674</ele>
        <time>2021-06-27T08:05:40.000Z</time>
      </trkpt>
      <trkpt lat="47.57976" lon="-2.22639">
        <ele>6.4000000953674</ele>
        <time>2021-06-27T08:05:41.000Z</time>
      </trkpt>
      <trkpt lat="47.57972" lon="-2.22653">
        <ele>6.8000001907349</ele>
        <time>2021-06-27T08:05:49.000Z</time>
      </trkpt>
      <trkpt lat="47.57971" lon="-2.22655">
        <ele>7.1999998092651</ele>
        <time>2021-06-27T08:05:50.000Z</time>
      </trkpt>
      <trkpt lat="47.5797" lon="-2.22656">
        <ele>7.5999999046326</ele>
        <time>2021-06-27T08:05:51.000Z</time>
      </trkpt>
      <trkpt lat="47.5797" lon="-2.22658">
        <ele>8</ele>
        <time>2021-06-27T08:05:52.000Z</time>
      </trkpt>
      <trkpt lat="47.57969" lon="-2.22659">
        <ele>8.3999996185303</ele>
        <time>2021-06-27T08:05:53.000Z</time>
      </trkpt>
      <trkpt lat="47.57967" lon="-2.22661">
        <ele>8.3999996185303</ele>
        <time>2021-06-27T08:05:56.000Z</time>
      </trkpt>
      <trkpt lat="47.57967" lon="-2.22662">
        <ele>8.3999996185303</ele>
        <time>2021-06-27T08:05:57.000Z</time>
      </trkpt>
      <trkpt lat="47.57967" lon="-2.22665">
        <ele>8.3999996185303</ele>
        <time>2021-06-27T08:06:04.000Z</time>
      </trkpt>
      <trkpt lat="47.57965" lon="-2.22672">
        <ele>8.3999996185303</ele>
        <time>2021-06-27T08:06:07.000Z</time>
      </trkpt>
      <trkpt lat="47.57962" lon="-2.2268">
        <ele>9</ele>
        <time>2021-06-27T08:06:13.000Z</time>
      </trkpt>
      <trkpt lat="47.57963" lon="-2.22681">
        <ele>9.3999996185303</ele>
        <time>2021-06-27T08:06:14.000Z</time>
      </trkpt>
      <trkpt lat="47.57963" lon="-2.22684">
        <ele>9.8000001907349</ele>
        <time>2021-06-27T08:06:15.000Z</time>
      </trkpt>
      <trkpt lat="47.57964" lon="-2.22686">
        <ele>10.199999809265</ele>
        <time>2021-06-27T08:06:16.000Z</time>
      </trkpt>
      <trkpt lat="47.57965" lon="-2.22689">
        <ele>10.60000038147</ele>
        <time>2021-06-27T08:06:17.000Z</time>
      </trkpt>
      <trkpt lat="47.57967" lon="-2.22698">
        <ele>10.60000038147</ele>
        <time>2021-06-27T08:06:20.000Z</time>
      </trkpt>
      <trkpt lat="47.57971" lon="-2.2271">
        <ele>10.199999809265</ele>
        <time>2021-06-27T08:06:25.000Z</time>
      </trkpt>
      <trkpt lat="47.57972" lon="-2.22713">
        <ele>9.8000001907349</ele>
        <time>2021-06-27T08:06:26.000Z</time>
      </trkpt>
      <trkpt lat="47.57974" lon="-2.22715">
        <ele>9.1999998092651</ele>
        <time>2021-06-27T08:06:27.000Z</time>
      </trkpt>
      <trkpt lat="47.57975" lon="-2.22718">
        <ele>8.8000001907349</ele>
        <time>2021-06-27T08:06:28.000Z</time>
      </trkpt>
      <trkpt lat="47.57976" lon="-2.2272">
        <ele>8.3999996185303</ele>
        <time>2021-06-27T08:06:29.000Z</time>
      </trkpt>
      <trkpt lat="47.57978" lon="-2.22723">
        <ele>8</ele>
        <time>2021-06-27T08:06:30.000Z</time>
      </trkpt>
      <trkpt lat="47.57979" lon="-2.22726">
        <ele>7.5999999046326</ele>
        <time>2021-06-27T08:06:31.000Z</time>
      </trkpt>
      <trkpt lat="47.57981" lon="-2.22728">
        <ele>7.1999998092651</ele>
        <time>2021-06-27T08:06:32.000Z</time>
      </trkpt>
      <trkpt lat="47.57983" lon="-2.2273">
        <ele>6.8000001907349</ele>
        <time>2021-06-27T08:06:33.000Z</time>
      </trkpt>
      <trkpt lat="47.57985" lon="-2.22732">
        <ele>6.4000000953674</ele>
        <time>2021-06-27T08:06:34.000Z</time>
      </trkpt>
      <trkpt lat="47.57986" lon="-2.22734">
        <ele>6</ele>
        <time>2021-06-27T08:06:35.000Z</time>
      </trkpt>
      <trkpt lat="47.57988" lon="-2.22737">
        <ele>5.5999999046326</ele>
        <time>2021-06-27T08:06:36.000Z</time>
      </trkpt>
      <trkpt lat="47.57989" lon="-2.22741">
        <ele>5.1999998092651</ele>
        <time>2021-06-27T08:06:37.000Z</time>
      </trkpt>
      <trkpt lat="47.57989" lon="-2.22746">
        <ele>4.8000001907349</ele>
        <time>2021-06-27T08:06:38.000Z</time>
      </trkpt>
      <trkpt lat="47.57988" lon="-2.22751">
        <ele>4.4000000953674</ele>
        <time>2021-06-27T08:06:39.000Z</time>
      </trkpt>
      <trkpt lat="47.57986" lon="-2.22766">
        <ele>4.4000000953674</ele>
        <time>2021-06-27T08:06:43.000Z</time>
      </trkpt>
      <trkpt lat="47.57983" lon="-2.22786">
        <ele>4.4000000953674</ele>
        <time>2021-06-27T08:06:51.000Z</time>
      </trkpt>
      <trkpt lat="47.57983" lon="-2.22789">
        <ele>4.8000001907349</ele>
        <time>2021-06-27T08:06:52.000Z</time>
      </trkpt>
      <trkpt lat="47.57983" lon="-2.22791">
        <ele>5.1999998092651</ele>
        <time>2021-06-27T08:06:53.000Z</time>
      </trkpt>
      <trkpt lat="47.57983" lon="-2.22793">
        <ele>5.5999999046326</ele>
        <time>2021-06-27T08:06:54.000Z</time>
      </trkpt>
      <trkpt lat="47.57982" lon="-2.22795">
        <ele>6</ele>
        <time>2021-06-27T08:06:55.000Z</time>
      </trkpt>
      <trkpt lat="47.57982" lon="-2.22797">
        <ele>6.4000000953674</ele>
        <time>2021-06-27T08:06:56.000Z</time>
      </trkpt>
      <trkpt lat="47.57982" lon="-2.22801">
        <ele>6.4000000953674</ele>
        <time>2021-06-27T08:06:58.000Z</time>
      </trkpt>
      <trkpt lat="47.57983" lon="-2.22807">
        <ele>6.4000000953674</ele>
        <time>2021-06-27T08:07:00.000Z</time>
      </trkpt>
      <trkpt lat="47.57985" lon="-2.22815">
        <ele>6.4000000953674</ele>
        <time>2021-06-27T08:07:03.000Z</time>
      </trkpt>
      <trkpt lat="47.57986" lon="-2.22831">
        <ele>6</ele>
        <time>2021-06-27T08:07:09.000Z</time>
      </trkpt>
      <trkpt lat="47.57986" lon="-2.22833">
        <ele>5.5999999046326</ele>
        <time>2021-06-27T08:07:10.000Z</time>
      </trkpt>
      <trkpt lat="47.57987" lon="-2.22837">
        <ele>5.1999998092651</ele>
        <time>2021-06-27T08:07:11.000Z</time>
      </trkpt>
      <trkpt lat="47.57987" lon="-2.22839">
        <ele>4.8000001907349</ele>
        <time>2021-06-27T08:07:12.000Z</time>
      </trkpt>
      <trkpt lat="47.57987" lon="-2.22842">
        <ele>4.1999998092651</ele>
        <time>2021-06-27T08:07:13.000Z</time>
      </trkpt>
      <trkpt lat="47.57985" lon="-2.22851">
        <ele>4.1999998092651</ele>
        <time>2021-06-27T08:07:17.000Z</time>
      </trkpt>
      <trkpt lat="47.57981" lon="-2.22861">
        <ele>4.1999998092651</ele>
        <time>2021-06-27T08:07:21.000Z</time>
      </trkpt>
      <trkpt lat="47.57978" lon="-2.22867">
        <ele>4.1999998092651</ele>
        <time>2021-06-27T08:07:23.000Z</time>
      </trkpt>
      <trkpt lat="47.57979" lon="-2.22879">
        <ele>4.1999998092651</ele>
        <time>2021-06-27T08:07:26.000Z</time>
      </trkpt>
      <trkpt lat="47.57978" lon="-2.22887">
        <ele>4.1999998092651</ele>
        <time>2021-06-27T08:07:29.000Z</time>
      </trkpt>
      <trkpt lat="47.57977" lon="-2.22934">
        <ele>4.1999998092651</ele>
        <time>2021-06-27T08:07:37.000Z</time>
      </trkpt>
      <trkpt lat="47.57979" lon="-2.22945">
        <ele>4.8000001907349</ele>
        <time>2021-06-27T08:07:39.000Z</time>
      </trkpt>
      <trkpt lat="47.5798" lon="-2.22949">
        <ele>5.1999998092651</ele>
        <time>2021-06-27T08:07:40.000Z</time>
      </trkpt>
      <trkpt lat="47.57981" lon="-2.22953">
        <ele>5.5999999046326</ele>
        <time>2021-06-27T08:07:41.000Z</time>
      </trkpt>
      <trkpt lat="47.57981" lon="-2.22958">
        <ele>6</ele>
        <time>2021-06-27T08:07:42.000Z</time>
      </trkpt>
      <trkpt lat="47.5798" lon="-2.22961">
        <ele>6.4000000953674</ele>
        <time>2021-06-27T08:07:43.000Z</time>
      </trkpt>
      <trkpt lat="47.57979" lon="-2.22964">
        <ele>6.4000000953674</ele>
        <time>2021-06-27T08:07:44.000Z</time>
      </trkpt>
      <trkpt lat="47.57976" lon="-2.22973">
        <ele>6.8000001907349</ele>
        <time>2021-06-27T08:07:47.000Z</time>
      </trkpt>
      <trkpt lat="47.57976" lon="-2.22976">
        <ele>7.1999998092651</ele>
        <time>2021-06-27T08:07:48.000Z</time>
      </trkpt>
      <trkpt lat="47.57975" lon="-2.22979">
        <ele>7.8000001907349</ele>
        <time>2021-06-27T08:07:49.000Z</time>
      </trkpt>
      <trkpt lat="47.57973" lon="-2.22981">
        <ele>8.1999998092651</ele>
        <time>2021-06-27T08:07:50.000Z</time>
      </trkpt>
      <trkpt lat="47.57972" lon="-2.22984">
        <ele>8.6000003814697</ele>
        <time>2021-06-27T08:07:51.000Z</time>
      </trkpt>
      <trkpt lat="47.57971" lon="-2.22986">
        <ele>8.6000003814697</ele>
        <time>2021-06-27T08:07:52.000Z</time>
      </trkpt>
      <trkpt lat="47.5797" lon="-2.22988">
        <ele>9</ele>
        <time>2021-06-27T08:07:53.000Z</time>
      </trkpt>
      <trkpt lat="47.57969" lon="-2.22989">
        <ele>9.3999996185303</ele>
        <time>2021-06-27T08:07:54.000Z</time>
      </trkpt>
      <trkpt lat="47.57968" lon="-2.22991">
        <ele>10</ele>
        <time>2021-06-27T08:07:55.000Z</time>
      </trkpt>
      <trkpt lat="47.57967" lon="-2.22993">
        <ele>10.39999961853</ele>
        <time>2021-06-27T08:07:56.000Z</time>
      </trkpt>
      <trkpt lat="47.57966" lon="-2.22995">
        <ele>10.800000190735</ele>
        <time>2021-06-27T08:07:57.000Z</time>
      </trkpt>
      <trkpt lat="47.57963" lon="-2.23004">
        <ele>11.199999809265</ele>
        <time>2021-06-27T08:08:01.000Z</time>
      </trkpt>
      <trkpt lat="47.57963" lon="-2.23006">
        <ele>11.60000038147</ele>
        <time>2021-06-27T08:08:02.000Z</time>
      </trkpt>
      <trkpt lat="47.57962" lon="-2.23008">
        <ele>12.199999809265</ele>
        <time>2021-06-27T08:08:03.000Z</time>
      </trkpt>
      <trkpt lat="47.57962" lon="-2.23009">
        <ele>12.60000038147</ele>
        <time>2021-06-27T08:08:04.000Z</time>
      </trkpt>
      <trkpt lat="47.57961" lon="-2.23012">
        <ele>13</ele>
        <time>2021-06-27T08:08:05.000Z</time>
      </trkpt>
      <trkpt lat="47.57959" lon="-2.23021">
        <ele>13.39999961853</ele>
        <time>2021-06-27T08:08:09.000Z</time>
      </trkpt>
      <trkpt lat="47.57958" lon="-2.23023">
        <ele>13.800000190735</ele>
        <time>2021-06-27T08:08:10.000Z</time>
      </trkpt>
      <trkpt lat="47.57958" lon="-2.23025">
        <ele>14.199999809265</ele>
        <time>2021-06-27T08:08:11.000Z</time>
      </trkpt>
      <trkpt lat="47.57958" lon="-2.23027">
        <ele>14.60000038147</ele>
        <time>2021-06-27T08:08:12.000Z</time>
      </trkpt>
      <trkpt lat="47.57957" lon="-2.23028">
        <ele>15</ele>
        <time>2021-06-27T08:08:13.000Z</time>
      </trkpt>
      <trkpt lat="47.57955" lon="-2.23032">
        <ele>15</ele>
        <time>2021-06-27T08:08:16.000Z</time>
      </trkpt>
      <trkpt lat="47.57954" lon="-2.23038">
        <ele>17.200000762939</ele>
        <time>2021-06-27T08:08:52.000Z</time>
      </trkpt>
      <trkpt lat="47.57954" lon="-2.23043">
        <ele>17.200000762939</ele>
        <time>2021-06-27T08:08:53.000Z</time>
      </trkpt>
      <trkpt lat="47.57953" lon="-2.2305">
        <ele>17.60000038147</ele>
        <time>2021-06-27T08:08:55.000Z</time>
      </trkpt>
      <trkpt lat="47.57953" lon="-2.23051">
        <ele>18</ele>
        <time>2021-06-27T08:08:56.000Z</time>
      </trkpt>
      <trkpt lat="47.57953" lon="-2.23052">
        <ele>18.39999961853</ele>
        <time>2021-06-27T08:08:57.000Z</time>
      </trkpt>
      <trkpt lat="47.57952" lon="-2.23054">
        <ele>18.799999237061</ele>
        <time>2021-06-27T08:08:58.000Z</time>
      </trkpt>
      <trkpt lat="47.57952" lon="-2.23056">
        <ele>19.39999961853</ele>
        <time>2021-06-27T08:08:59.000Z</time>
      </trkpt>
      <trkpt lat="47.57949" lon="-2.23062">
        <ele>19.39999961853</ele>
        <time>2021-06-27T08:09:06.000Z</time>
      </trkpt>
      <trkpt lat="47.57945" lon="-2.23062">
        <ele>19.39999961853</ele>
        <time>2021-06-27T08:09:12.000Z</time>
      </trkpt>
      <trkpt lat="47.57938" lon="-2.2305">
        <ele>19.39999961853</ele>
        <time>2021-06-27T08:09:21.000Z</time>
      </trkpt>
      <trkpt lat="47.57932" lon="-2.23044">
        <ele>19.39999961853</ele>
        <time>2021-06-27T08:09:25.000Z</time>
      </trkpt>
      <trkpt lat="47.57929" lon="-2.2304">
        <ele>19.39999961853</ele>
        <time>2021-06-27T08:09:27.000Z</time>
      </trkpt>
      <trkpt lat="47.57927" lon="-2.23032">
        <ele>19.39999961853</ele>
        <time>2021-06-27T08:09:30.000Z</time>
      </trkpt>
      <trkpt lat="47.57927" lon="-2.2303">
        <ele>19.39999961853</ele>
        <time>2021-06-27T08:09:32.000Z</time>
      </trkpt>
      <trkpt lat="47.57929" lon="-2.23019">
        <ele>19.39999961853</ele>
        <time>2021-06-27T08:09:37.000Z</time>
      </trkpt>
      <trkpt lat="47.57931" lon="-2.23016">
        <ele>19.799999237061</ele>
        <time>2021-06-27T08:09:39.000Z</time>
      </trkpt>
      <trkpt lat="47.57932" lon="-2.23014">
        <ele>20.200000762939</ele>
        <time>2021-06-27T08:09:40.000Z</time>
      </trkpt>
      <trkpt lat="47.57934" lon="-2.23011">
        <ele>20.799999237061</ele>
        <time>2021-06-27T08:09:41.000Z</time>
      </trkpt>
      <trkpt lat="47.57935" lon="-2.23009">
        <ele>21.200000762939</ele>
        <time>2021-06-27T08:09:42.000Z</time>
      </trkpt>
      <trkpt lat="47.57935" lon="-2.23006">
        <ele>21.60000038147</ele>
        <time>2021-06-27T08:09:43.000Z</time>
      </trkpt>
      <trkpt lat="47.57936" lon="-2.23003">
        <ele>21.60000038147</ele>
        <time>2021-06-27T08:09:44.000Z</time>
      </trkpt>
      <trkpt lat="47.57936" lon="-2.23">
        <ele>21.60000038147</ele>
        <time>2021-06-27T08:09:45.000Z</time>
      </trkpt>
      <trkpt lat="47.57933" lon="-2.22987">
        <ele>21.60000038147</ele>
        <time>2021-06-27T08:09:50.000Z</time>
      </trkpt>
      <trkpt lat="47.57932" lon="-2.2297">
        <ele>22</ele>
        <time>2021-06-27T08:09:56.000Z</time>
      </trkpt>
      <trkpt lat="47.57932" lon="-2.22967">
        <ele>22.39999961853</ele>
        <time>2021-06-27T08:09:57.000Z</time>
      </trkpt>
      <trkpt lat="47.57932" lon="-2.22965">
        <ele>22.799999237061</ele>
        <time>2021-06-27T08:09:58.000Z</time>
      </trkpt>
      <trkpt lat="47.57931" lon="-2.22963">
        <ele>23.200000762939</ele>
        <time>2021-06-27T08:09:59.000Z</time>
      </trkpt>
      <trkpt lat="47.5793" lon="-2.22961">
        <ele>23.60000038147</ele>
        <time>2021-06-27T08:10:00.000Z</time>
      </trkpt>
      <trkpt lat="47.57929" lon="-2.22955">
        <ele>23.60000038147</ele>
        <time>2021-06-27T08:10:03.000Z</time>
      </trkpt>
      <trkpt lat="47.57929" lon="-2.22939">
        <ele>23.60000038147</ele>
        <time>2021-06-27T08:10:11.000Z</time>
      </trkpt>
      <trkpt lat="47.57929" lon="-2.22933">
        <ele>23.60000038147</ele>
        <time>2021-06-27T08:10:14.000Z</time>
      </trkpt>
      <trkpt lat="47.57931" lon="-2.22949">
        <ele>23.60000038147</ele>
        <time>2021-06-27T08:11:24.000Z</time>
      </trkpt>
      <trkpt lat="47.57932" lon="-2.22952">
        <ele>23.60000038147</ele>
        <time>2021-06-27T08:11:25.000Z</time>
      </trkpt>
      <trkpt lat="47.57932" lon="-2.22976">
        <ele>23.60000038147</ele>
        <time>2021-06-27T08:11:31.000Z</time>
      </trkpt>
      <trkpt lat="47.57932" lon="-2.22992">
        <ele>23.60000038147</ele>
        <time>2021-06-27T08:11:36.000Z</time>
      </trkpt>
      <trkpt lat="47.5793" lon="-2.23003">
        <ele>23.60000038147</ele>
        <time>2021-06-27T08:11:40.000Z</time>
      </trkpt>
      <trkpt lat="47.57928" lon="-2.23006">
        <ele>23.60000038147</ele>
        <time>2021-06-27T08:11:42.000Z</time>
      </trkpt>
      <trkpt lat="47.57926" lon="-2.23008">
        <ele>23.200000762939</ele>
        <time>2021-06-27T08:11:44.000Z</time>
      </trkpt>
      <trkpt lat="47.57926" lon="-2.23008">
        <ele>22.799999237061</ele>
        <time>2021-06-27T08:11:45.000Z</time>
      </trkpt>
      <trkpt lat="47.57926" lon="-2.23009">
        <ele>22.39999961853</ele>
        <time>2021-06-27T08:11:46.000Z</time>
      </trkpt>
      <trkpt lat="47.57917" lon="-2.23039">
        <ele>18.39999961853</ele>
        <time>2021-06-27T08:14:09.000Z</time>
      </trkpt>
      <trkpt lat="47.57916" lon="-2.23041">
        <ele>18</ele>
        <time>2021-06-27T08:14:10.000Z</time>
      </trkpt>
      <trkpt lat="47.57915" lon="-2.23043">
        <ele>17.60000038147</ele>
        <time>2021-06-27T08:14:11.000Z</time>
      </trkpt>
      <trkpt lat="47.57914" lon="-2.23045">
        <ele>17.200000762939</ele>
        <time>2021-06-27T08:14:12.000Z</time>
      </trkpt>
      <trkpt lat="47.57913" lon="-2.23048">
        <ele>16.60000038147</ele>
        <time>2021-06-27T08:14:13.000Z</time>
      </trkpt>
      <trkpt lat="47.57913" lon="-2.23051">
        <ele>16.200000762939</ele>
        <time>2021-06-27T08:14:14.000Z</time>
      </trkpt>
      <trkpt lat="47.57913" lon="-2.23054">
        <ele>15.60000038147</ele>
        <time>2021-06-27T08:14:15.000Z</time>
      </trkpt>
      <trkpt lat="47.57912" lon="-2.23057">
        <ele>15.199999809265</ele>
        <time>2021-06-27T08:14:16.000Z</time>
      </trkpt>
      <trkpt lat="47.57911" lon="-2.23059">
        <ele>14.60000038147</ele>
        <time>2021-06-27T08:14:17.000Z</time>
      </trkpt>
      <trkpt lat="47.5791" lon="-2.23061">
        <ele>14.60000038147</ele>
        <time>2021-06-27T08:14:18.000Z</time>
      </trkpt>
      <trkpt lat="47.57909" lon="-2.23062">
        <ele>14.199999809265</ele>
        <time>2021-06-27T08:14:19.000Z</time>
      </trkpt>
      <trkpt lat="47.57908" lon="-2.23063">
        <ele>13.800000190735</ele>
        <time>2021-06-27T08:14:20.000Z</time>
      </trkpt>
      <trkpt lat="47.57906" lon="-2.23065">
        <ele>13.199999809265</ele>
        <time>2021-06-27T08:14:21.000Z</time>
      </trkpt>
      <trkpt lat="47.57906" lon="-2.23065">
        <ele>12.800000190735</ele>
        <time>2021-06-27T08:14:22.000Z</time>
      </trkpt>
      <trkpt lat="47.57903" lon="-2.23066">
        <ele>12.39999961853</ele>
        <time>2021-06-27T08:14:23.000Z</time>
      </trkpt>
      <trkpt lat="47.57902" lon="-2.23067">
        <ele>11.800000190735</ele>
        <time>2021-06-27T08:14:24.000Z</time>
      </trkpt>
      <trkpt lat="47.579" lon="-2.23067">
        <ele>11.39999961853</ele>
        <time>2021-06-27T08:14:25.000Z</time>
      </trkpt>
      <trkpt lat="47.57899" lon="-2.23068">
        <ele>10.800000190735</ele>
        <time>2021-06-27T08:14:26.000Z</time>
      </trkpt>
      <trkpt lat="47.57896" lon="-2.23068">
        <ele>10.39999961853</ele>
        <time>2021-06-27T08:14:27.000Z</time>
      </trkpt>
      <trkpt lat="47.57893" lon="-2.23067">
        <ele>10</ele>
        <time>2021-06-27T08:14:28.000Z</time>
      </trkpt>
      <trkpt lat="47.57891" lon="-2.23066">
        <ele>9.3999996185303</ele>
        <time>2021-06-27T08:14:29.000Z</time>
      </trkpt>
      <trkpt lat="47.57888" lon="-2.23065">
        <ele>9</ele>
        <time>2021-06-27T08:14:30.000Z</time>
      </trkpt>
      <trkpt lat="47.57885" lon="-2.23065">
        <ele>8.6000003814697</ele>
        <time>2021-06-27T08:14:31.000Z</time>
      </trkpt>
      <trkpt lat="47.57882" lon="-2.23065">
        <ele>8</ele>
        <time>2021-06-27T08:14:32.000Z</time>
      </trkpt>
      <trkpt lat="47.57878" lon="-2.23066">
        <ele>6.8000001907349</ele>
        <time>2021-06-27T08:14:33.000Z</time>
      </trkpt>
      <trkpt lat="47.57875" lon="-2.23067">
        <ele>6.1999998092651</ele>
        <time>2021-06-27T08:14:34.000Z</time>
      </trkpt>
      <trkpt lat="47.57872" lon="-2.2307">
        <ele>5.5999999046326</ele>
        <time>2021-06-27T08:14:35.000Z</time>
      </trkpt>
      <trkpt lat="47.5787" lon="-2.23072">
        <ele>4.8000001907349</ele>
        <time>2021-06-27T08:14:36.000Z</time>
      </trkpt>
      <trkpt lat="47.57867" lon="-2.23074">
        <ele>4.1999998092651</ele>
        <time>2021-06-27T08:14:37.000Z</time>
      </trkpt>
      <trkpt lat="47.57865" lon="-2.23077">
        <ele>3.4000000953674</ele>
        <time>2021-06-27T08:14:38.000Z</time>
      </trkpt>
      <trkpt lat="47.57862" lon="-2.2308">
        <ele>2.7999999523163</ele>
        <time>2021-06-27T08:14:39.000Z</time>
      </trkpt>
      <trkpt lat="47.57859" lon="-2.23084">
        <ele>2</ele>
        <time>2021-06-27T08:14:40.000Z</time>
      </trkpt>
      <trkpt lat="47.57857" lon="-2.23087">
        <ele>1.2000000476837</ele>
        <time>2021-06-27T08:14:41.000Z</time>
      </trkpt>
      <trkpt lat="47.57853" lon="-2.23091">
        <ele>0.40000000596046</ele>
        <time>2021-06-27T08:14:42.000Z</time>
      </trkpt>
      <trkpt lat="47.5785" lon="-2.23093">
        <ele>-0.40000000596046</ele>
        <time>2021-06-27T08:14:43.000Z</time>
      </trkpt>
      <trkpt lat="47.57848" lon="-2.23096">
        <ele>-1.3999999761581</ele>
        <time>2021-06-27T08:14:44.000Z</time>
      </trkpt>
      <trkpt lat="47.57845" lon="-2.23101">
        <ele>-2.2000000476837</ele>
        <time>2021-06-27T08:14:45.000Z</time>
      </trkpt>
      <trkpt lat="47.57843" lon="-2.23105">
        <ele>-3.2000000476837</ele>
        <time>2021-06-27T08:14:46.000Z</time>
      </trkpt>
      <trkpt lat="47.57842" lon="-2.23111">
        <ele>-4.1999998092651</ele>
        <time>2021-06-27T08:14:47.000Z</time>
      </trkpt>
      <trkpt lat="47.57841" lon="-2.23116">
        <ele>-5.1999998092651</ele>
        <time>2021-06-27T08:14:48.000Z</time>
      </trkpt>
      <trkpt lat="47.57841" lon="-2.23121">
        <ele>-6.1999998092651</ele>
        <time>2021-06-27T08:14:49.000Z</time>
      </trkpt>
      <trkpt lat="47.5784" lon="-2.23124">
        <ele>-7</ele>
        <time>2021-06-27T08:14:50.000Z</time>
      </trkpt>
      <trkpt lat="47.57838" lon="-2.23127">
        <ele>-8</ele>
        <time>2021-06-27T08:14:51.000Z</time>
      </trkpt>
      <trkpt lat="47.57837" lon="-2.23131">
        <ele>-9</ele>
        <time>2021-06-27T08:14:52.000Z</time>
      </trkpt>
      <trkpt lat="47.57835" lon="-2.23136">
        <ele>-9.8000001907349</ele>
        <time>2021-06-27T08:14:53.000Z</time>
      </trkpt>
      <trkpt lat="47.57836" lon="-2.23143">
        <ele>-10.800000190735</ele>
        <time>2021-06-27T08:14:54.000Z</time>
      </trkpt>
      <trkpt lat="47.57838" lon="-2.23149">
        <ele>-11.60000038147</ele>
        <time>2021-06-27T08:14:55.000Z</time>
      </trkpt>
      <trkpt lat="47.5784" lon="-2.23154">
        <ele>-12.199999809265</ele>
        <time>2021-06-27T08:14:56.000Z</time>
      </trkpt>
      <trkpt lat="47.57842" lon="-2.23159">
        <ele>-13.39999961853</ele>
        <time>2021-06-27T08:14:57.000Z</time>
      </trkpt>
      <trkpt lat="47.57844" lon="-2.23164">
        <ele>-14.199999809265</ele>
        <time>2021-06-27T08:14:58.000Z</time>
      </trkpt>
      <trkpt lat="47.57847" lon="-2.2317">
        <ele>-14.800000190735</ele>
        <time>2021-06-27T08:14:59.000Z</time>
      </trkpt>
      <trkpt lat="47.57851" lon="-2.23181">
        <ele>-14.800000190735</ele>
        <time>2021-06-27T08:15:01.000Z</time>
      </trkpt>
      <trkpt lat="47.57852" lon="-2.23187">
        <ele>-15.199999809265</ele>
        <time>2021-06-27T08:15:02.000Z</time>
      </trkpt>
      <trkpt lat="47.57852" lon="-2.23192">
        <ele>-15.60000038147</ele>
        <time>2021-06-27T08:15:03.000Z</time>
      </trkpt>
      <trkpt lat="47.57851" lon="-2.23198">
        <ele>-16.200000762939</ele>
        <time>2021-06-27T08:15:04.000Z</time>
      </trkpt>
      <trkpt lat="47.57847" lon="-2.23203">
        <ele>-16.60000038147</ele>
        <time>2021-06-27T08:15:05.000Z</time>
      </trkpt>
      <trkpt lat="47.57841" lon="-2.23207">
        <ele>-17</ele>
        <time>2021-06-27T08:15:06.000Z</time>
      </trkpt>
      <trkpt lat="47.57837" lon="-2.2321">
        <ele>-17</ele>
        <time>2021-06-27T08:15:07.000Z</time>
      </trkpt>
      <trkpt lat="47.57832" lon="-2.23211">
        <ele>-17</ele>
        <time>2021-06-27T08:15:08.000Z</time>
      </trkpt>
      <trkpt lat="47.57821" lon="-2.23211">
        <ele>-17</ele>
        <time>2021-06-27T08:15:10.000Z</time>
      </trkpt>
      <trkpt lat="47.57803" lon="-2.23213">
        <ele>-17.39999961853</ele>
        <time>2021-06-27T08:15:14.000Z</time>
      </trkpt>
      <trkpt lat="47.57798" lon="-2.23214">
        <ele>-18</ele>
        <time>2021-06-27T08:15:15.000Z</time>
      </trkpt>
      <trkpt lat="47.57794" lon="-2.23216">
        <ele>-18.39999961853</ele>
        <time>2021-06-27T08:15:16.000Z</time>
      </trkpt>
      <trkpt lat="47.5779" lon="-2.23218">
        <ele>-18.799999237061</ele>
        <time>2021-06-27T08:15:17.000Z</time>
      </trkpt>
      <trkpt lat="47.57785" lon="-2.2322">
        <ele>-19.200000762939</ele>
        <time>2021-06-27T08:15:18.000Z</time>
      </trkpt>
      <trkpt lat="47.57767" lon="-2.23233">
        <ele>-19.200000762939</ele>
        <time>2021-06-27T08:15:23.000Z</time>
      </trkpt>
      <trkpt lat="47.57742" lon="-2.23257">
        <ele>-19.200000762939</ele>
        <time>2021-06-27T08:15:30.000Z</time>
      </trkpt>
      <trkpt lat="47.57712" lon="-2.23285">
        <ele>-19.200000762939</ele>
        <time>2021-06-27T08:15:38.000Z</time>
      </trkpt>
      <trkpt lat="47.57686" lon="-2.23307">
        <ele>-19.200000762939</ele>
        <time>2021-06-27T08:15:45.000Z</time>
      </trkpt>
      <trkpt lat="47.57679" lon="-2.23315">
        <ele>-19.200000762939</ele>
        <time>2021-06-27T08:15:47.000Z</time>
      </trkpt>
      <trkpt lat="47.5767" lon="-2.23326">
        <ele>-19.200000762939</ele>
        <time>2021-06-27T08:15:50.000Z</time>
      </trkpt>
      <trkpt lat="47.57651" lon="-2.23342">
        <ele>-19.200000762939</ele>
        <time>2021-06-27T08:15:56.000Z</time>
      </trkpt>
      <trkpt lat="47.57625" lon="-2.23365">
        <ele>-19.200000762939</ele>
        <time>2021-06-27T08:16:04.000Z</time>
      </trkpt>
      <trkpt lat="47.57597" lon="-2.23392">
        <ele>-19.200000762939</ele>
        <time>2021-06-27T08:16:12.000Z</time>
      </trkpt>
      <trkpt lat="47.57572" lon="-2.23414">
        <ele>-19.200000762939</ele>
        <time>2021-06-27T08:16:19.000Z</time>
      </trkpt>
      <trkpt lat="47.57545" lon="-2.23437">
        <ele>-19.200000762939</ele>
        <time>2021-06-27T08:16:26.000Z</time>
      </trkpt>
      <trkpt lat="47.5751" lon="-2.23456">
        <ele>-19.200000762939</ele>
        <time>2021-06-27T08:16:35.000Z</time>
      </trkpt>
      <trkpt lat="47.57483" lon="-2.2347">
        <ele>-19.200000762939</ele>
        <time>2021-06-27T08:16:43.000Z</time>
      </trkpt>
      <trkpt lat="47.57466" lon="-2.23478">
        <ele>-18.799999237061</ele>
        <time>2021-06-27T08:16:48.000Z</time>
      </trkpt>
      <trkpt lat="47.57463" lon="-2.2348">
        <ele>-18.39999961853</ele>
        <time>2021-06-27T08:16:49.000Z</time>
      </trkpt>
      <trkpt lat="47.57459" lon="-2.23482">
        <ele>-18</ele>
        <time>2021-06-27T08:16:50.000Z</time>
      </trkpt>
      <trkpt lat="47.57456" lon="-2.23484">
        <ele>-17.39999961853</ele>
        <time>2021-06-27T08:16:51.000Z</time>
      </trkpt>
      <trkpt lat="47.57453" lon="-2.23487">
        <ele>-17</ele>
        <time>2021-06-27T08:16:52.000Z</time>
      </trkpt>
      <trkpt lat="47.57435" lon="-2.23506">
        <ele>-16.60000038147</ele>
        <time>2021-06-27T08:16:58.000Z</time>
      </trkpt>
      <trkpt lat="47.57433" lon="-2.23511">
        <ele>-15.800000190735</ele>
        <time>2021-06-27T08:16:59.000Z</time>
      </trkpt>
      <trkpt lat="47.57431" lon="-2.23515">
        <ele>-15.199999809265</ele>
        <time>2021-06-27T08:17:00.000Z</time>
      </trkpt>
      <trkpt lat="47.57429" lon="-2.2352">
        <ele>-14.800000190735</ele>
        <time>2021-06-27T08:17:01.000Z</time>
      </trkpt>
      <trkpt lat="47.57419" lon="-2.23545">
        <ele>-14.800000190735</ele>
        <time>2021-06-27T08:17:07.000Z</time>
      </trkpt>
      <trkpt lat="47.57418" lon="-2.23548">
        <ele>-14.39999961853</ele>
        <time>2021-06-27T08:17:08.000Z</time>
      </trkpt>
      <trkpt lat="47.57417" lon="-2.23553">
        <ele>-14</ele>
        <time>2021-06-27T08:17:09.000Z</time>
      </trkpt>
      <trkpt lat="47.57416" lon="-2.23556">
        <ele>-13.39999961853</ele>
        <time>2021-06-27T08:17:10.000Z</time>
      </trkpt>
      <trkpt lat="47.57414" lon="-2.2356">
        <ele>-13</ele>
        <time>2021-06-27T08:17:11.000Z</time>
      </trkpt>
      <trkpt lat="47.57413" lon="-2.23565">
        <ele>-12.60000038147</ele>
        <time>2021-06-27T08:17:12.000Z</time>
      </trkpt>
      <trkpt lat="47.57411" lon="-2.23574">
        <ele>-12.60000038147</ele>
        <time>2021-06-27T08:17:14.000Z</time>
      </trkpt>
      <trkpt lat="47.57411" lon="-2.23578">
        <ele>-12.199999809265</ele>
        <time>2021-06-27T08:17:15.000Z</time>
      </trkpt>
      <trkpt lat="47.5741" lon="-2.23581">
        <ele>-11.800000190735</ele>
        <time>2021-06-27T08:17:16.000Z</time>
      </trkpt>
      <trkpt lat="47.5741" lon="-2.23585">
        <ele>-11.39999961853</ele>
        <time>2021-06-27T08:17:17.000Z</time>
      </trkpt>
      <trkpt lat="47.57408" lon="-2.23588">
        <ele>-11</ele>
        <time>2021-06-27T08:17:18.000Z</time>
      </trkpt>
      <trkpt lat="47.57407" lon="-2.23592">
        <ele>-10.60000038147</ele>
        <time>2021-06-27T08:17:19.000Z</time>
      </trkpt>
      <trkpt lat="47.57405" lon="-2.23595">
        <ele>-10.60000038147</ele>
        <time>2021-06-27T08:17:20.000Z</time>
      </trkpt>
      <trkpt lat="47.57403" lon="-2.23598">
        <ele>-10.199999809265</ele>
        <time>2021-06-27T08:17:21.000Z</time>
      </trkpt>
      <trkpt lat="47.57401" lon="-2.23601">
        <ele>-9.8000001907349</ele>
        <time>2021-06-27T08:17:22.000Z</time>
      </trkpt>
      <trkpt lat="47.574" lon="-2.23605">
        <ele>-9.3999996185303</ele>
        <time>2021-06-27T08:17:23.000Z</time>
      </trkpt>
      <trkpt lat="47.57399" lon="-2.23608">
        <ele>-8.6000003814697</ele>
        <time>2021-06-27T08:17:24.000Z</time>
      </trkpt>
      <trkpt lat="47.57395" lon="-2.23617">
        <ele>-8.6000003814697</ele>
        <time>2021-06-27T08:17:27.000Z</time>
      </trkpt>
      <trkpt lat="47.5739" lon="-2.23623">
        <ele>-8.1999998092651</ele>
        <time>2021-06-27T08:17:29.000Z</time>
      </trkpt>
      <trkpt lat="47.57387" lon="-2.23627">
        <ele>-7.8000001907349</ele>
        <time>2021-06-27T08:17:30.000Z</time>
      </trkpt>
      <trkpt lat="47.57385" lon="-2.2363">
        <ele>-7.1999998092651</ele>
        <time>2021-06-27T08:17:31.000Z</time>
      </trkpt>
      <trkpt lat="47.57383" lon="-2.23634">
        <ele>-6.8000001907349</ele>
        <time>2021-06-27T08:17:32.000Z</time>
      </trkpt>
      <trkpt lat="47.5738" lon="-2.23637">
        <ele>-6.4000000953674</ele>
        <time>2021-06-27T08:17:33.000Z</time>
      </trkpt>
      <trkpt lat="47.57373" lon="-2.23643">
        <ele>-6</ele>
        <time>2021-06-27T08:17:36.000Z</time>
      </trkpt>
      <trkpt lat="47.57369" lon="-2.23645">
        <ele>-5.5999999046326</ele>
        <time>2021-06-27T08:17:37.000Z</time>
      </trkpt>
      <trkpt lat="47.57367" lon="-2.23646">
        <ele>-5.1999998092651</ele>
        <time>2021-06-27T08:17:38.000Z</time>
      </trkpt>
      <trkpt lat="47.57364" lon="-2.23648">
        <ele>-4.5999999046326</ele>
        <time>2021-06-27T08:17:39.000Z</time>
      </trkpt>
      <trkpt lat="47.57361" lon="-2.23649">
        <ele>-4.1999998092651</ele>
        <time>2021-06-27T08:17:40.000Z</time>
      </trkpt>
      <trkpt lat="47.57346" lon="-2.23658">
        <ele>-4.1999998092651</ele>
        <time>2021-06-27T08:17:45.000Z</time>
      </trkpt>
      <trkpt lat="47.57333" lon="-2.23663">
        <ele>-3.7999999523163</ele>
        <time>2021-06-27T08:17:49.000Z</time>
      </trkpt>
      <trkpt lat="47.57331" lon="-2.23664">
        <ele>-3.4000000953674</ele>
        <time>2021-06-27T08:17:50.000Z</time>
      </trkpt>
      <trkpt lat="47.57328" lon="-2.23665">
        <ele>-2.7999999523163</ele>
        <time>2021-06-27T08:17:51.000Z</time>
      </trkpt>
      <trkpt lat="47.57324" lon="-2.23667">
        <ele>-2.4000000953674</ele>
        <time>2021-06-27T08:17:52.000Z</time>
      </trkpt>
      <trkpt lat="47.57322" lon="-2.23668">
        <ele>-2</ele>
        <time>2021-06-27T08:17:53.000Z</time>
      </trkpt>
      <trkpt lat="47.57309" lon="-2.23674">
        <ele>-1.6000000238419</ele>
        <time>2021-06-27T08:17:57.000Z</time>
      </trkpt>
      <trkpt lat="47.57306" lon="-2.23675">
        <ele>-1.2000000476837</ele>
        <time>2021-06-27T08:17:58.000Z</time>
      </trkpt>
      <trkpt lat="47.57302" lon="-2.23677">
        <ele>-0.80000001192093</ele>
        <time>2021-06-27T08:17:59.000Z</time>
      </trkpt>
      <trkpt lat="47.57299" lon="-2.23678">
        <ele>-0.40000000596046</ele>
        <time>2021-06-27T08:18:00.000Z</time>
      </trkpt>
      <trkpt lat="47.57296" lon="-2.23679">
        <ele>27</ele>
        <time>2021-06-27T08:18:01.000Z</time>
      </trkpt>
      <trkpt lat="47.57293" lon="-2.23681">
        <ele>27.2</ele>
        <time>2021-06-27T08:18:02.000Z</time>
      </trkpt>
      <trkpt lat="47.57275" lon="-2.23689">
        <ele>0.40000000596046</ele>
        <time>2021-06-27T08:18:08.000Z</time>
      </trkpt>
      <trkpt lat="47.57272" lon="-2.23691">
        <ele>0.80000001192093</ele>
        <time>2021-06-27T08:18:09.000Z</time>
      </trkpt>
      <trkpt lat="47.57269" lon="-2.23692">
        <ele>1.2000000476837</ele>
        <time>2021-06-27T08:18:10.000Z</time>
      </trkpt>
      <trkpt lat="47.57266" lon="-2.23694">
        <ele>1.6000000238419</ele>
        <time>2021-06-27T08:18:11.000Z</time>
      </trkpt>
      <trkpt lat="47.57263" lon="-2.23695">
        <ele>2</ele>
        <time>2021-06-27T08:18:12.000Z</time>
      </trkpt>
      <trkpt lat="47.5725" lon="-2.23701">
        <ele>2.4000000953674</ele>
        <time>2021-06-27T08:18:16.000Z</time>
      </trkpt>
      <trkpt lat="47.57247" lon="-2.23703">
        <ele>2.7999999523163</ele>
        <time>2021-06-27T08:18:17.000Z</time>
      </trkpt>
      <trkpt lat="47.57244" lon="-2.23704">
        <ele>3.4000000953674</ele>
        <time>2021-06-27T08:18:18.000Z</time>
      </trkpt>
      <trkpt lat="47.5724" lon="-2.23705">
        <ele>3.7999999523163</ele>
        <time>2021-06-27T08:18:19.000Z</time>
      </trkpt>
      <trkpt lat="47.57237" lon="-2.23706">
        <ele>4.1999998092651</ele>
        <time>2021-06-27T08:18:20.000Z</time>
      </trkpt>
      <trkpt lat="47.5721" lon="-2.23718">
        <ele>4.1999998092651</ele>
        <time>2021-06-27T08:18:28.000Z</time>
      </trkpt>
      <trkpt lat="47.57196" lon="-2.23724">
        <ele>4.5999999046326</ele>
        <time>2021-06-27T08:18:32.000Z</time>
      </trkpt>
      <trkpt lat="47.57193" lon="-2.23725">
        <ele>5</ele>
        <time>2021-06-27T08:18:33.000Z</time>
      </trkpt>
      <trkpt lat="47.5719" lon="-2.23727">
        <ele>5.4000000953674</ele>
        <time>2021-06-27T08:18:34.000Z</time>
      </trkpt>
      <trkpt lat="47.57187" lon="-2.23729">
        <ele>5.8000001907349</ele>
        <time>2021-06-27T08:18:35.000Z</time>
      </trkpt>
      <trkpt lat="47.57183" lon="-2.23731">
        <ele>6.1999998092651</ele>
        <time>2021-06-27T08:18:36.000Z</time>
      </trkpt>
      <trkpt lat="47.57158" lon="-2.23741">
        <ele>6.1999998092651</ele>
        <time>2021-06-27T08:18:43.000Z</time>
      </trkpt>
      <trkpt lat="47.57143" lon="-2.23749">
        <ele>6.5999999046326</ele>
        <time>2021-06-27T08:18:47.000Z</time>
      </trkpt>
      <trkpt lat="47.57139" lon="-2.23751">
        <ele>7</ele>
        <time>2021-06-27T08:18:48.000Z</time>
      </trkpt>
      <trkpt lat="47.57135" lon="-2.23753">
        <ele>7.4000000953674</ele>
        <time>2021-06-27T08:18:49.000Z</time>
      </trkpt>
      <trkpt lat="47.57131" lon="-2.23755">
        <ele>7.8000001907349</ele>
        <time>2021-06-27T08:18:50.000Z</time>
      </trkpt>
      <trkpt lat="47.57128" lon="-2.23757">
        <ele>8.1999998092651</ele>
        <time>2021-06-27T08:18:51.000Z</time>
      </trkpt>
      <trkpt lat="47.57105" lon="-2.23767">
        <ele>8.1999998092651</ele>
        <time>2021-06-27T08:18:57.000Z</time>
      </trkpt>
      <trkpt lat="47.57081" lon="-2.23782">
        <ele>8.1999998092651</ele>
        <time>2021-06-27T08:19:04.000Z</time>
      </trkpt>
      <trkpt lat="47.57078" lon="-2.23785">
        <ele>8.6000003814697</ele>
        <time>2021-06-27T08:19:05.000Z</time>
      </trkpt>
      <trkpt lat="47.57075" lon="-2.23787">
        <ele>9</ele>
        <time>2021-06-27T08:19:06.000Z</time>
      </trkpt>
      <trkpt lat="47.57072" lon="-2.2379">
        <ele>9.6000003814697</ele>
        <time>2021-06-27T08:19:07.000Z</time>
      </trkpt>
      <trkpt lat="47.57069" lon="-2.23793">
        <ele>10</ele>
        <time>2021-06-27T08:19:08.000Z</time>
      </trkpt>
      <trkpt lat="47.57066" lon="-2.23796">
        <ele>10.39999961853</ele>
        <time>2021-06-27T08:19:09.000Z</time>
      </trkpt>
      <trkpt lat="47.5706" lon="-2.23802">
        <ele>10.39999961853</ele>
        <time>2021-06-27T08:19:11.000Z</time>
      </trkpt>
      <trkpt lat="47.57042" lon="-2.23825">
        <ele>10.39999961853</ele>
        <time>2021-06-27T08:19:18.000Z</time>
      </trkpt>
      <trkpt lat="47.57036" lon="-2.23845">
        <ele>10.800000190735</ele>
        <time>2021-06-27T08:19:23.000Z</time>
      </trkpt>
      <trkpt lat="47.57035" lon="-2.23849">
        <ele>11.199999809265</ele>
        <time>2021-06-27T08:19:24.000Z</time>
      </trkpt>
      <trkpt lat="47.57035" lon="-2.23854">
        <ele>11.60000038147</ele>
        <time>2021-06-27T08:19:25.000Z</time>
      </trkpt>
      <trkpt lat="47.57034" lon="-2.23858">
        <ele>12</ele>
        <time>2021-06-27T08:19:26.000Z</time>
      </trkpt>
      <trkpt lat="47.57033" lon="-2.23862">
        <ele>12.39999961853</ele>
        <time>2021-06-27T08:19:27.000Z</time>
      </trkpt>
      <trkpt lat="47.57031" lon="-2.23885">
        <ele>12.39999961853</ele>
        <time>2021-06-27T08:19:32.000Z</time>
      </trkpt>
      <trkpt lat="47.57029" lon="-2.2391">
        <ele>12.800000190735</ele>
        <time>2021-06-27T08:19:37.000Z</time>
      </trkpt>
      <trkpt lat="47.57029" lon="-2.23915">
        <ele>13.199999809265</ele>
        <time>2021-06-27T08:19:38.000Z</time>
      </trkpt>
      <trkpt lat="47.57029" lon="-2.2392">
        <ele>13.60000038147</ele>
        <time>2021-06-27T08:19:39.000Z</time>
      </trkpt>
      <trkpt lat="47.57029" lon="-2.23925">
        <ele>14.199999809265</ele>
        <time>2021-06-27T08:19:40.000Z</time>
      </trkpt>
      <trkpt lat="47.57028" lon="-2.2393">
        <ele>14.60000038147</ele>
        <time>2021-06-27T08:19:41.000Z</time>
      </trkpt>
      <trkpt lat="47.57026" lon="-2.2396">
        <ele>14.60000038147</ele>
        <time>2021-06-27T08:19:47.000Z</time>
      </trkpt>
      <trkpt lat="47.57024" lon="-2.23975">
        <ele>15</ele>
        <time>2021-06-27T08:19:50.000Z</time>
      </trkpt>
      <trkpt lat="47.57024" lon="-2.2398">
        <ele>15.39999961853</ele>
        <time>2021-06-27T08:19:51.000Z</time>
      </trkpt>
      <trkpt lat="47.57023" lon="-2.23985">
        <ele>15.800000190735</ele>
        <time>2021-06-27T08:19:52.000Z</time>
      </trkpt>
      <trkpt lat="47.57023" lon="-2.23991">
        <ele>16.60000038147</ele>
        <time>2021-06-27T08:19:53.000Z</time>
      </trkpt>
      <trkpt lat="47.57021" lon="-2.24006">
        <ele>16.60000038147</ele>
        <time>2021-06-27T08:19:56.000Z</time>
      </trkpt>
      <trkpt lat="47.57019" lon="-2.24034">
        <ele>17</ele>
        <time>2021-06-27T08:20:01.000Z</time>
      </trkpt>
      <trkpt lat="47.57018" lon="-2.24038">
        <ele>17.39999961853</ele>
        <time>2021-06-27T08:20:02.000Z</time>
      </trkpt>
      <trkpt lat="47.57018" lon="-2.24044">
        <ele>17.799999237061</ele>
        <time>2021-06-27T08:20:03.000Z</time>
      </trkpt>
      <trkpt lat="47.57017" lon="-2.24049">
        <ele>18.200000762939</ele>
        <time>2021-06-27T08:20:04.000Z</time>
      </trkpt>
      <trkpt lat="47.57016" lon="-2.24054">
        <ele>18.799999237061</ele>
        <time>2021-06-27T08:20:05.000Z</time>
      </trkpt>
      <trkpt lat="47.57014" lon="-2.2408">
        <ele>19.200000762939</ele>
        <time>2021-06-27T08:20:10.000Z</time>
      </trkpt>
      <trkpt lat="47.57014" lon="-2.24085">
        <ele>19.60000038147</ele>
        <time>2021-06-27T08:20:11.000Z</time>
      </trkpt>
      <trkpt lat="47.57014" lon="-2.24089">
        <ele>20</ele>
        <time>2021-06-27T08:20:12.000Z</time>
      </trkpt>
      <trkpt lat="47.57013" lon="-2.24094">
        <ele>20.39999961853</ele>
        <time>2021-06-27T08:20:13.000Z</time>
      </trkpt>
      <trkpt lat="47.57013" lon="-2.24099">
        <ele>20.799999237061</ele>
        <time>2021-06-27T08:20:14.000Z</time>
      </trkpt>
      <trkpt lat="47.57011" lon="-2.24123">
        <ele>20.799999237061</ele>
        <time>2021-06-27T08:20:19.000Z</time>
      </trkpt>
      <trkpt lat="47.57009" lon="-2.24132">
        <ele>21.200000762939</ele>
        <time>2021-06-27T08:20:21.000Z</time>
      </trkpt>
      <trkpt lat="47.57009" lon="-2.24138">
        <ele>21.799999237061</ele>
        <time>2021-06-27T08:20:22.000Z</time>
      </trkpt>
      <trkpt lat="47.57008" lon="-2.24143">
        <ele>22.200000762939</ele>
        <time>2021-06-27T08:20:23.000Z</time>
      </trkpt>
      <trkpt lat="47.57007" lon="-2.24148">
        <ele>22.60000038147</ele>
        <time>2021-06-27T08:20:24.000Z</time>
      </trkpt>
      <trkpt lat="47.57005" lon="-2.24152">
        <ele>23</ele>
        <time>2021-06-27T08:20:25.000Z</time>
      </trkpt>
      <trkpt lat="47.56993" lon="-2.24175">
        <ele>23.39999961853</ele>
        <time>2021-06-27T08:20:31.000Z</time>
      </trkpt>
      <trkpt lat="47.56991" lon="-2.24177">
        <ele>23.799999237061</ele>
        <time>2021-06-27T08:20:32.000Z</time>
      </trkpt>
      <trkpt lat="47.56989" lon="-2.2418">
        <ele>24.200000762939</ele>
        <time>2021-06-27T08:20:33.000Z</time>
      </trkpt>
      <trkpt lat="47.56986" lon="-2.24184">
        <ele>24.799999237061</ele>
        <time>2021-06-27T08:20:34.000Z</time>
      </trkpt>
      <trkpt lat="47.56983" lon="-2.24187">
        <ele>25.200000762939</ele>
        <time>2021-06-27T08:20:35.000Z</time>
      </trkpt>
      <trkpt lat="47.56977" lon="-2.2419">
        <ele>25.200000762939</ele>
        <time>2021-06-27T08:20:37.000Z</time>
      </trkpt>
      <trkpt lat="47.56974" lon="-2.24191">
        <ele>25.60000038147</ele>
        <time>2021-06-27T08:20:38.000Z</time>
      </trkpt>
      <trkpt lat="47.56971" lon="-2.24192">
        <ele>26.200000762939</ele>
        <time>2021-06-27T08:20:39.000Z</time>
      </trkpt>
      <trkpt lat="47.56968" lon="-2.24192">
        <ele>26.60000038147</ele>
        <time>2021-06-27T08:20:40.000Z</time>
      </trkpt>
      <trkpt lat="47.56965" lon="-2.24193">
        <ele>27</ele>
        <time>2021-06-27T08:20:41.000Z</time>
      </trkpt>
      <trkpt lat="47.56962" lon="-2.24194">
        <ele>27.60000038147</ele>
        <time>2021-06-27T08:20:42.000Z</time>
      </trkpt>
      <trkpt lat="47.56959" lon="-2.24196">
        <ele>27.60000038147</ele>
        <time>2021-06-27T08:20:43.000Z</time>
      </trkpt>
      <trkpt lat="47.56944" lon="-2.24204">
        <ele>28</ele>
        <time>2021-06-27T08:20:48.000Z</time>
      </trkpt>
      <trkpt lat="47.56941" lon="-2.24205">
        <ele>28.39999961853</ele>
        <time>2021-06-27T08:20:49.000Z</time>
      </trkpt>
      <trkpt lat="47.56938" lon="-2.24207">
        <ele>28.799999237061</ele>
        <time>2021-06-27T08:20:50.000Z</time>
      </trkpt>
      <trkpt lat="47.56934" lon="-2.24209">
        <ele>29.200000762939</ele>
        <time>2021-06-27T08:20:51.000Z</time>
      </trkpt>
      <trkpt lat="47.56932" lon="-2.24211">
        <ele>29.60000038147</ele>
        <time>2021-06-27T08:20:52.000Z</time>
      </trkpt>
      <trkpt lat="47.5692" lon="-2.24216">
        <ele>29.60000038147</ele>
        <time>2021-06-27T08:20:57.000Z</time>
      </trkpt>
      <trkpt lat="47.56913" lon="-2.24219">
        <ele>29.60000038147</ele>
        <time>2021-06-27T08:21:02.000Z</time>
      </trkpt>
      <trkpt lat="47.56912" lon="-2.2422">
        <ele>29.60000038147</ele>
        <time>2021-06-27T08:21:53.000Z</time>
      </trkpt>
      <trkpt lat="47.56902" lon="-2.24227">
        <ele>29.60000038147</ele>
        <time>2021-06-27T08:21:58.000Z</time>
      </trkpt>
      <trkpt lat="47.5689" lon="-2.24233">
        <ele>29.60000038147</ele>
        <time>2021-06-27T08:22:01.000Z</time>
      </trkpt>
      <trkpt lat="47.56881" lon="-2.24238">
        <ele>29.60000038147</ele>
        <time>2021-06-27T08:22:03.000Z</time>
      </trkpt>
      <trkpt lat="47.56848" lon="-2.24256">
        <ele>29.60000038147</ele>
        <time>2021-06-27T08:22:09.000Z</time>
      </trkpt>
      <trkpt lat="47.56835" lon="-2.24263">
        <ele>29.200000762939</ele>
        <time>2021-06-27T08:22:11.000Z</time>
      </trkpt>
      <trkpt lat="47.56829" lon="-2.24267">
        <ele>28.799999237061</ele>
        <time>2021-06-27T08:22:12.000Z</time>
      </trkpt>
      <trkpt lat="47.56822" lon="-2.24271">
        <ele>28.200000762939</ele>
        <time>2021-06-27T08:22:13.000Z</time>
      </trkpt>
      <trkpt lat="47.56815" lon="-2.24275">
        <ele>27.799999237061</ele>
        <time>2021-06-27T08:22:14.000Z</time>
      </trkpt>
      <trkpt lat="47.56809" lon="-2.24278">
        <ele>27.39999961853</ele>
        <time>2021-06-27T08:22:15.000Z</time>
      </trkpt>
      <trkpt lat="47.56796" lon="-2.24286">
        <ele>27.39999961853</ele>
        <time>2021-06-27T08:22:17.000Z</time>
      </trkpt>
      <trkpt lat="47.56783" lon="-2.24292">
        <ele>27</ele>
        <time>2021-06-27T08:22:19.000Z</time>
      </trkpt>
      <trkpt lat="47.56777" lon="-2.24294">
        <ele>26.60000038147</ele>
        <time>2021-06-27T08:22:20.000Z</time>
      </trkpt>
      <trkpt lat="47.56771" lon="-2.24297">
        <ele>25.799999237061</ele>
        <time>2021-06-27T08:22:21.000Z</time>
      </trkpt>
      <trkpt lat="47.56765" lon="-2.24299">
        <ele>25.39999961853</ele>
        <time>2021-06-27T08:22:22.000Z</time>
      </trkpt>
      <trkpt lat="47.56753" lon="-2.24302">
        <ele>25.39999961853</ele>
        <time>2021-06-27T08:22:24.000Z</time>
      </trkpt>
      <trkpt lat="47.56732" lon="-2.24309">
        <ele>25.39999961853</ele>
        <time>2021-06-27T08:22:28.000Z</time>
      </trkpt>
      <trkpt lat="47.56721" lon="-2.24316">
        <ele>25.39999961853</ele>
        <time>2021-06-27T08:22:30.000Z</time>
      </trkpt>
      <trkpt lat="47.56707" lon="-2.24328">
        <ele>25.39999961853</ele>
        <time>2021-06-27T08:22:33.000Z</time>
      </trkpt>
      <trkpt lat="47.56696" lon="-2.24335">
        <ele>25.39999961853</ele>
        <time>2021-06-27T08:22:35.000Z</time>
      </trkpt>
      <trkpt lat="47.56685" lon="-2.24338">
        <ele>25.39999961853</ele>
        <time>2021-06-27T08:22:37.000Z</time>
      </trkpt>
      <trkpt lat="47.56674" lon="-2.24339">
        <ele>25.39999961853</ele>
        <time>2021-06-27T08:22:39.000Z</time>
      </trkpt>
      <trkpt lat="47.56651" lon="-2.24342">
        <ele>25</ele>
        <time>2021-06-27T08:22:43.000Z</time>
      </trkpt>
      <trkpt lat="47.56644" lon="-2.24342">
        <ele>24.39999961853</ele>
        <time>2021-06-27T08:22:44.000Z</time>
      </trkpt>
      <trkpt lat="47.56639" lon="-2.24342">
        <ele>24</ele>
        <time>2021-06-27T08:22:45.000Z</time>
      </trkpt>
      <trkpt lat="47.56633" lon="-2.24341">
        <ele>23.200000762939</ele>
        <time>2021-06-27T08:22:46.000Z</time>
      </trkpt>
      <trkpt lat="47.56604" lon="-2.24334">
        <ele>23.200000762939</ele>
        <time>2021-06-27T08:22:51.000Z</time>
      </trkpt>
      <trkpt lat="47.56574" lon="-2.2433">
        <ele>23.200000762939</ele>
        <time>2021-06-27T08:22:57.000Z</time>
      </trkpt>
      <trkpt lat="47.56546" lon="-2.24333">
        <ele>23.200000762939</ele>
        <time>2021-06-27T08:23:04.000Z</time>
      </trkpt>
      <trkpt lat="47.56535" lon="-2.24334">
        <ele>23.60000038147</ele>
        <time>2021-06-27T08:23:07.000Z</time>
      </trkpt>
      <trkpt lat="47.56531" lon="-2.24334">
        <ele>24.200000762939</ele>
        <time>2021-06-27T08:23:08.000Z</time>
      </trkpt>
      <trkpt lat="47.56527" lon="-2.24335">
        <ele>24.60000038147</ele>
        <time>2021-06-27T08:23:09.000Z</time>
      </trkpt>
      <trkpt lat="47.56524" lon="-2.24336">
        <ele>25</ele>
        <time>2021-06-27T08:23:10.000Z</time>
      </trkpt>
      <trkpt lat="47.5652" lon="-2.24338">
        <ele>25.39999961853</ele>
        <time>2021-06-27T08:23:11.000Z</time>
      </trkpt>
      <trkpt lat="47.56516" lon="-2.24347">
        <ele>25.39999961853</ele>
        <time>2021-06-27T08:23:13.000Z</time>
      </trkpt>
      <trkpt lat="47.56516" lon="-2.24365">
        <ele>25.799999237061</ele>
        <time>2021-06-27T08:23:16.000Z</time>
      </trkpt>
      <trkpt lat="47.56517" lon="-2.24371">
        <ele>26.200000762939</ele>
        <time>2021-06-27T08:23:17.000Z</time>
      </trkpt>
      <trkpt lat="47.56519" lon="-2.24377">
        <ele>26.60000038147</ele>
        <time>2021-06-27T08:23:18.000Z</time>
      </trkpt>
      <trkpt lat="47.5652" lon="-2.24383">
        <ele>27</ele>
        <time>2021-06-27T08:23:19.000Z</time>
      </trkpt>
      <trkpt lat="47.56522" lon="-2.24389">
        <ele>27.39999961853</ele>
        <time>2021-06-27T08:23:20.000Z</time>
      </trkpt>
      <trkpt lat="47.5653" lon="-2.24422">
        <ele>27.39999961853</ele>
        <time>2021-06-27T08:23:25.000Z</time>
      </trkpt>
      <trkpt lat="47.56542" lon="-2.24475">
        <ele>27.39999961853</ele>
        <time>2021-06-27T08:23:32.000Z</time>
      </trkpt>
      <trkpt lat="47.56543" lon="-2.24503">
        <ele>27.39999961853</ele>
        <time>2021-06-27T08:23:35.000Z</time>
      </trkpt>
      <trkpt lat="47.56545" lon="-2.24511">
        <ele>27.39999961853</ele>
        <time>2021-06-27T08:23:36.000Z</time>
      </trkpt>
      <trkpt lat="47.56554" lon="-2.24528">
        <ele>27.39999961853</ele>
        <time>2021-06-27T08:23:39.000Z</time>
      </trkpt>
      <trkpt lat="47.56556" lon="-2.24532">
        <ele>27.39999961853</ele>
        <time>2021-06-27T08:23:40.000Z</time>
      </trkpt>
      <trkpt lat="47.56573" lon="-2.24559">
        <ele>27.39999961853</ele>
        <time>2021-06-27T08:23:46.000Z</time>
      </trkpt>
      <trkpt lat="47.56599" lon="-2.24599">
        <ele>27.39999961853</ele>
        <time>2021-06-27T08:23:54.000Z</time>
      </trkpt>
      <trkpt lat="47.56626" lon="-2.24644">
        <ele>27.39999961853</ele>
        <time>2021-06-27T08:24:02.000Z</time>
      </trkpt>
      <trkpt lat="47.56654" lon="-2.24691">
        <ele>27.39999961853</ele>
        <time>2021-06-27T08:24:10.000Z</time>
      </trkpt>
      <trkpt lat="47.56683" lon="-2.24738">
        <ele>27.39999961853</ele>
        <time>2021-06-27T08:24:17.000Z</time>
      </trkpt>
      <trkpt lat="47.56687" lon="-2.24745">
        <ele>27</ele>
        <time>2021-06-27T08:24:18.000Z</time>
      </trkpt>
      <trkpt lat="47.56691" lon="-2.24752">
        <ele>26.60000038147</ele>
        <time>2021-06-27T08:24:19.000Z</time>
      </trkpt>
      <trkpt lat="47.56695" lon="-2.2476">
        <ele>26.200000762939</ele>
        <time>2021-06-27T08:24:20.000Z</time>
      </trkpt>
      <trkpt lat="47.567" lon="-2.24767">
        <ele>25.799999237061</ele>
        <time>2021-06-27T08:24:21.000Z</time>
      </trkpt>
      <trkpt lat="47.56703" lon="-2.24774">
        <ele>25.39999961853</ele>
        <time>2021-06-27T08:24:22.000Z</time>
      </trkpt>
      <trkpt lat="47.56706" lon="-2.24779">
        <ele>25.39999961853</ele>
        <time>2021-06-27T08:24:23.000Z</time>
      </trkpt>
      <trkpt lat="47.56708" lon="-2.24784">
        <ele>24.799999237061</ele>
        <time>2021-06-27T08:24:24.000Z</time>
      </trkpt>
      <trkpt lat="47.5671" lon="-2.24789">
        <ele>23.799999237061</ele>
        <time>2021-06-27T08:24:25.000Z</time>
      </trkpt>
      <trkpt lat="47.56712" lon="-2.24794">
        <ele>23.39999961853</ele>
        <time>2021-06-27T08:24:26.000Z</time>
      </trkpt>
      <trkpt lat="47.56715" lon="-2.248">
        <ele>23</ele>
        <time>2021-06-27T08:24:27.000Z</time>
      </trkpt>
      <trkpt lat="47.56718" lon="-2.24807">
        <ele>23</ele>
        <time>2021-06-27T08:24:28.000Z</time>
      </trkpt>
      <trkpt lat="47.56723" lon="-2.24823">
        <ele>22.39999961853</ele>
        <time>2021-06-27T08:24:30.000Z</time>
      </trkpt>
      <trkpt lat="47.56727" lon="-2.24832">
        <ele>22</ele>
        <time>2021-06-27T08:24:31.000Z</time>
      </trkpt>
      <trkpt lat="47.5673" lon="-2.24842">
        <ele>21.60000038147</ele>
        <time>2021-06-27T08:24:32.000Z</time>
      </trkpt>
      <trkpt lat="47.56734" lon="-2.24852">
        <ele>21.200000762939</ele>
        <time>2021-06-27T08:24:33.000Z</time>
      </trkpt>
      <trkpt lat="47.56737" lon="-2.24864">
        <ele>20.60000038147</ele>
        <time>2021-06-27T08:24:34.000Z</time>
      </trkpt>
      <trkpt lat="47.56741" lon="-2.24875">
        <ele>20.200000762939</ele>
        <time>2021-06-27T08:24:35.000Z</time>
      </trkpt>
      <trkpt lat="47.56745" lon="-2.24887">
        <ele>19.799999237061</ele>
        <time>2021-06-27T08:24:36.000Z</time>
      </trkpt>
      <trkpt lat="47.56749" lon="-2.24898">
        <ele>19.39999961853</ele>
        <time>2021-06-27T08:24:37.000Z</time>
      </trkpt>
      <trkpt lat="47.56753" lon="-2.2491">
        <ele>18.799999237061</ele>
        <time>2021-06-27T08:24:38.000Z</time>
      </trkpt>
      <trkpt lat="47.56757" lon="-2.24921">
        <ele>18</ele>
        <time>2021-06-27T08:24:39.000Z</time>
      </trkpt>
      <trkpt lat="47.56761" lon="-2.24933">
        <ele>17.39999961853</ele>
        <time>2021-06-27T08:24:40.000Z</time>
      </trkpt>
      <trkpt lat="47.56765" lon="-2.24944">
        <ele>16.60000038147</ele>
        <time>2021-06-27T08:24:41.000Z</time>
      </trkpt>
      <trkpt lat="47.56769" lon="-2.24957">
        <ele>16</ele>
        <time>2021-06-27T08:24:42.000Z</time>
      </trkpt>
      <trkpt lat="47.56773" lon="-2.24969">
        <ele>15.199999809265</ele>
        <time>2021-06-27T08:24:43.000Z</time>
      </trkpt>
      <trkpt lat="47.56776" lon="-2.24981">
        <ele>14.39999961853</ele>
        <time>2021-06-27T08:24:44.000Z</time>
      </trkpt>
      <trkpt lat="47.5678" lon="-2.24992">
        <ele>13.800000190735</ele>
        <time>2021-06-27T08:24:45.000Z</time>
      </trkpt>
      <trkpt lat="47.56784" lon="-2.25003">
        <ele>13.199999809265</ele>
        <time>2021-06-27T08:24:46.000Z</time>
      </trkpt>
      <trkpt lat="47.56787" lon="-2.25013">
        <ele>12.800000190735</ele>
        <time>2021-06-27T08:24:47.000Z</time>
      </trkpt>
      <trkpt lat="47.5679" lon="-2.25022">
        <ele>12.199999809265</ele>
        <time>2021-06-27T08:24:48.000Z</time>
      </trkpt>
      <trkpt lat="47.56792" lon="-2.2503">
        <ele>10.800000190735</ele>
        <time>2021-06-27T08:24:49.000Z</time>
      </trkpt>
      <trkpt lat="47.56793" lon="-2.25037">
        <ele>9.8000001907349</ele>
        <time>2021-06-27T08:24:50.000Z</time>
      </trkpt>
      <trkpt lat="47.56794" lon="-2.25043">
        <ele>9</ele>
        <time>2021-06-27T08:24:51.000Z</time>
      </trkpt>
      <trkpt lat="47.56793" lon="-2.25049">
        <ele>8.1999998092651</ele>
        <time>2021-06-27T08:24:52.000Z</time>
      </trkpt>
      <trkpt lat="47.5679" lon="-2.25054">
        <ele>7.1999998092651</ele>
        <time>2021-06-27T08:24:53.000Z</time>
      </trkpt>
      <trkpt lat="47.56788" lon="-2.25057">
        <ele>6.5999999046326</ele>
        <time>2021-06-27T08:24:54.000Z</time>
      </trkpt>
      <trkpt lat="47.56785" lon="-2.2506">
        <ele>6</ele>
        <time>2021-06-27T08:24:55.000Z</time>
      </trkpt>
      <trkpt lat="47.56782" lon="-2.25062">
        <ele>5.4000000953674</ele>
        <time>2021-06-27T08:24:56.000Z</time>
      </trkpt>
      <trkpt lat="47.56778" lon="-2.25064">
        <ele>4.8000001907349</ele>
        <time>2021-06-27T08:24:57.000Z</time>
      </trkpt>
      <trkpt lat="47.56774" lon="-2.25065">
        <ele>4.4000000953674</ele>
        <time>2021-06-27T08:24:58.000Z</time>
      </trkpt>
      <trkpt lat="47.56766" lon="-2.25069">
        <ele>4.4000000953674</ele>
        <time>2021-06-27T08:25:00.000Z</time>
      </trkpt>
      <trkpt lat="47.5675" lon="-2.25073">
        <ele>4.8000001907349</ele>
        <time>2021-06-27T08:25:04.000Z</time>
      </trkpt>
      <trkpt lat="47.56746" lon="-2.25074">
        <ele>5.1999998092651</ele>
        <time>2021-06-27T08:25:05.000Z</time>
      </trkpt>
      <trkpt lat="47.56743" lon="-2.25075">
        <ele>5.5999999046326</ele>
        <time>2021-06-27T08:25:06.000Z</time>
      </trkpt>
      <trkpt lat="47.56739" lon="-2.25075">
        <ele>6</ele>
        <time>2021-06-27T08:25:07.000Z</time>
      </trkpt>
      <trkpt lat="47.56736" lon="-2.25076">
        <ele>6.4000000953674</ele>
        <time>2021-06-27T08:25:08.000Z</time>
      </trkpt>
      <trkpt lat="47.56718" lon="-2.25083">
        <ele>6.4000000953674</ele>
        <time>2021-06-27T08:25:13.000Z</time>
      </trkpt>
      <trkpt lat="47.56696" lon="-2.25088">
        <ele>6.4000000953674</ele>
        <time>2021-06-27T08:25:19.000Z</time>
      </trkpt>
      <trkpt lat="47.56692" lon="-2.25092">
        <ele>6.4000000953674</ele>
        <time>2021-06-27T08:25:22.000Z</time>
      </trkpt>
      <trkpt lat="47.5669" lon="-2.25097">
        <ele>6.4000000953674</ele>
        <time>2021-06-27T08:25:24.000Z</time>
      </trkpt>
      <trkpt lat="47.56688" lon="-2.25112">
        <ele>6</ele>
        <time>2021-06-27T08:25:30.000Z</time>
      </trkpt>
      <trkpt lat="47.56688" lon="-2.25114">
        <ele>5.5999999046326</ele>
        <time>2021-06-27T08:25:31.000Z</time>
      </trkpt>
      <trkpt lat="47.56687" lon="-2.25116">
        <ele>5.1999998092651</ele>
        <time>2021-06-27T08:25:32.000Z</time>
      </trkpt>
      <trkpt lat="47.56687" lon="-2.25117">
        <ele>4.8000001907349</ele>
        <time>2021-06-27T08:25:33.000Z</time>
      </trkpt>
      <trkpt lat="47.56687" lon="-2.25117">
        <ele>4.4000000953674</ele>
        <time>2021-06-27T08:25:34.000Z</time>
      </trkpt>
      <trkpt lat="47.56689" lon="-2.2512">
        <ele>3.4000000953674</ele>
        <time>2021-06-27T08:25:37.000Z</time>
      </trkpt>
      <trkpt lat="47.5669" lon="-2.25121">
        <ele>2.5999999046326</ele>
        <time>2021-06-27T08:25:38.000Z</time>
      </trkpt>
      <trkpt lat="47.56691" lon="-2.25122">
        <ele>2.2000000476837</ele>
        <time>2021-06-27T08:25:39.000Z</time>
      </trkpt>
      <trkpt lat="47.56699" lon="-2.25124">
        <ele>2.2000000476837</ele>
        <time>2021-06-27T08:25:44.000Z</time>
      </trkpt>
      <trkpt lat="47.56702" lon="-2.25128">
        <ele>2.2000000476837</ele>
        <time>2021-06-27T08:25:47.000Z</time>
      </trkpt>
      <trkpt lat="47.56703" lon="-2.25133">
        <ele>2.2000000476837</ele>
        <time>2021-06-27T08:25:49.000Z</time>
      </trkpt>
      <trkpt lat="47.56703" lon="-2.2514">
        <ele>1.7999999523163</ele>
        <time>2021-06-27T08:25:51.000Z</time>
      </trkpt>
      <trkpt lat="47.56702" lon="-2.25143">
        <ele>1.3999999761581</ele>
        <time>2021-06-27T08:25:52.000Z</time>
      </trkpt>
      <trkpt lat="47.56702" lon="-2.25146">
        <ele>0.80000001192093</ele>
        <time>2021-06-27T08:25:53.000Z</time>
      </trkpt>
      <trkpt lat="47.56702" lon="-2.2515">
        <ele>0.40000000596046</ele>
        <time>2021-06-27T08:25:54.000Z</time>
      </trkpt>
      <trkpt lat="47.56701" lon="-2.25153">
        <ele>24.4</ele>
        <time>2021-06-27T08:25:55.000Z</time>
      </trkpt>
      <trkpt lat="47.567" lon="-2.25155">
        <ele>-0.60000002384186</ele>
        <time>2021-06-27T08:25:56.000Z</time>
      </trkpt>
      <trkpt lat="47.56698" lon="-2.25155">
        <ele>-1</ele>
        <time>2021-06-27T08:25:57.000Z</time>
      </trkpt>
      <trkpt lat="47.56697" lon="-2.25156">
        <ele>-1.6000000238419</ele>
        <time>2021-06-27T08:25:58.000Z</time>
      </trkpt>
      <trkpt lat="47.56695" lon="-2.25157">
        <ele>-2</ele>
        <time>2021-06-27T08:25:59.000Z</time>
      </trkpt>
      <trkpt lat="47.56693" lon="-2.25156">
        <ele>-2</ele>
        <time>2021-06-27T08:26:00.000Z</time>
      </trkpt>
      <trkpt lat="47.5668" lon="-2.25153">
        <ele>-2</ele>
        <time>2021-06-27T08:26:06.000Z</time>
      </trkpt>
      <trkpt lat="47.56669" lon="-2.25145">
        <ele>-2</ele>
        <time>2021-06-27T08:26:13.000Z</time>
      </trkpt>
      <trkpt lat="47.56664" lon="-2.25137">
        <ele>-1.6000000238419</ele>
        <time>2021-06-27T08:26:17.000Z</time>
      </trkpt>
      <trkpt lat="47.56663" lon="-2.25137">
        <ele>-1.2000000476837</ele>
        <time>2021-06-27T08:26:18.000Z</time>
      </trkpt>
      <trkpt lat="47.56661" lon="-2.25138">
        <ele>-0.80000001192093</ele>
        <time>2021-06-27T08:26:19.000Z</time>
      </trkpt>
      <trkpt lat="47.5666" lon="-2.25138">
        <ele>-0.40000000596046</ele>
        <time>2021-06-27T08:26:20.000Z</time>
      </trkpt>
      <trkpt lat="47.56659" lon="-2.25139">
        <ele>27.4</ele>
        <time>2021-06-27T08:26:21.000Z</time>
      </trkpt>
      <trkpt lat="47.56654" lon="-2.25142">
        <ele>27.9</ele>
        <time>2021-06-27T08:26:25.000Z</time>
      </trkpt>
      <trkpt lat="47.56653" lon="-2.25143">
        <ele>28</ele>
        <time>2021-06-27T08:26:26.000Z</time>
      </trkpt>
      <trkpt lat="47.5665" lon="-2.25143">
        <ele>0.40000000596046</ele>
        <time>2021-06-27T08:26:28.000Z</time>
      </trkpt>
      <trkpt lat="47.56649" lon="-2.25143">
        <ele>0.80000001192093</ele>
        <time>2021-06-27T08:26:29.000Z</time>
      </trkpt>
      <trkpt lat="47.56647" lon="-2.25143">
        <ele>1.3999999761581</ele>
        <time>2021-06-27T08:26:30.000Z</time>
      </trkpt>
      <trkpt lat="47.56646" lon="-2.25145">
        <ele>1.7999999523163</ele>
        <time>2021-06-27T08:26:31.000Z</time>
      </trkpt>
      <trkpt lat="47.56645" lon="-2.25147">
        <ele>2.2000000476837</ele>
        <time>2021-06-27T08:26:32.000Z</time>
      </trkpt>
      <trkpt lat="47.56639" lon="-2.25159">
        <ele>2.2000000476837</ele>
        <time>2021-06-27T08:26:36.000Z</time>
      </trkpt>
      <trkpt lat="47.56639" lon="-2.25163">
        <ele>2.2000000476837</ele>
        <time>2021-06-27T08:26:37.000Z</time>
      </trkpt>
      <trkpt lat="47.56641" lon="-2.25169">
        <ele>1.7999999523163</ele>
        <time>2021-06-27T08:26:39.000Z</time>
      </trkpt>
      <trkpt lat="47.56641" lon="-2.25172">
        <ele>1.3999999761581</ele>
        <time>2021-06-27T08:26:40.000Z</time>
      </trkpt>
      <trkpt lat="47.5664" lon="-2.25175">
        <ele>1</ele>
        <time>2021-06-27T08:26:41.000Z</time>
      </trkpt>
      <trkpt lat="47.56639" lon="-2.25177">
        <ele>0.60000002384186</ele>
        <time>2021-06-27T08:26:42.000Z</time>
      </trkpt>
      <trkpt lat="47.56638" lon="-2.25179">
        <ele>0.20000000298023</ele>
        <time>2021-06-27T08:26:43.000Z</time>
      </trkpt>
      <trkpt lat="47.56637" lon="-2.2518">
        <ele>-0.20000000298023</ele>
        <time>2021-06-27T08:26:44.000Z</time>
      </trkpt>
      <trkpt lat="47.56636" lon="-2.25183">
        <ele>-0.60000002384186</ele>
        <time>2021-06-27T08:26:45.000Z</time>
      </trkpt>
      <trkpt lat="47.56634" lon="-2.25185">
        <ele>-1</ele>
        <time>2021-06-27T08:26:46.000Z</time>
      </trkpt>
      <trkpt lat="47.56632" lon="-2.25187">
        <ele>-1.3999999761581</ele>
        <time>2021-06-27T08:26:47.000Z</time>
      </trkpt>
      <trkpt lat="47.5663" lon="-2.25189">
        <ele>-1.7999999523163</ele>
        <time>2021-06-27T08:26:48.000Z</time>
      </trkpt>
      <trkpt lat="47.56613" lon="-2.25196">
        <ele>-1.7999999523163</ele>
        <time>2021-06-27T08:26:54.000Z</time>
      </trkpt>
      <trkpt lat="47.56597" lon="-2.252">
        <ele>-1.7999999523163</ele>
        <time>2021-06-27T08:27:02.000Z</time>
      </trkpt>
      <trkpt lat="47.56583" lon="-2.25206">
        <ele>-1.7999999523163</ele>
        <time>2021-06-27T08:27:08.000Z</time>
      </trkpt>
      <trkpt lat="47.56565" lon="-2.25215">
        <ele>-1.7999999523163</ele>
        <time>2021-06-27T08:27:16.000Z</time>
      </trkpt>
      <trkpt lat="47.56554" lon="-2.2522">
        <ele>-1.7999999523163</ele>
        <time>2021-06-27T08:27:21.000Z</time>
      </trkpt>
      <trkpt lat="47.56549" lon="-2.25222">
        <ele>-1.7999999523163</ele>
        <time>2021-06-27T08:27:23.000Z</time>
      </trkpt>
      <trkpt lat="47.56539" lon="-2.25224">
        <ele>-1.7999999523163</ele>
        <time>2021-06-27T08:27:28.000Z</time>
      </trkpt>
      <trkpt lat="47.56534" lon="-2.25224">
        <ele>-1.3999999761581</ele>
        <time>2021-06-27T08:27:32.000Z</time>
      </trkpt>
      <trkpt lat="47.56532" lon="-2.25224">
        <ele>-1</ele>
        <time>2021-06-27T08:27:33.000Z</time>
      </trkpt>
      <trkpt lat="47.56531" lon="-2.25224">
        <ele>-0.60000002384186</ele>
        <time>2021-06-27T08:27:34.000Z</time>
      </trkpt>
      <trkpt lat="47.5653" lon="-2.25223">
        <ele>-0.20000000298023</ele>
        <time>2021-06-27T08:27:35.000Z</time>
      </trkpt>
      <trkpt lat="47.56529" lon="-2.25222">
        <ele>0.20000000298023</ele>
        <time>2021-06-27T08:27:36.000Z</time>
      </trkpt>
      <trkpt lat="47.56521" lon="-2.25217">
        <ele>0.60000002384186</ele>
        <time>2021-06-27T08:27:41.000Z</time>
      </trkpt>
      <trkpt lat="47.56519" lon="-2.25216">
        <ele>1</ele>
        <time>2021-06-27T08:27:42.000Z</time>
      </trkpt>
      <trkpt lat="47.56518" lon="-2.25215">
        <ele>1.6000000238419</ele>
        <time>2021-06-27T08:27:43.000Z</time>
      </trkpt>
      <trkpt lat="47.56515" lon="-2.25214">
        <ele>2</ele>
        <time>2021-06-27T08:27:44.000Z</time>
      </trkpt>
      <trkpt lat="47.56513" lon="-2.25213">
        <ele>2.4000000953674</ele>
        <time>2021-06-27T08:27:45.000Z</time>
      </trkpt>
      <trkpt lat="47.56505" lon="-2.25208">
        <ele>2.4000000953674</ele>
        <time>2021-06-27T08:27:49.000Z</time>
      </trkpt>
      <trkpt lat="47.56498" lon="-2.25206">
        <ele>2.7999999523163</ele>
        <time>2021-06-27T08:27:55.000Z</time>
      </trkpt>
      <trkpt lat="47.56498" lon="-2.25205">
        <ele>3.2000000476837</ele>
        <time>2021-06-27T08:27:56.000Z</time>
      </trkpt>
      <trkpt lat="47.56497" lon="-2.25206">
        <ele>3.5999999046326</ele>
        <time>2021-06-27T08:27:57.000Z</time>
      </trkpt>
      <trkpt lat="47.56495" lon="-2.25205">
        <ele>4</ele>
        <time>2021-06-27T08:27:58.000Z</time>
      </trkpt>
      <trkpt lat="47.56495" lon="-2.25205">
        <ele>4.4000000953674</ele>
        <time>2021-06-27T08:27:59.000Z</time>
      </trkpt>
      <trkpt lat="47.56489" lon="-2.25205">
        <ele>4.4000000953674</ele>
        <time>2021-06-27T08:28:04.000Z</time>
      </trkpt>
      <trkpt lat="47.56488" lon="-2.25205">
        <ele>4.4000000953674</ele>
        <time>2021-06-27T08:28:05.000Z</time>
      </trkpt>
      <trkpt lat="47.56471" lon="-2.25205">
        <ele>4.4000000953674</ele>
        <time>2021-06-27T08:28:15.000Z</time>
      </trkpt>
      <trkpt lat="47.56465" lon="-2.25202">
        <ele>5</ele>
        <time>2021-06-27T08:28:18.000Z</time>
      </trkpt>
      <trkpt lat="47.56463" lon="-2.25202">
        <ele>5.4000000953674</ele>
        <time>2021-06-27T08:28:19.000Z</time>
      </trkpt>
      <trkpt lat="47.56462" lon="-2.25201">
        <ele>5.8000001907349</ele>
        <time>2021-06-27T08:28:20.000Z</time>
      </trkpt>
      <trkpt lat="47.5646" lon="-2.25201">
        <ele>6.1999998092651</ele>
        <time>2021-06-27T08:28:21.000Z</time>
      </trkpt>
      <trkpt lat="47.56458" lon="-2.25201">
        <ele>6.8000001907349</ele>
        <time>2021-06-27T08:28:22.000Z</time>
      </trkpt>
      <trkpt lat="47.56453" lon="-2.25202">
        <ele>6.8000001907349</ele>
        <time>2021-06-27T08:28:25.000Z</time>
      </trkpt>
      <trkpt lat="47.56441" lon="-2.25198">
        <ele>6.8000001907349</ele>
        <time>2021-06-27T08:28:33.000Z</time>
      </trkpt>
      <trkpt lat="47.56437" lon="-2.25197">
        <ele>7.1999998092651</ele>
        <time>2021-06-27T08:28:35.000Z</time>
      </trkpt>
      <trkpt lat="47.56436" lon="-2.25196">
        <ele>7.5999999046326</ele>
        <time>2021-06-27T08:28:36.000Z</time>
      </trkpt>
      <trkpt lat="47.56434" lon="-2.25195">
        <ele>8</ele>
        <time>2021-06-27T08:28:37.000Z</time>
      </trkpt>
      <trkpt lat="47.56433" lon="-2.25194">
        <ele>8.3999996185303</ele>
        <time>2021-06-27T08:28:38.000Z</time>
      </trkpt>
      <trkpt lat="47.56432" lon="-2.25194">
        <ele>8.8000001907349</ele>
        <time>2021-06-27T08:28:39.000Z</time>
      </trkpt>
      <trkpt lat="47.56429" lon="-2.25193">
        <ele>8.8000001907349</ele>
        <time>2021-06-27T08:28:41.000Z</time>
      </trkpt>
      <trkpt lat="47.56428" lon="-2.25192">
        <ele>8.8000001907349</ele>
        <time>2021-06-27T08:28:42.000Z</time>
      </trkpt>
      <trkpt lat="47.56377" lon="-2.25159">
        <ele>19.200000762939</ele>
        <time>2021-06-27T08:29:29.000Z</time>
      </trkpt>
      <trkpt lat="47.56372" lon="-2.2516">
        <ele>19.200000762939</ele>
        <time>2021-06-27T08:29:32.000Z</time>
      </trkpt>
      <trkpt lat="47.56357" lon="-2.25168">
        <ele>19.200000762939</ele>
        <time>2021-06-27T08:29:39.000Z</time>
      </trkpt>
      <trkpt lat="47.56353" lon="-2.25169">
        <ele>19.200000762939</ele>
        <time>2021-06-27T08:29:41.000Z</time>
      </trkpt>
      <trkpt lat="47.5635" lon="-2.25166">
        <ele>19.200000762939</ele>
        <time>2021-06-27T08:29:43.000Z</time>
      </trkpt>
      <trkpt lat="47.56344" lon="-2.25155">
        <ele>19.200000762939</ele>
        <time>2021-06-27T08:29:50.000Z</time>
      </trkpt>
      <trkpt lat="47.56343" lon="-2.25152">
        <ele>19.200000762939</ele>
        <time>2021-06-27T08:29:51.000Z</time>
      </trkpt>
      <trkpt lat="47.56333" lon="-2.25143">
        <ele>19.200000762939</ele>
        <time>2021-06-27T08:29:58.000Z</time>
      </trkpt>
      <trkpt lat="47.56322" lon="-2.25146">
        <ele>19.200000762939</ele>
        <time>2021-06-27T08:30:05.000Z</time>
      </trkpt>
      <trkpt lat="47.5632" lon="-2.25147">
        <ele>19.200000762939</ele>
        <time>2021-06-27T08:30:06.000Z</time>
      </trkpt>
      <trkpt lat="47.56317" lon="-2.25145">
        <ele>18.799999237061</ele>
        <time>2021-06-27T08:30:08.000Z</time>
      </trkpt>
      <trkpt lat="47.56315" lon="-2.25145">
        <ele>17.799999237061</ele>
        <time>2021-06-27T08:30:09.000Z</time>
      </trkpt>
      <trkpt lat="47.56313" lon="-2.25144">
        <ele>17.39999961853</ele>
        <time>2021-06-27T08:30:10.000Z</time>
      </trkpt>
      <trkpt lat="47.5631" lon="-2.25144">
        <ele>17</ele>
        <time>2021-06-27T08:30:11.000Z</time>
      </trkpt>
      <trkpt lat="47.56303" lon="-2.2514">
        <ele>17</ele>
        <time>2021-06-27T08:30:14.000Z</time>
      </trkpt>
      <trkpt lat="47.56286" lon="-2.25134">
        <ele>17</ele>
        <time>2021-06-27T08:30:20.000Z</time>
      </trkpt>
      <trkpt lat="47.56281" lon="-2.25143">
        <ele>17</ele>
        <time>2021-06-27T08:30:24.000Z</time>
      </trkpt>
      <trkpt lat="47.56284" lon="-2.25151">
        <ele>16.60000038147</ele>
        <time>2021-06-27T08:30:26.000Z</time>
      </trkpt>
      <trkpt lat="47.56287" lon="-2.25154">
        <ele>16.200000762939</ele>
        <time>2021-06-27T08:30:27.000Z</time>
      </trkpt>
      <trkpt lat="47.5629" lon="-2.25157">
        <ele>15.60000038147</ele>
        <time>2021-06-27T08:30:28.000Z</time>
      </trkpt>
      <trkpt lat="47.56293" lon="-2.2516">
        <ele>15.199999809265</ele>
        <time>2021-06-27T08:30:29.000Z</time>
      </trkpt>
      <trkpt lat="47.56297" lon="-2.25162">
        <ele>14.800000190735</ele>
        <time>2021-06-27T08:30:30.000Z</time>
      </trkpt>
      <trkpt lat="47.56301" lon="-2.25164">
        <ele>14.800000190735</ele>
        <time>2021-06-27T08:30:31.000Z</time>
      </trkpt>
      <trkpt lat="47.56313" lon="-2.25173">
        <ele>14.800000190735</ele>
        <time>2021-06-27T08:30:34.000Z</time>
      </trkpt>
      <trkpt lat="47.56328" lon="-2.25185">
        <ele>14.39999961853</ele>
        <time>2021-06-27T08:30:39.000Z</time>
      </trkpt>
      <trkpt lat="47.56331" lon="-2.25188">
        <ele>14</ele>
        <time>2021-06-27T08:30:40.000Z</time>
      </trkpt>
      <trkpt lat="47.56335" lon="-2.25191">
        <ele>13.60000038147</ele>
        <time>2021-06-27T08:30:41.000Z</time>
      </trkpt>
      <trkpt lat="47.56338" lon="-2.25195">
        <ele>13.199999809265</ele>
        <time>2021-06-27T08:30:42.000Z</time>
      </trkpt>
      <trkpt lat="47.56342" lon="-2.252">
        <ele>12.800000190735</ele>
        <time>2021-06-27T08:30:43.000Z</time>
      </trkpt>
      <trkpt lat="47.56346" lon="-2.25205">
        <ele>12.199999809265</ele>
        <time>2021-06-27T08:30:44.000Z</time>
      </trkpt>
      <trkpt lat="47.56349" lon="-2.25209">
        <ele>11.60000038147</ele>
        <time>2021-06-27T08:30:45.000Z</time>
      </trkpt>
      <trkpt lat="47.56352" lon="-2.25211">
        <ele>11</ele>
        <time>2021-06-27T08:30:46.000Z</time>
      </trkpt>
      <trkpt lat="47.56355" lon="-2.25214">
        <ele>10.39999961853</ele>
        <time>2021-06-27T08:30:47.000Z</time>
      </trkpt>
      <trkpt lat="47.56357" lon="-2.25216">
        <ele>9.8000001907349</ele>
        <time>2021-06-27T08:30:48.000Z</time>
      </trkpt>
      <trkpt lat="47.56359" lon="-2.25219">
        <ele>9.1999998092651</ele>
        <time>2021-06-27T08:30:49.000Z</time>
      </trkpt>
      <trkpt lat="47.5636" lon="-2.25221">
        <ele>8.6000003814697</ele>
        <time>2021-06-27T08:30:50.000Z</time>
      </trkpt>
      <trkpt lat="47.56362" lon="-2.25223">
        <ele>8</ele>
        <time>2021-06-27T08:30:51.000Z</time>
      </trkpt>
      <trkpt lat="47.56364" lon="-2.25224">
        <ele>7.4000000953674</ele>
        <time>2021-06-27T08:30:52.000Z</time>
      </trkpt>
      <trkpt lat="47.5637" lon="-2.25224">
        <ele>7</ele>
        <time>2021-06-27T08:30:55.000Z</time>
      </trkpt>
      <trkpt lat="47.56372" lon="-2.25224">
        <ele>6.5999999046326</ele>
        <time>2021-06-27T08:30:56.000Z</time>
      </trkpt>
      <trkpt lat="47.56374" lon="-2.25224">
        <ele>6.1999998092651</ele>
        <time>2021-06-27T08:30:57.000Z</time>
      </trkpt>
      <trkpt lat="47.56375" lon="-2.25224">
        <ele>5.4000000953674</ele>
        <time>2021-06-27T08:30:58.000Z</time>
      </trkpt>
      <trkpt lat="47.56381" lon="-2.25224">
        <ele>5.4000000953674</ele>
        <time>2021-06-27T08:31:02.000Z</time>
      </trkpt>
      <trkpt lat="47.56391" lon="-2.25235">
        <ele>11.60000038147</ele>
        <time>2021-06-27T08:40:05.000Z</time>
      </trkpt>
      <trkpt lat="47.56393" lon="-2.25235">
        <ele>11.60000038147</ele>
        <time>2021-06-27T08:40:06.000Z</time>
      </trkpt>
      <trkpt lat="47.5641" lon="-2.25235">
        <ele>11.60000038147</ele>
        <time>2021-06-27T08:40:13.000Z</time>
      </trkpt>
      <trkpt lat="47.56421" lon="-2.2524">
        <ele>11.60000038147</ele>
        <time>2021-06-27T08:40:19.000Z</time>
      </trkpt>
      <trkpt lat="47.56437" lon="-2.25253">
        <ele>11.60000038147</ele>
        <time>2021-06-27T08:40:26.000Z</time>
      </trkpt>
      <trkpt lat="47.56445" lon="-2.25261">
        <ele>11.60000038147</ele>
        <time>2021-06-27T08:40:29.000Z</time>
      </trkpt>
      <trkpt lat="47.56452" lon="-2.25263">
        <ele>11.60000038147</ele>
        <time>2021-06-27T08:40:32.000Z</time>
      </trkpt>
      <trkpt lat="47.56454" lon="-2.25264">
        <ele>11.60000038147</ele>
        <time>2021-06-27T08:40:33.000Z</time>
      </trkpt>
      <trkpt lat="47.56457" lon="-2.25261">
        <ele>11.60000038147</ele>
        <time>2021-06-27T08:40:34.000Z</time>
      </trkpt>
      <trkpt lat="47.56468" lon="-2.25253">
        <ele>11.60000038147</ele>
        <time>2021-06-27T08:40:38.000Z</time>
      </trkpt>
      <trkpt lat="47.5647" lon="-2.25255">
        <ele>11.60000038147</ele>
        <time>2021-06-27T08:40:39.000Z</time>
      </trkpt>
      <trkpt lat="47.5648" lon="-2.25261">
        <ele>11.60000038147</ele>
        <time>2021-06-27T08:40:42.000Z</time>
      </trkpt>
      <trkpt lat="47.56497" lon="-2.25275">
        <ele>11.60000038147</ele>
        <time>2021-06-27T08:40:49.000Z</time>
      </trkpt>
      <trkpt lat="47.56511" lon="-2.25281">
        <ele>11.60000038147</ele>
        <time>2021-06-27T08:40:55.000Z</time>
      </trkpt>
      <trkpt lat="47.56528" lon="-2.25285">
        <ele>12</ele>
        <time>2021-06-27T08:41:02.000Z</time>
      </trkpt>
      <trkpt lat="47.5653" lon="-2.25284">
        <ele>12.60000038147</ele>
        <time>2021-06-27T08:41:03.000Z</time>
      </trkpt>
      <trkpt lat="47.56532" lon="-2.25282">
        <ele>13</ele>
        <time>2021-06-27T08:41:04.000Z</time>
      </trkpt>
      <trkpt lat="47.56535" lon="-2.2528">
        <ele>13.39999961853</ele>
        <time>2021-06-27T08:41:05.000Z</time>
      </trkpt>
      <trkpt lat="47.56537" lon="-2.25278">
        <ele>13.800000190735</ele>
        <time>2021-06-27T08:41:06.000Z</time>
      </trkpt>
      <trkpt lat="47.56544" lon="-2.25273">
        <ele>13.800000190735</ele>
        <time>2021-06-27T08:41:09.000Z</time>
      </trkpt>
      <trkpt lat="47.56552" lon="-2.25275">
        <ele>13.800000190735</ele>
        <time>2021-06-27T08:41:13.000Z</time>
      </trkpt>
      <trkpt lat="47.56553" lon="-2.25277">
        <ele>14.199999809265</ele>
        <time>2021-06-27T08:41:14.000Z</time>
      </trkpt>
      <trkpt lat="47.56554" lon="-2.25277">
        <ele>14.60000038147</ele>
        <time>2021-06-27T08:41:15.000Z</time>
      </trkpt>
      <trkpt lat="47.56573" lon="-2.25282">
        <ele>15.800000190735</ele>
        <time>2021-06-27T08:41:34.000Z</time>
      </trkpt>
      <trkpt lat="47.56579" lon="-2.25281">
        <ele>15.800000190735</ele>
        <time>2021-06-27T08:41:37.000Z</time>
      </trkpt>
      <trkpt lat="47.56587" lon="-2.25267">
        <ele>15.800000190735</ele>
        <time>2021-06-27T08:41:44.000Z</time>
      </trkpt>
      <trkpt lat="47.56589" lon="-2.25251">
        <ele>15.800000190735</ele>
        <time>2021-06-27T08:41:49.000Z</time>
      </trkpt>
      <trkpt lat="47.56591" lon="-2.25249">
        <ele>15.800000190735</ele>
        <time>2021-06-27T08:41:50.000Z</time>
      </trkpt>
      <trkpt lat="47.56595" lon="-2.25247">
        <ele>15.800000190735</ele>
        <time>2021-06-27T08:41:54.000Z</time>
      </trkpt>
      <trkpt lat="47.56596" lon="-2.25246">
        <ele>16.200000762939</ele>
        <time>2021-06-27T08:41:55.000Z</time>
      </trkpt>
      <trkpt lat="47.56598" lon="-2.25246">
        <ele>16.60000038147</ele>
        <time>2021-06-27T08:41:56.000Z</time>
      </trkpt>
      <trkpt lat="47.566" lon="-2.25246">
        <ele>17</ele>
        <time>2021-06-27T08:41:57.000Z</time>
      </trkpt>
      <trkpt lat="47.56601" lon="-2.25246">
        <ele>17.39999961853</ele>
        <time>2021-06-27T08:41:58.000Z</time>
      </trkpt>
      <trkpt lat="47.56603" lon="-2.25245">
        <ele>17.799999237061</ele>
        <time>2021-06-27T08:41:59.000Z</time>
      </trkpt>
      <trkpt lat="47.56618" lon="-2.2524">
        <ele>17.799999237061</ele>
        <time>2021-06-27T08:42:05.000Z</time>
      </trkpt>
      <trkpt lat="47.56625" lon="-2.2524">
        <ele>17.799999237061</ele>
        <time>2021-06-27T08:42:07.000Z</time>
      </trkpt>
      <trkpt lat="47.56632" lon="-2.25244">
        <ele>17.799999237061</ele>
        <time>2021-06-27T08:42:10.000Z</time>
      </trkpt>
      <trkpt lat="47.56634" lon="-2.25245">
        <ele>18.200000762939</ele>
        <time>2021-06-27T08:42:11.000Z</time>
      </trkpt>
      <trkpt lat="47.56636" lon="-2.25247">
        <ele>18.60000038147</ele>
        <time>2021-06-27T08:42:12.000Z</time>
      </trkpt>
      <trkpt lat="47.56638" lon="-2.25248">
        <ele>19</ele>
        <time>2021-06-27T08:42:13.000Z</time>
      </trkpt>
      <trkpt lat="47.56641" lon="-2.2525">
        <ele>19.39999961853</ele>
        <time>2021-06-27T08:42:14.000Z</time>
      </trkpt>
      <trkpt lat="47.56643" lon="-2.2525">
        <ele>19.799999237061</ele>
        <time>2021-06-27T08:42:15.000Z</time>
      </trkpt>
      <trkpt lat="47.56644" lon="-2.2525">
        <ele>19.799999237061</ele>
        <time>2021-06-27T08:42:16.000Z</time>
      </trkpt>
      <trkpt lat="47.56648" lon="-2.25248">
        <ele>19.799999237061</ele>
        <time>2021-06-27T08:42:18.000Z</time>
      </trkpt>
      <trkpt lat="47.56652" lon="-2.25244">
        <ele>19.799999237061</ele>
        <time>2021-06-27T08:42:20.000Z</time>
      </trkpt>
      <trkpt lat="47.56665" lon="-2.25236">
        <ele>19.799999237061</ele>
        <time>2021-06-27T08:42:25.000Z</time>
      </trkpt>
      <trkpt lat="47.5668" lon="-2.25242">
        <ele>19.799999237061</ele>
        <time>2021-06-27T08:42:31.000Z</time>
      </trkpt>
      <trkpt lat="47.56697" lon="-2.25253">
        <ele>19.799999237061</ele>
        <time>2021-06-27T08:42:38.000Z</time>
      </trkpt>
      <trkpt lat="47.567" lon="-2.25257">
        <ele>20.200000762939</ele>
        <time>2021-06-27T08:42:40.000Z</time>
      </trkpt>
      <trkpt lat="47.56704" lon="-2.2526">
        <ele>20.60000038147</ele>
        <time>2021-06-27T08:42:41.000Z</time>
      </trkpt>
      <trkpt lat="47.56706" lon="-2.25263">
        <ele>21</ele>
        <time>2021-06-27T08:42:42.000Z</time>
      </trkpt>
      <trkpt lat="47.56709" lon="-2.25265">
        <ele>21.39999961853</ele>
        <time>2021-06-27T08:42:43.000Z</time>
      </trkpt>
      <trkpt lat="47.56713" lon="-2.25266">
        <ele>21.799999237061</ele>
        <time>2021-06-27T08:42:44.000Z</time>
      </trkpt>
      <trkpt lat="47.56721" lon="-2.25264">
        <ele>21.799999237061</ele>
        <time>2021-06-27T08:42:47.000Z</time>
      </trkpt>
      <trkpt lat="47.56726" lon="-2.2526">
        <ele>21.799999237061</ele>
        <time>2021-06-27T08:42:51.000Z</time>
      </trkpt>
      <trkpt lat="47.56751" lon="-2.25254">
        <ele>21.799999237061</ele>
        <time>2021-06-27T08:43:05.000Z</time>
      </trkpt>
      <trkpt lat="47.56757" lon="-2.2527">
        <ele>21.799999237061</ele>
        <time>2021-06-27T08:43:11.000Z</time>
      </trkpt>
      <trkpt lat="47.56756" lon="-2.25275">
        <ele>21.799999237061</ele>
        <time>2021-06-27T08:43:13.000Z</time>
      </trkpt>
      <trkpt lat="47.56753" lon="-2.25278">
        <ele>21.799999237061</ele>
        <time>2021-06-27T08:43:15.000Z</time>
      </trkpt>
      <trkpt lat="47.56745" lon="-2.25283">
        <ele>22.200000762939</ele>
        <time>2021-06-27T08:43:20.000Z</time>
      </trkpt>
      <trkpt lat="47.56743" lon="-2.25284">
        <ele>22.60000038147</ele>
        <time>2021-06-27T08:43:21.000Z</time>
      </trkpt>
      <trkpt lat="47.5674" lon="-2.25284">
        <ele>23</ele>
        <time>2021-06-27T08:43:22.000Z</time>
      </trkpt>
      <trkpt lat="47.56739" lon="-2.25285">
        <ele>23.60000038147</ele>
        <time>2021-06-27T08:43:23.000Z</time>
      </trkpt>
      <trkpt lat="47.56737" lon="-2.25285">
        <ele>24</ele>
        <time>2021-06-27T08:43:24.000Z</time>
      </trkpt>
      <trkpt lat="47.56734" lon="-2.25285">
        <ele>24</ele>
        <time>2021-06-27T08:43:26.000Z</time>
      </trkpt>
      <trkpt lat="47.56725" lon="-2.25287">
        <ele>24</ele>
        <time>2021-06-27T08:43:34.000Z</time>
      </trkpt>
      <trkpt lat="47.5672" lon="-2.25296">
        <ele>24</ele>
        <time>2021-06-27T08:43:41.000Z</time>
      </trkpt>
      <trkpt lat="47.56719" lon="-2.25299">
        <ele>24</ele>
        <time>2021-06-27T08:43:43.000Z</time>
      </trkpt>
      <trkpt lat="47.56714" lon="-2.25305">
        <ele>24</ele>
        <time>2021-06-27T08:43:48.000Z</time>
      </trkpt>
      <trkpt lat="47.56704" lon="-2.25312">
        <ele>24</ele>
        <time>2021-06-27T08:43:54.000Z</time>
      </trkpt>
      <trkpt lat="47.56695" lon="-2.25322">
        <ele>24</ele>
        <time>2021-06-27T08:43:59.000Z</time>
      </trkpt>
      <trkpt lat="47.56689" lon="-2.25332">
        <ele>24</ele>
        <time>2021-06-27T08:44:04.000Z</time>
      </trkpt>
      <trkpt lat="47.56664" lon="-2.25365">
        <ele>24</ele>
        <time>2021-06-27T08:44:14.000Z</time>
      </trkpt>
      <trkpt lat="47.56653" lon="-2.25382">
        <ele>24</ele>
        <time>2021-06-27T08:44:23.000Z</time>
      </trkpt>
      <trkpt lat="47.56651" lon="-2.25387">
        <ele>24</ele>
        <time>2021-06-27T08:44:25.000Z</time>
      </trkpt>
      <trkpt lat="47.56648" lon="-2.25396">
        <ele>24</ele>
        <time>2021-06-27T08:44:29.000Z</time>
      </trkpt>
      <trkpt lat="47.56645" lon="-2.2541">
        <ele>24</ele>
        <time>2021-06-27T08:44:35.000Z</time>
      </trkpt>
      <trkpt lat="47.56644" lon="-2.25433">
        <ele>24</ele>
        <time>2021-06-27T08:44:42.000Z</time>
      </trkpt>
      <trkpt lat="47.56644" lon="-2.25441">
        <ele>24.39999961853</ele>
        <time>2021-06-27T08:44:44.000Z</time>
      </trkpt>
      <trkpt lat="47.56643" lon="-2.25444">
        <ele>24.799999237061</ele>
        <time>2021-06-27T08:44:45.000Z</time>
      </trkpt>
      <trkpt lat="47.56641" lon="-2.25448">
        <ele>25.200000762939</ele>
        <time>2021-06-27T08:44:46.000Z</time>
      </trkpt>
      <trkpt lat="47.5664" lon="-2.25451">
        <ele>25.60000038147</ele>
        <time>2021-06-27T08:44:47.000Z</time>
      </trkpt>
      <trkpt lat="47.56638" lon="-2.25454">
        <ele>26</ele>
        <time>2021-06-27T08:44:48.000Z</time>
      </trkpt>
      <trkpt lat="47.56634" lon="-2.25462">
        <ele>26</ele>
        <time>2021-06-27T08:44:52.000Z</time>
      </trkpt>
      <trkpt lat="47.56633" lon="-2.25468">
        <ele>26</ele>
        <time>2021-06-27T08:44:54.000Z</time>
      </trkpt>
      <trkpt lat="47.56631" lon="-2.25478">
        <ele>26</ele>
        <time>2021-06-27T08:44:57.000Z</time>
      </trkpt>
      <trkpt lat="47.56627" lon="-2.25483">
        <ele>26</ele>
        <time>2021-06-27T08:45:00.000Z</time>
      </trkpt>
      <trkpt lat="47.5662" lon="-2.25486">
        <ele>26</ele>
        <time>2021-06-27T08:45:05.000Z</time>
      </trkpt>
      <trkpt lat="47.5661" lon="-2.25491">
        <ele>26</ele>
        <time>2021-06-27T08:45:12.000Z</time>
      </trkpt>
      <trkpt lat="47.56604" lon="-2.25497">
        <ele>26</ele>
        <time>2021-06-27T08:45:18.000Z</time>
      </trkpt>
      <trkpt lat="47.56595" lon="-2.25502">
        <ele>26</ele>
        <time>2021-06-27T08:45:24.000Z</time>
      </trkpt>
      <trkpt lat="47.56581" lon="-2.25509">
        <ele>26</ele>
        <time>2021-06-27T08:45:31.000Z</time>
      </trkpt>
      <trkpt lat="47.5656" lon="-2.25516">
        <ele>26</ele>
        <time>2021-06-27T08:45:38.000Z</time>
      </trkpt>
      <trkpt lat="47.56549" lon="-2.25527">
        <ele>26</ele>
        <time>2021-06-27T08:45:43.000Z</time>
      </trkpt>
      <trkpt lat="47.56534" lon="-2.25542">
        <ele>26</ele>
        <time>2021-06-27T08:45:52.000Z</time>
      </trkpt>
      <trkpt lat="47.56522" lon="-2.25551">
        <ele>26</ele>
        <time>2021-06-27T08:45:59.000Z</time>
      </trkpt>
      <trkpt lat="47.56514" lon="-2.25557">
        <ele>26</ele>
        <time>2021-06-27T08:46:05.000Z</time>
      </trkpt>
      <trkpt lat="47.5651" lon="-2.25571">
        <ele>26</ele>
        <time>2021-06-27T08:46:14.000Z</time>
      </trkpt>
      <trkpt lat="47.56513" lon="-2.25584">
        <ele>26</ele>
        <time>2021-06-27T08:46:19.000Z</time>
      </trkpt>
      <trkpt lat="47.56512" lon="-2.25586">
        <ele>26</ele>
        <time>2021-06-27T08:46:21.000Z</time>
      </trkpt>
      <trkpt lat="47.56481" lon="-2.25617">
        <ele>28</ele>
        <time>2021-06-27T08:46:53.000Z</time>
      </trkpt>
      <trkpt lat="47.56477" lon="-2.25619">
        <ele>28</ele>
        <time>2021-06-27T08:46:55.000Z</time>
      </trkpt>
      <trkpt lat="47.56471" lon="-2.25629">
        <ele>28</ele>
        <time>2021-06-27T08:47:01.000Z</time>
      </trkpt>
      <trkpt lat="47.56468" lon="-2.25637">
        <ele>28</ele>
        <time>2021-06-27T08:47:04.000Z</time>
      </trkpt>
      <trkpt lat="47.56464" lon="-2.25645">
        <ele>28</ele>
        <time>2021-06-27T08:47:07.000Z</time>
      </trkpt>
      <trkpt lat="47.56455" lon="-2.25662">
        <ele>28</ele>
        <time>2021-06-27T08:47:13.000Z</time>
      </trkpt>
      <trkpt lat="47.56451" lon="-2.25686">
        <ele>28</ele>
        <time>2021-06-27T08:47:18.000Z</time>
      </trkpt>
      <trkpt lat="47.56451" lon="-2.25713">
        <ele>28</ele>
        <time>2021-06-27T08:47:25.000Z</time>
      </trkpt>
      <trkpt lat="47.5645" lon="-2.25736">
        <ele>28</ele>
        <time>2021-06-27T08:47:31.000Z</time>
      </trkpt>
      <trkpt lat="47.56449" lon="-2.25766">
        <ele>28</ele>
        <time>2021-06-27T08:47:38.000Z</time>
      </trkpt>
      <trkpt lat="47.56449" lon="-2.2579">
        <ele>28</ele>
        <time>2021-06-27T08:47:44.000Z</time>
      </trkpt>
      <trkpt lat="47.56445" lon="-2.25798">
        <ele>28</ele>
        <time>2021-06-27T08:47:48.000Z</time>
      </trkpt>
      <trkpt lat="47.56444" lon="-2.258">
        <ele>28</ele>
        <time>2021-06-27T08:47:50.000Z</time>
      </trkpt>
      <trkpt lat="47.56443" lon="-2.25801">
        <ele>28</ele>
        <time>2021-06-27T08:47:51.000Z</time>
      </trkpt>
      <trkpt lat="47.56439" lon="-2.25801">
        <ele>28</ele>
        <time>2021-06-27T08:48:04.000Z</time>
      </trkpt>
      <trkpt lat="47.56435" lon="-2.25801">
        <ele>28</ele>
        <time>2021-06-27T08:48:07.000Z</time>
      </trkpt>
      <trkpt lat="47.56425" lon="-2.25803">
        <ele>28</ele>
        <time>2021-06-27T08:48:13.000Z</time>
      </trkpt>
      <trkpt lat="47.56423" lon="-2.25804">
        <ele>27.60000038147</ele>
        <time>2021-06-27T08:48:14.000Z</time>
      </trkpt>
      <trkpt lat="47.5642" lon="-2.25805">
        <ele>27.200000762939</ele>
        <time>2021-06-27T08:48:15.000Z</time>
      </trkpt>
      <trkpt lat="47.56417" lon="-2.25805">
        <ele>26.39999961853</ele>
        <time>2021-06-27T08:48:16.000Z</time>
      </trkpt>
      <trkpt lat="47.56415" lon="-2.25805">
        <ele>25.799999237061</ele>
        <time>2021-06-27T08:48:17.000Z</time>
      </trkpt>
      <trkpt lat="47.56411" lon="-2.25806">
        <ele>25.799999237061</ele>
        <time>2021-06-27T08:48:19.000Z</time>
      </trkpt>
      <trkpt lat="47.56396" lon="-2.25805">
        <ele>25.799999237061</ele>
        <time>2021-06-27T08:48:25.000Z</time>
      </trkpt>
      <trkpt lat="47.56384" lon="-2.25803">
        <ele>25.799999237061</ele>
        <time>2021-06-27T08:48:30.000Z</time>
      </trkpt>
      <trkpt lat="47.56372" lon="-2.25804">
        <ele>25.799999237061</ele>
        <time>2021-06-27T08:48:36.000Z</time>
      </trkpt>
      <trkpt lat="47.5637" lon="-2.25805">
        <ele>25.39999961853</ele>
        <time>2021-06-27T08:48:37.000Z</time>
      </trkpt>
      <trkpt lat="47.56368" lon="-2.25805">
        <ele>25</ele>
        <time>2021-06-27T08:48:38.000Z</time>
      </trkpt>
      <trkpt lat="47.56366" lon="-2.25806">
        <ele>24.60000038147</ele>
        <time>2021-06-27T08:48:39.000Z</time>
      </trkpt>
      <trkpt lat="47.56364" lon="-2.25807">
        <ele>24.200000762939</ele>
        <time>2021-06-27T08:48:40.000Z</time>
      </trkpt>
      <trkpt lat="47.56362" lon="-2.25807">
        <ele>23.799999237061</ele>
        <time>2021-06-27T08:48:41.000Z</time>
      </trkpt>
      <trkpt lat="47.56359" lon="-2.25808">
        <ele>23.799999237061</ele>
        <time>2021-06-27T08:48:43.000Z</time>
      </trkpt>
      <trkpt lat="47.5635" lon="-2.25811">
        <ele>23.799999237061</ele>
        <time>2021-06-27T08:48:50.000Z</time>
      </trkpt>
      <trkpt lat="47.5635" lon="-2.25811">
        <ele>23.799999237061</ele>
        <time>2021-06-27T08:48:51.000Z</time>
      </trkpt>
      <trkpt lat="47.56346" lon="-2.25813">
        <ele>21.799999237061</ele>
        <time>2021-06-27T08:49:02.000Z</time>
      </trkpt>
      <trkpt lat="47.56344" lon="-2.25814">
        <ele>21.799999237061</ele>
        <time>2021-06-27T08:49:03.000Z</time>
      </trkpt>
      <trkpt lat="47.56336" lon="-2.25815">
        <ele>21.39999961853</ele>
        <time>2021-06-27T08:49:07.000Z</time>
      </trkpt>
      <trkpt lat="47.56334" lon="-2.25815">
        <ele>21</ele>
        <time>2021-06-27T08:49:08.000Z</time>
      </trkpt>
      <trkpt lat="47.56333" lon="-2.25816">
        <ele>20.60000038147</ele>
        <time>2021-06-27T08:49:09.000Z</time>
      </trkpt>
      <trkpt lat="47.56331" lon="-2.25816">
        <ele>20.200000762939</ele>
        <time>2021-06-27T08:49:10.000Z</time>
      </trkpt>
      <trkpt lat="47.56328" lon="-2.25817">
        <ele>19.60000038147</ele>
        <time>2021-06-27T08:49:11.000Z</time>
      </trkpt>
      <trkpt lat="47.56313" lon="-2.25819">
        <ele>19.200000762939</ele>
        <time>2021-06-27T08:49:18.000Z</time>
      </trkpt>
      <trkpt lat="47.56311" lon="-2.25819">
        <ele>18.799999237061</ele>
        <time>2021-06-27T08:49:19.000Z</time>
      </trkpt>
      <trkpt lat="47.56309" lon="-2.25819">
        <ele>18.39999961853</ele>
        <time>2021-06-27T08:49:20.000Z</time>
      </trkpt>
      <trkpt lat="47.56307" lon="-2.25819">
        <ele>18</ele>
        <time>2021-06-27T08:49:21.000Z</time>
      </trkpt>
      <trkpt lat="47.56305" lon="-2.25819">
        <ele>17.39999961853</ele>
        <time>2021-06-27T08:49:22.000Z</time>
      </trkpt>
      <trkpt lat="47.56296" lon="-2.2582">
        <ele>17.39999961853</ele>
        <time>2021-06-27T08:49:26.000Z</time>
      </trkpt>
      <trkpt lat="47.56289" lon="-2.25821">
        <ele>17</ele>
        <time>2021-06-27T08:49:32.000Z</time>
      </trkpt>
      <trkpt lat="47.56289" lon="-2.25821">
        <ele>16.60000038147</ele>
        <time>2021-06-27T08:49:33.000Z</time>
      </trkpt>
      <trkpt lat="47.56287" lon="-2.25823">
        <ele>15.39999961853</ele>
        <time>2021-06-27T08:49:36.000Z</time>
      </trkpt>
      <trkpt lat="47.56284" lon="-2.25824">
        <ele>15.39999961853</ele>
        <time>2021-06-27T08:49:38.000Z</time>
      </trkpt>
      <trkpt lat="47.56271" lon="-2.25825">
        <ele>15.39999961853</ele>
        <time>2021-06-27T08:49:43.000Z</time>
      </trkpt>
      <trkpt lat="47.5625" lon="-2.25827">
        <ele>15.39999961853</ele>
        <time>2021-06-27T08:49:50.000Z</time>
      </trkpt>
      <trkpt lat="47.56225" lon="-2.25831">
        <ele>15.39999961853</ele>
        <time>2021-06-27T08:49:59.000Z</time>
      </trkpt>
      <trkpt lat="47.56204" lon="-2.25842">
        <ele>15.39999961853</ele>
        <time>2021-06-27T08:50:07.000Z</time>
      </trkpt>
      <trkpt lat="47.56188" lon="-2.2585">
        <ele>15</ele>
        <time>2021-06-27T08:50:13.000Z</time>
      </trkpt>
      <trkpt lat="47.56186" lon="-2.25851">
        <ele>14.60000038147</ele>
        <time>2021-06-27T08:50:14.000Z</time>
      </trkpt>
      <trkpt lat="47.56183" lon="-2.25852">
        <ele>14.199999809265</ele>
        <time>2021-06-27T08:50:15.000Z</time>
      </trkpt>
      <trkpt lat="47.56181" lon="-2.25854">
        <ele>13.800000190735</ele>
        <time>2021-06-27T08:50:16.000Z</time>
      </trkpt>
      <trkpt lat="47.56178" lon="-2.25855">
        <ele>13.39999961853</ele>
        <time>2021-06-27T08:50:17.000Z</time>
      </trkpt>
      <trkpt lat="47.56168" lon="-2.25861">
        <ele>13.39999961853</ele>
        <time>2021-06-27T08:50:21.000Z</time>
      </trkpt>
      <trkpt lat="47.56149" lon="-2.25867">
        <ele>13.39999961853</ele>
        <time>2021-06-27T08:50:28.000Z</time>
      </trkpt>
      <trkpt lat="47.56134" lon="-2.2587">
        <ele>13.39999961853</ele>
        <time>2021-06-27T08:50:34.000Z</time>
      </trkpt>
      <trkpt lat="47.56118" lon="-2.2587">
        <ele>13.39999961853</ele>
        <time>2021-06-27T08:50:40.000Z</time>
      </trkpt>
      <trkpt lat="47.56108" lon="-2.25873">
        <ele>13.39999961853</ele>
        <time>2021-06-27T08:50:45.000Z</time>
      </trkpt>
      <trkpt lat="47.56108" lon="-2.25875">
        <ele>13.39999961853</ele>
        <time>2021-06-27T08:50:46.000Z</time>
      </trkpt>
      <trkpt lat="47.5611" lon="-2.25883">
        <ele>13.39999961853</ele>
        <time>2021-06-27T08:50:49.000Z</time>
      </trkpt>
      <trkpt lat="47.5611" lon="-2.25888">
        <ele>13.39999961853</ele>
        <time>2021-06-27T08:50:51.000Z</time>
      </trkpt>
      <trkpt lat="47.56111" lon="-2.25901">
        <ele>13.39999961853</ele>
        <time>2021-06-27T08:50:57.000Z</time>
      </trkpt>
      <trkpt lat="47.56111" lon="-2.25903">
        <ele>11.39999961853</ele>
        <time>2021-06-27T08:51:00.000Z</time>
      </trkpt>
      <trkpt lat="47.56112" lon="-2.25904">
        <ele>9.3999996185303</ele>
        <time>2021-06-27T08:51:01.000Z</time>
      </trkpt>
      <trkpt lat="47.56112" lon="-2.25905">
        <ele>7.4000000953674</ele>
        <time>2021-06-27T08:51:02.000Z</time>
      </trkpt>
      <trkpt lat="47.56112" lon="-2.25906">
        <ele>8.6000003814697</ele>
        <time>2021-06-27T08:51:03.000Z</time>
      </trkpt>
      <trkpt lat="47.56112" lon="-2.25907">
        <ele>9.6000003814697</ele>
        <time>2021-06-27T08:51:04.000Z</time>
      </trkpt>
      <trkpt lat="47.56112" lon="-2.25909">
        <ele>10.60000038147</ele>
        <time>2021-06-27T08:51:05.000Z</time>
      </trkpt>
      <trkpt lat="47.56112" lon="-2.2591">
        <ele>11.60000038147</ele>
        <time>2021-06-27T08:51:06.000Z</time>
      </trkpt>
      <trkpt lat="47.56112" lon="-2.25911">
        <ele>12.60000038147</ele>
        <time>2021-06-27T08:51:07.000Z</time>
      </trkpt>
      <trkpt lat="47.56112" lon="-2.25912">
        <ele>12.60000038147</ele>
        <time>2021-06-27T08:51:08.000Z</time>
      </trkpt>
      <trkpt lat="47.56113" lon="-2.25921">
        <ele>12.60000038147</ele>
        <time>2021-06-27T08:51:18.000Z</time>
      </trkpt>
      <trkpt lat="47.56113" lon="-2.25923">
        <ele>12.60000038147</ele>
        <time>2021-06-27T08:51:19.000Z</time>
      </trkpt>
      <trkpt lat="47.56113" lon="-2.25926">
        <ele>12.60000038147</ele>
        <time>2021-06-27T08:51:20.000Z</time>
      </trkpt>
      <trkpt lat="47.56112" lon="-2.25936">
        <ele>12.60000038147</ele>
        <time>2021-06-27T08:51:24.000Z</time>
      </trkpt>
      <trkpt lat="47.56112" lon="-2.2594">
        <ele>12.60000038147</ele>
        <time>2021-06-27T08:51:25.000Z</time>
      </trkpt>
      <trkpt lat="47.56116" lon="-2.25954">
        <ele>12.60000038147</ele>
        <time>2021-06-27T08:51:30.000Z</time>
      </trkpt>
      <trkpt lat="47.56116" lon="-2.25958">
        <ele>13</ele>
        <time>2021-06-27T08:51:31.000Z</time>
      </trkpt>
      <trkpt lat="47.56117" lon="-2.2596">
        <ele>13.39999961853</ele>
        <time>2021-06-27T08:51:32.000Z</time>
      </trkpt>
      <trkpt lat="47.56117" lon="-2.25963">
        <ele>13.800000190735</ele>
        <time>2021-06-27T08:51:33.000Z</time>
      </trkpt>
      <trkpt lat="47.56116" lon="-2.25965">
        <ele>14.199999809265</ele>
        <time>2021-06-27T08:51:34.000Z</time>
      </trkpt>
      <trkpt lat="47.56115" lon="-2.25967">
        <ele>14.60000038147</ele>
        <time>2021-06-27T08:51:35.000Z</time>
      </trkpt>
      <trkpt lat="47.56108" lon="-2.2597">
        <ele>14.60000038147</ele>
        <time>2021-06-27T08:51:38.000Z</time>
      </trkpt>
      <trkpt lat="47.56103" lon="-2.25973">
        <ele>14.60000038147</ele>
        <time>2021-06-27T08:51:40.000Z</time>
      </trkpt>
      <trkpt lat="47.56089" lon="-2.25979">
        <ele>15</ele>
        <time>2021-06-27T08:51:45.000Z</time>
      </trkpt>
      <trkpt lat="47.56086" lon="-2.2598">
        <ele>15.39999961853</ele>
        <time>2021-06-27T08:51:46.000Z</time>
      </trkpt>
      <trkpt lat="47.56083" lon="-2.25982">
        <ele>15.800000190735</ele>
        <time>2021-06-27T08:51:47.000Z</time>
      </trkpt>
      <trkpt lat="47.56079" lon="-2.25984">
        <ele>16.200000762939</ele>
        <time>2021-06-27T08:51:48.000Z</time>
      </trkpt>
      <trkpt lat="47.56076" lon="-2.25985">
        <ele>16.60000038147</ele>
        <time>2021-06-27T08:51:49.000Z</time>
      </trkpt>
      <trkpt lat="47.5606" lon="-2.2599">
        <ele>16.60000038147</ele>
        <time>2021-06-27T08:51:54.000Z</time>
      </trkpt>
      <trkpt lat="47.56043" lon="-2.26002">
        <ele>16.60000038147</ele>
        <time>2021-06-27T08:52:00.000Z</time>
      </trkpt>
      <trkpt lat="47.56024" lon="-2.26011">
        <ele>16.60000038147</ele>
        <time>2021-06-27T08:52:07.000Z</time>
      </trkpt>
      <trkpt lat="47.56015" lon="-2.26016">
        <ele>17</ele>
        <time>2021-06-27T08:52:10.000Z</time>
      </trkpt>
      <trkpt lat="47.56012" lon="-2.26017">
        <ele>17.39999961853</ele>
        <time>2021-06-27T08:52:11.000Z</time>
      </trkpt>
      <trkpt lat="47.5601" lon="-2.26018">
        <ele>17.799999237061</ele>
        <time>2021-06-27T08:52:12.000Z</time>
      </trkpt>
      <trkpt lat="47.56007" lon="-2.2602">
        <ele>18.200000762939</ele>
        <time>2021-06-27T08:52:13.000Z</time>
      </trkpt>
      <trkpt lat="47.56006" lon="-2.26023">
        <ele>18.799999237061</ele>
        <time>2021-06-27T08:52:14.000Z</time>
      </trkpt>
      <trkpt lat="47.56005" lon="-2.26025">
        <ele>18.799999237061</ele>
        <time>2021-06-27T08:52:15.000Z</time>
      </trkpt>
      <trkpt lat="47.56005" lon="-2.26029">
        <ele>18.799999237061</ele>
        <time>2021-06-27T08:52:17.000Z</time>
      </trkpt>
      <trkpt lat="47.56009" lon="-2.26044">
        <ele>18.799999237061</ele>
        <time>2021-06-27T08:52:23.000Z</time>
      </trkpt>
      <trkpt lat="47.56011" lon="-2.26064">
        <ele>18.799999237061</ele>
        <time>2021-06-27T08:52:30.000Z</time>
      </trkpt>
      <trkpt lat="47.56012" lon="-2.26075">
        <ele>19.200000762939</ele>
        <time>2021-06-27T08:52:33.000Z</time>
      </trkpt>
      <trkpt lat="47.56012" lon="-2.26079">
        <ele>19.60000038147</ele>
        <time>2021-06-27T08:52:34.000Z</time>
      </trkpt>
      <trkpt lat="47.56013" lon="-2.26084">
        <ele>20</ele>
        <time>2021-06-27T08:52:35.000Z</time>
      </trkpt>
      <trkpt lat="47.56012" lon="-2.26089">
        <ele>20.39999961853</ele>
        <time>2021-06-27T08:52:36.000Z</time>
      </trkpt>
      <trkpt lat="47.56013" lon="-2.26094">
        <ele>20.799999237061</ele>
        <time>2021-06-27T08:52:37.000Z</time>
      </trkpt>
      <trkpt lat="47.56017" lon="-2.26107">
        <ele>20.799999237061</ele>
        <time>2021-06-27T08:52:40.000Z</time>
      </trkpt>
      <trkpt lat="47.56023" lon="-2.26139">
        <ele>20.799999237061</ele>
        <time>2021-06-27T08:52:46.000Z</time>
      </trkpt>
      <trkpt lat="47.56021" lon="-2.26148">
        <ele>21.200000762939</ele>
        <time>2021-06-27T08:52:48.000Z</time>
      </trkpt>
      <trkpt lat="47.56019" lon="-2.2615">
        <ele>22</ele>
        <time>2021-06-27T08:52:49.000Z</time>
      </trkpt>
      <trkpt lat="47.56016" lon="-2.26153">
        <ele>22.39999961853</ele>
        <time>2021-06-27T08:52:50.000Z</time>
      </trkpt>
      <trkpt lat="47.56013" lon="-2.26157">
        <ele>22.799999237061</ele>
        <time>2021-06-27T08:52:51.000Z</time>
      </trkpt>
      <trkpt lat="47.56005" lon="-2.26171">
        <ele>22.799999237061</ele>
        <time>2021-06-27T08:52:54.000Z</time>
      </trkpt>
      <trkpt lat="47.5599" lon="-2.26201">
        <ele>22.799999237061</ele>
        <time>2021-06-27T08:53:00.000Z</time>
      </trkpt>
      <trkpt lat="47.5598" lon="-2.26236">
        <ele>22.799999237061</ele>
        <time>2021-06-27T08:53:06.000Z</time>
      </trkpt>
      <trkpt lat="47.55965" lon="-2.26277">
        <ele>22.799999237061</ele>
        <time>2021-06-27T08:53:14.000Z</time>
      </trkpt>
      <trkpt lat="47.55951" lon="-2.26321">
        <ele>22.799999237061</ele>
        <time>2021-06-27T08:53:21.000Z</time>
      </trkpt>
      <trkpt lat="47.5594" lon="-2.26355">
        <ele>22.799999237061</ele>
        <time>2021-06-27T08:53:28.000Z</time>
      </trkpt>
      <trkpt lat="47.55941" lon="-2.26359">
        <ele>22.799999237061</ele>
        <time>2021-06-27T08:53:29.000Z</time>
      </trkpt>
      <trkpt lat="47.55947" lon="-2.2637">
        <ele>22.799999237061</ele>
        <time>2021-06-27T08:53:32.000Z</time>
      </trkpt>
      <trkpt lat="47.55949" lon="-2.26374">
        <ele>22.799999237061</ele>
        <time>2021-06-27T08:53:33.000Z</time>
      </trkpt>
      <trkpt lat="47.55964" lon="-2.26403">
        <ele>22.799999237061</ele>
        <time>2021-06-27T08:53:40.000Z</time>
      </trkpt>
      <trkpt lat="47.55978" lon="-2.26436">
        <ele>22.799999237061</ele>
        <time>2021-06-27T08:53:47.000Z</time>
      </trkpt>
      <trkpt lat="47.55987" lon="-2.26457">
        <ele>22.799999237061</ele>
        <time>2021-06-27T08:53:53.000Z</time>
      </trkpt>
      <trkpt lat="47.55987" lon="-2.26463">
        <ele>22.799999237061</ele>
        <time>2021-06-27T08:53:55.000Z</time>
      </trkpt>
      <trkpt lat="47.55983" lon="-2.2647">
        <ele>22.799999237061</ele>
        <time>2021-06-27T08:53:57.000Z</time>
      </trkpt>
      <trkpt lat="47.55981" lon="-2.26493">
        <ele>22.799999237061</ele>
        <time>2021-06-27T08:54:03.000Z</time>
      </trkpt>
      <trkpt lat="47.5598" lon="-2.26503">
        <ele>22.799999237061</ele>
        <time>2021-06-27T08:54:06.000Z</time>
      </trkpt>
      <trkpt lat="47.55981" lon="-2.26507">
        <ele>22.799999237061</ele>
        <time>2021-06-27T08:54:07.000Z</time>
      </trkpt>
      <trkpt lat="47.55982" lon="-2.26517">
        <ele>22.799999237061</ele>
        <time>2021-06-27T08:54:11.000Z</time>
      </trkpt>
      <trkpt lat="47.55987" lon="-2.26528">
        <ele>23.200000762939</ele>
        <time>2021-06-27T08:54:15.000Z</time>
      </trkpt>
      <trkpt lat="47.55988" lon="-2.2653">
        <ele>23.60000038147</ele>
        <time>2021-06-27T08:54:16.000Z</time>
      </trkpt>
      <trkpt lat="47.55989" lon="-2.26532">
        <ele>24</ele>
        <time>2021-06-27T08:54:17.000Z</time>
      </trkpt>
      <trkpt lat="47.55991" lon="-2.26534">
        <ele>24.39999961853</ele>
        <time>2021-06-27T08:54:18.000Z</time>
      </trkpt>
      <trkpt lat="47.55992" lon="-2.26535">
        <ele>24.799999237061</ele>
        <time>2021-06-27T08:54:19.000Z</time>
      </trkpt>
      <trkpt lat="47.55997" lon="-2.26542">
        <ele>24.799999237061</ele>
        <time>2021-06-27T08:54:22.000Z</time>
      </trkpt>
      <trkpt lat="47.55998" lon="-2.26544">
        <ele>24.799999237061</ele>
        <time>2021-06-27T08:54:23.000Z</time>
      </trkpt>
      <trkpt lat="47.56004" lon="-2.26556">
        <ele>24.799999237061</ele>
        <time>2021-06-27T08:54:29.000Z</time>
      </trkpt>
      <trkpt lat="47.56005" lon="-2.26566">
        <ele>24.799999237061</ele>
        <time>2021-06-27T08:54:33.000Z</time>
      </trkpt>
      <trkpt lat="47.56006" lon="-2.26567">
        <ele>24.799999237061</ele>
        <time>2021-06-27T08:54:35.000Z</time>
      </trkpt>
      <trkpt lat="47.56006" lon="-2.26569">
        <ele>24.799999237061</ele>
        <time>2021-06-27T08:54:36.000Z</time>
      </trkpt>
      <trkpt lat="47.56007" lon="-2.26575">
        <ele>24.799999237061</ele>
        <time>2021-06-27T08:54:39.000Z</time>
      </trkpt>
      <trkpt lat="47.5601" lon="-2.2659">
        <ele>24.799999237061</ele>
        <time>2021-06-27T08:54:44.000Z</time>
      </trkpt>
      <trkpt lat="47.5601" lon="-2.26592">
        <ele>24.799999237061</ele>
        <time>2021-06-27T08:54:45.000Z</time>
      </trkpt>
      <trkpt lat="47.56008" lon="-2.26595">
        <ele>24.799999237061</ele>
        <time>2021-06-27T08:54:46.000Z</time>
      </trkpt>
      <trkpt lat="47.56002" lon="-2.26601">
        <ele>24.799999237061</ele>
        <time>2021-06-27T08:54:49.000Z</time>
      </trkpt>
      <trkpt lat="47.55995" lon="-2.2661">
        <ele>24.799999237061</ele>
        <time>2021-06-27T08:54:54.000Z</time>
      </trkpt>
      <trkpt lat="47.55993" lon="-2.26615">
        <ele>24.799999237061</ele>
        <time>2021-06-27T08:54:57.000Z</time>
      </trkpt>
      <trkpt lat="47.55992" lon="-2.26616">
        <ele>24.799999237061</ele>
        <time>2021-06-27T08:54:58.000Z</time>
      </trkpt>
      <trkpt lat="47.5599" lon="-2.26616">
        <ele>24.799999237061</ele>
        <time>2021-06-27T08:54:59.000Z</time>
      </trkpt>
      <trkpt lat="47.55979" lon="-2.26628">
        <ele>24.799999237061</ele>
        <time>2021-06-27T08:55:04.000Z</time>
      </trkpt>
      <trkpt lat="47.55975" lon="-2.26631">
        <ele>24.799999237061</ele>
        <time>2021-06-27T08:55:05.000Z</time>
      </trkpt>
      <trkpt lat="47.55961" lon="-2.26638">
        <ele>24.799999237061</ele>
        <time>2021-06-27T08:55:11.000Z</time>
      </trkpt>
      <trkpt lat="47.55947" lon="-2.26645">
        <ele>24.799999237061</ele>
        <time>2021-06-27T08:55:18.000Z</time>
      </trkpt>
      <trkpt lat="47.55933" lon="-2.26658">
        <ele>24.799999237061</ele>
        <time>2021-06-27T08:55:23.000Z</time>
      </trkpt>
      <trkpt lat="47.55911" lon="-2.26674">
        <ele>24.39999961853</ele>
        <time>2021-06-27T08:55:28.000Z</time>
      </trkpt>
      <trkpt lat="47.55908" lon="-2.26676">
        <ele>23.799999237061</ele>
        <time>2021-06-27T08:55:29.000Z</time>
      </trkpt>
      <trkpt lat="47.55905" lon="-2.26677">
        <ele>23.39999961853</ele>
        <time>2021-06-27T08:55:30.000Z</time>
      </trkpt>
      <trkpt lat="47.55902" lon="-2.26678">
        <ele>23</ele>
        <time>2021-06-27T08:55:31.000Z</time>
      </trkpt>
      <trkpt lat="47.55901" lon="-2.26677">
        <ele>22.39999961853</ele>
        <time>2021-06-27T08:55:32.000Z</time>
      </trkpt>
      <trkpt lat="47.55899" lon="-2.26672">
        <ele>22</ele>
        <time>2021-06-27T08:55:34.000Z</time>
      </trkpt>
      <trkpt lat="47.55898" lon="-2.26669">
        <ele>21.60000038147</ele>
        <time>2021-06-27T08:55:35.000Z</time>
      </trkpt>
      <trkpt lat="47.55897" lon="-2.26665">
        <ele>21.200000762939</ele>
        <time>2021-06-27T08:55:36.000Z</time>
      </trkpt>
      <trkpt lat="47.55895" lon="-2.26661">
        <ele>20.60000038147</ele>
        <time>2021-06-27T08:55:37.000Z</time>
      </trkpt>
      <trkpt lat="47.55894" lon="-2.26657">
        <ele>20.200000762939</ele>
        <time>2021-06-27T08:55:38.000Z</time>
      </trkpt>
      <trkpt lat="47.5589" lon="-2.26646">
        <ele>20.200000762939</ele>
        <time>2021-06-27T08:55:40.000Z</time>
      </trkpt>
      <trkpt lat="47.55889" lon="-2.2664">
        <ele>19.799999237061</ele>
        <time>2021-06-27T08:55:41.000Z</time>
      </trkpt>
      <trkpt lat="47.55886" lon="-2.26634">
        <ele>18.799999237061</ele>
        <time>2021-06-27T08:55:42.000Z</time>
      </trkpt>
      <trkpt lat="47.55884" lon="-2.26628">
        <ele>18.39999961853</ele>
        <time>2021-06-27T08:55:43.000Z</time>
      </trkpt>
      <trkpt lat="47.55882" lon="-2.26622">
        <ele>18</ele>
        <time>2021-06-27T08:55:44.000Z</time>
      </trkpt>
      <trkpt lat="47.55876" lon="-2.26605">
        <ele>18</ele>
        <time>2021-06-27T08:55:47.000Z</time>
      </trkpt>
      <trkpt lat="47.55873" lon="-2.26597">
        <ele>17.60000038147</ele>
        <time>2021-06-27T08:55:49.000Z</time>
      </trkpt>
      <trkpt lat="47.55872" lon="-2.26593">
        <ele>17.200000762939</ele>
        <time>2021-06-27T08:55:50.000Z</time>
      </trkpt>
      <trkpt lat="47.55871" lon="-2.2659">
        <ele>16.799999237061</ele>
        <time>2021-06-27T08:55:51.000Z</time>
      </trkpt>
      <trkpt lat="47.55869" lon="-2.26587">
        <ele>16.200000762939</ele>
        <time>2021-06-27T08:55:52.000Z</time>
      </trkpt>
      <trkpt lat="47.55868" lon="-2.26584">
        <ele>15.800000190735</ele>
        <time>2021-06-27T08:55:53.000Z</time>
      </trkpt>
      <trkpt lat="47.55864" lon="-2.26579">
        <ele>15.39999961853</ele>
        <time>2021-06-27T08:55:55.000Z</time>
      </trkpt>
      <trkpt lat="47.55862" lon="-2.26579">
        <ele>15</ele>
        <time>2021-06-27T08:55:56.000Z</time>
      </trkpt>
      <trkpt lat="47.55859" lon="-2.26581">
        <ele>14.60000038147</ele>
        <time>2021-06-27T08:55:57.000Z</time>
      </trkpt>
      <trkpt lat="47.55856" lon="-2.26583">
        <ele>14.199999809265</ele>
        <time>2021-06-27T08:55:58.000Z</time>
      </trkpt>
      <trkpt lat="47.55853" lon="-2.26585">
        <ele>13.800000190735</ele>
        <time>2021-06-27T08:55:59.000Z</time>
      </trkpt>
      <trkpt lat="47.55851" lon="-2.26588">
        <ele>13.39999961853</ele>
        <time>2021-06-27T08:56:00.000Z</time>
      </trkpt>
      <trkpt lat="47.55848" lon="-2.26591">
        <ele>12.800000190735</ele>
        <time>2021-06-27T08:56:01.000Z</time>
      </trkpt>
      <trkpt lat="47.55845" lon="-2.26593">
        <ele>12.39999961853</ele>
        <time>2021-06-27T08:56:02.000Z</time>
      </trkpt>
      <trkpt lat="47.55843" lon="-2.26596">
        <ele>12</ele>
        <time>2021-06-27T08:56:03.000Z</time>
      </trkpt>
      <trkpt lat="47.5584" lon="-2.26599">
        <ele>11.60000038147</ele>
        <time>2021-06-27T08:56:04.000Z</time>
      </trkpt>
      <trkpt lat="47.55828" lon="-2.26611">
        <ele>11.60000038147</ele>
        <time>2021-06-27T08:56:10.000Z</time>
      </trkpt>
      <trkpt lat="47.55822" lon="-2.26615">
        <ele>11.60000038147</ele>
        <time>2021-06-27T08:56:15.000Z</time>
      </trkpt>
      <trkpt lat="47.55821" lon="-2.26615">
        <ele>11.60000038147</ele>
        <time>2021-06-27T08:56:16.000Z</time>
      </trkpt>
      <trkpt lat="47.55809" lon="-2.26622">
        <ele>11.60000038147</ele>
        <time>2021-06-27T08:56:21.000Z</time>
      </trkpt>
      <trkpt lat="47.558" lon="-2.26627">
        <ele>11.199999809265</ele>
        <time>2021-06-27T08:56:24.000Z</time>
      </trkpt>
      <trkpt lat="47.55798" lon="-2.2663">
        <ele>10.60000038147</ele>
        <time>2021-06-27T08:56:25.000Z</time>
      </trkpt>
      <trkpt lat="47.55796" lon="-2.26632">
        <ele>10.199999809265</ele>
        <time>2021-06-27T08:56:26.000Z</time>
      </trkpt>
      <trkpt lat="47.55794" lon="-2.26634">
        <ele>9.8000001907349</ele>
        <time>2021-06-27T08:56:27.000Z</time>
      </trkpt>
      <trkpt lat="47.55793" lon="-2.26635">
        <ele>9.3999996185303</ele>
        <time>2021-06-27T08:56:28.000Z</time>
      </trkpt>
      <trkpt lat="47.55789" lon="-2.26638">
        <ele>9</ele>
        <time>2021-06-27T08:56:30.000Z</time>
      </trkpt>
      <trkpt lat="47.55787" lon="-2.2664">
        <ele>8.6000003814697</ele>
        <time>2021-06-27T08:56:31.000Z</time>
      </trkpt>
      <trkpt lat="47.55786" lon="-2.26641">
        <ele>8.1999998092651</ele>
        <time>2021-06-27T08:56:32.000Z</time>
      </trkpt>
      <trkpt lat="47.55784" lon="-2.26642">
        <ele>7.8000001907349</ele>
        <time>2021-06-27T08:56:33.000Z</time>
      </trkpt>
      <trkpt lat="47.55782" lon="-2.26644">
        <ele>7.4000000953674</ele>
        <time>2021-06-27T08:56:34.000Z</time>
      </trkpt>
      <trkpt lat="47.55771" lon="-2.26653">
        <ele>7.4000000953674</ele>
        <time>2021-06-27T08:56:39.000Z</time>
      </trkpt>
      <trkpt lat="47.55767" lon="-2.26654">
        <ele>7.4000000953674</ele>
        <time>2021-06-27T08:56:41.000Z</time>
      </trkpt>
      <trkpt lat="47.55762" lon="-2.26648">
        <ele>7.4000000953674</ele>
        <time>2021-06-27T08:56:44.000Z</time>
      </trkpt>
      <trkpt lat="47.55754" lon="-2.26643">
        <ele>7</ele>
        <time>2021-06-27T08:56:48.000Z</time>
      </trkpt>
      <trkpt lat="47.55753" lon="-2.26643">
        <ele>6.5999999046326</ele>
        <time>2021-06-27T08:56:49.000Z</time>
      </trkpt>
      <trkpt lat="47.55751" lon="-2.26643">
        <ele>6.1999998092651</ele>
        <time>2021-06-27T08:56:50.000Z</time>
      </trkpt>
      <trkpt lat="47.55749" lon="-2.26642">
        <ele>5.8000001907349</ele>
        <time>2021-06-27T08:56:51.000Z</time>
      </trkpt>
      <trkpt lat="47.55746" lon="-2.26641">
        <ele>5.4000000953674</ele>
        <time>2021-06-27T08:56:52.000Z</time>
      </trkpt>
      <trkpt lat="47.55736" lon="-2.26642">
        <ele>5.4000000953674</ele>
        <time>2021-06-27T08:56:57.000Z</time>
      </trkpt>
      <trkpt lat="47.5572" lon="-2.26649">
        <ele>5.4000000953674</ele>
        <time>2021-06-27T08:57:03.000Z</time>
      </trkpt>
      <trkpt lat="47.557" lon="-2.26657">
        <ele>5.4000000953674</ele>
        <time>2021-06-27T08:57:09.000Z</time>
      </trkpt>
      <trkpt lat="47.55673" lon="-2.26668">
        <ele>5.4000000953674</ele>
        <time>2021-06-27T08:57:17.000Z</time>
      </trkpt>
      <trkpt lat="47.55649" lon="-2.2666">
        <ele>5.4000000953674</ele>
        <time>2021-06-27T08:57:23.000Z</time>
      </trkpt>
      <trkpt lat="47.55645" lon="-2.26654">
        <ele>5.4000000953674</ele>
        <time>2021-06-27T08:57:24.000Z</time>
      </trkpt>
      <trkpt lat="47.55641" lon="-2.26645">
        <ele>5.4000000953674</ele>
        <time>2021-06-27T08:57:26.000Z</time>
      </trkpt>
      <trkpt lat="47.55634" lon="-2.26638">
        <ele>5.4000000953674</ele>
        <time>2021-06-27T08:57:29.000Z</time>
      </trkpt>
      <trkpt lat="47.55631" lon="-2.2664">
        <ele>5.4000000953674</ele>
        <time>2021-06-27T08:57:30.000Z</time>
      </trkpt>
      <trkpt lat="47.55628" lon="-2.26642">
        <ele>5</ele>
        <time>2021-06-27T08:57:31.000Z</time>
      </trkpt>
      <trkpt lat="47.55624" lon="-2.26643">
        <ele>4.4000000953674</ele>
        <time>2021-06-27T08:57:32.000Z</time>
      </trkpt>
      <trkpt lat="47.55621" lon="-2.26645">
        <ele>4</ele>
        <time>2021-06-27T08:57:33.000Z</time>
      </trkpt>
      <trkpt lat="47.55619" lon="-2.26646">
        <ele>3.5999999046326</ele>
        <time>2021-06-27T08:57:34.000Z</time>
      </trkpt>
      <trkpt lat="47.55615" lon="-2.26648">
        <ele>3.2000000476837</ele>
        <time>2021-06-27T08:57:35.000Z</time>
      </trkpt>
      <trkpt lat="47.55589" lon="-2.26658">
        <ele>3.2000000476837</ele>
        <time>2021-06-27T08:57:41.000Z</time>
      </trkpt>
      <trkpt lat="47.55564" lon="-2.26669">
        <ele>2.2000000476837</ele>
        <time>2021-06-27T08:57:46.000Z</time>
      </trkpt>
      <trkpt lat="47.55559" lon="-2.26672">
        <ele>1.7999999523163</ele>
        <time>2021-06-27T08:57:47.000Z</time>
      </trkpt>
      <trkpt lat="47.55554" lon="-2.26676">
        <ele>1.3999999761581</ele>
        <time>2021-06-27T08:57:48.000Z</time>
      </trkpt>
      <trkpt lat="47.55549" lon="-2.26679">
        <ele>0.80000001192093</ele>
        <time>2021-06-27T08:57:49.000Z</time>
      </trkpt>
      <trkpt lat="47.5554" lon="-2.26685">
        <ele>0.40000000596046</ele>
        <time>2021-06-27T08:57:51.000Z</time>
      </trkpt>
      <trkpt lat="47.55535" lon="-2.26687">
        <ele>49.7</ele>
        <time>2021-06-27T08:57:52.000Z</time>
      </trkpt>
      <trkpt lat="47.5553" lon="-2.2669">
        <ele>-0.60000002384186</ele>
        <time>2021-06-27T08:57:53.000Z</time>
      </trkpt>
      <trkpt lat="47.55524" lon="-2.26693">
        <ele>-1</ele>
        <time>2021-06-27T08:57:54.000Z</time>
      </trkpt>
      <trkpt lat="47.5552" lon="-2.26696">
        <ele>-1.3999999761581</ele>
        <time>2021-06-27T08:57:55.000Z</time>
      </trkpt>
      <trkpt lat="47.55511" lon="-2.26701">
        <ele>-2</ele>
        <time>2021-06-27T08:57:57.000Z</time>
      </trkpt>
      <trkpt lat="47.55507" lon="-2.26703">
        <ele>-2.4000000953674</ele>
        <time>2021-06-27T08:57:58.000Z</time>
      </trkpt>
      <trkpt lat="47.55502" lon="-2.26705">
        <ele>-2.7999999523163</ele>
        <time>2021-06-27T08:57:59.000Z</time>
      </trkpt>
      <trkpt lat="47.55498" lon="-2.26708">
        <ele>-3.4000000953674</ele>
        <time>2021-06-27T08:58:00.000Z</time>
      </trkpt>
      <trkpt lat="47.55494" lon="-2.2671">
        <ele>-3.7999999523163</ele>
        <time>2021-06-27T08:58:01.000Z</time>
      </trkpt>
      <trkpt lat="47.5549" lon="-2.26712">
        <ele>-4.4000000953674</ele>
        <time>2021-06-27T08:58:02.000Z</time>
      </trkpt>
      <trkpt lat="47.55485" lon="-2.26715">
        <ele>-5</ele>
        <time>2021-06-27T08:58:03.000Z</time>
      </trkpt>
      <trkpt lat="47.55482" lon="-2.26716">
        <ele>-5.4000000953674</ele>
        <time>2021-06-27T08:58:04.000Z</time>
      </trkpt>
      <trkpt lat="47.55478" lon="-2.26718">
        <ele>-6</ele>
        <time>2021-06-27T08:58:05.000Z</time>
      </trkpt>
      <trkpt lat="47.55475" lon="-2.2672">
        <ele>-6.4000000953674</ele>
        <time>2021-06-27T08:58:06.000Z</time>
      </trkpt>
      <trkpt lat="47.55471" lon="-2.26722">
        <ele>-7</ele>
        <time>2021-06-27T08:58:07.000Z</time>
      </trkpt>
      <trkpt lat="47.55468" lon="-2.26724">
        <ele>-7.4000000953674</ele>
        <time>2021-06-27T08:58:08.000Z</time>
      </trkpt>
      <trkpt lat="47.55465" lon="-2.26726">
        <ele>-8</ele>
        <time>2021-06-27T08:58:09.000Z</time>
      </trkpt>
      <trkpt lat="47.55461" lon="-2.26728">
        <ele>-8.3999996185303</ele>
        <time>2021-06-27T08:58:10.000Z</time>
      </trkpt>
      <trkpt lat="47.55457" lon="-2.26729">
        <ele>-9.3999996185303</ele>
        <time>2021-06-27T08:58:11.000Z</time>
      </trkpt>
      <trkpt lat="47.55453" lon="-2.26731">
        <ele>-10</ele>
        <time>2021-06-27T08:58:12.000Z</time>
      </trkpt>
      <trkpt lat="47.55449" lon="-2.26732">
        <ele>-10.60000038147</ele>
        <time>2021-06-27T08:58:13.000Z</time>
      </trkpt>
      <trkpt lat="47.55446" lon="-2.26734">
        <ele>-11.199999809265</ele>
        <time>2021-06-27T08:58:14.000Z</time>
      </trkpt>
      <trkpt lat="47.55442" lon="-2.26735">
        <ele>-11.800000190735</ele>
        <time>2021-06-27T08:58:15.000Z</time>
      </trkpt>
      <trkpt lat="47.55439" lon="-2.26736">
        <ele>-12.199999809265</ele>
        <time>2021-06-27T08:58:16.000Z</time>
      </trkpt>
      <trkpt lat="47.55436" lon="-2.26737">
        <ele>-12.800000190735</ele>
        <time>2021-06-27T08:58:17.000Z</time>
      </trkpt>
      <trkpt lat="47.55432" lon="-2.26737">
        <ele>-13.39999961853</ele>
        <time>2021-06-27T08:58:18.000Z</time>
      </trkpt>
      <trkpt lat="47.55429" lon="-2.26737">
        <ele>-14</ele>
        <time>2021-06-27T08:58:19.000Z</time>
      </trkpt>
      <trkpt lat="47.55425" lon="-2.26738">
        <ele>-14.60000038147</ele>
        <time>2021-06-27T08:58:20.000Z</time>
      </trkpt>
      <trkpt lat="47.55422" lon="-2.26739">
        <ele>-15</ele>
        <time>2021-06-27T08:58:21.000Z</time>
      </trkpt>
      <trkpt lat="47.55418" lon="-2.2674">
        <ele>-15.60000038147</ele>
        <time>2021-06-27T08:58:22.000Z</time>
      </trkpt>
      <trkpt lat="47.55415" lon="-2.26741">
        <ele>-16</ele>
        <time>2021-06-27T08:58:23.000Z</time>
      </trkpt>
      <trkpt lat="47.55411" lon="-2.26742">
        <ele>-16.60000038147</ele>
        <time>2021-06-27T08:58:24.000Z</time>
      </trkpt>
      <trkpt lat="47.55408" lon="-2.26744">
        <ele>-17</ele>
        <time>2021-06-27T08:58:25.000Z</time>
      </trkpt>
      <trkpt lat="47.55404" lon="-2.26747">
        <ele>-17.60000038147</ele>
        <time>2021-06-27T08:58:26.000Z</time>
      </trkpt>
      <trkpt lat="47.554" lon="-2.26749">
        <ele>-18</ele>
        <time>2021-06-27T08:58:27.000Z</time>
      </trkpt>
      <trkpt lat="47.55396" lon="-2.26751">
        <ele>-18.60000038147</ele>
        <time>2021-06-27T08:58:28.000Z</time>
      </trkpt>
      <trkpt lat="47.55393" lon="-2.26754">
        <ele>-19</ele>
        <time>2021-06-27T08:58:29.000Z</time>
      </trkpt>
      <trkpt lat="47.55389" lon="-2.26756">
        <ele>-19.60000038147</ele>
        <time>2021-06-27T08:58:30.000Z</time>
      </trkpt>
      <trkpt lat="47.55385" lon="-2.26758">
        <ele>-20.200000762939</ele>
        <time>2021-06-27T08:58:31.000Z</time>
      </trkpt>
      <trkpt lat="47.55381" lon="-2.2676">
        <ele>-20.60000038147</ele>
        <time>2021-06-27T08:58:32.000Z</time>
      </trkpt>
      <trkpt lat="47.55377" lon="-2.26763">
        <ele>-21</ele>
        <time>2021-06-27T08:58:33.000Z</time>
      </trkpt>
      <trkpt lat="47.55373" lon="-2.26765">
        <ele>-21.60000038147</ele>
        <time>2021-06-27T08:58:34.000Z</time>
      </trkpt>
      <trkpt lat="47.55369" lon="-2.26768">
        <ele>-22.200000762939</ele>
        <time>2021-06-27T08:58:35.000Z</time>
      </trkpt>
      <trkpt lat="47.55365" lon="-2.2677">
        <ele>-23.39999961853</ele>
        <time>2021-06-27T08:58:36.000Z</time>
      </trkpt>
      <trkpt lat="47.55361" lon="-2.26772">
        <ele>-24</ele>
        <time>2021-06-27T08:58:37.000Z</time>
      </trkpt>
      <trkpt lat="47.55357" lon="-2.26775">
        <ele>-24.799999237061</ele>
        <time>2021-06-27T08:58:38.000Z</time>
      </trkpt>
      <trkpt lat="47.55352" lon="-2.26777">
        <ele>-25.39999961853</ele>
        <time>2021-06-27T08:58:39.000Z</time>
      </trkpt>
      <trkpt lat="47.55348" lon="-2.26779">
        <ele>-26</ele>
        <time>2021-06-27T08:58:40.000Z</time>
      </trkpt>
      <trkpt lat="47.55344" lon="-2.26782">
        <ele>-26.60000038147</ele>
        <time>2021-06-27T08:58:41.000Z</time>
      </trkpt>
      <trkpt lat="47.5534" lon="-2.26785">
        <ele>-27.39999961853</ele>
        <time>2021-06-27T08:58:42.000Z</time>
      </trkpt>
      <trkpt lat="47.55336" lon="-2.26787">
        <ele>-28</ele>
        <time>2021-06-27T08:58:43.000Z</time>
      </trkpt>
      <trkpt lat="47.55331" lon="-2.2679">
        <ele>-28.60000038147</ele>
        <time>2021-06-27T08:58:44.000Z</time>
      </trkpt>
      <trkpt lat="47.55326" lon="-2.26793">
        <ele>-29.200000762939</ele>
        <time>2021-06-27T08:58:45.000Z</time>
      </trkpt>
      <trkpt lat="47.55321" lon="-2.26796">
        <ele>-29.60000038147</ele>
        <time>2021-06-27T08:58:46.000Z</time>
      </trkpt>
      <trkpt lat="47.55316" lon="-2.26799">
        <ele>-30.200000762939</ele>
        <time>2021-06-27T08:58:47.000Z</time>
      </trkpt>
      <trkpt lat="47.55311" lon="-2.26801">
        <ele>-30.799999237061</ele>
        <time>2021-06-27T08:58:48.000Z</time>
      </trkpt>
      <trkpt lat="47.55307" lon="-2.26805">
        <ele>-31.39999961853</ele>
        <time>2021-06-27T08:58:49.000Z</time>
      </trkpt>
      <trkpt lat="47.55303" lon="-2.26808">
        <ele>-32</ele>
        <time>2021-06-27T08:58:50.000Z</time>
      </trkpt>
      <trkpt lat="47.55299" lon="-2.26812">
        <ele>-32.400001525879</ele>
        <time>2021-06-27T08:58:51.000Z</time>
      </trkpt>
      <trkpt lat="47.55297" lon="-2.26816">
        <ele>-33</ele>
        <time>2021-06-27T08:58:52.000Z</time>
      </trkpt>
      <trkpt lat="47.55296" lon="-2.26823">
        <ele>-33.599998474121</ele>
        <time>2021-06-27T08:58:53.000Z</time>
      </trkpt>
      <trkpt lat="47.55296" lon="-2.2683">
        <ele>-34</ele>
        <time>2021-06-27T08:58:54.000Z</time>
      </trkpt>
      <trkpt lat="47.55297" lon="-2.26837">
        <ele>-34.599998474121</ele>
        <time>2021-06-27T08:58:55.000Z</time>
      </trkpt>
      <trkpt lat="47.55298" lon="-2.26845">
        <ele>-35</ele>
        <time>2021-06-27T08:58:56.000Z</time>
      </trkpt>
      <trkpt lat="47.553" lon="-2.26852">
        <ele>-35.599998474121</ele>
        <time>2021-06-27T08:58:57.000Z</time>
      </trkpt>
      <trkpt lat="47.55301" lon="-2.2686">
        <ele>-35.599998474121</ele>
        <time>2021-06-27T08:58:58.000Z</time>
      </trkpt>
      <trkpt lat="47.55306" lon="-2.26886">
        <ele>-35.599998474121</ele>
        <time>2021-06-27T08:59:01.000Z</time>
      </trkpt>
      <trkpt lat="47.55314" lon="-2.26946">
        <ele>-35.599998474121</ele>
        <time>2021-06-27T08:59:07.000Z</time>
      </trkpt>
      <trkpt lat="47.55316" lon="-2.2701">
        <ele>-35.599998474121</ele>
        <time>2021-06-27T08:59:12.000Z</time>
      </trkpt>
      <trkpt lat="47.55312" lon="-2.27065">
        <ele>-35.599998474121</ele>
        <time>2021-06-27T08:59:17.000Z</time>
      </trkpt>
      <trkpt lat="47.5531" lon="-2.27108">
        <ele>-35.599998474121</ele>
        <time>2021-06-27T08:59:22.000Z</time>
      </trkpt>
      <trkpt lat="47.55309" lon="-2.27116">
        <ele>-35.599998474121</ele>
        <time>2021-06-27T08:59:23.000Z</time>
      </trkpt>
      <trkpt lat="47.55305" lon="-2.2714">
        <ele>-35.200000762939</ele>
        <time>2021-06-27T08:59:26.000Z</time>
      </trkpt>
      <trkpt lat="47.55303" lon="-2.27148">
        <ele>-34.799999237061</ele>
        <time>2021-06-27T08:59:27.000Z</time>
      </trkpt>
      <trkpt lat="47.55301" lon="-2.27155">
        <ele>-34.400001525879</ele>
        <time>2021-06-27T08:59:28.000Z</time>
      </trkpt>
      <trkpt lat="47.553" lon="-2.27163">
        <ele>-34</ele>
        <time>2021-06-27T08:59:29.000Z</time>
      </trkpt>
      <trkpt lat="47.55298" lon="-2.27172">
        <ele>-33.599998474121</ele>
        <time>2021-06-27T08:59:30.000Z</time>
      </trkpt>
      <trkpt lat="47.55285" lon="-2.27219">
        <ele>-33.599998474121</ele>
        <time>2021-06-27T08:59:36.000Z</time>
      </trkpt>
      <trkpt lat="47.55283" lon="-2.27227">
        <ele>-33.599998474121</ele>
        <time>2021-06-27T08:59:37.000Z</time>
      </trkpt>
      <trkpt lat="47.55281" lon="-2.27235">
        <ele>-33.200000762939</ele>
        <time>2021-06-27T08:59:38.000Z</time>
      </trkpt>
      <trkpt lat="47.55279" lon="-2.27244">
        <ele>-32.799999237061</ele>
        <time>2021-06-27T08:59:39.000Z</time>
      </trkpt>
      <trkpt lat="47.55278" lon="-2.27253">
        <ele>-32.400001525879</ele>
        <time>2021-06-27T08:59:40.000Z</time>
      </trkpt>
      <trkpt lat="47.55276" lon="-2.27261">
        <ele>-31.799999237061</ele>
        <time>2021-06-27T08:59:41.000Z</time>
      </trkpt>
      <trkpt lat="47.55275" lon="-2.2727">
        <ele>-31.39999961853</ele>
        <time>2021-06-27T08:59:42.000Z</time>
      </trkpt>
      <trkpt lat="47.5527" lon="-2.27313">
        <ele>-31</ele>
        <time>2021-06-27T08:59:47.000Z</time>
      </trkpt>
      <trkpt lat="47.55269" lon="-2.27323">
        <ele>-30.60000038147</ele>
        <time>2021-06-27T08:59:48.000Z</time>
      </trkpt>
      <trkpt lat="47.55268" lon="-2.27332">
        <ele>-30.200000762939</ele>
        <time>2021-06-27T08:59:49.000Z</time>
      </trkpt>
      <trkpt lat="47.55267" lon="-2.27341">
        <ele>-29.39999961853</ele>
        <time>2021-06-27T08:59:50.000Z</time>
      </trkpt>
      <trkpt lat="47.55263" lon="-2.2739">
        <ele>-29.39999961853</ele>
        <time>2021-06-27T08:59:56.000Z</time>
      </trkpt>
      <trkpt lat="47.55263" lon="-2.27412">
        <ele>-29</ele>
        <time>2021-06-27T08:59:59.000Z</time>
      </trkpt>
      <trkpt lat="47.55262" lon="-2.27418">
        <ele>-28.60000038147</ele>
        <time>2021-06-27T09:00:00.000Z</time>
      </trkpt>
      <trkpt lat="47.55262" lon="-2.27424">
        <ele>-28.200000762939</ele>
        <time>2021-06-27T09:00:01.000Z</time>
      </trkpt>
      <trkpt lat="47.5526" lon="-2.27428">
        <ele>-27.799999237061</ele>
        <time>2021-06-27T09:00:02.000Z</time>
      </trkpt>
      <trkpt lat="47.55257" lon="-2.2743">
        <ele>-27.39999961853</ele>
        <time>2021-06-27T09:00:03.000Z</time>
      </trkpt>
      <trkpt lat="47.55252" lon="-2.27431">
        <ele>-27.39999961853</ele>
        <time>2021-06-27T09:00:04.000Z</time>
      </trkpt>
      <trkpt lat="47.55242" lon="-2.27429">
        <ele>-27.39999961853</ele>
        <time>2021-06-27T09:00:06.000Z</time>
      </trkpt>
      <trkpt lat="47.55225" lon="-2.27427">
        <ele>-27.39999961853</ele>
        <time>2021-06-27T09:00:09.000Z</time>
      </trkpt>
      <trkpt lat="47.55195" lon="-2.27425">
        <ele>-28.200000762939</ele>
        <time>2021-06-27T09:00:14.000Z</time>
      </trkpt>
      <trkpt lat="47.55188" lon="-2.27425">
        <ele>-28.60000038147</ele>
        <time>2021-06-27T09:00:15.000Z</time>
      </trkpt>
      <trkpt lat="47.55182" lon="-2.27424">
        <ele>-29</ele>
        <time>2021-06-27T09:00:16.000Z</time>
      </trkpt>
      <trkpt lat="47.55176" lon="-2.27424">
        <ele>-29.39999961853</ele>
        <time>2021-06-27T09:00:17.000Z</time>
      </trkpt>
      <trkpt lat="47.55147" lon="-2.27422">
        <ele>-30</ele>
        <time>2021-06-27T09:00:22.000Z</time>
      </trkpt>
      <trkpt lat="47.55141" lon="-2.27421">
        <ele>-30.39999961853</ele>
        <time>2021-06-27T09:00:23.000Z</time>
      </trkpt>
      <trkpt lat="47.55136" lon="-2.2742">
        <ele>-30.799999237061</ele>
        <time>2021-06-27T09:00:24.000Z</time>
      </trkpt>
      <trkpt lat="47.55131" lon="-2.2742">
        <ele>-31.200000762939</ele>
        <time>2021-06-27T09:00:25.000Z</time>
      </trkpt>
      <trkpt lat="47.55126" lon="-2.2742">
        <ele>-31.799999237061</ele>
        <time>2021-06-27T09:00:26.000Z</time>
      </trkpt>
      <trkpt lat="47.55116" lon="-2.27418">
        <ele>-32.200000762939</ele>
        <time>2021-06-27T09:00:28.000Z</time>
      </trkpt>
      <trkpt lat="47.55111" lon="-2.27418">
        <ele>-32.799999237061</ele>
        <time>2021-06-27T09:00:29.000Z</time>
      </trkpt>
      <trkpt lat="47.55106" lon="-2.27418">
        <ele>-33.200000762939</ele>
        <time>2021-06-27T09:00:30.000Z</time>
      </trkpt>
      <trkpt lat="47.55101" lon="-2.27418">
        <ele>-33.599998474121</ele>
        <time>2021-06-27T09:00:31.000Z</time>
      </trkpt>
      <trkpt lat="47.55096" lon="-2.27418">
        <ele>-34.200000762939</ele>
        <time>2021-06-27T09:00:32.000Z</time>
      </trkpt>
      <trkpt lat="47.55074" lon="-2.27416">
        <ele>-34.599998474121</ele>
        <time>2021-06-27T09:00:37.000Z</time>
      </trkpt>
      <trkpt lat="47.5507" lon="-2.27415">
        <ele>-35</ele>
        <time>2021-06-27T09:00:38.000Z</time>
      </trkpt>
      <trkpt lat="47.55065" lon="-2.27415">
        <ele>-35.799999237061</ele>
        <time>2021-06-27T09:00:39.000Z</time>
      </trkpt>
      <trkpt lat="47.55061" lon="-2.27415">
        <ele>-36.200000762939</ele>
        <time>2021-06-27T09:00:40.000Z</time>
      </trkpt>
      <trkpt lat="47.55047" lon="-2.27414">
        <ele>-36.599998474121</ele>
        <time>2021-06-27T09:00:43.000Z</time>
      </trkpt>
      <trkpt lat="47.55042" lon="-2.27414">
        <ele>-37</ele>
        <time>2021-06-27T09:00:44.000Z</time>
      </trkpt>
      <trkpt lat="47.55037" lon="-2.27414">
        <ele>-37.599998474121</ele>
        <time>2021-06-27T09:00:45.000Z</time>
      </trkpt>
      <trkpt lat="47.55032" lon="-2.27414">
        <ele>-38</ele>
        <time>2021-06-27T09:00:46.000Z</time>
      </trkpt>
      <trkpt lat="47.55027" lon="-2.27414">
        <ele>-38.400001525879</ele>
        <time>2021-06-27T09:00:47.000Z</time>
      </trkpt>
      <trkpt lat="47.55023" lon="-2.27413">
        <ele>-38.400001525879</ele>
        <time>2021-06-27T09:00:48.000Z</time>
      </trkpt>
      <trkpt lat="47.55014" lon="-2.27412">
        <ele>-38.400001525879</ele>
        <time>2021-06-27T09:00:50.000Z</time>
      </trkpt>
      <trkpt lat="47.55009" lon="-2.27412">
        <ele>-38.400001525879</ele>
        <time>2021-06-27T09:00:51.000Z</time>
      </trkpt>
      <trkpt lat="47.54987" lon="-2.27409">
        <ele>-38.400001525879</ele>
        <time>2021-06-27T09:00:54.000Z</time>
      </trkpt>
      <trkpt lat="47.54979" lon="-2.27408">
        <ele>-38.799999237061</ele>
        <time>2021-06-27T09:00:55.000Z</time>
      </trkpt>
      <trkpt lat="47.54971" lon="-2.27408">
        <ele>-39.400001525879</ele>
        <time>2021-06-27T09:00:56.000Z</time>
      </trkpt>
      <trkpt lat="47.54964" lon="-2.27408">
        <ele>-39.799999237061</ele>
        <time>2021-06-27T09:00:57.000Z</time>
      </trkpt>
      <trkpt lat="47.54957" lon="-2.27408">
        <ele>-40.200000762939</ele>
        <time>2021-06-27T09:00:58.000Z</time>
      </trkpt>
      <trkpt lat="47.54951" lon="-2.27407">
        <ele>-40.599998474121</ele>
        <time>2021-06-27T09:00:59.000Z</time>
      </trkpt>
      <trkpt lat="47.54927" lon="-2.27405">
        <ele>-40.599998474121</ele>
        <time>2021-06-27T09:01:03.000Z</time>
      </trkpt>
      <trkpt lat="47.54922" lon="-2.27404">
        <ele>-39.799999237061</ele>
        <time>2021-06-27T09:01:04.000Z</time>
      </trkpt>
      <trkpt lat="47.54917" lon="-2.27404">
        <ele>-39.200000762939</ele>
        <time>2021-06-27T09:01:05.000Z</time>
      </trkpt>
      <trkpt lat="47.54916" lon="-2.27405">
        <ele>-38.799999237061</ele>
        <time>2021-06-27T09:01:06.000Z</time>
      </trkpt>
      <trkpt lat="47.54915" lon="-2.27405">
        <ele>-38.400001525879</ele>
        <time>2021-06-27T09:01:07.000Z</time>
      </trkpt>
      <trkpt lat="47.54914" lon="-2.27405">
        <ele>-38</ele>
        <time>2021-06-27T09:01:09.000Z</time>
      </trkpt>
      <trkpt lat="47.54914" lon="-2.27405">
        <ele>-37.599998474121</ele>
        <time>2021-06-27T09:01:10.000Z</time>
      </trkpt>
      <trkpt lat="47.54913" lon="-2.27406">
        <ele>-37.200000762939</ele>
        <time>2021-06-27T09:01:11.000Z</time>
      </trkpt>
      <trkpt lat="47.54913" lon="-2.27406">
        <ele>-36.799999237061</ele>
        <time>2021-06-27T09:01:12.000Z</time>
      </trkpt>
      <trkpt lat="47.54912" lon="-2.27406">
        <ele>-36.400001525879</ele>
        <time>2021-06-27T09:01:13.000Z</time>
      </trkpt>
      <trkpt lat="47.54903" lon="-2.27403">
        <ele>-36</ele>
        <time>2021-06-27T09:01:18.000Z</time>
      </trkpt>
      <trkpt lat="47.549" lon="-2.27402">
        <ele>-35.599998474121</ele>
        <time>2021-06-27T09:01:19.000Z</time>
      </trkpt>
      <trkpt lat="47.54898" lon="-2.27401">
        <ele>-35.200000762939</ele>
        <time>2021-06-27T09:01:20.000Z</time>
      </trkpt>
      <trkpt lat="47.54895" lon="-2.27401">
        <ele>-34.799999237061</ele>
        <time>2021-06-27T09:01:21.000Z</time>
      </trkpt>
      <trkpt lat="47.54892" lon="-2.274">
        <ele>-34.400001525879</ele>
        <time>2021-06-27T09:01:22.000Z</time>
      </trkpt>
      <trkpt lat="47.54882" lon="-2.27397">
        <ele>-34.400001525879</ele>
        <time>2021-06-27T09:01:25.000Z</time>
      </trkpt>
      <trkpt lat="47.54876" lon="-2.27397">
        <ele>-34</ele>
        <time>2021-06-27T09:01:27.000Z</time>
      </trkpt>
      <trkpt lat="47.54873" lon="-2.27397">
        <ele>-33</ele>
        <time>2021-06-27T09:01:28.000Z</time>
      </trkpt>
      <trkpt lat="47.54869" lon="-2.27396">
        <ele>-32.599998474121</ele>
        <time>2021-06-27T09:01:29.000Z</time>
      </trkpt>
      <trkpt lat="47.54866" lon="-2.27396">
        <ele>-32.200000762939</ele>
        <time>2021-06-27T09:01:30.000Z</time>
      </trkpt>
      <trkpt lat="47.54853" lon="-2.27396">
        <ele>-32.200000762939</ele>
        <time>2021-06-27T09:01:34.000Z</time>
      </trkpt>
      <trkpt lat="47.54832" lon="-2.27394">
        <ele>-32.599998474121</ele>
        <time>2021-06-27T09:01:41.000Z</time>
      </trkpt>
      <trkpt lat="47.54829" lon="-2.27393">
        <ele>-33.200000762939</ele>
        <time>2021-06-27T09:01:42.000Z</time>
      </trkpt>
      <trkpt lat="47.54825" lon="-2.27391">
        <ele>-33.599998474121</ele>
        <time>2021-06-27T09:01:43.000Z</time>
      </trkpt>
      <trkpt lat="47.54823" lon="-2.27389">
        <ele>-34</ele>
        <time>2021-06-27T09:01:44.000Z</time>
      </trkpt>
      <trkpt lat="47.5482" lon="-2.27386">
        <ele>-34.400001525879</ele>
        <time>2021-06-27T09:01:45.000Z</time>
      </trkpt>
      <trkpt lat="47.54817" lon="-2.27383">
        <ele>-34.400001525879</ele>
        <time>2021-06-27T09:01:46.000Z</time>
      </trkpt>
      <trkpt lat="47.54808" lon="-2.27369">
        <ele>-34.400001525879</ele>
        <time>2021-06-27T09:01:51.000Z</time>
      </trkpt>
      <trkpt lat="47.54806" lon="-2.27368">
        <ele>-34.799999237061</ele>
        <time>2021-06-27T09:01:52.000Z</time>
      </trkpt>
      <trkpt lat="47.54803" lon="-2.27365">
        <ele>-35.799999237061</ele>
        <time>2021-06-27T09:01:53.000Z</time>
      </trkpt>
      <trkpt lat="47.548" lon="-2.27364">
        <ele>-36.200000762939</ele>
        <time>2021-06-27T09:01:54.000Z</time>
      </trkpt>
      <trkpt lat="47.54797" lon="-2.27362">
        <ele>-36.599998474121</ele>
        <time>2021-06-27T09:01:55.000Z</time>
      </trkpt>
      <trkpt lat="47.54795" lon="-2.2736">
        <ele>-36.599998474121</ele>
        <time>2021-06-27T09:01:56.000Z</time>
      </trkpt>
      <trkpt lat="47.54792" lon="-2.27358">
        <ele>-37</ele>
        <time>2021-06-27T09:01:57.000Z</time>
      </trkpt>
      <trkpt lat="47.5479" lon="-2.27355">
        <ele>-37.400001525879</ele>
        <time>2021-06-27T09:01:58.000Z</time>
      </trkpt>
      <trkpt lat="47.54787" lon="-2.27352">
        <ele>-37.799999237061</ele>
        <time>2021-06-27T09:01:59.000Z</time>
      </trkpt>
      <trkpt lat="47.54784" lon="-2.2735">
        <ele>-38.200000762939</ele>
        <time>2021-06-27T09:02:00.000Z</time>
      </trkpt>
      <trkpt lat="47.54781" lon="-2.27347">
        <ele>-38.599998474121</ele>
        <time>2021-06-27T09:02:01.000Z</time>
      </trkpt>
      <trkpt lat="47.54771" lon="-2.27344">
        <ele>-38.599998474121</ele>
        <time>2021-06-27T09:02:04.000Z</time>
      </trkpt>
      <trkpt lat="47.54766" lon="-2.27344">
        <ele>-38.599998474121</ele>
        <time>2021-06-27T09:02:05.000Z</time>
      </trkpt>
      <trkpt lat="47.54761" lon="-2.27346">
        <ele>-39</ele>
        <time>2021-06-27T09:02:06.000Z</time>
      </trkpt>
      <trkpt lat="47.54756" lon="-2.27346">
        <ele>-39.400001525879</ele>
        <time>2021-06-27T09:02:07.000Z</time>
      </trkpt>
      <trkpt lat="47.54751" lon="-2.27347">
        <ele>-39.799999237061</ele>
        <time>2021-06-27T09:02:08.000Z</time>
      </trkpt>
      <trkpt lat="47.54746" lon="-2.27347">
        <ele>-40.200000762939</ele>
        <time>2021-06-27T09:02:09.000Z</time>
      </trkpt>
      <trkpt lat="47.54741" lon="-2.27346">
        <ele>-40.599998474121</ele>
        <time>2021-06-27T09:02:10.000Z</time>
      </trkpt>
      <trkpt lat="47.54737" lon="-2.27344">
        <ele>-40.599998474121</ele>
        <time>2021-06-27T09:02:11.000Z</time>
      </trkpt>
      <trkpt lat="47.54703" lon="-2.2732">
        <ele>-40.599998474121</ele>
        <time>2021-06-27T09:02:18.000Z</time>
      </trkpt>
      <trkpt lat="47.54675" lon="-2.27304">
        <ele>-40.599998474121</ele>
        <time>2021-06-27T09:02:24.000Z</time>
      </trkpt>
      <trkpt lat="47.54665" lon="-2.27304">
        <ele>-40.200000762939</ele>
        <time>2021-06-27T09:02:26.000Z</time>
      </trkpt>
      <trkpt lat="47.5466" lon="-2.27305">
        <ele>-39.799999237061</ele>
        <time>2021-06-27T09:02:27.000Z</time>
      </trkpt>
      <trkpt lat="47.54654" lon="-2.27307">
        <ele>-39.200000762939</ele>
        <time>2021-06-27T09:02:28.000Z</time>
      </trkpt>
      <trkpt lat="47.54648" lon="-2.2731">
        <ele>-38.799999237061</ele>
        <time>2021-06-27T09:02:29.000Z</time>
      </trkpt>
      <trkpt lat="47.54643" lon="-2.27315">
        <ele>-38.400001525879</ele>
        <time>2021-06-27T09:02:30.000Z</time>
      </trkpt>
      <trkpt lat="47.54637" lon="-2.27322">
        <ele>-38.400001525879</ele>
        <time>2021-06-27T09:02:31.000Z</time>
      </trkpt>
      <trkpt lat="47.54617" lon="-2.27342">
        <ele>-38.400001525879</ele>
        <time>2021-06-27T09:02:34.000Z</time>
      </trkpt>
      <trkpt lat="47.54608" lon="-2.27348">
        <ele>-38.400001525879</ele>
        <time>2021-06-27T09:02:35.000Z</time>
      </trkpt>
      <trkpt lat="47.5458" lon="-2.27365">
        <ele>-38.400001525879</ele>
        <time>2021-06-27T09:02:39.000Z</time>
      </trkpt>
      <trkpt lat="47.54541" lon="-2.2739">
        <ele>-38.400001525879</ele>
        <time>2021-06-27T09:02:46.000Z</time>
      </trkpt>
      <trkpt lat="47.54504" lon="-2.27414">
        <ele>-38.799999237061</ele>
        <time>2021-06-27T09:02:53.000Z</time>
      </trkpt>
      <trkpt lat="47.54499" lon="-2.27417">
        <ele>-39.200000762939</ele>
        <time>2021-06-27T09:02:54.000Z</time>
      </trkpt>
      <trkpt lat="47.54494" lon="-2.27421">
        <ele>-39.599998474121</ele>
        <time>2021-06-27T09:02:55.000Z</time>
      </trkpt>
      <trkpt lat="47.54489" lon="-2.27424">
        <ele>-40</ele>
        <time>2021-06-27T09:02:56.000Z</time>
      </trkpt>
      <trkpt lat="47.54484" lon="-2.27427">
        <ele>-40.400001525879</ele>
        <time>2021-06-27T09:02:57.000Z</time>
      </trkpt>
      <trkpt lat="47.54474" lon="-2.27433">
        <ele>-40.799999237061</ele>
        <time>2021-06-27T09:02:59.000Z</time>
      </trkpt>
      <trkpt lat="47.54469" lon="-2.27437">
        <ele>-41.400001525879</ele>
        <time>2021-06-27T09:03:00.000Z</time>
      </trkpt>
      <trkpt lat="47.54464" lon="-2.2744">
        <ele>-41.799999237061</ele>
        <time>2021-06-27T09:03:01.000Z</time>
      </trkpt>
      <trkpt lat="47.5446" lon="-2.27443">
        <ele>-42.200000762939</ele>
        <time>2021-06-27T09:03:02.000Z</time>
      </trkpt>
      <trkpt lat="47.54455" lon="-2.27446">
        <ele>-42.599998474121</ele>
        <time>2021-06-27T09:03:03.000Z</time>
      </trkpt>
      <trkpt lat="47.5445" lon="-2.27449">
        <ele>-43</ele>
        <time>2021-06-27T09:03:04.000Z</time>
      </trkpt>
      <trkpt lat="47.54446" lon="-2.27452">
        <ele>-43.400001525879</ele>
        <time>2021-06-27T09:03:05.000Z</time>
      </trkpt>
      <trkpt lat="47.54442" lon="-2.27454">
        <ele>-44</ele>
        <time>2021-06-27T09:03:06.000Z</time>
      </trkpt>
      <trkpt lat="47.54437" lon="-2.27457">
        <ele>-44.799999237061</ele>
        <time>2021-06-27T09:03:07.000Z</time>
      </trkpt>
      <trkpt lat="47.54433" lon="-2.2746">
        <ele>-45.400001525879</ele>
        <time>2021-06-27T09:03:08.000Z</time>
      </trkpt>
      <trkpt lat="47.54429" lon="-2.27463">
        <ele>-45.799999237061</ele>
        <time>2021-06-27T09:03:09.000Z</time>
      </trkpt>
      <trkpt lat="47.54424" lon="-2.27465">
        <ele>-46.400001525879</ele>
        <time>2021-06-27T09:03:10.000Z</time>
      </trkpt>
      <trkpt lat="47.5442" lon="-2.27468">
        <ele>-46.799999237061</ele>
        <time>2021-06-27T09:03:11.000Z</time>
      </trkpt>
      <trkpt lat="47.54412" lon="-2.27473">
        <ele>-47.400001525879</ele>
        <time>2021-06-27T09:03:13.000Z</time>
      </trkpt>
      <trkpt lat="47.54408" lon="-2.27475">
        <ele>-47.799999237061</ele>
        <time>2021-06-27T09:03:14.000Z</time>
      </trkpt>
      <trkpt lat="47.54404" lon="-2.27478">
        <ele>-48.200000762939</ele>
        <time>2021-06-27T09:03:15.000Z</time>
      </trkpt>
      <trkpt lat="47.544" lon="-2.27481">
        <ele>-48.799999237061</ele>
        <time>2021-06-27T09:03:16.000Z</time>
      </trkpt>
      <trkpt lat="47.54396" lon="-2.27483">
        <ele>-49.200000762939</ele>
        <time>2021-06-27T09:03:17.000Z</time>
      </trkpt>
      <trkpt lat="47.54392" lon="-2.27486">
        <ele>-49.200000762939</ele>
        <time>2021-06-27T09:03:18.000Z</time>
      </trkpt>
      <trkpt lat="47.54388" lon="-2.27489">
        <ele>-49.799999237061</ele>
        <time>2021-06-27T09:03:19.000Z</time>
      </trkpt>
      <trkpt lat="47.54384" lon="-2.27491">
        <ele>-50.200000762939</ele>
        <time>2021-06-27T09:03:20.000Z</time>
      </trkpt>
      <trkpt lat="47.5438" lon="-2.27494">
        <ele>-50.799999237061</ele>
        <time>2021-06-27T09:03:21.000Z</time>
      </trkpt>
      <trkpt lat="47.54376" lon="-2.27497">
        <ele>-51.200000762939</ele>
        <time>2021-06-27T09:03:22.000Z</time>
      </trkpt>
      <trkpt lat="47.54371" lon="-2.27499">
        <ele>-51.599998474121</ele>
        <time>2021-06-27T09:03:23.000Z</time>
      </trkpt>
      <trkpt lat="47.54367" lon="-2.27502">
        <ele>-52.200000762939</ele>
        <time>2021-06-27T09:03:24.000Z</time>
      </trkpt>
      <trkpt lat="47.54363" lon="-2.27505">
        <ele>-52.599998474121</ele>
        <time>2021-06-27T09:03:25.000Z</time>
      </trkpt>
      <trkpt lat="47.54359" lon="-2.27507">
        <ele>-53</ele>
        <time>2021-06-27T09:03:26.000Z</time>
      </trkpt>
      <trkpt lat="47.54355" lon="-2.2751">
        <ele>-53.400001525879</ele>
        <time>2021-06-27T09:03:27.000Z</time>
      </trkpt>
      <trkpt lat="47.54351" lon="-2.27512">
        <ele>-54</ele>
        <time>2021-06-27T09:03:28.000Z</time>
      </trkpt>
      <trkpt lat="47.54347" lon="-2.27515">
        <ele>-54.400001525879</ele>
        <time>2021-06-27T09:03:29.000Z</time>
      </trkpt>
      <trkpt lat="47.54342" lon="-2.27518">
        <ele>-54.799999237061</ele>
        <time>2021-06-27T09:03:30.000Z</time>
      </trkpt>
      <trkpt lat="47.54338" lon="-2.27521">
        <ele>-55.799999237061</ele>
        <time>2021-06-27T09:03:31.000Z</time>
      </trkpt>
      <trkpt lat="47.54334" lon="-2.27523">
        <ele>-56.400001525879</ele>
        <time>2021-06-27T09:03:32.000Z</time>
      </trkpt>
      <trkpt lat="47.54322" lon="-2.27531">
        <ele>-56.799999237061</ele>
        <time>2021-06-27T09:03:35.000Z</time>
      </trkpt>
      <trkpt lat="47.54318" lon="-2.27534">
        <ele>-57.200000762939</ele>
        <time>2021-06-27T09:03:36.000Z</time>
      </trkpt>
      <trkpt lat="47.54314" lon="-2.27536">
        <ele>-57.799999237061</ele>
        <time>2021-06-27T09:03:37.000Z</time>
      </trkpt>
      <trkpt lat="47.5431" lon="-2.27538">
        <ele>-58.200000762939</ele>
        <time>2021-06-27T09:03:38.000Z</time>
      </trkpt>
      <trkpt lat="47.54306" lon="-2.27541">
        <ele>-58.599998474121</ele>
        <time>2021-06-27T09:03:39.000Z</time>
      </trkpt>
      <trkpt lat="47.54303" lon="-2.27543">
        <ele>-59</ele>
        <time>2021-06-27T09:03:40.000Z</time>
      </trkpt>
      <trkpt lat="47.54299" lon="-2.27546">
        <ele>-59.400001525879</ele>
        <time>2021-06-27T09:03:41.000Z</time>
      </trkpt>
      <trkpt lat="47.54295" lon="-2.27548">
        <ele>-60</ele>
        <time>2021-06-27T09:03:42.000Z</time>
      </trkpt>
      <trkpt lat="47.54292" lon="-2.2755">
        <ele>-60.400001525879</ele>
        <time>2021-06-27T09:03:43.000Z</time>
      </trkpt>
      <trkpt lat="47.54288" lon="-2.27553">
        <ele>-60.799999237061</ele>
        <time>2021-06-27T09:03:44.000Z</time>
      </trkpt>
      <trkpt lat="47.54285" lon="-2.27555">
        <ele>-61.200000762939</ele>
        <time>2021-06-27T09:03:45.000Z</time>
      </trkpt>
      <trkpt lat="47.54281" lon="-2.27557">
        <ele>-61.599998474121</ele>
        <time>2021-06-27T09:03:46.000Z</time>
      </trkpt>
      <trkpt lat="47.54278" lon="-2.2756">
        <ele>-62</ele>
        <time>2021-06-27T09:03:47.000Z</time>
      </trkpt>
      <trkpt lat="47.54274" lon="-2.27562">
        <ele>-62.599998474121</ele>
        <time>2021-06-27T09:03:48.000Z</time>
      </trkpt>
      <trkpt lat="47.5427" lon="-2.27564">
        <ele>-63</ele>
        <time>2021-06-27T09:03:49.000Z</time>
      </trkpt>
      <trkpt lat="47.54259" lon="-2.27571">
        <ele>-63.400001525879</ele>
        <time>2021-06-27T09:03:52.000Z</time>
      </trkpt>
      <trkpt lat="47.54256" lon="-2.27573">
        <ele>-63.799999237061</ele>
        <time>2021-06-27T09:03:53.000Z</time>
      </trkpt>
      <trkpt lat="47.54252" lon="-2.27576">
        <ele>-64.400001525879</ele>
        <time>2021-06-27T09:03:54.000Z</time>
      </trkpt>
      <trkpt lat="47.54249" lon="-2.27578">
        <ele>-64.800003051758</ele>
        <time>2021-06-27T09:03:55.000Z</time>
      </trkpt>
      <trkpt lat="47.54246" lon="-2.27581">
        <ele>-65.199996948242</ele>
        <time>2021-06-27T09:03:56.000Z</time>
      </trkpt>
      <trkpt lat="47.54232" lon="-2.2759">
        <ele>-65.199996948242</ele>
        <time>2021-06-27T09:04:00.000Z</time>
      </trkpt>
      <trkpt lat="47.54224" lon="-2.27595">
        <ele>-65.599998474121</ele>
        <time>2021-06-27T09:04:02.000Z</time>
      </trkpt>
      <trkpt lat="47.54221" lon="-2.27597">
        <ele>-66</ele>
        <time>2021-06-27T09:04:03.000Z</time>
      </trkpt>
      <trkpt lat="47.54217" lon="-2.27599">
        <ele>-66.400001525879</ele>
        <time>2021-06-27T09:04:04.000Z</time>
      </trkpt>
      <trkpt lat="47.54214" lon="-2.27601">
        <ele>-66.800003051758</ele>
        <time>2021-06-27T09:04:05.000Z</time>
      </trkpt>
      <trkpt lat="47.54211" lon="-2.27603">
        <ele>-67.400001525879</ele>
        <time>2021-06-27T09:04:06.000Z</time>
      </trkpt>
      <trkpt lat="47.54201" lon="-2.27609">
        <ele>-67.400001525879</ele>
        <time>2021-06-27T09:04:09.000Z</time>
      </trkpt>
      <trkpt lat="47.54194" lon="-2.27612">
        <ele>-67.800003051758</ele>
        <time>2021-06-27T09:04:11.000Z</time>
      </trkpt>
      <trkpt lat="47.54191" lon="-2.27614">
        <ele>-68.199996948242</ele>
        <time>2021-06-27T09:04:12.000Z</time>
      </trkpt>
      <trkpt lat="47.54188" lon="-2.27616">
        <ele>-68.599998474121</ele>
        <time>2021-06-27T09:04:13.000Z</time>
      </trkpt>
      <trkpt lat="47.54185" lon="-2.27619">
        <ele>-69</ele>
        <time>2021-06-27T09:04:14.000Z</time>
      </trkpt>
      <trkpt lat="47.54181" lon="-2.27621">
        <ele>-69.400001525879</ele>
        <time>2021-06-27T09:04:15.000Z</time>
      </trkpt>
      <trkpt lat="47.54171" lon="-2.27627">
        <ele>-69.800003051758</ele>
        <time>2021-06-27T09:04:18.000Z</time>
      </trkpt>
      <trkpt lat="47.54168" lon="-2.2763">
        <ele>-70.199996948242</ele>
        <time>2021-06-27T09:04:19.000Z</time>
      </trkpt>
      <trkpt lat="47.54165" lon="-2.27632">
        <ele>-70.599998474121</ele>
        <time>2021-06-27T09:04:20.000Z</time>
      </trkpt>
      <trkpt lat="47.54162" lon="-2.27634">
        <ele>-71.400001525879</ele>
        <time>2021-06-27T09:04:21.000Z</time>
      </trkpt>
      <trkpt lat="47.54155" lon="-2.27638">
        <ele>-71.800003051758</ele>
        <time>2021-06-27T09:04:23.000Z</time>
      </trkpt>
      <trkpt lat="47.54151" lon="-2.2764">
        <ele>-72.199996948242</ele>
        <time>2021-06-27T09:04:24.000Z</time>
      </trkpt>
      <trkpt lat="47.54148" lon="-2.27642">
        <ele>-72.599998474121</ele>
        <time>2021-06-27T09:04:25.000Z</time>
      </trkpt>
      <trkpt lat="47.54144" lon="-2.27645">
        <ele>-73</ele>
        <time>2021-06-27T09:04:26.000Z</time>
      </trkpt>
      <trkpt lat="47.54141" lon="-2.27647">
        <ele>-73.599998474121</ele>
        <time>2021-06-27T09:04:27.000Z</time>
      </trkpt>
      <trkpt lat="47.5413" lon="-2.27656">
        <ele>-74</ele>
        <time>2021-06-27T09:04:31.000Z</time>
      </trkpt>
      <trkpt lat="47.54128" lon="-2.27658">
        <ele>-74.400001525879</ele>
        <time>2021-06-27T09:04:32.000Z</time>
      </trkpt>
      <trkpt lat="47.54125" lon="-2.2766">
        <ele>-74.800003051758</ele>
        <time>2021-06-27T09:04:33.000Z</time>
      </trkpt>
      <trkpt lat="47.54122" lon="-2.27661">
        <ele>-75.199996948242</ele>
        <time>2021-06-27T09:04:34.000Z</time>
      </trkpt>
      <trkpt lat="47.54119" lon="-2.27663">
        <ele>-75.599998474121</ele>
        <time>2021-06-27T09:04:35.000Z</time>
      </trkpt>
      <trkpt lat="47.5411" lon="-2.27667">
        <ele>-76</ele>
        <time>2021-06-27T09:04:38.000Z</time>
      </trkpt>
      <trkpt lat="47.54106" lon="-2.27668">
        <ele>-76.400001525879</ele>
        <time>2021-06-27T09:04:39.000Z</time>
      </trkpt>
      <trkpt lat="47.54103" lon="-2.27669">
        <ele>-76.800003051758</ele>
        <time>2021-06-27T09:04:40.000Z</time>
      </trkpt>
      <trkpt lat="47.54099" lon="-2.2767">
        <ele>-77.199996948242</ele>
        <time>2021-06-27T09:04:41.000Z</time>
      </trkpt>
      <trkpt lat="47.54095" lon="-2.27671">
        <ele>-77.599998474121</ele>
        <time>2021-06-27T09:04:42.000Z</time>
      </trkpt>
      <trkpt lat="47.54091" lon="-2.27671">
        <ele>-77.599998474121</ele>
        <time>2021-06-27T09:04:43.000Z</time>
      </trkpt>
      <trkpt lat="47.54083" lon="-2.2767">
        <ele>-77.599998474121</ele>
        <time>2021-06-27T09:04:45.000Z</time>
      </trkpt>
      <trkpt lat="47.54063" lon="-2.27665">
        <ele>-77.599998474121</ele>
        <time>2021-06-27T09:04:50.000Z</time>
      </trkpt>
      <trkpt lat="47.54059" lon="-2.27663">
        <ele>-77.599998474121</ele>
        <time>2021-06-27T09:04:51.000Z</time>
      </trkpt>
      <trkpt lat="47.5403" lon="-2.27645">
        <ele>-77.599998474121</ele>
        <time>2021-06-27T09:04:58.000Z</time>
      </trkpt>
      <trkpt lat="47.53995" lon="-2.27624">
        <ele>-77.599998474121</ele>
        <time>2021-06-27T09:05:05.000Z</time>
      </trkpt>
      <trkpt lat="47.53991" lon="-2.27622">
        <ele>-77.199996948242</ele>
        <time>2021-06-27T09:05:06.000Z</time>
      </trkpt>
      <trkpt lat="47.53988" lon="-2.27622">
        <ele>-76.800003051758</ele>
        <time>2021-06-27T09:05:07.000Z</time>
      </trkpt>
      <trkpt lat="47.53986" lon="-2.27624">
        <ele>-76.400001525879</ele>
        <time>2021-06-27T09:05:08.000Z</time>
      </trkpt>
      <trkpt lat="47.53985" lon="-2.27629">
        <ele>-75.800003051758</ele>
        <time>2021-06-27T09:05:09.000Z</time>
      </trkpt>
      <trkpt lat="47.53984" lon="-2.27634">
        <ele>-75.400001525879</ele>
        <time>2021-06-27T09:05:10.000Z</time>
      </trkpt>
      <trkpt lat="47.53983" lon="-2.27649">
        <ele>-75</ele>
        <time>2021-06-27T09:05:13.000Z</time>
      </trkpt>
      <trkpt lat="47.53982" lon="-2.27653">
        <ele>-74.599998474121</ele>
        <time>2021-06-27T09:05:14.000Z</time>
      </trkpt>
      <trkpt lat="47.53982" lon="-2.27658">
        <ele>-74.199996948242</ele>
        <time>2021-06-27T09:05:15.000Z</time>
      </trkpt>
      <trkpt lat="47.53981" lon="-2.27662">
        <ele>-73.800003051758</ele>
        <time>2021-06-27T09:05:16.000Z</time>
      </trkpt>
      <trkpt lat="47.5398" lon="-2.27666">
        <ele>-73.199996948242</ele>
        <time>2021-06-27T09:05:17.000Z</time>
      </trkpt>
      <trkpt lat="47.53979" lon="-2.27671">
        <ele>-73.199996948242</ele>
        <time>2021-06-27T09:05:18.000Z</time>
      </trkpt>
      <trkpt lat="47.53978" lon="-2.27676">
        <ele>-72.800003051758</ele>
        <time>2021-06-27T09:05:19.000Z</time>
      </trkpt>
      <trkpt lat="47.53977" lon="-2.27681">
        <ele>-72.400001525879</ele>
        <time>2021-06-27T09:05:20.000Z</time>
      </trkpt>
      <trkpt lat="47.53977" lon="-2.27687">
        <ele>-72</ele>
        <time>2021-06-27T09:05:21.000Z</time>
      </trkpt>
      <trkpt lat="47.53976" lon="-2.27693">
        <ele>-71.599998474121</ele>
        <time>2021-06-27T09:05:22.000Z</time>
      </trkpt>
      <trkpt lat="47.53976" lon="-2.27699">
        <ele>-71.199996948242</ele>
        <time>2021-06-27T09:05:23.000Z</time>
      </trkpt>
      <trkpt lat="47.53975" lon="-2.27705">
        <ele>-70.800003051758</ele>
        <time>2021-06-27T09:05:24.000Z</time>
      </trkpt>
      <trkpt lat="47.53975" lon="-2.2771">
        <ele>-70.400001525879</ele>
        <time>2021-06-27T09:05:25.000Z</time>
      </trkpt>
      <trkpt lat="47.53975" lon="-2.27715">
        <ele>-70</ele>
        <time>2021-06-27T09:05:26.000Z</time>
      </trkpt>
      <trkpt lat="47.53975" lon="-2.2772">
        <ele>-69.599998474121</ele>
        <time>2021-06-27T09:05:27.000Z</time>
      </trkpt>
      <trkpt lat="47.53974" lon="-2.27723">
        <ele>-69.199996948242</ele>
        <time>2021-06-27T09:05:28.000Z</time>
      </trkpt>
      <trkpt lat="47.53972" lon="-2.27726">
        <ele>-69.199996948242</ele>
        <time>2021-06-27T09:05:29.000Z</time>
      </trkpt>
      <trkpt lat="47.53971" lon="-2.27729">
        <ele>-68.599998474121</ele>
        <time>2021-06-27T09:05:30.000Z</time>
      </trkpt>
      <trkpt lat="47.53969" lon="-2.27731">
        <ele>-68.199996948242</ele>
        <time>2021-06-27T09:05:31.000Z</time>
      </trkpt>
      <trkpt lat="47.53967" lon="-2.27734">
        <ele>-67.800003051758</ele>
        <time>2021-06-27T09:05:32.000Z</time>
      </trkpt>
      <trkpt lat="47.53964" lon="-2.27737">
        <ele>-67.400001525879</ele>
        <time>2021-06-27T09:05:33.000Z</time>
      </trkpt>
      <trkpt lat="47.53961" lon="-2.2774">
        <ele>-67</ele>
        <time>2021-06-27T09:05:34.000Z</time>
      </trkpt>
      <trkpt lat="47.53958" lon="-2.27741">
        <ele>-67</ele>
        <time>2021-06-27T09:05:35.000Z</time>
      </trkpt>
      <trkpt lat="47.53955" lon="-2.27742">
        <ele>-66</ele>
        <time>2021-06-27T09:05:36.000Z</time>
      </trkpt>
      <trkpt lat="47.53953" lon="-2.27742">
        <ele>-65.599998474121</ele>
        <time>2021-06-27T09:05:37.000Z</time>
      </trkpt>
      <trkpt lat="47.5395" lon="-2.27742">
        <ele>-65.199996948242</ele>
        <time>2021-06-27T09:05:38.000Z</time>
      </trkpt>
      <trkpt lat="47.53947" lon="-2.27741">
        <ele>-64.800003051758</ele>
        <time>2021-06-27T09:05:39.000Z</time>
      </trkpt>
      <trkpt lat="47.53944" lon="-2.27741">
        <ele>-64.400001525879</ele>
        <time>2021-06-27T09:05:40.000Z</time>
      </trkpt>
      <trkpt lat="47.53942" lon="-2.27741">
        <ele>-63.799999237061</ele>
        <time>2021-06-27T09:05:41.000Z</time>
      </trkpt>
      <trkpt lat="47.53939" lon="-2.27742">
        <ele>-63.400001525879</ele>
        <time>2021-06-27T09:05:42.000Z</time>
      </trkpt>
      <trkpt lat="47.53936" lon="-2.27744">
        <ele>-63</ele>
        <time>2021-06-27T09:05:43.000Z</time>
      </trkpt>
      <trkpt lat="47.53933" lon="-2.27746">
        <ele>-62.599998474121</ele>
        <time>2021-06-27T09:05:44.000Z</time>
      </trkpt>
      <trkpt lat="47.5393" lon="-2.27747">
        <ele>-62.200000762939</ele>
        <time>2021-06-27T09:05:45.000Z</time>
      </trkpt>
      <trkpt lat="47.53927" lon="-2.27748">
        <ele>-61.799999237061</ele>
        <time>2021-06-27T09:05:46.000Z</time>
      </trkpt>
      <trkpt lat="47.53924" lon="-2.27749">
        <ele>-61.200000762939</ele>
        <time>2021-06-27T09:05:47.000Z</time>
      </trkpt>
      <trkpt lat="47.53922" lon="-2.27751">
        <ele>-60.799999237061</ele>
        <time>2021-06-27T09:05:48.000Z</time>
      </trkpt>
      <trkpt lat="47.53919" lon="-2.27752">
        <ele>-60.400001525879</ele>
        <time>2021-06-27T09:05:49.000Z</time>
      </trkpt>
      <trkpt lat="47.53915" lon="-2.27753">
        <ele>-60.400001525879</ele>
        <time>2021-06-27T09:05:51.000Z</time>
      </trkpt>
      <trkpt lat="47.53913" lon="-2.27754">
        <ele>-60</ele>
        <time>2021-06-27T09:05:52.000Z</time>
      </trkpt>
      <trkpt lat="47.53911" lon="-2.27755">
        <ele>-59.599998474121</ele>
        <time>2021-06-27T09:05:53.000Z</time>
      </trkpt>
      <trkpt lat="47.53909" lon="-2.27756">
        <ele>-59</ele>
        <time>2021-06-27T09:05:54.000Z</time>
      </trkpt>
      <trkpt lat="47.53906" lon="-2.27757">
        <ele>-58.599998474121</ele>
        <time>2021-06-27T09:05:55.000Z</time>
      </trkpt>
      <trkpt lat="47.53903" lon="-2.27758">
        <ele>-58.200000762939</ele>
        <time>2021-06-27T09:05:56.000Z</time>
      </trkpt>
      <trkpt lat="47.539" lon="-2.2776">
        <ele>-57.799999237061</ele>
        <time>2021-06-27T09:05:57.000Z</time>
      </trkpt>
      <trkpt lat="47.53897" lon="-2.27761">
        <ele>-57.400001525879</ele>
        <time>2021-06-27T09:05:58.000Z</time>
      </trkpt>
      <trkpt lat="47.53895" lon="-2.27762">
        <ele>-56.799999237061</ele>
        <time>2021-06-27T09:05:59.000Z</time>
      </trkpt>
      <trkpt lat="47.53892" lon="-2.27764">
        <ele>-56</ele>
        <time>2021-06-27T09:06:00.000Z</time>
      </trkpt>
      <trkpt lat="47.53885" lon="-2.27768">
        <ele>-55.599998474121</ele>
        <time>2021-06-27T09:06:02.000Z</time>
      </trkpt>
      <trkpt lat="47.53883" lon="-2.27769">
        <ele>-55</ele>
        <time>2021-06-27T09:06:03.000Z</time>
      </trkpt>
      <trkpt lat="47.5388" lon="-2.27771">
        <ele>-54.599998474121</ele>
        <time>2021-06-27T09:06:04.000Z</time>
      </trkpt>
      <trkpt lat="47.53878" lon="-2.27772">
        <ele>-54.200000762939</ele>
        <time>2021-06-27T09:06:05.000Z</time>
      </trkpt>
      <trkpt lat="47.53876" lon="-2.27775">
        <ele>-53.799999237061</ele>
        <time>2021-06-27T09:06:06.000Z</time>
      </trkpt>
      <trkpt lat="47.53875" lon="-2.27778">
        <ele>-53.799999237061</ele>
        <time>2021-06-27T09:06:07.000Z</time>
      </trkpt>
      <trkpt lat="47.53873" lon="-2.27781">
        <ele>-53.400001525879</ele>
        <time>2021-06-27T09:06:08.000Z</time>
      </trkpt>
      <trkpt lat="47.53871" lon="-2.27783">
        <ele>-52.799999237061</ele>
        <time>2021-06-27T09:06:09.000Z</time>
      </trkpt>
      <trkpt lat="47.53869" lon="-2.27784">
        <ele>-52.400001525879</ele>
        <time>2021-06-27T09:06:10.000Z</time>
      </trkpt>
      <trkpt lat="47.53866" lon="-2.27786">
        <ele>-52</ele>
        <time>2021-06-27T09:06:11.000Z</time>
      </trkpt>
      <trkpt lat="47.53863" lon="-2.27787">
        <ele>-51.599998474121</ele>
        <time>2021-06-27T09:06:12.000Z</time>
      </trkpt>
      <trkpt lat="47.5386" lon="-2.27786">
        <ele>-51.200000762939</ele>
        <time>2021-06-27T09:06:13.000Z</time>
      </trkpt>
      <trkpt lat="47.53857" lon="-2.27786">
        <ele>-50.799999237061</ele>
        <time>2021-06-27T09:06:14.000Z</time>
      </trkpt>
      <trkpt lat="47.53854" lon="-2.27786">
        <ele>-50.200000762939</ele>
        <time>2021-06-27T09:06:15.000Z</time>
      </trkpt>
      <trkpt lat="47.53851" lon="-2.27787">
        <ele>-49.799999237061</ele>
        <time>2021-06-27T09:06:16.000Z</time>
      </trkpt>
      <trkpt lat="47.53848" lon="-2.27788">
        <ele>-49.400001525879</ele>
        <time>2021-06-27T09:06:17.000Z</time>
      </trkpt>
      <trkpt lat="47.53845" lon="-2.27789">
        <ele>-48.799999237061</ele>
        <time>2021-06-27T09:06:18.000Z</time>
      </trkpt>
      <trkpt lat="47.53842" lon="-2.2779">
        <ele>-48.400001525879</ele>
        <time>2021-06-27T09:06:19.000Z</time>
      </trkpt>
      <trkpt lat="47.53839" lon="-2.27792">
        <ele>-47.799999237061</ele>
        <time>2021-06-27T09:06:20.000Z</time>
      </trkpt>
      <trkpt lat="47.53835" lon="-2.27794">
        <ele>-47.400001525879</ele>
        <time>2021-06-27T09:06:21.000Z</time>
      </trkpt>
      <trkpt lat="47.53832" lon="-2.27796">
        <ele>-47.400001525879</ele>
        <time>2021-06-27T09:06:22.000Z</time>
      </trkpt>
      <trkpt lat="47.5383" lon="-2.27798">
        <ele>-47</ele>
        <time>2021-06-27T09:06:23.000Z</time>
      </trkpt>
      <trkpt lat="47.53827" lon="-2.27802">
        <ele>-46.400001525879</ele>
        <time>2021-06-27T09:06:24.000Z</time>
      </trkpt>
      <trkpt lat="47.53823" lon="-2.27804">
        <ele>-45.599998474121</ele>
        <time>2021-06-27T09:06:25.000Z</time>
      </trkpt>
      <trkpt lat="47.5382" lon="-2.27806">
        <ele>-45.200000762939</ele>
        <time>2021-06-27T09:06:26.000Z</time>
      </trkpt>
      <trkpt lat="47.53816" lon="-2.27808">
        <ele>-45.200000762939</ele>
        <time>2021-06-27T09:06:27.000Z</time>
      </trkpt>
      <trkpt lat="47.53812" lon="-2.2781">
        <ele>-44.599998474121</ele>
        <time>2021-06-27T09:06:28.000Z</time>
      </trkpt>
      <trkpt lat="47.53808" lon="-2.27813">
        <ele>-44.200000762939</ele>
        <time>2021-06-27T09:06:29.000Z</time>
      </trkpt>
      <trkpt lat="47.53804" lon="-2.27816">
        <ele>-43.799999237061</ele>
        <time>2021-06-27T09:06:30.000Z</time>
      </trkpt>
      <trkpt lat="47.538" lon="-2.27819">
        <ele>-43.400001525879</ele>
        <time>2021-06-27T09:06:31.000Z</time>
      </trkpt>
      <trkpt lat="47.53797" lon="-2.27823">
        <ele>-43</ele>
        <time>2021-06-27T09:06:32.000Z</time>
      </trkpt>
      <trkpt lat="47.53794" lon="-2.27827">
        <ele>-42.599998474121</ele>
        <time>2021-06-27T09:06:33.000Z</time>
      </trkpt>
      <trkpt lat="47.53794" lon="-2.27831">
        <ele>-42</ele>
        <time>2021-06-27T09:06:34.000Z</time>
      </trkpt>
      <trkpt lat="47.53794" lon="-2.27836">
        <ele>-41.599998474121</ele>
        <time>2021-06-27T09:06:35.000Z</time>
      </trkpt>
      <trkpt lat="47.53794" lon="-2.27841">
        <ele>-41.200000762939</ele>
        <time>2021-06-27T09:06:36.000Z</time>
      </trkpt>
      <trkpt lat="47.53793" lon="-2.27846">
        <ele>-40.799999237061</ele>
        <time>2021-06-27T09:06:37.000Z</time>
      </trkpt>
      <trkpt lat="47.53792" lon="-2.27851">
        <ele>-40.400001525879</ele>
        <time>2021-06-27T09:06:38.000Z</time>
      </trkpt>
      <trkpt lat="47.53792" lon="-2.27856">
        <ele>-40</ele>
        <time>2021-06-27T09:06:39.000Z</time>
      </trkpt>
      <trkpt lat="47.53791" lon="-2.27863">
        <ele>-39.400001525879</ele>
        <time>2021-06-27T09:06:40.000Z</time>
      </trkpt>
      <trkpt lat="47.53791" lon="-2.2787">
        <ele>-39</ele>
        <time>2021-06-27T09:06:41.000Z</time>
      </trkpt>
      <trkpt lat="47.5379" lon="-2.27877">
        <ele>-38.599998474121</ele>
        <time>2021-06-27T09:06:42.000Z</time>
      </trkpt>
      <trkpt lat="47.5379" lon="-2.2789">
        <ele>-38.200000762939</ele>
        <time>2021-06-27T09:06:44.000Z</time>
      </trkpt>
      <trkpt lat="47.5379" lon="-2.27898">
        <ele>-37.799999237061</ele>
        <time>2021-06-27T09:06:45.000Z</time>
      </trkpt>
      <trkpt lat="47.53789" lon="-2.27905">
        <ele>-37.400001525879</ele>
        <time>2021-06-27T09:06:46.000Z</time>
      </trkpt>
      <trkpt lat="47.53789" lon="-2.27913">
        <ele>-37</ele>
        <time>2021-06-27T09:06:47.000Z</time>
      </trkpt>
      <trkpt lat="47.53789" lon="-2.2792">
        <ele>-36.599998474121</ele>
        <time>2021-06-27T09:06:48.000Z</time>
      </trkpt>
      <trkpt lat="47.53789" lon="-2.27933">
        <ele>-35.599998474121</ele>
        <time>2021-06-27T09:06:50.000Z</time>
      </trkpt>
      <trkpt lat="47.53789" lon="-2.2794">
        <ele>-35.200000762939</ele>
        <time>2021-06-27T09:06:51.000Z</time>
      </trkpt>
      <trkpt lat="47.5379" lon="-2.27946">
        <ele>-34.799999237061</ele>
        <time>2021-06-27T09:06:52.000Z</time>
      </trkpt>
      <trkpt lat="47.5379" lon="-2.27951">
        <ele>-34.400001525879</ele>
        <time>2021-06-27T09:06:53.000Z</time>
      </trkpt>
      <trkpt lat="47.53791" lon="-2.2796">
        <ele>-34</ele>
        <time>2021-06-27T09:06:55.000Z</time>
      </trkpt>
      <trkpt lat="47.53791" lon="-2.27965">
        <ele>-33.599998474121</ele>
        <time>2021-06-27T09:06:56.000Z</time>
      </trkpt>
      <trkpt lat="47.5379" lon="-2.2797">
        <ele>-33.200000762939</ele>
        <time>2021-06-27T09:06:57.000Z</time>
      </trkpt>
      <trkpt lat="47.53789" lon="-2.27974">
        <ele>-32.799999237061</ele>
        <time>2021-06-27T09:06:58.000Z</time>
      </trkpt>
      <trkpt lat="47.53784" lon="-2.27978">
        <ele>-32.400001525879</ele>
        <time>2021-06-27T09:06:59.000Z</time>
      </trkpt>
      <trkpt lat="47.53778" lon="-2.27982">
        <ele>-32.400001525879</ele>
        <time>2021-06-27T09:07:00.000Z</time>
      </trkpt>
      <trkpt lat="47.53749" lon="-2.27994">
        <ele>-32.400001525879</ele>
        <time>2021-06-27T09:07:06.000Z</time>
      </trkpt>
      <trkpt lat="47.53713" lon="-2.28002">
        <ele>-32.400001525879</ele>
        <time>2021-06-27T09:07:13.000Z</time>
      </trkpt>
      <trkpt lat="47.53677" lon="-2.28011">
        <ele>-32.400001525879</ele>
        <time>2021-06-27T09:07:21.000Z</time>
      </trkpt>
      <trkpt lat="47.53672" lon="-2.28012">
        <ele>-32.799999237061</ele>
        <time>2021-06-27T09:07:22.000Z</time>
      </trkpt>
      <trkpt lat="47.53667" lon="-2.28013">
        <ele>-33.200000762939</ele>
        <time>2021-06-27T09:07:23.000Z</time>
      </trkpt>
      <trkpt lat="47.53663" lon="-2.28014">
        <ele>-33.599998474121</ele>
        <time>2021-06-27T09:07:24.000Z</time>
      </trkpt>
      <trkpt lat="47.53658" lon="-2.28015">
        <ele>-34.200000762939</ele>
        <time>2021-06-27T09:07:25.000Z</time>
      </trkpt>
      <trkpt lat="47.53653" lon="-2.28016">
        <ele>-34.599998474121</ele>
        <time>2021-06-27T09:07:26.000Z</time>
      </trkpt>
      <trkpt lat="47.53644" lon="-2.28017">
        <ele>-34.599998474121</ele>
        <time>2021-06-27T09:07:28.000Z</time>
      </trkpt>
      <trkpt lat="47.53634" lon="-2.28021">
        <ele>-34.599998474121</ele>
        <time>2021-06-27T09:07:30.000Z</time>
      </trkpt>
      <trkpt lat="47.53625" lon="-2.28033">
        <ele>-34.599998474121</ele>
        <time>2021-06-27T09:07:32.000Z</time>
      </trkpt>
      <trkpt lat="47.53619" lon="-2.28057">
        <ele>-34.599998474121</ele>
        <time>2021-06-27T09:07:35.000Z</time>
      </trkpt>
      <trkpt lat="47.53618" lon="-2.28064">
        <ele>-34.599998474121</ele>
        <time>2021-06-27T09:07:36.000Z</time>
      </trkpt>
      <trkpt lat="47.53612" lon="-2.28096">
        <ele>-34.599998474121</ele>
        <time>2021-06-27T09:07:40.000Z</time>
      </trkpt>
      <trkpt lat="47.53613" lon="-2.28104">
        <ele>-34.599998474121</ele>
        <time>2021-06-27T09:07:41.000Z</time>
      </trkpt>
      <trkpt lat="47.53617" lon="-2.28136">
        <ele>-34.599998474121</ele>
        <time>2021-06-27T09:07:45.000Z</time>
      </trkpt>
      <trkpt lat="47.53618" lon="-2.28144">
        <ele>-34.599998474121</ele>
        <time>2021-06-27T09:07:46.000Z</time>
      </trkpt>
      <trkpt lat="47.53616" lon="-2.28164">
        <ele>-34.599998474121</ele>
        <time>2021-06-27T09:07:49.000Z</time>
      </trkpt>
      <trkpt lat="47.53611" lon="-2.28178">
        <ele>-34.599998474121</ele>
        <time>2021-06-27T09:07:52.000Z</time>
      </trkpt>
      <trkpt lat="47.53609" lon="-2.28184">
        <ele>-34.599998474121</ele>
        <time>2021-06-27T09:07:53.000Z</time>
      </trkpt>
      <trkpt lat="47.53593" lon="-2.28197">
        <ele>-34.599998474121</ele>
        <time>2021-06-27T09:07:57.000Z</time>
      </trkpt>
      <trkpt lat="47.53588" lon="-2.28197">
        <ele>-34.599998474121</ele>
        <time>2021-06-27T09:07:58.000Z</time>
      </trkpt>
      <trkpt lat="47.53584" lon="-2.28197">
        <ele>-34.599998474121</ele>
        <time>2021-06-27T09:07:59.000Z</time>
      </trkpt>
      <trkpt lat="47.53571" lon="-2.28204">
        <ele>-34.599998474121</ele>
        <time>2021-06-27T09:08:02.000Z</time>
      </trkpt>
      <trkpt lat="47.53562" lon="-2.28216">
        <ele>-34.599998474121</ele>
        <time>2021-06-27T09:08:05.000Z</time>
      </trkpt>
      <trkpt lat="47.53554" lon="-2.28229">
        <ele>-34.599998474121</ele>
        <time>2021-06-27T09:08:08.000Z</time>
      </trkpt>
      <trkpt lat="47.53551" lon="-2.28237">
        <ele>-34.599998474121</ele>
        <time>2021-06-27T09:08:10.000Z</time>
      </trkpt>
      <trkpt lat="47.53552" lon="-2.28241">
        <ele>-34.599998474121</ele>
        <time>2021-06-27T09:08:11.000Z</time>
      </trkpt>
      <trkpt lat="47.53552" lon="-2.28249">
        <ele>-34.599998474121</ele>
        <time>2021-06-27T09:08:15.000Z</time>
      </trkpt>
      <trkpt lat="47.53552" lon="-2.28249">
        <ele>-34.599998474121</ele>
        <time>2021-06-27T09:08:16.000Z</time>
      </trkpt>
      <trkpt lat="47.53548" lon="-2.28253">
        <ele>-34.599998474121</ele>
        <time>2021-06-27T09:08:18.000Z</time>
      </trkpt>
      <trkpt lat="47.53545" lon="-2.28255">
        <ele>-34.599998474121</ele>
        <time>2021-06-27T09:08:19.000Z</time>
      </trkpt>
      <trkpt lat="47.53542" lon="-2.28265">
        <ele>-34.599998474121</ele>
        <time>2021-06-27T09:08:22.000Z</time>
      </trkpt>
      <trkpt lat="47.53543" lon="-2.28272">
        <ele>-34.599998474121</ele>
        <time>2021-06-27T09:08:24.000Z</time>
      </trkpt>
      <trkpt lat="47.53545" lon="-2.28284">
        <ele>-34.599998474121</ele>
        <time>2021-06-27T09:08:27.000Z</time>
      </trkpt>
      <trkpt lat="47.53544" lon="-2.28288">
        <ele>-34.599998474121</ele>
        <time>2021-06-27T09:08:28.000Z</time>
      </trkpt>
      <trkpt lat="47.5354" lon="-2.283">
        <ele>-34.599998474121</ele>
        <time>2021-06-27T09:08:31.000Z</time>
      </trkpt>
      <trkpt lat="47.53538" lon="-2.28304">
        <ele>-34.599998474121</ele>
        <time>2021-06-27T09:08:32.000Z</time>
      </trkpt>
      <trkpt lat="47.53535" lon="-2.28308">
        <ele>-34.200000762939</ele>
        <time>2021-06-27T09:08:33.000Z</time>
      </trkpt>
      <trkpt lat="47.53532" lon="-2.28312">
        <ele>-33.799999237061</ele>
        <time>2021-06-27T09:08:34.000Z</time>
      </trkpt>
      <trkpt lat="47.53529" lon="-2.28315">
        <ele>-33.400001525879</ele>
        <time>2021-06-27T09:08:35.000Z</time>
      </trkpt>
      <trkpt lat="47.53526" lon="-2.28319">
        <ele>-32.799999237061</ele>
        <time>2021-06-27T09:08:36.000Z</time>
      </trkpt>
      <trkpt lat="47.53523" lon="-2.28323">
        <ele>-32.400001525879</ele>
        <time>2021-06-27T09:08:37.000Z</time>
      </trkpt>
      <trkpt lat="47.53521" lon="-2.28327">
        <ele>-32.400001525879</ele>
        <time>2021-06-27T09:08:38.000Z</time>
      </trkpt>
      <trkpt lat="47.53502" lon="-2.28346">
        <ele>-32.400001525879</ele>
        <time>2021-06-27T09:08:44.000Z</time>
      </trkpt>
      <trkpt lat="47.53486" lon="-2.28354">
        <ele>-32.400001525879</ele>
        <time>2021-06-27T09:08:51.000Z</time>
      </trkpt>
      <trkpt lat="47.53486" lon="-2.28357">
        <ele>-32</ele>
        <time>2021-06-27T09:08:52.000Z</time>
      </trkpt>
      <trkpt lat="47.53484" lon="-2.28361">
        <ele>-31.200000762939</ele>
        <time>2021-06-27T09:08:53.000Z</time>
      </trkpt>
      <trkpt lat="47.53483" lon="-2.28366">
        <ele>-30.799999237061</ele>
        <time>2021-06-27T09:08:54.000Z</time>
      </trkpt>
      <trkpt lat="47.5348" lon="-2.2837">
        <ele>-30.39999961853</ele>
        <time>2021-06-27T09:08:55.000Z</time>
      </trkpt>
      <trkpt lat="47.53472" lon="-2.28375">
        <ele>-30.39999961853</ele>
        <time>2021-06-27T09:08:59.000Z</time>
      </trkpt>
      <trkpt lat="47.5347" lon="-2.28375">
        <ele>-30.39999961853</ele>
        <time>2021-06-27T09:09:00.000Z</time>
      </trkpt>
      <trkpt lat="47.53457" lon="-2.28377">
        <ele>-30.39999961853</ele>
        <time>2021-06-27T09:09:04.000Z</time>
      </trkpt>
      <trkpt lat="47.53455" lon="-2.28379">
        <ele>-30.39999961853</ele>
        <time>2021-06-27T09:09:05.000Z</time>
      </trkpt>
      <trkpt lat="47.53454" lon="-2.28384">
        <ele>-30.39999961853</ele>
        <time>2021-06-27T09:09:07.000Z</time>
      </trkpt>
      <trkpt lat="47.53454" lon="-2.2839">
        <ele>-30.39999961853</ele>
        <time>2021-06-27T09:09:10.000Z</time>
      </trkpt>
      <trkpt lat="47.53451" lon="-2.28394">
        <ele>-30.39999961853</ele>
        <time>2021-06-27T09:09:13.000Z</time>
      </trkpt>
      <trkpt lat="47.5343" lon="-2.28396">
        <ele>-30.39999961853</ele>
        <time>2021-06-27T09:09:18.000Z</time>
      </trkpt>
      <trkpt lat="47.53402" lon="-2.28404">
        <ele>-30.39999961853</ele>
        <time>2021-06-27T09:09:24.000Z</time>
      </trkpt>
      <trkpt lat="47.53374" lon="-2.2842">
        <ele>-30.39999961853</ele>
        <time>2021-06-27T09:09:31.000Z</time>
      </trkpt>
      <trkpt lat="47.53371" lon="-2.28423">
        <ele>-30.39999961853</ele>
        <time>2021-06-27T09:09:32.000Z</time>
      </trkpt>
      <trkpt lat="47.53371" lon="-2.28432">
        <ele>-30.39999961853</ele>
        <time>2021-06-27T09:09:34.000Z</time>
      </trkpt>
      <trkpt lat="47.53373" lon="-2.28449">
        <ele>-30.39999961853</ele>
        <time>2021-06-27T09:09:37.000Z</time>
      </trkpt>
      <trkpt lat="47.53377" lon="-2.28467">
        <ele>-30.39999961853</ele>
        <time>2021-06-27T09:09:40.000Z</time>
      </trkpt>
      <trkpt lat="47.53386" lon="-2.28523">
        <ele>-30.39999961853</ele>
        <time>2021-06-27T09:09:48.000Z</time>
      </trkpt>
      <trkpt lat="47.53397" lon="-2.2857">
        <ele>-30.39999961853</ele>
        <time>2021-06-27T09:09:54.000Z</time>
      </trkpt>
      <trkpt lat="47.534" lon="-2.28578">
        <ele>-30.39999961853</ele>
        <time>2021-06-27T09:09:55.000Z</time>
      </trkpt>
      <trkpt lat="47.53408" lon="-2.28589">
        <ele>-30.39999961853</ele>
        <time>2021-06-27T09:09:57.000Z</time>
      </trkpt>
      <trkpt lat="47.53408" lon="-2.28603">
        <ele>-30.39999961853</ele>
        <time>2021-06-27T09:10:00.000Z</time>
      </trkpt>
      <trkpt lat="47.53393" lon="-2.28616">
        <ele>-30.39999961853</ele>
        <time>2021-06-27T09:10:04.000Z</time>
      </trkpt>
      <trkpt lat="47.5338" lon="-2.28632">
        <ele>-30.39999961853</ele>
        <time>2021-06-27T09:10:08.000Z</time>
      </trkpt>
      <trkpt lat="47.53368" lon="-2.28632">
        <ele>-30.39999961853</ele>
        <time>2021-06-27T09:10:11.000Z</time>
      </trkpt>
      <trkpt lat="47.5335" lon="-2.28631">
        <ele>-30.39999961853</ele>
        <time>2021-06-27T09:10:14.000Z</time>
      </trkpt>
      <trkpt lat="47.53333" lon="-2.28632">
        <ele>-30.39999961853</ele>
        <time>2021-06-27T09:10:17.000Z</time>
      </trkpt>
      <trkpt lat="47.53327" lon="-2.28632">
        <ele>-30.39999961853</ele>
        <time>2021-06-27T09:10:18.000Z</time>
      </trkpt>
      <trkpt lat="47.53322" lon="-2.28629">
        <ele>-30.39999961853</ele>
        <time>2021-06-27T09:10:19.000Z</time>
      </trkpt>
      <trkpt lat="47.53298" lon="-2.28618">
        <ele>-30.39999961853</ele>
        <time>2021-06-27T09:10:24.000Z</time>
      </trkpt>
      <trkpt lat="47.53294" lon="-2.28615">
        <ele>-30.39999961853</ele>
        <time>2021-06-27T09:10:25.000Z</time>
      </trkpt>
      <trkpt lat="47.53283" lon="-2.28601">
        <ele>-30.39999961853</ele>
        <time>2021-06-27T09:10:28.000Z</time>
      </trkpt>
      <trkpt lat="47.5328" lon="-2.28595">
        <ele>-30.39999961853</ele>
        <time>2021-06-27T09:10:29.000Z</time>
      </trkpt>
      <trkpt lat="47.53277" lon="-2.28589">
        <ele>-30.39999961853</ele>
        <time>2021-06-27T09:10:30.000Z</time>
      </trkpt>
      <trkpt lat="47.53274" lon="-2.28583">
        <ele>-30.39999961853</ele>
        <time>2021-06-27T09:10:31.000Z</time>
      </trkpt>
      <trkpt lat="47.53266" lon="-2.28557">
        <ele>-30</ele>
        <time>2021-06-27T09:10:35.000Z</time>
      </trkpt>
      <trkpt lat="47.53266" lon="-2.2855">
        <ele>-29.60000038147</ele>
        <time>2021-06-27T09:10:36.000Z</time>
      </trkpt>
      <trkpt lat="47.53266" lon="-2.28544">
        <ele>-29.200000762939</ele>
        <time>2021-06-27T09:10:37.000Z</time>
      </trkpt>
      <trkpt lat="47.53267" lon="-2.28538">
        <ele>-28.799999237061</ele>
        <time>2021-06-27T09:10:38.000Z</time>
      </trkpt>
      <trkpt lat="47.53267" lon="-2.28532">
        <ele>-28.39999961853</ele>
        <time>2021-06-27T09:10:39.000Z</time>
      </trkpt>
      <trkpt lat="47.53267" lon="-2.28518">
        <ele>-28.39999961853</ele>
        <time>2021-06-27T09:10:41.000Z</time>
      </trkpt>
      <trkpt lat="47.53263" lon="-2.28482">
        <ele>-28.39999961853</ele>
        <time>2021-06-27T09:10:47.000Z</time>
      </trkpt>
      <trkpt lat="47.53259" lon="-2.28454">
        <ele>-28.39999961853</ele>
        <time>2021-06-27T09:10:53.000Z</time>
      </trkpt>
      <trkpt lat="47.53258" lon="-2.28452">
        <ele>-28.39999961853</ele>
        <time>2021-06-27T09:10:54.000Z</time>
      </trkpt>
      <trkpt lat="47.53254" lon="-2.28452">
        <ele>-28.39999961853</ele>
        <time>2021-06-27T09:10:56.000Z</time>
      </trkpt>
      <trkpt lat="47.53251" lon="-2.28453">
        <ele>-27.60000038147</ele>
        <time>2021-06-27T09:10:57.000Z</time>
      </trkpt>
      <trkpt lat="47.53249" lon="-2.28453">
        <ele>-27.200000762939</ele>
        <time>2021-06-27T09:10:58.000Z</time>
      </trkpt>
      <trkpt lat="47.53246" lon="-2.28454">
        <ele>-26.799999237061</ele>
        <time>2021-06-27T09:10:59.000Z</time>
      </trkpt>
      <trkpt lat="47.53243" lon="-2.28454">
        <ele>-26.39999961853</ele>
        <time>2021-06-27T09:11:00.000Z</time>
      </trkpt>
      <trkpt lat="47.53239" lon="-2.28455">
        <ele>-26.39999961853</ele>
        <time>2021-06-27T09:11:01.000Z</time>
      </trkpt>
      <trkpt lat="47.53222" lon="-2.28459">
        <ele>-26.39999961853</ele>
        <time>2021-06-27T09:11:06.000Z</time>
      </trkpt>
      <trkpt lat="47.53218" lon="-2.2848">
        <ele>-26.39999961853</ele>
        <time>2021-06-27T09:11:10.000Z</time>
      </trkpt>
      <trkpt lat="47.53209" lon="-2.28525">
        <ele>-26.39999961853</ele>
        <time>2021-06-27T09:11:16.000Z</time>
      </trkpt>
      <trkpt lat="47.53209" lon="-2.28557">
        <ele>-26.39999961853</ele>
        <time>2021-06-27T09:11:20.000Z</time>
      </trkpt>
      <trkpt lat="47.53208" lon="-2.28566">
        <ele>-26.39999961853</ele>
        <time>2021-06-27T09:11:21.000Z</time>
      </trkpt>
      <trkpt lat="47.53207" lon="-2.28607">
        <ele>-26.39999961853</ele>
        <time>2021-06-27T09:11:26.000Z</time>
      </trkpt>
      <trkpt lat="47.53204" lon="-2.28615">
        <ele>-26.39999961853</ele>
        <time>2021-06-27T09:11:28.000Z</time>
      </trkpt>
      <trkpt lat="47.53201" lon="-2.28616">
        <ele>-26.39999961853</ele>
        <time>2021-06-27T09:11:29.000Z</time>
      </trkpt>
      <trkpt lat="47.53192" lon="-2.2861">
        <ele>-26.39999961853</ele>
        <time>2021-06-27T09:11:32.000Z</time>
      </trkpt>
      <trkpt lat="47.53179" lon="-2.28604">
        <ele>-26.39999961853</ele>
        <time>2021-06-27T09:11:35.000Z</time>
      </trkpt>
      <trkpt lat="47.53168" lon="-2.28597">
        <ele>-26.39999961853</ele>
        <time>2021-06-27T09:11:38.000Z</time>
      </trkpt>
      <trkpt lat="47.53154" lon="-2.2859">
        <ele>-26</ele>
        <time>2021-06-27T09:11:41.000Z</time>
      </trkpt>
      <trkpt lat="47.5315" lon="-2.28588">
        <ele>-25.60000038147</ele>
        <time>2021-06-27T09:11:42.000Z</time>
      </trkpt>
      <trkpt lat="47.53145" lon="-2.28585">
        <ele>-25</ele>
        <time>2021-06-27T09:11:43.000Z</time>
      </trkpt>
      <trkpt lat="47.5314" lon="-2.28582">
        <ele>-24.60000038147</ele>
        <time>2021-06-27T09:11:44.000Z</time>
      </trkpt>
      <trkpt lat="47.53136" lon="-2.28579">
        <ele>-24.200000762939</ele>
        <time>2021-06-27T09:11:45.000Z</time>
      </trkpt>
      <trkpt lat="47.53126" lon="-2.28575">
        <ele>-24.200000762939</ele>
        <time>2021-06-27T09:11:48.000Z</time>
      </trkpt>
      <trkpt lat="47.53112" lon="-2.28581">
        <ele>-24.200000762939</ele>
        <time>2021-06-27T09:11:52.000Z</time>
      </trkpt>
      <trkpt lat="47.53101" lon="-2.2859">
        <ele>-23.799999237061</ele>
        <time>2021-06-27T09:11:55.000Z</time>
      </trkpt>
      <trkpt lat="47.53097" lon="-2.28592">
        <ele>-23.39999961853</ele>
        <time>2021-06-27T09:11:56.000Z</time>
      </trkpt>
      <trkpt lat="47.53093" lon="-2.28595">
        <ele>-23</ele>
        <time>2021-06-27T09:11:57.000Z</time>
      </trkpt>
      <trkpt lat="47.53088" lon="-2.28597">
        <ele>-22.60000038147</ele>
        <time>2021-06-27T09:11:58.000Z</time>
      </trkpt>
      <trkpt lat="47.53084" lon="-2.286">
        <ele>-22.200000762939</ele>
        <time>2021-06-27T09:11:59.000Z</time>
      </trkpt>
      <trkpt lat="47.53068" lon="-2.28607">
        <ele>-22.200000762939</ele>
        <time>2021-06-27T09:12:03.000Z</time>
      </trkpt>
      <trkpt lat="47.53048" lon="-2.28624">
        <ele>-22.200000762939</ele>
        <time>2021-06-27T09:12:09.000Z</time>
      </trkpt>
      <trkpt lat="47.53039" lon="-2.28635">
        <ele>-22.200000762939</ele>
        <time>2021-06-27T09:12:14.000Z</time>
      </trkpt>
      <trkpt lat="47.53026" lon="-2.28652">
        <ele>-22.200000762939</ele>
        <time>2021-06-27T09:12:20.000Z</time>
      </trkpt>
      <trkpt lat="47.5301" lon="-2.28671">
        <ele>-22.200000762939</ele>
        <time>2021-06-27T09:12:27.000Z</time>
      </trkpt>
      <trkpt lat="47.53007" lon="-2.28678">
        <ele>-22.200000762939</ele>
        <time>2021-06-27T09:12:29.000Z</time>
      </trkpt>
      <trkpt lat="47.53007" lon="-2.28688">
        <ele>-22.200000762939</ele>
        <time>2021-06-27T09:12:31.000Z</time>
      </trkpt>
      <trkpt lat="47.53012" lon="-2.28697">
        <ele>-22.200000762939</ele>
        <time>2021-06-27T09:12:33.000Z</time>
      </trkpt>
      <trkpt lat="47.53016" lon="-2.28707">
        <ele>-22.200000762939</ele>
        <time>2021-06-27T09:12:35.000Z</time>
      </trkpt>
      <trkpt lat="47.53032" lon="-2.28751">
        <ele>-22.200000762939</ele>
        <time>2021-06-27T09:12:42.000Z</time>
      </trkpt>
      <trkpt lat="47.53049" lon="-2.28789">
        <ele>-22.200000762939</ele>
        <time>2021-06-27T09:12:48.000Z</time>
      </trkpt>
      <trkpt lat="47.53075" lon="-2.28831">
        <ele>-22.200000762939</ele>
        <time>2021-06-27T09:12:55.000Z</time>
      </trkpt>
      <trkpt lat="47.53097" lon="-2.28866">
        <ele>-22.200000762939</ele>
        <time>2021-06-27T09:13:01.000Z</time>
      </trkpt>
      <trkpt lat="47.53101" lon="-2.28871">
        <ele>-22.200000762939</ele>
        <time>2021-06-27T09:13:02.000Z</time>
      </trkpt>
      <trkpt lat="47.53112" lon="-2.28884">
        <ele>-22.200000762939</ele>
        <time>2021-06-27T09:13:05.000Z</time>
      </trkpt>
      <trkpt lat="47.53113" lon="-2.28891">
        <ele>-22.200000762939</ele>
        <time>2021-06-27T09:13:06.000Z</time>
      </trkpt>
      <trkpt lat="47.53109" lon="-2.28909">
        <ele>-21.799999237061</ele>
        <time>2021-06-27T09:13:09.000Z</time>
      </trkpt>
      <trkpt lat="47.53109" lon="-2.28916">
        <ele>-21.39999961853</ele>
        <time>2021-06-27T09:13:10.000Z</time>
      </trkpt>
      <trkpt lat="47.5311" lon="-2.28921">
        <ele>-20.799999237061</ele>
        <time>2021-06-27T09:13:11.000Z</time>
      </trkpt>
      <trkpt lat="47.53112" lon="-2.28927">
        <ele>-20.39999961853</ele>
        <time>2021-06-27T09:13:12.000Z</time>
      </trkpt>
      <trkpt lat="47.53114" lon="-2.28933">
        <ele>-20</ele>
        <time>2021-06-27T09:13:13.000Z</time>
      </trkpt>
      <trkpt lat="47.53116" lon="-2.28938">
        <ele>-20</ele>
        <time>2021-06-27T09:13:14.000Z</time>
      </trkpt>
      <trkpt lat="47.53126" lon="-2.28958">
        <ele>-20</ele>
        <time>2021-06-27T09:13:18.000Z</time>
      </trkpt>
      <trkpt lat="47.5314" lon="-2.28994">
        <ele>-20</ele>
        <time>2021-06-27T09:13:25.000Z</time>
      </trkpt>
      <trkpt lat="47.5315" lon="-2.29031">
        <ele>-20</ele>
        <time>2021-06-27T09:13:31.000Z</time>
      </trkpt>
      <trkpt lat="47.53163" lon="-2.29074">
        <ele>-20</ele>
        <time>2021-06-27T09:13:38.000Z</time>
      </trkpt>
      <trkpt lat="47.53173" lon="-2.29105">
        <ele>-20</ele>
        <time>2021-06-27T09:13:44.000Z</time>
      </trkpt>
      <trkpt lat="47.53184" lon="-2.29141">
        <ele>-20</ele>
        <time>2021-06-27T09:13:51.000Z</time>
      </trkpt>
      <trkpt lat="47.53195" lon="-2.29171">
        <ele>-20</ele>
        <time>2021-06-27T09:13:57.000Z</time>
      </trkpt>
      <trkpt lat="47.53205" lon="-2.29182">
        <ele>-20</ele>
        <time>2021-06-27T09:14:01.000Z</time>
      </trkpt>
      <trkpt lat="47.53209" lon="-2.29181">
        <ele>-20</ele>
        <time>2021-06-27T09:14:03.000Z</time>
      </trkpt>
      <trkpt lat="47.53213" lon="-2.29176">
        <ele>-20</ele>
        <time>2021-06-27T09:14:05.000Z</time>
      </trkpt>
      <trkpt lat="47.53221" lon="-2.29157">
        <ele>-20</ele>
        <time>2021-06-27T09:14:10.000Z</time>
      </trkpt>
      <trkpt lat="47.53226" lon="-2.29149">
        <ele>-19.60000038147</ele>
        <time>2021-06-27T09:14:14.000Z</time>
      </trkpt>
      <trkpt lat="47.53226" lon="-2.29147">
        <ele>-19.200000762939</ele>
        <time>2021-06-27T09:14:15.000Z</time>
      </trkpt>
      <trkpt lat="47.53228" lon="-2.29145">
        <ele>-18.799999237061</ele>
        <time>2021-06-27T09:14:16.000Z</time>
      </trkpt>
      <trkpt lat="47.53228" lon="-2.29144">
        <ele>-18.39999961853</ele>
        <time>2021-06-27T09:14:17.000Z</time>
      </trkpt>
      <trkpt lat="47.53228" lon="-2.29143">
        <ele>-18</ele>
        <time>2021-06-27T09:14:18.000Z</time>
      </trkpt>
      <trkpt lat="47.5323" lon="-2.29133">
        <ele>-18</ele>
        <time>2021-06-27T09:14:26.000Z</time>
      </trkpt>
      <trkpt lat="47.53231" lon="-2.29126">
        <ele>-18</ele>
        <time>2021-06-27T09:14:28.000Z</time>
      </trkpt>
      <trkpt lat="47.53233" lon="-2.29117">
        <ele>-18</ele>
        <time>2021-06-27T09:14:30.000Z</time>
      </trkpt>
      <trkpt lat="47.53237" lon="-2.29102">
        <ele>-17.60000038147</ele>
        <time>2021-06-27T09:14:33.000Z</time>
      </trkpt>
      <trkpt lat="47.53238" lon="-2.29098">
        <ele>-17.200000762939</ele>
        <time>2021-06-27T09:14:34.000Z</time>
      </trkpt>
      <trkpt lat="47.53239" lon="-2.29093">
        <ele>-16.799999237061</ele>
        <time>2021-06-27T09:14:35.000Z</time>
      </trkpt>
      <trkpt lat="47.53241" lon="-2.29088">
        <ele>-16.200000762939</ele>
        <time>2021-06-27T09:14:36.000Z</time>
      </trkpt>
      <trkpt lat="47.53243" lon="-2.29083">
        <ele>-15.800000190735</ele>
        <time>2021-06-27T09:14:37.000Z</time>
      </trkpt>
      <trkpt lat="47.53245" lon="-2.29077">
        <ele>-15.800000190735</ele>
        <time>2021-06-27T09:14:38.000Z</time>
      </trkpt>
      <trkpt lat="47.53253" lon="-2.29062">
        <ele>-15.800000190735</ele>
        <time>2021-06-27T09:14:42.000Z</time>
      </trkpt>
      <trkpt lat="47.53267" lon="-2.29055">
        <ele>-15.800000190735</ele>
        <time>2021-06-27T09:14:46.000Z</time>
      </trkpt>
      <trkpt lat="47.53286" lon="-2.29051">
        <ele>-15.800000190735</ele>
        <time>2021-06-27T09:14:51.000Z</time>
      </trkpt>
      <trkpt lat="47.53306" lon="-2.29038">
        <ele>-15.800000190735</ele>
        <time>2021-06-27T09:14:57.000Z</time>
      </trkpt>
      <trkpt lat="47.53324" lon="-2.29031">
        <ele>-15.800000190735</ele>
        <time>2021-06-27T09:15:03.000Z</time>
      </trkpt>
      <trkpt lat="47.53338" lon="-2.29041">
        <ele>-15.800000190735</ele>
        <time>2021-06-27T09:15:08.000Z</time>
      </trkpt>
      <trkpt lat="47.5336" lon="-2.29068">
        <ele>-15.800000190735</ele>
        <time>2021-06-27T09:15:15.000Z</time>
      </trkpt>
      <trkpt lat="47.53372" lon="-2.29092">
        <ele>-15.800000190735</ele>
        <time>2021-06-27T09:15:20.000Z</time>
      </trkpt>
      <trkpt lat="47.53381" lon="-2.2913">
        <ele>-15.800000190735</ele>
        <time>2021-06-27T09:15:27.000Z</time>
      </trkpt>
      <trkpt lat="47.53387" lon="-2.29151">
        <ele>-15.800000190735</ele>
        <time>2021-06-27T09:15:32.000Z</time>
      </trkpt>
      <trkpt lat="47.53393" lon="-2.29182">
        <ele>-15.800000190735</ele>
        <time>2021-06-27T09:15:41.000Z</time>
      </trkpt>
      <trkpt lat="47.53396" lon="-2.29204">
        <ele>-15.39999961853</ele>
        <time>2021-06-27T09:15:47.000Z</time>
      </trkpt>
      <trkpt lat="47.53397" lon="-2.29208">
        <ele>-15</ele>
        <time>2021-06-27T09:15:48.000Z</time>
      </trkpt>
      <trkpt lat="47.53397" lon="-2.29212">
        <ele>-14.60000038147</ele>
        <time>2021-06-27T09:15:49.000Z</time>
      </trkpt>
      <trkpt lat="47.53398" lon="-2.29216">
        <ele>-14.199999809265</ele>
        <time>2021-06-27T09:15:50.000Z</time>
      </trkpt>
      <trkpt lat="47.53399" lon="-2.2922">
        <ele>-13.800000190735</ele>
        <time>2021-06-27T09:15:51.000Z</time>
      </trkpt>
      <trkpt lat="47.53404" lon="-2.29244">
        <ele>-13.800000190735</ele>
        <time>2021-06-27T09:15:56.000Z</time>
      </trkpt>
      <trkpt lat="47.53413" lon="-2.29282">
        <ele>-13.800000190735</ele>
        <time>2021-06-27T09:16:04.000Z</time>
      </trkpt>
      <trkpt lat="47.53415" lon="-2.29303">
        <ele>-13.800000190735</ele>
        <time>2021-06-27T09:16:09.000Z</time>
      </trkpt>
      <trkpt lat="47.53414" lon="-2.29308">
        <ele>-13.800000190735</ele>
        <time>2021-06-27T09:16:10.000Z</time>
      </trkpt>
      <trkpt lat="47.5341" lon="-2.29314">
        <ele>-13.800000190735</ele>
        <time>2021-06-27T09:16:12.000Z</time>
      </trkpt>
      <trkpt lat="47.53404" lon="-2.29321">
        <ele>-13.800000190735</ele>
        <time>2021-06-27T09:16:14.000Z</time>
      </trkpt>
      <trkpt lat="47.53391" lon="-2.29333">
        <ele>-13.800000190735</ele>
        <time>2021-06-27T09:16:18.000Z</time>
      </trkpt>
      <trkpt lat="47.53377" lon="-2.29347">
        <ele>-13.800000190735</ele>
        <time>2021-06-27T09:16:22.000Z</time>
      </trkpt>
      <trkpt lat="47.53369" lon="-2.29363">
        <ele>-13.800000190735</ele>
        <time>2021-06-27T09:16:25.000Z</time>
      </trkpt>
      <trkpt lat="47.53367" lon="-2.29369">
        <ele>-13.800000190735</ele>
        <time>2021-06-27T09:16:26.000Z</time>
      </trkpt>
      <trkpt lat="47.53362" lon="-2.29389">
        <ele>-13.800000190735</ele>
        <time>2021-06-27T09:16:29.000Z</time>
      </trkpt>
      <trkpt lat="47.5336" lon="-2.29396">
        <ele>-13.800000190735</ele>
        <time>2021-06-27T09:16:30.000Z</time>
      </trkpt>
      <trkpt lat="47.53357" lon="-2.29413">
        <ele>-14.199999809265</ele>
        <time>2021-06-27T09:16:32.000Z</time>
      </trkpt>
      <trkpt lat="47.53355" lon="-2.29421">
        <ele>-14.60000038147</ele>
        <time>2021-06-27T09:16:33.000Z</time>
      </trkpt>
      <trkpt lat="47.53352" lon="-2.29429">
        <ele>-15</ele>
        <time>2021-06-27T09:16:34.000Z</time>
      </trkpt>
      <trkpt lat="47.53349" lon="-2.29437">
        <ele>-15.39999961853</ele>
        <time>2021-06-27T09:16:35.000Z</time>
      </trkpt>
      <trkpt lat="47.53345" lon="-2.29444">
        <ele>-15.800000190735</ele>
        <time>2021-06-27T09:16:36.000Z</time>
      </trkpt>
      <trkpt lat="47.5333" lon="-2.29467">
        <ele>-15.800000190735</ele>
        <time>2021-06-27T09:16:39.000Z</time>
      </trkpt>
      <trkpt lat="47.53309" lon="-2.29482">
        <ele>-15.800000190735</ele>
        <time>2021-06-27T09:16:42.000Z</time>
      </trkpt>
      <trkpt lat="47.53295" lon="-2.29487">
        <ele>-15.800000190735</ele>
        <time>2021-06-27T09:16:44.000Z</time>
      </trkpt>
      <trkpt lat="47.53289" lon="-2.2949">
        <ele>-15.800000190735</ele>
        <time>2021-06-27T09:16:45.000Z</time>
      </trkpt>
      <trkpt lat="47.53283" lon="-2.29493">
        <ele>-15.800000190735</ele>
        <time>2021-06-27T09:16:46.000Z</time>
      </trkpt>
      <trkpt lat="47.53274" lon="-2.2951">
        <ele>-15.800000190735</ele>
        <time>2021-06-27T09:16:49.000Z</time>
      </trkpt>
      <trkpt lat="47.53271" lon="-2.29532">
        <ele>-15.800000190735</ele>
        <time>2021-06-27T09:16:53.000Z</time>
      </trkpt>
      <trkpt lat="47.53271" lon="-2.29537">
        <ele>-15.800000190735</ele>
        <time>2021-06-27T09:16:54.000Z</time>
      </trkpt>
      <trkpt lat="47.53269" lon="-2.29563">
        <ele>-15.800000190735</ele>
        <time>2021-06-27T09:16:59.000Z</time>
      </trkpt>
      <trkpt lat="47.53271" lon="-2.29571">
        <ele>-15.800000190735</ele>
        <time>2021-06-27T09:17:00.000Z</time>
      </trkpt>
      <trkpt lat="47.53272" lon="-2.29584">
        <ele>-15.800000190735</ele>
        <time>2021-06-27T09:17:02.000Z</time>
      </trkpt>
      <trkpt lat="47.53281" lon="-2.29613">
        <ele>-15.800000190735</ele>
        <time>2021-06-27T09:17:07.000Z</time>
      </trkpt>
      <trkpt lat="47.53285" lon="-2.29615">
        <ele>-15.800000190735</ele>
        <time>2021-06-27T09:17:08.000Z</time>
      </trkpt>
      <trkpt lat="47.53299" lon="-2.29619">
        <ele>-15.800000190735</ele>
        <time>2021-06-27T09:17:11.000Z</time>
      </trkpt>
      <trkpt lat="47.5331" lon="-2.29623">
        <ele>-15.800000190735</ele>
        <time>2021-06-27T09:17:13.000Z</time>
      </trkpt>
      <trkpt lat="47.53321" lon="-2.29629">
        <ele>-15.39999961853</ele>
        <time>2021-06-27T09:17:15.000Z</time>
      </trkpt>
      <trkpt lat="47.53326" lon="-2.29635">
        <ele>-15</ele>
        <time>2021-06-27T09:17:16.000Z</time>
      </trkpt>
      <trkpt lat="47.53329" lon="-2.29643">
        <ele>-14.60000038147</ele>
        <time>2021-06-27T09:17:17.000Z</time>
      </trkpt>
      <trkpt lat="47.53332" lon="-2.29652">
        <ele>-14.199999809265</ele>
        <time>2021-06-27T09:17:18.000Z</time>
      </trkpt>
      <trkpt lat="47.53334" lon="-2.29662">
        <ele>-13.800000190735</ele>
        <time>2021-06-27T09:17:19.000Z</time>
      </trkpt>
      <trkpt lat="47.53338" lon="-2.29681">
        <ele>-13.800000190735</ele>
        <time>2021-06-27T09:17:21.000Z</time>
      </trkpt>
      <trkpt lat="47.53341" lon="-2.2969">
        <ele>-13.800000190735</ele>
        <time>2021-06-27T09:17:22.000Z</time>
      </trkpt>
      <trkpt lat="47.53352" lon="-2.29712">
        <ele>-13.800000190735</ele>
        <time>2021-06-27T09:17:25.000Z</time>
      </trkpt>
      <trkpt lat="47.53362" lon="-2.29729">
        <ele>-13.800000190735</ele>
        <time>2021-06-27T09:17:28.000Z</time>
      </trkpt>
      <trkpt lat="47.53366" lon="-2.29741">
        <ele>-13.800000190735</ele>
        <time>2021-06-27T09:17:30.000Z</time>
      </trkpt>
      <trkpt lat="47.53369" lon="-2.29746">
        <ele>-13.39999961853</ele>
        <time>2021-06-27T09:17:31.000Z</time>
      </trkpt>
      <trkpt lat="47.53373" lon="-2.29752">
        <ele>-12.800000190735</ele>
        <time>2021-06-27T09:17:32.000Z</time>
      </trkpt>
      <trkpt lat="47.53375" lon="-2.29757">
        <ele>-12.39999961853</ele>
        <time>2021-06-27T09:17:33.000Z</time>
      </trkpt>
      <trkpt lat="47.53377" lon="-2.29764">
        <ele>-12</ele>
        <time>2021-06-27T09:17:34.000Z</time>
      </trkpt>
      <trkpt lat="47.53379" lon="-2.2977">
        <ele>-11.60000038147</ele>
        <time>2021-06-27T09:17:35.000Z</time>
      </trkpt>
      <trkpt lat="47.53385" lon="-2.29799">
        <ele>-11.60000038147</ele>
        <time>2021-06-27T09:17:40.000Z</time>
      </trkpt>
      <trkpt lat="47.53389" lon="-2.29836">
        <ele>-11.60000038147</ele>
        <time>2021-06-27T09:17:46.000Z</time>
      </trkpt>
      <trkpt lat="47.53395" lon="-2.29862">
        <ele>-11.60000038147</ele>
        <time>2021-06-27T09:17:51.000Z</time>
      </trkpt>
      <trkpt lat="47.53409" lon="-2.29859">
        <ele>-11.60000038147</ele>
        <time>2021-06-27T09:17:54.000Z</time>
      </trkpt>
      <trkpt lat="47.53417" lon="-2.29845">
        <ele>-11.60000038147</ele>
        <time>2021-06-27T09:17:57.000Z</time>
      </trkpt>
      <trkpt lat="47.53419" lon="-2.2984">
        <ele>-11.60000038147</ele>
        <time>2021-06-27T09:17:58.000Z</time>
      </trkpt>
      <trkpt lat="47.53426" lon="-2.29824">
        <ele>-11.60000038147</ele>
        <time>2021-06-27T09:18:03.000Z</time>
      </trkpt>
      <trkpt lat="47.53427" lon="-2.29823">
        <ele>-11.60000038147</ele>
        <time>2021-06-27T09:18:04.000Z</time>
      </trkpt>
      <trkpt lat="47.53432" lon="-2.29825">
        <ele>-11.60000038147</ele>
        <time>2021-06-27T09:18:07.000Z</time>
      </trkpt>
      <trkpt lat="47.53445" lon="-2.29835">
        <ele>-11.60000038147</ele>
        <time>2021-06-27T09:18:12.000Z</time>
      </trkpt>
      <trkpt lat="47.5345" lon="-2.29843">
        <ele>-12</ele>
        <time>2021-06-27T09:18:15.000Z</time>
      </trkpt>
      <trkpt lat="47.53451" lon="-2.29845">
        <ele>-12.39999961853</ele>
        <time>2021-06-27T09:18:16.000Z</time>
      </trkpt>
      <trkpt lat="47.53452" lon="-2.29847">
        <ele>-12.800000190735</ele>
        <time>2021-06-27T09:18:17.000Z</time>
      </trkpt>
      <trkpt lat="47.53453" lon="-2.29848">
        <ele>-13.199999809265</ele>
        <time>2021-06-27T09:18:18.000Z</time>
      </trkpt>
      <trkpt lat="47.53454" lon="-2.29848">
        <ele>-13.60000038147</ele>
        <time>2021-06-27T09:18:19.000Z</time>
      </trkpt>
      <trkpt lat="47.53452" lon="-2.29852">
        <ele>-17</ele>
        <time>2021-06-27T09:18:41.000Z</time>
      </trkpt>
      <trkpt lat="47.53451" lon="-2.29855">
        <ele>-17.39999961853</ele>
        <time>2021-06-27T09:18:42.000Z</time>
      </trkpt>
      <trkpt lat="47.5345" lon="-2.29857">
        <ele>-17.799999237061</ele>
        <time>2021-06-27T09:18:43.000Z</time>
      </trkpt>
      <trkpt lat="47.53441" lon="-2.29878">
        <ele>-17.799999237061</ele>
        <time>2021-06-27T09:18:48.000Z</time>
      </trkpt>
      <trkpt lat="47.53437" lon="-2.29896">
        <ele>-17.799999237061</ele>
        <time>2021-06-27T09:18:51.000Z</time>
      </trkpt>
      <trkpt lat="47.53436" lon="-2.29915">
        <ele>-17.799999237061</ele>
        <time>2021-06-27T09:18:54.000Z</time>
      </trkpt>
      <trkpt lat="47.53437" lon="-2.29922">
        <ele>-18.200000762939</ele>
        <time>2021-06-27T09:18:55.000Z</time>
      </trkpt>
      <trkpt lat="47.53438" lon="-2.29928">
        <ele>-18.60000038147</ele>
        <time>2021-06-27T09:18:56.000Z</time>
      </trkpt>
      <trkpt lat="47.53439" lon="-2.29935">
        <ele>-19</ele>
        <time>2021-06-27T09:18:57.000Z</time>
      </trkpt>
      <trkpt lat="47.5344" lon="-2.2994">
        <ele>-19.39999961853</ele>
        <time>2021-06-27T09:18:58.000Z</time>
      </trkpt>
      <trkpt lat="47.53442" lon="-2.29946">
        <ele>-19.799999237061</ele>
        <time>2021-06-27T09:18:59.000Z</time>
      </trkpt>
      <trkpt lat="47.53444" lon="-2.29951">
        <ele>-19.799999237061</ele>
        <time>2021-06-27T09:19:00.000Z</time>
      </trkpt>
      <trkpt lat="47.53446" lon="-2.29956">
        <ele>-19.799999237061</ele>
        <time>2021-06-27T09:19:01.000Z</time>
      </trkpt>
      <trkpt lat="47.53452" lon="-2.29977">
        <ele>-19.799999237061</ele>
        <time>2021-06-27T09:19:05.000Z</time>
      </trkpt>
      <trkpt lat="47.53452" lon="-2.29987">
        <ele>-19.799999237061</ele>
        <time>2021-06-27T09:19:07.000Z</time>
      </trkpt>
      <trkpt lat="47.53456" lon="-2.30002">
        <ele>-19.799999237061</ele>
        <time>2021-06-27T09:19:10.000Z</time>
      </trkpt>
      <trkpt lat="47.53469" lon="-2.30012">
        <ele>-19.799999237061</ele>
        <time>2021-06-27T09:19:14.000Z</time>
      </trkpt>
      <trkpt lat="47.53488" lon="-2.30016">
        <ele>-19.799999237061</ele>
        <time>2021-06-27T09:19:19.000Z</time>
      </trkpt>
      <trkpt lat="47.5351" lon="-2.30015">
        <ele>-19.799999237061</ele>
        <time>2021-06-27T09:19:25.000Z</time>
      </trkpt>
      <trkpt lat="47.53536" lon="-2.29995">
        <ele>-19.799999237061</ele>
        <time>2021-06-27T09:19:32.000Z</time>
      </trkpt>
      <trkpt lat="47.5354" lon="-2.29993">
        <ele>-19.799999237061</ele>
        <time>2021-06-27T09:19:33.000Z</time>
      </trkpt>
      <trkpt lat="47.53544" lon="-2.29992">
        <ele>-20.200000762939</ele>
        <time>2021-06-27T09:19:34.000Z</time>
      </trkpt>
      <trkpt lat="47.53549" lon="-2.2999">
        <ele>-20.799999237061</ele>
        <time>2021-06-27T09:19:35.000Z</time>
      </trkpt>
      <trkpt lat="47.53553" lon="-2.29988">
        <ele>-21.200000762939</ele>
        <time>2021-06-27T09:19:36.000Z</time>
      </trkpt>
      <trkpt lat="47.53557" lon="-2.29986">
        <ele>-21.60000038147</ele>
        <time>2021-06-27T09:19:37.000Z</time>
      </trkpt>
      <trkpt lat="47.53561" lon="-2.29983">
        <ele>-22</ele>
        <time>2021-06-27T09:19:38.000Z</time>
      </trkpt>
      <trkpt lat="47.53565" lon="-2.29981">
        <ele>-22</ele>
        <time>2021-06-27T09:19:39.000Z</time>
      </trkpt>
      <trkpt lat="47.53578" lon="-2.29964">
        <ele>-22</ele>
        <time>2021-06-27T09:19:44.000Z</time>
      </trkpt>
      <trkpt lat="47.53589" lon="-2.29952">
        <ele>-22</ele>
        <time>2021-06-27T09:19:50.000Z</time>
      </trkpt>
      <trkpt lat="47.53597" lon="-2.29941">
        <ele>-22</ele>
        <time>2021-06-27T09:19:53.000Z</time>
      </trkpt>
      <trkpt lat="47.53601" lon="-2.29933">
        <ele>-22</ele>
        <time>2021-06-27T09:19:54.000Z</time>
      </trkpt>
      <trkpt lat="47.53605" lon="-2.29925">
        <ele>-22</ele>
        <time>2021-06-27T09:19:55.000Z</time>
      </trkpt>
      <trkpt lat="47.5361" lon="-2.29899">
        <ele>-22</ele>
        <time>2021-06-27T09:19:58.000Z</time>
      </trkpt>
      <trkpt lat="47.53611" lon="-2.29891">
        <ele>-22</ele>
        <time>2021-06-27T09:19:59.000Z</time>
      </trkpt>
      <trkpt lat="47.53612" lon="-2.29876">
        <ele>-22</ele>
        <time>2021-06-27T09:20:01.000Z</time>
      </trkpt>
      <trkpt lat="47.53611" lon="-2.29861">
        <ele>-22</ele>
        <time>2021-06-27T09:20:03.000Z</time>
      </trkpt>
      <trkpt lat="47.53608" lon="-2.29846">
        <ele>-22</ele>
        <time>2021-06-27T09:20:05.000Z</time>
      </trkpt>
      <trkpt lat="47.53604" lon="-2.29822">
        <ele>-22</ele>
        <time>2021-06-27T09:20:08.000Z</time>
      </trkpt>
      <trkpt lat="47.53601" lon="-2.29776">
        <ele>-22</ele>
        <time>2021-06-27T09:20:14.000Z</time>
      </trkpt>
      <trkpt lat="47.53602" lon="-2.29762">
        <ele>-22</ele>
        <time>2021-06-27T09:20:16.000Z</time>
      </trkpt>
      <trkpt lat="47.5361" lon="-2.2972">
        <ele>-22</ele>
        <time>2021-06-27T09:20:22.000Z</time>
      </trkpt>
      <trkpt lat="47.53613" lon="-2.29714">
        <ele>-22</ele>
        <time>2021-06-27T09:20:23.000Z</time>
      </trkpt>
      <trkpt lat="47.53624" lon="-2.29685">
        <ele>-22</ele>
        <time>2021-06-27T09:20:28.000Z</time>
      </trkpt>
      <trkpt lat="47.53628" lon="-2.29675">
        <ele>-22</ele>
        <time>2021-06-27T09:20:30.000Z</time>
      </trkpt>
      <trkpt lat="47.53643" lon="-2.29644">
        <ele>-22</ele>
        <time>2021-06-27T09:20:37.000Z</time>
      </trkpt>
      <trkpt lat="47.53656" lon="-2.29622">
        <ele>-22</ele>
        <time>2021-06-27T09:20:42.000Z</time>
      </trkpt>
      <trkpt lat="47.53659" lon="-2.29618">
        <ele>-22</ele>
        <time>2021-06-27T09:20:43.000Z</time>
      </trkpt>
      <trkpt lat="47.53682" lon="-2.29582">
        <ele>-22</ele>
        <time>2021-06-27T09:20:51.000Z</time>
      </trkpt>
      <trkpt lat="47.53703" lon="-2.2955">
        <ele>-22</ele>
        <time>2021-06-27T09:20:58.000Z</time>
      </trkpt>
      <trkpt lat="47.5372" lon="-2.29515">
        <ele>-22</ele>
        <time>2021-06-27T09:21:05.000Z</time>
      </trkpt>
      <trkpt lat="47.53723" lon="-2.29494">
        <ele>-22</ele>
        <time>2021-06-27T09:21:10.000Z</time>
      </trkpt>
      <trkpt lat="47.53721" lon="-2.29491">
        <ele>-22</ele>
        <time>2021-06-27T09:21:12.000Z</time>
      </trkpt>
      <trkpt lat="47.53716" lon="-2.29489">
        <ele>-22</ele>
        <time>2021-06-27T09:21:14.000Z</time>
      </trkpt>
      <trkpt lat="47.53702" lon="-2.29482">
        <ele>-22</ele>
        <time>2021-06-27T09:21:20.000Z</time>
      </trkpt>
      <trkpt lat="47.53693" lon="-2.29477">
        <ele>-22</ele>
        <time>2021-06-27T09:21:27.000Z</time>
      </trkpt>
      <trkpt lat="47.53685" lon="-2.29466">
        <ele>-22</ele>
        <time>2021-06-27T09:21:33.000Z</time>
      </trkpt>
      <trkpt lat="47.5368" lon="-2.29448">
        <ele>-22</ele>
        <time>2021-06-27T09:21:40.000Z</time>
      </trkpt>
      <trkpt lat="47.53675" lon="-2.29436">
        <ele>-22</ele>
        <time>2021-06-27T09:21:46.000Z</time>
      </trkpt>
      <trkpt lat="47.53674" lon="-2.29431">
        <ele>-22</ele>
        <time>2021-06-27T09:21:49.000Z</time>
      </trkpt>
      <trkpt lat="47.53676" lon="-2.2943">
        <ele>-22</ele>
        <time>2021-06-27T09:21:51.000Z</time>
      </trkpt>
      <trkpt lat="47.5368" lon="-2.2944">
        <ele>-22</ele>
        <time>2021-06-27T09:21:55.000Z</time>
      </trkpt>
      <trkpt lat="47.53685" lon="-2.29455">
        <ele>-22</ele>
        <time>2021-06-27T09:21:58.000Z</time>
      </trkpt>
      <trkpt lat="47.53687" lon="-2.2946">
        <ele>-22</ele>
        <time>2021-06-27T09:21:59.000Z</time>
      </trkpt>
      <trkpt lat="47.53694" lon="-2.2947">
        <ele>-22</ele>
        <time>2021-06-27T09:22:03.000Z</time>
      </trkpt>
      <trkpt lat="47.53706" lon="-2.29482">
        <ele>-22</ele>
        <time>2021-06-27T09:22:10.000Z</time>
      </trkpt>
      <trkpt lat="47.53713" lon="-2.29485">
        <ele>-22</ele>
        <time>2021-06-27T09:22:16.000Z</time>
      </trkpt>
      <trkpt lat="47.53717" lon="-2.29487">
        <ele>-22</ele>
        <time>2021-06-27T09:22:38.000Z</time>
      </trkpt>
      <trkpt lat="47.53726" lon="-2.29488">
        <ele>-22</ele>
        <time>2021-06-27T09:22:40.000Z</time>
      </trkpt>
      <trkpt lat="47.53747" lon="-2.29484">
        <ele>-22</ele>
        <time>2021-06-27T09:22:45.000Z</time>
      </trkpt>
      <trkpt lat="47.5377" lon="-2.29479">
        <ele>-22</ele>
        <time>2021-06-27T09:22:50.000Z</time>
      </trkpt>
      <trkpt lat="47.53774" lon="-2.29478">
        <ele>-22</ele>
        <time>2021-06-27T09:22:51.000Z</time>
      </trkpt>
      <trkpt lat="47.53797" lon="-2.29477">
        <ele>-22</ele>
        <time>2021-06-27T09:22:57.000Z</time>
      </trkpt>
      <trkpt lat="47.53806" lon="-2.29478">
        <ele>-21.60000038147</ele>
        <time>2021-06-27T09:23:02.000Z</time>
      </trkpt>
      <trkpt lat="47.53806" lon="-2.29479">
        <ele>-21.200000762939</ele>
        <time>2021-06-27T09:23:03.000Z</time>
      </trkpt>
      <trkpt lat="47.53806" lon="-2.29479">
        <ele>-20.799999237061</ele>
        <time>2021-06-27T09:23:04.000Z</time>
      </trkpt>
      <trkpt lat="47.53807" lon="-2.2948">
        <ele>-20.39999961853</ele>
        <time>2021-06-27T09:23:05.000Z</time>
      </trkpt>
      <trkpt lat="47.53807" lon="-2.29481">
        <ele>-20</ele>
        <time>2021-06-27T09:23:06.000Z</time>
      </trkpt>
      <trkpt lat="47.53807" lon="-2.29481">
        <ele>-20</ele>
        <time>2021-06-27T09:23:08.000Z</time>
      </trkpt>
      <trkpt lat="47.53809" lon="-2.29487">
        <ele>-20</ele>
        <time>2021-06-27T09:23:20.000Z</time>
      </trkpt>
      <trkpt lat="47.5381" lon="-2.29489">
        <ele>-20</ele>
        <time>2021-06-27T09:23:21.000Z</time>
      </trkpt>
      <trkpt lat="47.53811" lon="-2.29493">
        <ele>-19.60000038147</ele>
        <time>2021-06-27T09:23:24.000Z</time>
      </trkpt>
      <trkpt lat="47.53811" lon="-2.29495">
        <ele>-19.200000762939</ele>
        <time>2021-06-27T09:23:25.000Z</time>
      </trkpt>
      <trkpt lat="47.53811" lon="-2.29495">
        <ele>-18.799999237061</ele>
        <time>2021-06-27T09:23:26.000Z</time>
      </trkpt>
      <trkpt lat="47.53811" lon="-2.29497">
        <ele>-18.39999961853</ele>
        <time>2021-06-27T09:23:27.000Z</time>
      </trkpt>
      <trkpt lat="47.53811" lon="-2.295">
        <ele>-17.799999237061</ele>
        <time>2021-06-27T09:23:28.000Z</time>
      </trkpt>
      <trkpt lat="47.53813" lon="-2.29522">
        <ele>-17.799999237061</ele>
        <time>2021-06-27T09:23:36.000Z</time>
      </trkpt>
      <trkpt lat="47.53813" lon="-2.29523">
        <ele>-17.799999237061</ele>
        <time>2021-06-27T09:23:37.000Z</time>
      </trkpt>
      <trkpt lat="47.53817" lon="-2.29546">
        <ele>-12.800000190735</ele>
        <time>2021-06-27T09:24:07.000Z</time>
      </trkpt>
      <trkpt lat="47.53818" lon="-2.29548">
        <ele>-12.39999961853</ele>
        <time>2021-06-27T09:24:08.000Z</time>
      </trkpt>
      <trkpt lat="47.53819" lon="-2.29551">
        <ele>-12</ele>
        <time>2021-06-27T09:24:09.000Z</time>
      </trkpt>
      <trkpt lat="47.53819" lon="-2.29555">
        <ele>-11.60000038147</ele>
        <time>2021-06-27T09:24:10.000Z</time>
      </trkpt>
      <trkpt lat="47.53828" lon="-2.29579">
        <ele>-11.60000038147</ele>
        <time>2021-06-27T09:24:17.000Z</time>
      </trkpt>
      <trkpt lat="47.53834" lon="-2.29587">
        <ele>-11.199999809265</ele>
        <time>2021-06-27T09:24:21.000Z</time>
      </trkpt>
      <trkpt lat="47.53834" lon="-2.29592">
        <ele>-10.800000190735</ele>
        <time>2021-06-27T09:24:22.000Z</time>
      </trkpt>
      <trkpt lat="47.53836" lon="-2.29596">
        <ele>-10.39999961853</ele>
        <time>2021-06-27T09:24:23.000Z</time>
      </trkpt>
      <trkpt lat="47.53836" lon="-2.296">
        <ele>-9.8000001907349</ele>
        <time>2021-06-27T09:24:24.000Z</time>
      </trkpt>
      <trkpt lat="47.53837" lon="-2.29605">
        <ele>-9.3999996185303</ele>
        <time>2021-06-27T09:24:25.000Z</time>
      </trkpt>
      <trkpt lat="47.5384" lon="-2.2962">
        <ele>-9.3999996185303</ele>
        <time>2021-06-27T09:24:28.000Z</time>
      </trkpt>
      <trkpt lat="47.5384" lon="-2.29626">
        <ele>-9.3999996185303</ele>
        <time>2021-06-27T09:24:29.000Z</time>
      </trkpt>
      <trkpt lat="47.5384" lon="-2.29635">
        <ele>-8.6000003814697</ele>
        <time>2021-06-27T09:24:31.000Z</time>
      </trkpt>
      <trkpt lat="47.53838" lon="-2.29638">
        <ele>-8.1999998092651</ele>
        <time>2021-06-27T09:24:32.000Z</time>
      </trkpt>
      <trkpt lat="47.53836" lon="-2.2964">
        <ele>-7.8000001907349</ele>
        <time>2021-06-27T09:24:33.000Z</time>
      </trkpt>
      <trkpt lat="47.53833" lon="-2.29642">
        <ele>-7.4000000953674</ele>
        <time>2021-06-27T09:24:34.000Z</time>
      </trkpt>
      <trkpt lat="47.5383" lon="-2.29644">
        <ele>-7.4000000953674</ele>
        <time>2021-06-27T09:24:35.000Z</time>
      </trkpt>
      <trkpt lat="47.53816" lon="-2.29651">
        <ele>-7.4000000953674</ele>
        <time>2021-06-27T09:24:39.000Z</time>
      </trkpt>
      <trkpt lat="47.53802" lon="-2.29659">
        <ele>-7</ele>
        <time>2021-06-27T09:24:43.000Z</time>
      </trkpt>
      <trkpt lat="47.53798" lon="-2.29661">
        <ele>-6.5999999046326</ele>
        <time>2021-06-27T09:24:44.000Z</time>
      </trkpt>
      <trkpt lat="47.53796" lon="-2.29662">
        <ele>-6</ele>
        <time>2021-06-27T09:24:45.000Z</time>
      </trkpt>
      <trkpt lat="47.53792" lon="-2.29662">
        <ele>-5.5999999046326</ele>
        <time>2021-06-27T09:24:46.000Z</time>
      </trkpt>
      <trkpt lat="47.53789" lon="-2.29663">
        <ele>-5.1999998092651</ele>
        <time>2021-06-27T09:24:47.000Z</time>
      </trkpt>
      <trkpt lat="47.5378" lon="-2.29666">
        <ele>-5.1999998092651</ele>
        <time>2021-06-27T09:24:50.000Z</time>
      </trkpt>
      <trkpt lat="47.53772" lon="-2.29686">
        <ele>-4.8000001907349</ele>
        <time>2021-06-27T09:24:55.000Z</time>
      </trkpt>
      <trkpt lat="47.53773" lon="-2.29691">
        <ele>-4</ele>
        <time>2021-06-27T09:24:56.000Z</time>
      </trkpt>
      <trkpt lat="47.53775" lon="-2.29697">
        <ele>-3.5999999046326</ele>
        <time>2021-06-27T09:24:57.000Z</time>
      </trkpt>
      <trkpt lat="47.53776" lon="-2.29702">
        <ele>-3.2000000476837</ele>
        <time>2021-06-27T09:24:58.000Z</time>
      </trkpt>
      <trkpt lat="47.53777" lon="-2.29708">
        <ele>-3.2000000476837</ele>
        <time>2021-06-27T09:24:59.000Z</time>
      </trkpt>
      <trkpt lat="47.5379" lon="-2.29752">
        <ele>-2.7999999523163</ele>
        <time>2021-06-27T09:25:07.000Z</time>
      </trkpt>
      <trkpt lat="47.53791" lon="-2.29758">
        <ele>-2.4000000953674</ele>
        <time>2021-06-27T09:25:08.000Z</time>
      </trkpt>
      <trkpt lat="47.53792" lon="-2.29763">
        <ele>-2</ele>
        <time>2021-06-27T09:25:09.000Z</time>
      </trkpt>
      <trkpt lat="47.53794" lon="-2.29769">
        <ele>-1.6000000238419</ele>
        <time>2021-06-27T09:25:10.000Z</time>
      </trkpt>
      <trkpt lat="47.53795" lon="-2.29774">
        <ele>-1.2000000476837</ele>
        <time>2021-06-27T09:25:11.000Z</time>
      </trkpt>
      <trkpt lat="47.53799" lon="-2.29797">
        <ele>-1.2000000476837</ele>
        <time>2021-06-27T09:25:15.000Z</time>
      </trkpt>
      <trkpt lat="47.53806" lon="-2.2982">
        <ele>-1.2000000476837</ele>
        <time>2021-06-27T09:25:19.000Z</time>
      </trkpt>
      <trkpt lat="47.5381" lon="-2.29832">
        <ele>-0.40000000596046</ele>
        <time>2021-06-27T09:25:21.000Z</time>
      </trkpt>
      <trkpt lat="47.53812" lon="-2.29839">
        <ele>17</ele>
        <time>2021-06-27T09:25:22.000Z</time>
      </trkpt>
      <trkpt lat="47.53814" lon="-2.29846">
        <ele>0.60000002384186</ele>
        <time>2021-06-27T09:25:23.000Z</time>
      </trkpt>
      <trkpt lat="47.53816" lon="-2.29853">
        <ele>1</ele>
        <time>2021-06-27T09:25:24.000Z</time>
      </trkpt>
      <trkpt lat="47.53824" lon="-2.29883">
        <ele>1</ele>
        <time>2021-06-27T09:25:28.000Z</time>
      </trkpt>
      <trkpt lat="47.53839" lon="-2.29942">
        <ele>1</ele>
        <time>2021-06-27T09:25:35.000Z</time>
      </trkpt>
      <trkpt lat="47.53841" lon="-2.29951">
        <ele>1</ele>
        <time>2021-06-27T09:25:36.000Z</time>
      </trkpt>
      <trkpt lat="47.5385" lon="-2.29982">
        <ele>1</ele>
        <time>2021-06-27T09:25:40.000Z</time>
      </trkpt>
      <trkpt lat="47.53858" lon="-2.3">
        <ele>1</ele>
        <time>2021-06-27T09:25:44.000Z</time>
      </trkpt>
      <trkpt lat="47.53869" lon="-2.29996">
        <ele>1</ele>
        <time>2021-06-27T09:25:47.000Z</time>
      </trkpt>
      <trkpt lat="47.53878" lon="-2.29989">
        <ele>1</ele>
        <time>2021-06-27T09:25:49.000Z</time>
      </trkpt>
      <trkpt lat="47.53892" lon="-2.29978">
        <ele>1</ele>
        <time>2021-06-27T09:25:52.000Z</time>
      </trkpt>
      <trkpt lat="47.5391" lon="-2.29965">
        <ele>1.3999999761581</ele>
        <time>2021-06-27T09:25:56.000Z</time>
      </trkpt>
      <trkpt lat="47.53914" lon="-2.29961">
        <ele>1.7999999523163</ele>
        <time>2021-06-27T09:25:57.000Z</time>
      </trkpt>
      <trkpt lat="47.53919" lon="-2.29959">
        <ele>2.2000000476837</ele>
        <time>2021-06-27T09:25:58.000Z</time>
      </trkpt>
      <trkpt lat="47.53922" lon="-2.29956">
        <ele>2.5999999046326</ele>
        <time>2021-06-27T09:25:59.000Z</time>
      </trkpt>
      <trkpt lat="47.53925" lon="-2.29954">
        <ele>3</ele>
        <time>2021-06-27T09:26:00.000Z</time>
      </trkpt>
      <trkpt lat="47.53947" lon="-2.29936">
        <ele>3</ele>
        <time>2021-06-27T09:26:06.000Z</time>
      </trkpt>
      <trkpt lat="47.53962" lon="-2.29922">
        <ele>3.4000000953674</ele>
        <time>2021-06-27T09:26:11.000Z</time>
      </trkpt>
      <trkpt lat="47.53966" lon="-2.2992">
        <ele>3.7999999523163</ele>
        <time>2021-06-27T09:26:12.000Z</time>
      </trkpt>
      <trkpt lat="47.5397" lon="-2.29918">
        <ele>4.1999998092651</ele>
        <time>2021-06-27T09:26:13.000Z</time>
      </trkpt>
      <trkpt lat="47.53973" lon="-2.29917">
        <ele>4.5999999046326</ele>
        <time>2021-06-27T09:26:14.000Z</time>
      </trkpt>
      <trkpt lat="47.53977" lon="-2.29915">
        <ele>5</ele>
        <time>2021-06-27T09:26:15.000Z</time>
      </trkpt>
      <trkpt lat="47.53981" lon="-2.29916">
        <ele>5</ele>
        <time>2021-06-27T09:26:16.000Z</time>
      </trkpt>
      <trkpt lat="47.53987" lon="-2.29922">
        <ele>5</ele>
        <time>2021-06-27T09:26:18.000Z</time>
      </trkpt>
      <trkpt lat="47.53992" lon="-2.29941">
        <ele>5</ele>
        <time>2021-06-27T09:26:21.000Z</time>
      </trkpt>
      <trkpt lat="47.54" lon="-2.29988">
        <ele>5</ele>
        <time>2021-06-27T09:26:27.000Z</time>
      </trkpt>
      <trkpt lat="47.54009" lon="-2.30042">
        <ele>5</ele>
        <time>2021-06-27T09:26:34.000Z</time>
      </trkpt>
      <trkpt lat="47.54012" lon="-2.30058">
        <ele>5</ele>
        <time>2021-06-27T09:26:36.000Z</time>
      </trkpt>
      <trkpt lat="47.54026" lon="-2.30126">
        <ele>5</ele>
        <time>2021-06-27T09:26:45.000Z</time>
      </trkpt>
      <trkpt lat="47.54038" lon="-2.30187">
        <ele>5</ele>
        <time>2021-06-27T09:26:53.000Z</time>
      </trkpt>
      <trkpt lat="47.54044" lon="-2.30216">
        <ele>5</ele>
        <time>2021-06-27T09:26:57.000Z</time>
      </trkpt>
      <trkpt lat="47.54051" lon="-2.30235">
        <ele>5</ele>
        <time>2021-06-27T09:27:00.000Z</time>
      </trkpt>
      <trkpt lat="47.54064" lon="-2.3024">
        <ele>5</ele>
        <time>2021-06-27T09:27:03.000Z</time>
      </trkpt>
      <trkpt lat="47.54073" lon="-2.30238">
        <ele>5.4000000953674</ele>
        <time>2021-06-27T09:27:05.000Z</time>
      </trkpt>
      <trkpt lat="47.54077" lon="-2.30236">
        <ele>5.8000001907349</ele>
        <time>2021-06-27T09:27:06.000Z</time>
      </trkpt>
      <trkpt lat="47.54081" lon="-2.30234">
        <ele>6.1999998092651</ele>
        <time>2021-06-27T09:27:07.000Z</time>
      </trkpt>
      <trkpt lat="47.54085" lon="-2.30232">
        <ele>6.8000001907349</ele>
        <time>2021-06-27T09:27:08.000Z</time>
      </trkpt>
      <trkpt lat="47.54089" lon="-2.30231">
        <ele>7.1999998092651</ele>
        <time>2021-06-27T09:27:09.000Z</time>
      </trkpt>
      <trkpt lat="47.5412" lon="-2.30216">
        <ele>7.1999998092651</ele>
        <time>2021-06-27T09:27:17.000Z</time>
      </trkpt>
      <trkpt lat="47.54135" lon="-2.30209">
        <ele>7.5999999046326</ele>
        <time>2021-06-27T09:27:21.000Z</time>
      </trkpt>
      <trkpt lat="47.54139" lon="-2.30208">
        <ele>8</ele>
        <time>2021-06-27T09:27:22.000Z</time>
      </trkpt>
      <trkpt lat="47.54142" lon="-2.30206">
        <ele>8.3999996185303</ele>
        <time>2021-06-27T09:27:23.000Z</time>
      </trkpt>
      <trkpt lat="47.54147" lon="-2.30204">
        <ele>9.1999998092651</ele>
        <time>2021-06-27T09:27:24.000Z</time>
      </trkpt>
      <trkpt lat="47.54163" lon="-2.30201">
        <ele>9.1999998092651</ele>
        <time>2021-06-27T09:27:28.000Z</time>
      </trkpt>
      <trkpt lat="47.54172" lon="-2.302">
        <ele>9.1999998092651</ele>
        <time>2021-06-27T09:27:30.000Z</time>
      </trkpt>
      <trkpt lat="47.54178" lon="-2.302">
        <ele>9.1999998092651</ele>
        <time>2021-06-27T09:27:31.000Z</time>
      </trkpt>
      <trkpt lat="47.54218" lon="-2.30199">
        <ele>9.1999998092651</ele>
        <time>2021-06-27T09:27:39.000Z</time>
      </trkpt>
      <trkpt lat="47.54229" lon="-2.30198">
        <ele>9.1999998092651</ele>
        <time>2021-06-27T09:27:41.000Z</time>
      </trkpt>
      <trkpt lat="47.54245" lon="-2.30199">
        <ele>9.1999998092651</ele>
        <time>2021-06-27T09:27:44.000Z</time>
      </trkpt>
      <trkpt lat="47.54292" lon="-2.30201">
        <ele>9.1999998092651</ele>
        <time>2021-06-27T09:27:52.000Z</time>
      </trkpt>
      <trkpt lat="47.54327" lon="-2.30201">
        <ele>9.1999998092651</ele>
        <time>2021-06-27T09:27:59.000Z</time>
      </trkpt>
      <trkpt lat="47.5434" lon="-2.30201">
        <ele>9.6000003814697</ele>
        <time>2021-06-27T09:28:02.000Z</time>
      </trkpt>
      <trkpt lat="47.54344" lon="-2.30202">
        <ele>10</ele>
        <time>2021-06-27T09:28:03.000Z</time>
      </trkpt>
      <trkpt lat="47.54348" lon="-2.30202">
        <ele>10.39999961853</ele>
        <time>2021-06-27T09:28:04.000Z</time>
      </trkpt>
      <trkpt lat="47.54353" lon="-2.30201">
        <ele>10.800000190735</ele>
        <time>2021-06-27T09:28:05.000Z</time>
      </trkpt>
      <trkpt lat="47.54358" lon="-2.30201">
        <ele>11.199999809265</ele>
        <time>2021-06-27T09:28:06.000Z</time>
      </trkpt>
      <trkpt lat="47.54391" lon="-2.30198">
        <ele>11.199999809265</ele>
        <time>2021-06-27T09:28:12.000Z</time>
      </trkpt>
      <trkpt lat="47.54432" lon="-2.30196">
        <ele>11.199999809265</ele>
        <time>2021-06-27T09:28:18.000Z</time>
      </trkpt>
      <trkpt lat="47.54481" lon="-2.30195">
        <ele>11.199999809265</ele>
        <time>2021-06-27T09:28:25.000Z</time>
      </trkpt>
      <trkpt lat="47.54498" lon="-2.30193">
        <ele>11.199999809265</ele>
        <time>2021-06-27T09:28:28.000Z</time>
      </trkpt>
      <trkpt lat="47.54503" lon="-2.30188">
        <ele>11.199999809265</ele>
        <time>2021-06-27T09:28:29.000Z</time>
      </trkpt>
      <trkpt lat="47.54508" lon="-2.3017">
        <ele>11.199999809265</ele>
        <time>2021-06-27T09:28:32.000Z</time>
      </trkpt>
      <trkpt lat="47.54508" lon="-2.30157">
        <ele>11.199999809265</ele>
        <time>2021-06-27T09:28:34.000Z</time>
      </trkpt>
      <trkpt lat="47.54507" lon="-2.3014">
        <ele>11.199999809265</ele>
        <time>2021-06-27T09:28:37.000Z</time>
      </trkpt>
      <trkpt lat="47.54506" lon="-2.30106">
        <ele>11.199999809265</ele>
        <time>2021-06-27T09:28:44.000Z</time>
      </trkpt>
      <trkpt lat="47.54506" lon="-2.30076">
        <ele>11.199999809265</ele>
        <time>2021-06-27T09:28:51.000Z</time>
      </trkpt>
      <trkpt lat="47.54506" lon="-2.30045">
        <ele>11.199999809265</ele>
        <time>2021-06-27T09:28:58.000Z</time>
      </trkpt>
      <trkpt lat="47.54507" lon="-2.30008">
        <ele>11.199999809265</ele>
        <time>2021-06-27T09:29:07.000Z</time>
      </trkpt>
      <trkpt lat="47.54506" lon="-2.29981">
        <ele>11.199999809265</ele>
        <time>2021-06-27T09:29:14.000Z</time>
      </trkpt>
      <trkpt lat="47.54506" lon="-2.29965">
        <ele>11.60000038147</ele>
        <time>2021-06-27T09:29:19.000Z</time>
      </trkpt>
      <trkpt lat="47.54505" lon="-2.29962">
        <ele>12</ele>
        <time>2021-06-27T09:29:20.000Z</time>
      </trkpt>
      <trkpt lat="47.54505" lon="-2.29958">
        <ele>12.39999961853</ele>
        <time>2021-06-27T09:29:21.000Z</time>
      </trkpt>
      <trkpt lat="47.54505" lon="-2.29954">
        <ele>12.800000190735</ele>
        <time>2021-06-27T09:29:22.000Z</time>
      </trkpt>
      <trkpt lat="47.54504" lon="-2.2995">
        <ele>13.39999961853</ele>
        <time>2021-06-27T09:29:23.000Z</time>
      </trkpt>
      <trkpt lat="47.54508" lon="-2.29926">
        <ele>13.39999961853</ele>
        <time>2021-06-27T09:29:28.000Z</time>
      </trkpt>
      <trkpt lat="47.54508" lon="-2.29896">
        <ele>13.39999961853</ele>
        <time>2021-06-27T09:29:35.000Z</time>
      </trkpt>
      <trkpt lat="47.54509" lon="-2.29865">
        <ele>13.39999961853</ele>
        <time>2021-06-27T09:29:42.000Z</time>
      </trkpt>
      <trkpt lat="47.54517" lon="-2.29836">
        <ele>13.39999961853</ele>
        <time>2021-06-27T09:29:49.000Z</time>
      </trkpt>
      <trkpt lat="47.54528" lon="-2.2981">
        <ele>13.39999961853</ele>
        <time>2021-06-27T09:29:56.000Z</time>
      </trkpt>
      <trkpt lat="47.54541" lon="-2.29799">
        <ele>13.39999961853</ele>
        <time>2021-06-27T09:30:02.000Z</time>
      </trkpt>
      <trkpt lat="47.54555" lon="-2.29803">
        <ele>13.39999961853</ele>
        <time>2021-06-27T09:30:07.000Z</time>
      </trkpt>
      <trkpt lat="47.5458" lon="-2.2981">
        <ele>13.39999961853</ele>
        <time>2021-06-27T09:30:15.000Z</time>
      </trkpt>
      <trkpt lat="47.54595" lon="-2.29812">
        <ele>13.800000190735</ele>
        <time>2021-06-27T09:30:20.000Z</time>
      </trkpt>
      <trkpt lat="47.54598" lon="-2.29813">
        <ele>14.199999809265</ele>
        <time>2021-06-27T09:30:21.000Z</time>
      </trkpt>
      <trkpt lat="47.54602" lon="-2.29814">
        <ele>14.60000038147</ele>
        <time>2021-06-27T09:30:22.000Z</time>
      </trkpt>
      <trkpt lat="47.54605" lon="-2.29815">
        <ele>15</ele>
        <time>2021-06-27T09:30:23.000Z</time>
      </trkpt>
      <trkpt lat="47.54608" lon="-2.29815">
        <ele>15.39999961853</ele>
        <time>2021-06-27T09:30:24.000Z</time>
      </trkpt>
      <trkpt lat="47.54627" lon="-2.29819">
        <ele>15.39999961853</ele>
        <time>2021-06-27T09:30:30.000Z</time>
      </trkpt>
      <trkpt lat="47.54652" lon="-2.29825">
        <ele>15.39999961853</ele>
        <time>2021-06-27T09:30:37.000Z</time>
      </trkpt>
      <trkpt lat="47.54677" lon="-2.29831">
        <ele>15.39999961853</ele>
        <time>2021-06-27T09:30:44.000Z</time>
      </trkpt>
      <trkpt lat="47.54691" lon="-2.29844">
        <ele>15.39999961853</ele>
        <time>2021-06-27T09:30:49.000Z</time>
      </trkpt>
      <trkpt lat="47.54695" lon="-2.29863">
        <ele>15.39999961853</ele>
        <time>2021-06-27T09:30:54.000Z</time>
      </trkpt>
      <trkpt lat="47.54696" lon="-2.29881">
        <ele>15.39999961853</ele>
        <time>2021-06-27T09:30:59.000Z</time>
      </trkpt>
      <trkpt lat="47.54699" lon="-2.29914">
        <ele>15.39999961853</ele>
        <time>2021-06-27T09:31:05.000Z</time>
      </trkpt>
      <trkpt lat="47.54703" lon="-2.29963">
        <ele>15.39999961853</ele>
        <time>2021-06-27T09:31:11.000Z</time>
      </trkpt>
      <trkpt lat="47.54707" lon="-2.30017">
        <ele>15.39999961853</ele>
        <time>2021-06-27T09:31:16.000Z</time>
      </trkpt>
      <trkpt lat="47.54711" lon="-2.30078">
        <ele>15.39999961853</ele>
        <time>2021-06-27T09:31:22.000Z</time>
      </trkpt>
      <trkpt lat="47.54716" lon="-2.3015">
        <ele>15.39999961853</ele>
        <time>2021-06-27T09:31:28.000Z</time>
      </trkpt>
      <trkpt lat="47.54717" lon="-2.30163">
        <ele>14.800000190735</ele>
        <time>2021-06-27T09:31:29.000Z</time>
      </trkpt>
      <trkpt lat="47.54718" lon="-2.30177">
        <ele>14.39999961853</ele>
        <time>2021-06-27T09:31:30.000Z</time>
      </trkpt>
      <trkpt lat="47.5472" lon="-2.3019">
        <ele>14</ele>
        <time>2021-06-27T09:31:31.000Z</time>
      </trkpt>
      <trkpt lat="47.54721" lon="-2.30203">
        <ele>13.60000038147</ele>
        <time>2021-06-27T09:31:32.000Z</time>
      </trkpt>
      <trkpt lat="47.54723" lon="-2.30217">
        <ele>13.199999809265</ele>
        <time>2021-06-27T09:31:33.000Z</time>
      </trkpt>
      <trkpt lat="47.54735" lon="-2.30276">
        <ele>13.199999809265</ele>
        <time>2021-06-27T09:31:38.000Z</time>
      </trkpt>
      <trkpt lat="47.54742" lon="-2.30289">
        <ele>13.199999809265</ele>
        <time>2021-06-27T09:31:40.000Z</time>
      </trkpt>
      <trkpt lat="47.54744" lon="-2.30294">
        <ele>13.199999809265</ele>
        <time>2021-06-27T09:31:41.000Z</time>
      </trkpt>
      <trkpt lat="47.54752" lon="-2.30301">
        <ele>13.199999809265</ele>
        <time>2021-06-27T09:31:43.000Z</time>
      </trkpt>
      <trkpt lat="47.5476" lon="-2.30304">
        <ele>13.199999809265</ele>
        <time>2021-06-27T09:31:45.000Z</time>
      </trkpt>
      <trkpt lat="47.54774" lon="-2.30306">
        <ele>13.199999809265</ele>
        <time>2021-06-27T09:31:48.000Z</time>
      </trkpt>
      <trkpt lat="47.54789" lon="-2.30302">
        <ele>13.199999809265</ele>
        <time>2021-06-27T09:31:51.000Z</time>
      </trkpt>
      <trkpt lat="47.548" lon="-2.30297">
        <ele>13.60000038147</ele>
        <time>2021-06-27T09:31:53.000Z</time>
      </trkpt>
      <trkpt lat="47.54806" lon="-2.30295">
        <ele>14</ele>
        <time>2021-06-27T09:31:54.000Z</time>
      </trkpt>
      <trkpt lat="47.54811" lon="-2.30293">
        <ele>14.39999961853</ele>
        <time>2021-06-27T09:31:55.000Z</time>
      </trkpt>
      <trkpt lat="47.54817" lon="-2.3029">
        <ele>14.800000190735</ele>
        <time>2021-06-27T09:31:56.000Z</time>
      </trkpt>
      <trkpt lat="47.54821" lon="-2.30287">
        <ele>15.199999809265</ele>
        <time>2021-06-27T09:31:57.000Z</time>
      </trkpt>
      <trkpt lat="47.54855" lon="-2.30266">
        <ele>15.199999809265</ele>
        <time>2021-06-27T09:32:02.000Z</time>
      </trkpt>
      <trkpt lat="47.5489" lon="-2.3024">
        <ele>15.199999809265</ele>
        <time>2021-06-27T09:32:07.000Z</time>
      </trkpt>
      <trkpt lat="47.54919" lon="-2.30219">
        <ele>15.199999809265</ele>
        <time>2021-06-27T09:32:12.000Z</time>
      </trkpt>
      <trkpt lat="47.54958" lon="-2.30186">
        <ele>15.199999809265</ele>
        <time>2021-06-27T09:32:19.000Z</time>
      </trkpt>
      <trkpt lat="47.54991" lon="-2.30157">
        <ele>15.199999809265</ele>
        <time>2021-06-27T09:32:24.000Z</time>
      </trkpt>
      <trkpt lat="47.55033" lon="-2.30122">
        <ele>15.199999809265</ele>
        <time>2021-06-27T09:32:29.000Z</time>
      </trkpt>
      <trkpt lat="47.55056" lon="-2.30108">
        <ele>15.199999809265</ele>
        <time>2021-06-27T09:32:32.000Z</time>
      </trkpt>
      <trkpt lat="47.5506" lon="-2.30107">
        <ele>15.199999809265</ele>
        <time>2021-06-27T09:32:33.000Z</time>
      </trkpt>
      <trkpt lat="47.55067" lon="-2.30103">
        <ele>15.199999809265</ele>
        <time>2021-06-27T09:32:36.000Z</time>
      </trkpt>
      <trkpt lat="47.55068" lon="-2.30101">
        <ele>15.199999809265</ele>
        <time>2021-06-27T09:32:38.000Z</time>
      </trkpt>
      <trkpt lat="47.55068" lon="-2.301">
        <ele>15.199999809265</ele>
        <time>2021-06-27T09:32:40.000Z</time>
      </trkpt>
      <trkpt lat="47.55072" lon="-2.30096">
        <ele>15.199999809265</ele>
        <time>2021-06-27T09:32:42.000Z</time>
      </trkpt>
      <trkpt lat="47.55077" lon="-2.30093">
        <ele>15.199999809265</ele>
        <time>2021-06-27T09:32:44.000Z</time>
      </trkpt>
      <trkpt lat="47.55094" lon="-2.3008">
        <ele>15.199999809265</ele>
        <time>2021-06-27T09:32:48.000Z</time>
      </trkpt>
      <trkpt lat="47.55102" lon="-2.30074">
        <ele>15.199999809265</ele>
        <time>2021-06-27T09:32:50.000Z</time>
      </trkpt>
      <trkpt lat="47.55116" lon="-2.30063">
        <ele>15.199999809265</ele>
        <time>2021-06-27T09:32:53.000Z</time>
      </trkpt>
      <trkpt lat="47.55153" lon="-2.30034">
        <ele>15.199999809265</ele>
        <time>2021-06-27T09:33:01.000Z</time>
      </trkpt>
      <trkpt lat="47.55174" lon="-2.30017">
        <ele>15.199999809265</ele>
        <time>2021-06-27T09:33:06.000Z</time>
      </trkpt>
      <trkpt lat="47.55179" lon="-2.30015">
        <ele>14.39999961853</ele>
        <time>2021-06-27T09:33:07.000Z</time>
      </trkpt>
      <trkpt lat="47.55183" lon="-2.30011">
        <ele>14</ele>
        <time>2021-06-27T09:33:08.000Z</time>
      </trkpt>
      <trkpt lat="47.55187" lon="-2.30008">
        <ele>13.60000038147</ele>
        <time>2021-06-27T09:33:09.000Z</time>
      </trkpt>
      <trkpt lat="47.55191" lon="-2.30004">
        <ele>13.199999809265</ele>
        <time>2021-06-27T09:33:10.000Z</time>
      </trkpt>
      <trkpt lat="47.55214" lon="-2.29985">
        <ele>13.199999809265</ele>
        <time>2021-06-27T09:33:16.000Z</time>
      </trkpt>
      <trkpt lat="47.55217" lon="-2.29983">
        <ele>13.199999809265</ele>
        <time>2021-06-27T09:33:17.000Z</time>
      </trkpt>
      <trkpt lat="47.5523" lon="-2.29974">
        <ele>12.60000038147</ele>
        <time>2021-06-27T09:33:21.000Z</time>
      </trkpt>
      <trkpt lat="47.55232" lon="-2.29972">
        <ele>12.199999809265</ele>
        <time>2021-06-27T09:33:22.000Z</time>
      </trkpt>
      <trkpt lat="47.55234" lon="-2.2997">
        <ele>11.800000190735</ele>
        <time>2021-06-27T09:33:23.000Z</time>
      </trkpt>
      <trkpt lat="47.55236" lon="-2.29969">
        <ele>11.39999961853</ele>
        <time>2021-06-27T09:33:24.000Z</time>
      </trkpt>
      <trkpt lat="47.55238" lon="-2.29967">
        <ele>11</ele>
        <time>2021-06-27T09:33:25.000Z</time>
      </trkpt>
      <trkpt lat="47.55239" lon="-2.29962">
        <ele>11</ele>
        <time>2021-06-27T09:33:27.000Z</time>
      </trkpt>
      <trkpt lat="47.55238" lon="-2.29959">
        <ele>11</ele>
        <time>2021-06-27T09:33:28.000Z</time>
      </trkpt>
      <trkpt lat="47.55235" lon="-2.2994">
        <ele>11</ele>
        <time>2021-06-27T09:33:34.000Z</time>
      </trkpt>
      <trkpt lat="47.55242" lon="-2.29934">
        <ele>10.60000038147</ele>
        <time>2021-06-27T09:33:37.000Z</time>
      </trkpt>
      <trkpt lat="47.55244" lon="-2.29931">
        <ele>10.199999809265</ele>
        <time>2021-06-27T09:33:38.000Z</time>
      </trkpt>
      <trkpt lat="47.55247" lon="-2.29928">
        <ele>9.8000001907349</ele>
        <time>2021-06-27T09:33:39.000Z</time>
      </trkpt>
      <trkpt lat="47.55251" lon="-2.29925">
        <ele>9.3999996185303</ele>
        <time>2021-06-27T09:33:40.000Z</time>
      </trkpt>
      <trkpt lat="47.55254" lon="-2.29922">
        <ele>9</ele>
        <time>2021-06-27T09:33:41.000Z</time>
      </trkpt>
      <trkpt lat="47.55265" lon="-2.29916">
        <ele>9</ele>
        <time>2021-06-27T09:33:44.000Z</time>
      </trkpt>
      <trkpt lat="47.55273" lon="-2.29914">
        <ele>9</ele>
        <time>2021-06-27T09:33:46.000Z</time>
      </trkpt>
      <trkpt lat="47.55289" lon="-2.29913">
        <ele>9</ele>
        <time>2021-06-27T09:33:50.000Z</time>
      </trkpt>
      <trkpt lat="47.55297" lon="-2.29914">
        <ele>8.3999996185303</ele>
        <time>2021-06-27T09:33:52.000Z</time>
      </trkpt>
      <trkpt lat="47.55301" lon="-2.29914">
        <ele>8</ele>
        <time>2021-06-27T09:33:53.000Z</time>
      </trkpt>
      <trkpt lat="47.55305" lon="-2.29915">
        <ele>7.5999999046326</ele>
        <time>2021-06-27T09:33:54.000Z</time>
      </trkpt>
      <trkpt lat="47.55308" lon="-2.29915">
        <ele>7.1999998092651</ele>
        <time>2021-06-27T09:33:55.000Z</time>
      </trkpt>
      <trkpt lat="47.55312" lon="-2.29915">
        <ele>6.8000001907349</ele>
        <time>2021-06-27T09:33:56.000Z</time>
      </trkpt>
      <trkpt lat="47.55315" lon="-2.29915">
        <ele>6.8000001907349</ele>
        <time>2021-06-27T09:33:57.000Z</time>
      </trkpt>
      <trkpt lat="47.55338" lon="-2.29915">
        <ele>6.8000001907349</ele>
        <time>2021-06-27T09:34:04.000Z</time>
      </trkpt>
      <trkpt lat="47.5534" lon="-2.29914">
        <ele>6.8000001907349</ele>
        <time>2021-06-27T09:34:05.000Z</time>
      </trkpt>
      <trkpt lat="47.5534" lon="-2.2991">
        <ele>6.8000001907349</ele>
        <time>2021-06-27T09:34:06.000Z</time>
      </trkpt>
      <trkpt lat="47.55341" lon="-2.29906">
        <ele>6.4000000953674</ele>
        <time>2021-06-27T09:34:07.000Z</time>
      </trkpt>
      <trkpt lat="47.55341" lon="-2.29903">
        <ele>6</ele>
        <time>2021-06-27T09:34:08.000Z</time>
      </trkpt>
      <trkpt lat="47.55341" lon="-2.29898">
        <ele>5.5999999046326</ele>
        <time>2021-06-27T09:34:09.000Z</time>
      </trkpt>
      <trkpt lat="47.55341" lon="-2.29894">
        <ele>5.1999998092651</ele>
        <time>2021-06-27T09:34:10.000Z</time>
      </trkpt>
      <trkpt lat="47.55341" lon="-2.29889">
        <ele>4.8000001907349</ele>
        <time>2021-06-27T09:34:11.000Z</time>
      </trkpt>
      <trkpt lat="47.55344" lon="-2.29861">
        <ele>4.8000001907349</ele>
        <time>2021-06-27T09:34:16.000Z</time>
      </trkpt>
      <trkpt lat="47.55346" lon="-2.29816">
        <ele>4.8000001907349</ele>
        <time>2021-06-27T09:34:24.000Z</time>
      </trkpt>
      <trkpt lat="47.55349" lon="-2.29787">
        <ele>4.8000001907349</ele>
        <time>2021-06-27T09:34:30.000Z</time>
      </trkpt>
      <trkpt lat="47.55351" lon="-2.29749">
        <ele>4.8000001907349</ele>
        <time>2021-06-27T09:34:39.000Z</time>
      </trkpt>
      <trkpt lat="47.55367" lon="-2.29738">
        <ele>4.8000001907349</ele>
        <time>2021-06-27T09:34:45.000Z</time>
      </trkpt>
      <trkpt lat="47.55387" lon="-2.29727">
        <ele>4.8000001907349</ele>
        <time>2021-06-27T09:34:52.000Z</time>
      </trkpt>
      <trkpt lat="47.55408" lon="-2.29715">
        <ele>4.8000001907349</ele>
        <time>2021-06-27T09:34:59.000Z</time>
      </trkpt>
      <trkpt lat="47.55421" lon="-2.29707">
        <ele>4.8000001907349</ele>
        <time>2021-06-27T09:35:04.000Z</time>
      </trkpt>
      <trkpt lat="47.55438" lon="-2.29697">
        <ele>5.1999998092651</ele>
        <time>2021-06-27T09:35:10.000Z</time>
      </trkpt>
      <trkpt lat="47.55441" lon="-2.29693">
        <ele>5.5999999046326</ele>
        <time>2021-06-27T09:35:11.000Z</time>
      </trkpt>
      <trkpt lat="47.55443" lon="-2.29689">
        <ele>6</ele>
        <time>2021-06-27T09:35:12.000Z</time>
      </trkpt>
      <trkpt lat="47.55444" lon="-2.29685">
        <ele>6.4000000953674</ele>
        <time>2021-06-27T09:35:13.000Z</time>
      </trkpt>
      <trkpt lat="47.55445" lon="-2.29682">
        <ele>6.8000001907349</ele>
        <time>2021-06-27T09:35:14.000Z</time>
      </trkpt>
      <trkpt lat="47.55448" lon="-2.29673">
        <ele>6.8000001907349</ele>
        <time>2021-06-27T09:35:16.000Z</time>
      </trkpt>
      <trkpt lat="47.55448" lon="-2.29651">
        <ele>6.8000001907349</ele>
        <time>2021-06-27T09:35:21.000Z</time>
      </trkpt>
      <trkpt lat="47.55441" lon="-2.29617">
        <ele>7.1999998092651</ele>
        <time>2021-06-27T09:35:28.000Z</time>
      </trkpt>
      <trkpt lat="47.55439" lon="-2.29613">
        <ele>7.5999999046326</ele>
        <time>2021-06-27T09:35:29.000Z</time>
      </trkpt>
      <trkpt lat="47.55438" lon="-2.29608">
        <ele>8</ele>
        <time>2021-06-27T09:35:30.000Z</time>
      </trkpt>
      <trkpt lat="47.55437" lon="-2.29604">
        <ele>8.3999996185303</ele>
        <time>2021-06-27T09:35:31.000Z</time>
      </trkpt>
      <trkpt lat="47.55436" lon="-2.296">
        <ele>8.8000001907349</ele>
        <time>2021-06-27T09:35:32.000Z</time>
      </trkpt>
      <trkpt lat="47.55434" lon="-2.29588">
        <ele>8.8000001907349</ele>
        <time>2021-06-27T09:35:35.000Z</time>
      </trkpt>
      <trkpt lat="47.55442" lon="-2.29573">
        <ele>8.8000001907349</ele>
        <time>2021-06-27T09:35:39.000Z</time>
      </trkpt>
      <trkpt lat="47.55453" lon="-2.29564">
        <ele>8.8000001907349</ele>
        <time>2021-06-27T09:35:43.000Z</time>
      </trkpt>
      <trkpt lat="47.55459" lon="-2.29561">
        <ele>8.8000001907349</ele>
        <time>2021-06-27T09:35:45.000Z</time>
      </trkpt>
      <trkpt lat="47.5548" lon="-2.29551">
        <ele>8.8000001907349</ele>
        <time>2021-06-27T09:35:51.000Z</time>
      </trkpt>
      <trkpt lat="47.55496" lon="-2.29543">
        <ele>8.8000001907349</ele>
        <time>2021-06-27T09:35:55.000Z</time>
      </trkpt>
      <trkpt lat="47.55513" lon="-2.29535">
        <ele>8.8000001907349</ele>
        <time>2021-06-27T09:35:59.000Z</time>
      </trkpt>
      <trkpt lat="47.55533" lon="-2.29522">
        <ele>8.8000001907349</ele>
        <time>2021-06-27T09:36:04.000Z</time>
      </trkpt>
      <trkpt lat="47.5555" lon="-2.29507">
        <ele>8.8000001907349</ele>
        <time>2021-06-27T09:36:09.000Z</time>
      </trkpt>
      <trkpt lat="47.55565" lon="-2.29489">
        <ele>8.8000001907349</ele>
        <time>2021-06-27T09:36:15.000Z</time>
      </trkpt>
      <trkpt lat="47.55577" lon="-2.29464">
        <ele>8.8000001907349</ele>
        <time>2021-06-27T09:36:21.000Z</time>
      </trkpt>
      <trkpt lat="47.55582" lon="-2.29455">
        <ele>9.6000003814697</ele>
        <time>2021-06-27T09:36:24.000Z</time>
      </trkpt>
      <trkpt lat="47.55584" lon="-2.29452">
        <ele>10.199999809265</ele>
        <time>2021-06-27T09:36:25.000Z</time>
      </trkpt>
      <trkpt lat="47.55585" lon="-2.2945">
        <ele>10.60000038147</ele>
        <time>2021-06-27T09:36:26.000Z</time>
      </trkpt>
      <trkpt lat="47.55586" lon="-2.29448">
        <ele>11</ele>
        <time>2021-06-27T09:36:27.000Z</time>
      </trkpt>
      <trkpt lat="47.55594" lon="-2.29431">
        <ele>11</ele>
        <time>2021-06-27T09:36:31.000Z</time>
      </trkpt>
      <trkpt lat="47.55613" lon="-2.29403">
        <ele>11</ele>
        <time>2021-06-27T09:36:38.000Z</time>
      </trkpt>
      <trkpt lat="47.55634" lon="-2.29378">
        <ele>11.39999961853</ele>
        <time>2021-06-27T09:36:43.000Z</time>
      </trkpt>
      <trkpt lat="47.55636" lon="-2.29373">
        <ele>11.800000190735</ele>
        <time>2021-06-27T09:36:44.000Z</time>
      </trkpt>
      <trkpt lat="47.5564" lon="-2.29367">
        <ele>12.199999809265</ele>
        <time>2021-06-27T09:36:45.000Z</time>
      </trkpt>
      <trkpt lat="47.55644" lon="-2.29362">
        <ele>12.60000038147</ele>
        <time>2021-06-27T09:36:46.000Z</time>
      </trkpt>
      <trkpt lat="47.55647" lon="-2.29357">
        <ele>13</ele>
        <time>2021-06-27T09:36:47.000Z</time>
      </trkpt>
      <trkpt lat="47.55651" lon="-2.29351">
        <ele>13</ele>
        <time>2021-06-27T09:36:48.000Z</time>
      </trkpt>
      <trkpt lat="47.55654" lon="-2.29346">
        <ele>13</ele>
        <time>2021-06-27T09:36:49.000Z</time>
      </trkpt>
      <trkpt lat="47.55669" lon="-2.29309">
        <ele>13</ele>
        <time>2021-06-27T09:36:54.000Z</time>
      </trkpt>
      <trkpt lat="47.55671" lon="-2.29299">
        <ele>13</ele>
        <time>2021-06-27T09:36:55.000Z</time>
      </trkpt>
      <trkpt lat="47.55676" lon="-2.29274">
        <ele>13</ele>
        <time>2021-06-27T09:36:58.000Z</time>
      </trkpt>
      <trkpt lat="47.55677" lon="-2.29247">
        <ele>13</ele>
        <time>2021-06-27T09:37:03.000Z</time>
      </trkpt>
      <trkpt lat="47.55676" lon="-2.29237">
        <ele>13.39999961853</ele>
        <time>2021-06-27T09:37:05.000Z</time>
      </trkpt>
      <trkpt lat="47.55676" lon="-2.29232">
        <ele>13.800000190735</ele>
        <time>2021-06-27T09:37:06.000Z</time>
      </trkpt>
      <trkpt lat="47.55675" lon="-2.29228">
        <ele>14.199999809265</ele>
        <time>2021-06-27T09:37:07.000Z</time>
      </trkpt>
      <trkpt lat="47.55674" lon="-2.29222">
        <ele>14.60000038147</ele>
        <time>2021-06-27T09:37:08.000Z</time>
      </trkpt>
      <trkpt lat="47.55673" lon="-2.29217">
        <ele>15.199999809265</ele>
        <time>2021-06-27T09:37:09.000Z</time>
      </trkpt>
      <trkpt lat="47.55672" lon="-2.29208">
        <ele>15.199999809265</ele>
        <time>2021-06-27T09:37:11.000Z</time>
      </trkpt>
      <trkpt lat="47.55667" lon="-2.29178">
        <ele>15.199999809265</ele>
        <time>2021-06-27T09:37:17.000Z</time>
      </trkpt>
      <trkpt lat="47.55659" lon="-2.29148">
        <ele>15.199999809265</ele>
        <time>2021-06-27T09:37:24.000Z</time>
      </trkpt>
      <trkpt lat="47.55654" lon="-2.29121">
        <ele>15.199999809265</ele>
        <time>2021-06-27T09:37:31.000Z</time>
      </trkpt>
      <trkpt lat="47.55646" lon="-2.29103">
        <ele>15.199999809265</ele>
        <time>2021-06-27T09:37:37.000Z</time>
      </trkpt>
      <trkpt lat="47.55637" lon="-2.29074">
        <ele>15.199999809265</ele>
        <time>2021-06-27T09:37:45.000Z</time>
      </trkpt>
      <trkpt lat="47.5563" lon="-2.29049">
        <ele>15.199999809265</ele>
        <time>2021-06-27T09:37:52.000Z</time>
      </trkpt>
      <trkpt lat="47.55619" lon="-2.29021">
        <ele>15.199999809265</ele>
        <time>2021-06-27T09:38:00.000Z</time>
      </trkpt>
      <trkpt lat="47.55617" lon="-2.29009">
        <ele>14.199999809265</ele>
        <time>2021-06-27T09:38:03.000Z</time>
      </trkpt>
      <trkpt lat="47.55616" lon="-2.29005">
        <ele>13.800000190735</ele>
        <time>2021-06-27T09:38:04.000Z</time>
      </trkpt>
      <trkpt lat="47.55615" lon="-2.29001">
        <ele>13.39999961853</ele>
        <time>2021-06-27T09:38:05.000Z</time>
      </trkpt>
      <trkpt lat="47.55614" lon="-2.28997">
        <ele>13</ele>
        <time>2021-06-27T09:38:06.000Z</time>
      </trkpt>
      <trkpt lat="47.55612" lon="-2.28994">
        <ele>13</ele>
        <time>2021-06-27T09:38:07.000Z</time>
      </trkpt>
      <trkpt lat="47.55603" lon="-2.28964">
        <ele>13</ele>
        <time>2021-06-27T09:38:15.000Z</time>
      </trkpt>
      <trkpt lat="47.55598" lon="-2.28939">
        <ele>13</ele>
        <time>2021-06-27T09:38:22.000Z</time>
      </trkpt>
      <trkpt lat="47.55596" lon="-2.28928">
        <ele>12.60000038147</ele>
        <time>2021-06-27T09:38:25.000Z</time>
      </trkpt>
      <trkpt lat="47.55596" lon="-2.28924">
        <ele>12.199999809265</ele>
        <time>2021-06-27T09:38:26.000Z</time>
      </trkpt>
      <trkpt lat="47.55596" lon="-2.2892">
        <ele>11.800000190735</ele>
        <time>2021-06-27T09:38:27.000Z</time>
      </trkpt>
      <trkpt lat="47.55595" lon="-2.28916">
        <ele>11</ele>
        <time>2021-06-27T09:38:28.000Z</time>
      </trkpt>
      <trkpt lat="47.55594" lon="-2.28905">
        <ele>11</ele>
        <time>2021-06-27T09:38:31.000Z</time>
      </trkpt>
      <trkpt lat="47.55589" lon="-2.28873">
        <ele>11</ele>
        <time>2021-06-27T09:38:39.000Z</time>
      </trkpt>
      <trkpt lat="47.55588" lon="-2.28869">
        <ele>10.60000038147</ele>
        <time>2021-06-27T09:38:40.000Z</time>
      </trkpt>
      <trkpt lat="47.55588" lon="-2.28865">
        <ele>10.199999809265</ele>
        <time>2021-06-27T09:38:41.000Z</time>
      </trkpt>
      <trkpt lat="47.55588" lon="-2.2886">
        <ele>9.8000001907349</ele>
        <time>2021-06-27T09:38:42.000Z</time>
      </trkpt>
      <trkpt lat="47.55587" lon="-2.28856">
        <ele>9.3999996185303</ele>
        <time>2021-06-27T09:38:43.000Z</time>
      </trkpt>
      <trkpt lat="47.55586" lon="-2.28851">
        <ele>9</ele>
        <time>2021-06-27T09:38:44.000Z</time>
      </trkpt>
      <trkpt lat="47.55583" lon="-2.2883">
        <ele>9</ele>
        <time>2021-06-27T09:38:49.000Z</time>
      </trkpt>
      <trkpt lat="47.55582" lon="-2.28817">
        <ele>8</ele>
        <time>2021-06-27T09:38:52.000Z</time>
      </trkpt>
      <trkpt lat="47.55581" lon="-2.28813">
        <ele>7.5999999046326</ele>
        <time>2021-06-27T09:38:53.000Z</time>
      </trkpt>
      <trkpt lat="47.5558" lon="-2.28809">
        <ele>7.1999998092651</ele>
        <time>2021-06-27T09:38:54.000Z</time>
      </trkpt>
      <trkpt lat="47.55579" lon="-2.28806">
        <ele>6.8000001907349</ele>
        <time>2021-06-27T09:38:55.000Z</time>
      </trkpt>
      <trkpt lat="47.55578" lon="-2.28804">
        <ele>6.8000001907349</ele>
        <time>2021-06-27T09:38:56.000Z</time>
      </trkpt>
      <trkpt lat="47.55577" lon="-2.28791">
        <ele>6.1999998092651</ele>
        <time>2021-06-27T09:39:00.000Z</time>
      </trkpt>
      <trkpt lat="47.55577" lon="-2.28787">
        <ele>5.8000001907349</ele>
        <time>2021-06-27T09:39:01.000Z</time>
      </trkpt>
      <trkpt lat="47.55577" lon="-2.28782">
        <ele>5.4000000953674</ele>
        <time>2021-06-27T09:39:02.000Z</time>
      </trkpt>
      <trkpt lat="47.55577" lon="-2.28778">
        <ele>5</ele>
        <time>2021-06-27T09:39:03.000Z</time>
      </trkpt>
      <trkpt lat="47.55577" lon="-2.28773">
        <ele>4.5999999046326</ele>
        <time>2021-06-27T09:39:04.000Z</time>
      </trkpt>
      <trkpt lat="47.55577" lon="-2.28746">
        <ele>4.5999999046326</ele>
        <time>2021-06-27T09:39:10.000Z</time>
      </trkpt>
      <trkpt lat="47.55577" lon="-2.28741">
        <ele>4.1999998092651</ele>
        <time>2021-06-27T09:39:11.000Z</time>
      </trkpt>
      <trkpt lat="47.55578" lon="-2.28737">
        <ele>3.7999999523163</ele>
        <time>2021-06-27T09:39:12.000Z</time>
      </trkpt>
      <trkpt lat="47.55578" lon="-2.28732">
        <ele>3.2000000476837</ele>
        <time>2021-06-27T09:39:13.000Z</time>
      </trkpt>
      <trkpt lat="47.55578" lon="-2.28727">
        <ele>2.7999999523163</ele>
        <time>2021-06-27T09:39:14.000Z</time>
      </trkpt>
      <trkpt lat="47.55579" lon="-2.28722">
        <ele>2.4000000953674</ele>
        <time>2021-06-27T09:39:15.000Z</time>
      </trkpt>
      <trkpt lat="47.55579" lon="-2.28707">
        <ele>2.4000000953674</ele>
        <time>2021-06-27T09:39:18.000Z</time>
      </trkpt>
      <trkpt lat="47.5558" lon="-2.28698">
        <ele>2</ele>
        <time>2021-06-27T09:39:20.000Z</time>
      </trkpt>
      <trkpt lat="47.5558" lon="-2.28693">
        <ele>1.6000000238419</ele>
        <time>2021-06-27T09:39:21.000Z</time>
      </trkpt>
      <trkpt lat="47.5558" lon="-2.28688">
        <ele>1.2000000476837</ele>
        <time>2021-06-27T09:39:22.000Z</time>
      </trkpt>
      <trkpt lat="47.55581" lon="-2.28683">
        <ele>0.80000001192093</ele>
        <time>2021-06-27T09:39:23.000Z</time>
      </trkpt>
      <trkpt lat="47.55581" lon="-2.28678">
        <ele>0.40000000596046</ele>
        <time>2021-06-27T09:39:24.000Z</time>
      </trkpt>
      <trkpt lat="47.55582" lon="-2.28673">
        <ele>0.40000000596046</ele>
        <time>2021-06-27T09:39:25.000Z</time>
      </trkpt>
      <trkpt lat="47.55584" lon="-2.28639">
        <ele>0.40000000596046</ele>
        <time>2021-06-27T09:39:32.000Z</time>
      </trkpt>
      <trkpt lat="47.55587" lon="-2.28622">
        <ele>45</ele>
        <time>2021-06-27T09:39:35.000Z</time>
      </trkpt>
      <trkpt lat="47.55587" lon="-2.28616">
        <ele>-0.60000002384186</ele>
        <time>2021-06-27T09:39:36.000Z</time>
      </trkpt>
      <trkpt lat="47.55587" lon="-2.28611">
        <ele>-1</ele>
        <time>2021-06-27T09:39:37.000Z</time>
      </trkpt>
      <trkpt lat="47.55586" lon="-2.28606">
        <ele>-1.3999999761581</ele>
        <time>2021-06-27T09:39:38.000Z</time>
      </trkpt>
      <trkpt lat="47.55585" lon="-2.286">
        <ele>-1.7999999523163</ele>
        <time>2021-06-27T09:39:39.000Z</time>
      </trkpt>
      <trkpt lat="47.55584" lon="-2.28572">
        <ele>-1.7999999523163</ele>
        <time>2021-06-27T09:39:44.000Z</time>
      </trkpt>
      <trkpt lat="47.55584" lon="-2.28542">
        <ele>-1.7999999523163</ele>
        <time>2021-06-27T09:39:49.000Z</time>
      </trkpt>
      <trkpt lat="47.55585" lon="-2.28535">
        <ele>-1.7999999523163</ele>
        <time>2021-06-27T09:39:50.000Z</time>
      </trkpt>
      <trkpt lat="47.55589" lon="-2.28496">
        <ele>-1.7999999523163</ele>
        <time>2021-06-27T09:39:55.000Z</time>
      </trkpt>
      <trkpt lat="47.55594" lon="-2.28437">
        <ele>-2.2000000476837</ele>
        <time>2021-06-27T09:40:01.000Z</time>
      </trkpt>
      <trkpt lat="47.55594" lon="-2.28428">
        <ele>-2.5999999046326</ele>
        <time>2021-06-27T09:40:02.000Z</time>
      </trkpt>
      <trkpt lat="47.55595" lon="-2.28418">
        <ele>-3</ele>
        <time>2021-06-27T09:40:03.000Z</time>
      </trkpt>
      <trkpt lat="47.55595" lon="-2.28408">
        <ele>-3.4000000953674</ele>
        <time>2021-06-27T09:40:04.000Z</time>
      </trkpt>
      <trkpt lat="47.55596" lon="-2.28399">
        <ele>-3.7999999523163</ele>
        <time>2021-06-27T09:40:05.000Z</time>
      </trkpt>
      <trkpt lat="47.55599" lon="-2.2837">
        <ele>-3.7999999523163</ele>
        <time>2021-06-27T09:40:08.000Z</time>
      </trkpt>
      <trkpt lat="47.55609" lon="-2.28304">
        <ele>-3.7999999523163</ele>
        <time>2021-06-27T09:40:15.000Z</time>
      </trkpt>
      <trkpt lat="47.5562" lon="-2.28258">
        <ele>-3.7999999523163</ele>
        <time>2021-06-27T09:40:21.000Z</time>
      </trkpt>
      <trkpt lat="47.55622" lon="-2.28252">
        <ele>-3.7999999523163</ele>
        <time>2021-06-27T09:40:22.000Z</time>
      </trkpt>
      <trkpt lat="47.55631" lon="-2.28228">
        <ele>-3.7999999523163</ele>
        <time>2021-06-27T09:40:26.000Z</time>
      </trkpt>
      <trkpt lat="47.55633" lon="-2.28223">
        <ele>-3.7999999523163</ele>
        <time>2021-06-27T09:40:27.000Z</time>
      </trkpt>
      <trkpt lat="47.5564" lon="-2.28208">
        <ele>-3.7999999523163</ele>
        <time>2021-06-27T09:40:30.000Z</time>
      </trkpt>
      <trkpt lat="47.55647" lon="-2.28169">
        <ele>-3.7999999523163</ele>
        <time>2021-06-27T09:40:37.000Z</time>
      </trkpt>
      <trkpt lat="47.55653" lon="-2.2813">
        <ele>-3.4000000953674</ele>
        <time>2021-06-27T09:40:43.000Z</time>
      </trkpt>
      <trkpt lat="47.55654" lon="-2.28123">
        <ele>-3</ele>
        <time>2021-06-27T09:40:44.000Z</time>
      </trkpt>
      <trkpt lat="47.55655" lon="-2.28117">
        <ele>-2.5999999046326</ele>
        <time>2021-06-27T09:40:45.000Z</time>
      </trkpt>
      <trkpt lat="47.55655" lon="-2.28111">
        <ele>-2.2000000476837</ele>
        <time>2021-06-27T09:40:46.000Z</time>
      </trkpt>
      <trkpt lat="47.55656" lon="-2.28105">
        <ele>-1.7999999523163</ele>
        <time>2021-06-27T09:40:47.000Z</time>
      </trkpt>
      <trkpt lat="47.5566" lon="-2.28069">
        <ele>-1.7999999523163</ele>
        <time>2021-06-27T09:40:52.000Z</time>
      </trkpt>
      <trkpt lat="47.55664" lon="-2.28037">
        <ele>-1</ele>
        <time>2021-06-27T09:40:56.000Z</time>
      </trkpt>
      <trkpt lat="47.55664" lon="-2.28031">
        <ele>-0.40000000596046</ele>
        <time>2021-06-27T09:40:57.000Z</time>
      </trkpt>
      <trkpt lat="47.55666" lon="-2.28025">
        <ele>46.1</ele>
        <time>2021-06-27T09:40:58.000Z</time>
      </trkpt>
      <trkpt lat="47.55667" lon="-2.2802">
        <ele>0.40000000596046</ele>
        <time>2021-06-27T09:40:59.000Z</time>
      </trkpt>
      <trkpt lat="47.55671" lon="-2.27997">
        <ele>0.40000000596046</ele>
        <time>2021-06-27T09:41:04.000Z</time>
      </trkpt>
      <trkpt lat="47.55676" lon="-2.2796">
        <ele>0.40000000596046</ele>
        <time>2021-06-27T09:41:12.000Z</time>
      </trkpt>
      <trkpt lat="47.55679" lon="-2.27934">
        <ele>0.40000000596046</ele>
        <time>2021-06-27T09:41:18.000Z</time>
      </trkpt>
      <trkpt lat="47.55685" lon="-2.27917">
        <ele>0.40000000596046</ele>
        <time>2021-06-27T09:41:24.000Z</time>
      </trkpt>
      <trkpt lat="47.55692" lon="-2.2791">
        <ele>0.40000000596046</ele>
        <time>2021-06-27T09:41:27.000Z</time>
      </trkpt>
      <trkpt lat="47.55697" lon="-2.27906">
        <ele>0.40000000596046</ele>
        <time>2021-06-27T09:41:29.000Z</time>
      </trkpt>
      <trkpt lat="47.55702" lon="-2.27907">
        <ele>0.80000001192093</ele>
        <time>2021-06-27T09:41:31.000Z</time>
      </trkpt>
      <trkpt lat="47.55705" lon="-2.27906">
        <ele>1.2000000476837</ele>
        <time>2021-06-27T09:41:32.000Z</time>
      </trkpt>
      <trkpt lat="47.55707" lon="-2.27904">
        <ele>1.6000000238419</ele>
        <time>2021-06-27T09:41:33.000Z</time>
      </trkpt>
      <trkpt lat="47.55709" lon="-2.27902">
        <ele>2</ele>
        <time>2021-06-27T09:41:34.000Z</time>
      </trkpt>
      <trkpt lat="47.55711" lon="-2.27899">
        <ele>2.4000000953674</ele>
        <time>2021-06-27T09:41:35.000Z</time>
      </trkpt>
      <trkpt lat="47.5572" lon="-2.27894">
        <ele>2.4000000953674</ele>
        <time>2021-06-27T09:41:39.000Z</time>
      </trkpt>
      <trkpt lat="47.55734" lon="-2.27897">
        <ele>2.4000000953674</ele>
        <time>2021-06-27T09:41:44.000Z</time>
      </trkpt>
      <trkpt lat="47.55743" lon="-2.2789">
        <ele>2.7999999523163</ele>
        <time>2021-06-27T09:41:47.000Z</time>
      </trkpt>
      <trkpt lat="47.55745" lon="-2.27886">
        <ele>3.2000000476837</ele>
        <time>2021-06-27T09:41:48.000Z</time>
      </trkpt>
      <trkpt lat="47.55746" lon="-2.27881">
        <ele>3.5999999046326</ele>
        <time>2021-06-27T09:41:49.000Z</time>
      </trkpt>
      <trkpt lat="47.55747" lon="-2.27876">
        <ele>4</ele>
        <time>2021-06-27T09:41:50.000Z</time>
      </trkpt>
      <trkpt lat="47.55747" lon="-2.27872">
        <ele>4.4000000953674</ele>
        <time>2021-06-27T09:41:51.000Z</time>
      </trkpt>
      <trkpt lat="47.55751" lon="-2.27863">
        <ele>4.4000000953674</ele>
        <time>2021-06-27T09:41:54.000Z</time>
      </trkpt>
      <trkpt lat="47.55764" lon="-2.27857">
        <ele>4.4000000953674</ele>
        <time>2021-06-27T09:41:59.000Z</time>
      </trkpt>
      <trkpt lat="47.55768" lon="-2.27857">
        <ele>4.8000001907349</ele>
        <time>2021-06-27T09:42:00.000Z</time>
      </trkpt>
      <trkpt lat="47.55771" lon="-2.27857">
        <ele>5.4000000953674</ele>
        <time>2021-06-27T09:42:01.000Z</time>
      </trkpt>
      <trkpt lat="47.55774" lon="-2.27856">
        <ele>5.8000001907349</ele>
        <time>2021-06-27T09:42:02.000Z</time>
      </trkpt>
      <trkpt lat="47.55776" lon="-2.27854">
        <ele>6.1999998092651</ele>
        <time>2021-06-27T09:42:03.000Z</time>
      </trkpt>
      <trkpt lat="47.55778" lon="-2.27851">
        <ele>6.5999999046326</ele>
        <time>2021-06-27T09:42:04.000Z</time>
      </trkpt>
      <trkpt lat="47.55785" lon="-2.27832">
        <ele>6.5999999046326</ele>
        <time>2021-06-27T09:42:09.000Z</time>
      </trkpt>
      <trkpt lat="47.55788" lon="-2.27814">
        <ele>6.5999999046326</ele>
        <time>2021-06-27T09:42:14.000Z</time>
      </trkpt>
      <trkpt lat="47.5579" lon="-2.27811">
        <ele>7</ele>
        <time>2021-06-27T09:42:15.000Z</time>
      </trkpt>
      <trkpt lat="47.55791" lon="-2.27809">
        <ele>7.4000000953674</ele>
        <time>2021-06-27T09:42:16.000Z</time>
      </trkpt>
      <trkpt lat="47.55793" lon="-2.27807">
        <ele>7.8000001907349</ele>
        <time>2021-06-27T09:42:17.000Z</time>
      </trkpt>
      <trkpt lat="47.55794" lon="-2.27805">
        <ele>8.1999998092651</ele>
        <time>2021-06-27T09:42:18.000Z</time>
      </trkpt>
      <trkpt lat="47.55795" lon="-2.27803">
        <ele>8.6000003814697</ele>
        <time>2021-06-27T09:42:19.000Z</time>
      </trkpt>
      <trkpt lat="47.55796" lon="-2.278">
        <ele>8.6000003814697</ele>
        <time>2021-06-27T09:42:20.000Z</time>
      </trkpt>
      <trkpt lat="47.558" lon="-2.27788">
        <ele>8.6000003814697</ele>
        <time>2021-06-27T09:42:25.000Z</time>
      </trkpt>
      <trkpt lat="47.55801" lon="-2.27786">
        <ele>8.6000003814697</ele>
        <time>2021-06-27T09:42:26.000Z</time>
      </trkpt>
      <trkpt lat="47.55802" lon="-2.27779">
        <ele>8.6000003814697</ele>
        <time>2021-06-27T09:42:29.000Z</time>
      </trkpt>
      <trkpt lat="47.55802" lon="-2.27773">
        <ele>8.6000003814697</ele>
        <time>2021-06-27T09:42:31.000Z</time>
      </trkpt>
      <trkpt lat="47.558" lon="-2.27765">
        <ele>9.3999996185303</ele>
        <time>2021-06-27T09:42:35.000Z</time>
      </trkpt>
      <trkpt lat="47.55799" lon="-2.27761">
        <ele>9.8000001907349</ele>
        <time>2021-06-27T09:42:36.000Z</time>
      </trkpt>
      <trkpt lat="47.558" lon="-2.27757">
        <ele>10.199999809265</ele>
        <time>2021-06-27T09:42:37.000Z</time>
      </trkpt>
      <trkpt lat="47.558" lon="-2.27752">
        <ele>10.60000038147</ele>
        <time>2021-06-27T09:42:38.000Z</time>
      </trkpt>
      <trkpt lat="47.55803" lon="-2.27714">
        <ele>10.60000038147</ele>
        <time>2021-06-27T09:42:46.000Z</time>
      </trkpt>
      <trkpt lat="47.55807" lon="-2.27693">
        <ele>10.60000038147</ele>
        <time>2021-06-27T09:42:53.000Z</time>
      </trkpt>
      <trkpt lat="47.55811" lon="-2.27691">
        <ele>10.60000038147</ele>
        <time>2021-06-27T09:42:58.000Z</time>
      </trkpt>
      <trkpt lat="47.55819" lon="-2.27695">
        <ele>11</ele>
        <time>2021-06-27T09:43:04.000Z</time>
      </trkpt>
      <trkpt lat="47.55821" lon="-2.27695">
        <ele>11.39999961853</ele>
        <time>2021-06-27T09:43:05.000Z</time>
      </trkpt>
      <trkpt lat="47.55823" lon="-2.27695">
        <ele>11.800000190735</ele>
        <time>2021-06-27T09:43:06.000Z</time>
      </trkpt>
      <trkpt lat="47.55824" lon="-2.27695">
        <ele>12.199999809265</ele>
        <time>2021-06-27T09:43:07.000Z</time>
      </trkpt>
      <trkpt lat="47.55826" lon="-2.27694">
        <ele>12.60000038147</ele>
        <time>2021-06-27T09:43:08.000Z</time>
      </trkpt>
      <trkpt lat="47.55829" lon="-2.27692">
        <ele>12.60000038147</ele>
        <time>2021-06-27T09:43:10.000Z</time>
      </trkpt>
      <trkpt lat="47.55837" lon="-2.27689">
        <ele>12.60000038147</ele>
        <time>2021-06-27T09:43:14.000Z</time>
      </trkpt>
      <trkpt lat="47.55842" lon="-2.27694">
        <ele>12.60000038147</ele>
        <time>2021-06-27T09:43:16.000Z</time>
      </trkpt>
      <trkpt lat="47.55841" lon="-2.27703">
        <ele>12.60000038147</ele>
        <time>2021-06-27T09:43:18.000Z</time>
      </trkpt>
      <trkpt lat="47.55841" lon="-2.2772">
        <ele>13</ele>
        <time>2021-06-27T09:43:23.000Z</time>
      </trkpt>
      <trkpt lat="47.55842" lon="-2.27722">
        <ele>13.800000190735</ele>
        <time>2021-06-27T09:43:24.000Z</time>
      </trkpt>
      <trkpt lat="47.55843" lon="-2.27724">
        <ele>14.39999961853</ele>
        <time>2021-06-27T09:43:25.000Z</time>
      </trkpt>
      <trkpt lat="47.55844" lon="-2.27727">
        <ele>14.800000190735</ele>
        <time>2021-06-27T09:43:26.000Z</time>
      </trkpt>
      <trkpt lat="47.55845" lon="-2.27732">
        <ele>14.800000190735</ele>
        <time>2021-06-27T09:43:28.000Z</time>
      </trkpt>
      <trkpt lat="47.5585" lon="-2.2774">
        <ele>14.800000190735</ele>
        <time>2021-06-27T09:43:36.000Z</time>
      </trkpt>
      <trkpt lat="47.55853" lon="-2.27739">
        <ele>15.199999809265</ele>
        <time>2021-06-27T09:43:40.000Z</time>
      </trkpt>
      <trkpt lat="47.55854" lon="-2.27739">
        <ele>15.60000038147</ele>
        <time>2021-06-27T09:43:41.000Z</time>
      </trkpt>
      <trkpt lat="47.55855" lon="-2.27738">
        <ele>16</ele>
        <time>2021-06-27T09:43:42.000Z</time>
      </trkpt>
      <trkpt lat="47.55856" lon="-2.27738">
        <ele>16.39999961853</ele>
        <time>2021-06-27T09:43:43.000Z</time>
      </trkpt>
      <trkpt lat="47.55858" lon="-2.27738">
        <ele>16.799999237061</ele>
        <time>2021-06-27T09:43:44.000Z</time>
      </trkpt>
      <trkpt lat="47.55859" lon="-2.27737">
        <ele>16.799999237061</ele>
        <time>2021-06-27T09:43:45.000Z</time>
      </trkpt>
      <trkpt lat="47.55861" lon="-2.27736">
        <ele>16.799999237061</ele>
        <time>2021-06-27T09:43:47.000Z</time>
      </trkpt>
      <trkpt lat="47.55904" lon="-2.27711">
        <ele>18.799999237061</ele>
        <time>2021-06-27T09:44:34.000Z</time>
      </trkpt>
      <trkpt lat="47.55908" lon="-2.27708">
        <ele>18.799999237061</ele>
        <time>2021-06-27T09:44:36.000Z</time>
      </trkpt>
      <trkpt lat="47.55913" lon="-2.27706">
        <ele>18.799999237061</ele>
        <time>2021-06-27T09:44:38.000Z</time>
      </trkpt>
      <trkpt lat="47.5592" lon="-2.27703">
        <ele>18.799999237061</ele>
        <time>2021-06-27T09:44:43.000Z</time>
      </trkpt>
      <trkpt lat="47.55924" lon="-2.27702">
        <ele>18.799999237061</ele>
        <time>2021-06-27T09:44:45.000Z</time>
      </trkpt>
      <trkpt lat="47.55931" lon="-2.27699">
        <ele>18.799999237061</ele>
        <time>2021-06-27T09:44:49.000Z</time>
      </trkpt>
      <trkpt lat="47.55936" lon="-2.27694">
        <ele>19.200000762939</ele>
        <time>2021-06-27T09:44:52.000Z</time>
      </trkpt>
      <trkpt lat="47.55938" lon="-2.27692">
        <ele>19.60000038147</ele>
        <time>2021-06-27T09:44:53.000Z</time>
      </trkpt>
      <trkpt lat="47.55939" lon="-2.2769">
        <ele>20</ele>
        <time>2021-06-27T09:44:54.000Z</time>
      </trkpt>
      <trkpt lat="47.55941" lon="-2.27689">
        <ele>20.39999961853</ele>
        <time>2021-06-27T09:44:55.000Z</time>
      </trkpt>
      <trkpt lat="47.55944" lon="-2.27688">
        <ele>21</ele>
        <time>2021-06-27T09:44:56.000Z</time>
      </trkpt>
      <trkpt lat="47.55953" lon="-2.2768">
        <ele>21</ele>
        <time>2021-06-27T09:45:01.000Z</time>
      </trkpt>
      <trkpt lat="47.55965" lon="-2.27673">
        <ele>21</ele>
        <time>2021-06-27T09:45:06.000Z</time>
      </trkpt>
      <trkpt lat="47.55967" lon="-2.27672">
        <ele>21.39999961853</ele>
        <time>2021-06-27T09:45:07.000Z</time>
      </trkpt>
      <trkpt lat="47.55968" lon="-2.27671">
        <ele>21.799999237061</ele>
        <time>2021-06-27T09:45:08.000Z</time>
      </trkpt>
      <trkpt lat="47.5597" lon="-2.2767">
        <ele>22.200000762939</ele>
        <time>2021-06-27T09:45:09.000Z</time>
      </trkpt>
      <trkpt lat="47.55973" lon="-2.27668">
        <ele>22.60000038147</ele>
        <time>2021-06-27T09:45:10.000Z</time>
      </trkpt>
      <trkpt lat="47.55974" lon="-2.27666">
        <ele>23</ele>
        <time>2021-06-27T09:45:11.000Z</time>
      </trkpt>
      <trkpt lat="47.55981" lon="-2.27659">
        <ele>23</ele>
        <time>2021-06-27T09:45:16.000Z</time>
      </trkpt>
      <trkpt lat="47.55998" lon="-2.27648">
        <ele>23.39999961853</ele>
        <time>2021-06-27T09:45:24.000Z</time>
      </trkpt>
      <trkpt lat="47.56" lon="-2.27647">
        <ele>23.799999237061</ele>
        <time>2021-06-27T09:45:25.000Z</time>
      </trkpt>
      <trkpt lat="47.56001" lon="-2.27647">
        <ele>24.60000038147</ele>
        <time>2021-06-27T09:45:26.000Z</time>
      </trkpt>
      <trkpt lat="47.56022" lon="-2.27647">
        <ele>22.799999237061</ele>
        <time>2021-06-27T09:45:59.000Z</time>
      </trkpt>
      <trkpt lat="47.56026" lon="-2.27647">
        <ele>22.799999237061</ele>
        <time>2021-06-27T09:46:01.000Z</time>
      </trkpt>
      <trkpt lat="47.56028" lon="-2.27647">
        <ele>22.799999237061</ele>
        <time>2021-06-27T09:46:02.000Z</time>
      </trkpt>
      <trkpt lat="47.56037" lon="-2.27652">
        <ele>22.799999237061</ele>
        <time>2021-06-27T09:46:06.000Z</time>
      </trkpt>
      <trkpt lat="47.56039" lon="-2.27652">
        <ele>22.799999237061</ele>
        <time>2021-06-27T09:46:07.000Z</time>
      </trkpt>
      <trkpt lat="47.56056" lon="-2.27657">
        <ele>22.799999237061</ele>
        <time>2021-06-27T09:46:13.000Z</time>
      </trkpt>
      <trkpt lat="47.56083" lon="-2.27664">
        <ele>22.799999237061</ele>
        <time>2021-06-27T09:46:20.000Z</time>
      </trkpt>
      <trkpt lat="47.56095" lon="-2.27673">
        <ele>22.799999237061</ele>
        <time>2021-06-27T09:46:25.000Z</time>
      </trkpt>
      <trkpt lat="47.56108" lon="-2.27683">
        <ele>22.799999237061</ele>
        <time>2021-06-27T09:46:31.000Z</time>
      </trkpt>
      <trkpt lat="47.56117" lon="-2.27688">
        <ele>22.799999237061</ele>
        <time>2021-06-27T09:46:35.000Z</time>
      </trkpt>
      <trkpt lat="47.56133" lon="-2.27702">
        <ele>22.799999237061</ele>
        <time>2021-06-27T09:46:41.000Z</time>
      </trkpt>
      <trkpt lat="47.56137" lon="-2.27706">
        <ele>22.799999237061</ele>
        <time>2021-06-27T09:46:43.000Z</time>
      </trkpt>
      <trkpt lat="47.56142" lon="-2.27705">
        <ele>22.799999237061</ele>
        <time>2021-06-27T09:46:46.000Z</time>
      </trkpt>
      <trkpt lat="47.56148" lon="-2.27699">
        <ele>22.799999237061</ele>
        <time>2021-06-27T09:46:49.000Z</time>
      </trkpt>
      <trkpt lat="47.5615" lon="-2.27697">
        <ele>22.799999237061</ele>
        <time>2021-06-27T09:46:50.000Z</time>
      </trkpt>
      <trkpt lat="47.56156" lon="-2.27695">
        <ele>22.799999237061</ele>
        <time>2021-06-27T09:46:55.000Z</time>
      </trkpt>
      <trkpt lat="47.56164" lon="-2.27708">
        <ele>22.799999237061</ele>
        <time>2021-06-27T09:47:01.000Z</time>
      </trkpt>
      <trkpt lat="47.56166" lon="-2.27713">
        <ele>22.799999237061</ele>
        <time>2021-06-27T09:47:03.000Z</time>
      </trkpt>
      <trkpt lat="47.56173" lon="-2.27723">
        <ele>22.799999237061</ele>
        <time>2021-06-27T09:47:08.000Z</time>
      </trkpt>
      <trkpt lat="47.5618" lon="-2.27721">
        <ele>22.799999237061</ele>
        <time>2021-06-27T09:47:13.000Z</time>
      </trkpt>
      <trkpt lat="47.56183" lon="-2.27714">
        <ele>23.200000762939</ele>
        <time>2021-06-27T09:47:16.000Z</time>
      </trkpt>
      <trkpt lat="47.56183" lon="-2.27711">
        <ele>23.60000038147</ele>
        <time>2021-06-27T09:47:17.000Z</time>
      </trkpt>
      <trkpt lat="47.56183" lon="-2.27708">
        <ele>24.200000762939</ele>
        <time>2021-06-27T09:47:18.000Z</time>
      </trkpt>
      <trkpt lat="47.56183" lon="-2.27706">
        <ele>24.60000038147</ele>
        <time>2021-06-27T09:47:19.000Z</time>
      </trkpt>
      <trkpt lat="47.56183" lon="-2.27705">
        <ele>25</ele>
        <time>2021-06-27T09:47:20.000Z</time>
      </trkpt>
      <trkpt lat="47.56182" lon="-2.27696">
        <ele>25</ele>
        <time>2021-06-27T09:47:24.000Z</time>
      </trkpt>
      <trkpt lat="47.56186" lon="-2.27676">
        <ele>25</ele>
        <time>2021-06-27T09:47:30.000Z</time>
      </trkpt>
      <trkpt lat="47.5619" lon="-2.27661">
        <ele>25.39999961853</ele>
        <time>2021-06-27T09:47:35.000Z</time>
      </trkpt>
      <trkpt lat="47.56189" lon="-2.27658">
        <ele>25.799999237061</ele>
        <time>2021-06-27T09:47:36.000Z</time>
      </trkpt>
      <trkpt lat="47.5619" lon="-2.27654">
        <ele>26.200000762939</ele>
        <time>2021-06-27T09:47:37.000Z</time>
      </trkpt>
      <trkpt lat="47.5619" lon="-2.2765">
        <ele>26.60000038147</ele>
        <time>2021-06-27T09:47:38.000Z</time>
      </trkpt>
      <trkpt lat="47.5619" lon="-2.27647">
        <ele>27</ele>
        <time>2021-06-27T09:47:39.000Z</time>
      </trkpt>
      <trkpt lat="47.56194" lon="-2.27634">
        <ele>27</ele>
        <time>2021-06-27T09:47:42.000Z</time>
      </trkpt>
      <trkpt lat="47.56201" lon="-2.27609">
        <ele>27</ele>
        <time>2021-06-27T09:47:48.000Z</time>
      </trkpt>
      <trkpt lat="47.56201" lon="-2.27581">
        <ele>27</ele>
        <time>2021-06-27T09:47:55.000Z</time>
      </trkpt>
      <trkpt lat="47.56205" lon="-2.27567">
        <ele>27.39999961853</ele>
        <time>2021-06-27T09:48:00.000Z</time>
      </trkpt>
      <trkpt lat="47.56206" lon="-2.27564">
        <ele>27.799999237061</ele>
        <time>2021-06-27T09:48:01.000Z</time>
      </trkpt>
      <trkpt lat="47.56207" lon="-2.27562">
        <ele>28.200000762939</ele>
        <time>2021-06-27T09:48:02.000Z</time>
      </trkpt>
      <trkpt lat="47.56209" lon="-2.2756">
        <ele>28.60000038147</ele>
        <time>2021-06-27T09:48:03.000Z</time>
      </trkpt>
      <trkpt lat="47.5621" lon="-2.27558">
        <ele>29</ele>
        <time>2021-06-27T09:48:04.000Z</time>
      </trkpt>
      <trkpt lat="47.56212" lon="-2.27557">
        <ele>29</ele>
        <time>2021-06-27T09:48:05.000Z</time>
      </trkpt>
      <trkpt lat="47.56215" lon="-2.27557">
        <ele>29</ele>
        <time>2021-06-27T09:48:07.000Z</time>
      </trkpt>
      <trkpt lat="47.56225" lon="-2.27561">
        <ele>29</ele>
        <time>2021-06-27T09:48:13.000Z</time>
      </trkpt>
      <trkpt lat="47.56231" lon="-2.27558">
        <ele>29</ele>
        <time>2021-06-27T09:48:20.000Z</time>
      </trkpt>
      <trkpt lat="47.56232" lon="-2.2758">
        <ele>29</ele>
        <time>2021-06-27T09:48:36.000Z</time>
      </trkpt>
      <trkpt lat="47.56234" lon="-2.27591">
        <ele>29</ele>
        <time>2021-06-27T09:48:41.000Z</time>
      </trkpt>
      <trkpt lat="47.56237" lon="-2.27595">
        <ele>29</ele>
        <time>2021-06-27T09:48:43.000Z</time>
      </trkpt>
      <trkpt lat="47.56241" lon="-2.27597">
        <ele>29</ele>
        <time>2021-06-27T09:48:47.000Z</time>
      </trkpt>
      <trkpt lat="47.56244" lon="-2.27609">
        <ele>29</ele>
        <time>2021-06-27T09:48:53.000Z</time>
      </trkpt>
      <trkpt lat="47.56242" lon="-2.2762">
        <ele>29</ele>
        <time>2021-06-27T09:48:59.000Z</time>
      </trkpt>
      <trkpt lat="47.5623" lon="-2.27633">
        <ele>29</ele>
        <time>2021-06-27T09:49:05.000Z</time>
      </trkpt>
      <trkpt lat="47.56228" lon="-2.27637">
        <ele>29.39999961853</ele>
        <time>2021-06-27T09:49:06.000Z</time>
      </trkpt>
      <trkpt lat="47.56228" lon="-2.2764">
        <ele>29.799999237061</ele>
        <time>2021-06-27T09:49:07.000Z</time>
      </trkpt>
      <trkpt lat="47.56227" lon="-2.27643">
        <ele>30.200000762939</ele>
        <time>2021-06-27T09:49:08.000Z</time>
      </trkpt>
      <trkpt lat="47.56227" lon="-2.27646">
        <ele>31.200000762939</ele>
        <time>2021-06-27T09:49:09.000Z</time>
      </trkpt>
      <trkpt lat="47.56224" lon="-2.27662">
        <ele>31.200000762939</ele>
        <time>2021-06-27T09:49:16.000Z</time>
      </trkpt>
      <trkpt lat="47.56222" lon="-2.27675">
        <ele>31.200000762939</ele>
        <time>2021-06-27T09:49:21.000Z</time>
      </trkpt>
      <trkpt lat="47.56226" lon="-2.27688">
        <ele>31.200000762939</ele>
        <time>2021-06-27T09:49:26.000Z</time>
      </trkpt>
      <trkpt lat="47.56228" lon="-2.27689">
        <ele>31.200000762939</ele>
        <time>2021-06-27T09:49:27.000Z</time>
      </trkpt>
      <trkpt lat="47.5623" lon="-2.2769">
        <ele>31.60000038147</ele>
        <time>2021-06-27T09:49:28.000Z</time>
      </trkpt>
      <trkpt lat="47.56231" lon="-2.27689">
        <ele>32</ele>
        <time>2021-06-27T09:49:29.000Z</time>
      </trkpt>
      <trkpt lat="47.56233" lon="-2.27689">
        <ele>32.400001525879</ele>
        <time>2021-06-27T09:49:30.000Z</time>
      </trkpt>
      <trkpt lat="47.56234" lon="-2.27688">
        <ele>32.799999237061</ele>
        <time>2021-06-27T09:49:31.000Z</time>
      </trkpt>
      <trkpt lat="47.56236" lon="-2.27687">
        <ele>33.200000762939</ele>
        <time>2021-06-27T09:49:32.000Z</time>
      </trkpt>
      <trkpt lat="47.56247" lon="-2.27683">
        <ele>33.200000762939</ele>
        <time>2021-06-27T09:49:38.000Z</time>
      </trkpt>
      <trkpt lat="47.56255" lon="-2.27683">
        <ele>33.200000762939</ele>
        <time>2021-06-27T09:49:43.000Z</time>
      </trkpt>
      <trkpt lat="47.56256" lon="-2.27684">
        <ele>33.200000762939</ele>
        <time>2021-06-27T09:49:44.000Z</time>
      </trkpt>
      <trkpt lat="47.56268" lon="-2.27688">
        <ele>33.200000762939</ele>
        <time>2021-06-27T09:49:51.000Z</time>
      </trkpt>
      <trkpt lat="47.56285" lon="-2.27689">
        <ele>33.200000762939</ele>
        <time>2021-06-27T09:49:58.000Z</time>
      </trkpt>
      <trkpt lat="47.56299" lon="-2.27689">
        <ele>33.200000762939</ele>
        <time>2021-06-27T09:50:02.000Z</time>
      </trkpt>
      <trkpt lat="47.56318" lon="-2.27688">
        <ele>33.200000762939</ele>
        <time>2021-06-27T09:50:08.000Z</time>
      </trkpt>
      <trkpt lat="47.56345" lon="-2.2769">
        <ele>33.200000762939</ele>
        <time>2021-06-27T09:50:16.000Z</time>
      </trkpt>
      <trkpt lat="47.56363" lon="-2.27688">
        <ele>32.799999237061</ele>
        <time>2021-06-27T09:50:22.000Z</time>
      </trkpt>
      <trkpt lat="47.56366" lon="-2.27688">
        <ele>32</ele>
        <time>2021-06-27T09:50:23.000Z</time>
      </trkpt>
      <trkpt lat="47.56368" lon="-2.27687">
        <ele>31.60000038147</ele>
        <time>2021-06-27T09:50:24.000Z</time>
      </trkpt>
      <trkpt lat="47.5637" lon="-2.27687">
        <ele>31.200000762939</ele>
        <time>2021-06-27T09:50:25.000Z</time>
      </trkpt>
      <trkpt lat="47.56385" lon="-2.27688">
        <ele>31.200000762939</ele>
        <time>2021-06-27T09:50:30.000Z</time>
      </trkpt>
      <trkpt lat="47.56398" lon="-2.27682">
        <ele>31.200000762939</ele>
        <time>2021-06-27T09:50:35.000Z</time>
      </trkpt>
      <trkpt lat="47.56407" lon="-2.27663">
        <ele>31.200000762939</ele>
        <time>2021-06-27T09:50:41.000Z</time>
      </trkpt>
      <trkpt lat="47.56413" lon="-2.27642">
        <ele>30.799999237061</ele>
        <time>2021-06-27T09:50:49.000Z</time>
      </trkpt>
      <trkpt lat="47.56414" lon="-2.27639">
        <ele>30.39999961853</ele>
        <time>2021-06-27T09:50:50.000Z</time>
      </trkpt>
      <trkpt lat="47.56415" lon="-2.27637">
        <ele>30</ele>
        <time>2021-06-27T09:50:51.000Z</time>
      </trkpt>
      <trkpt lat="47.56415" lon="-2.27635">
        <ele>29.60000038147</ele>
        <time>2021-06-27T09:50:52.000Z</time>
      </trkpt>
      <trkpt lat="47.56417" lon="-2.27632">
        <ele>29.200000762939</ele>
        <time>2021-06-27T09:50:53.000Z</time>
      </trkpt>
      <trkpt lat="47.56421" lon="-2.27625">
        <ele>29.200000762939</ele>
        <time>2021-06-27T09:50:56.000Z</time>
      </trkpt>
      <trkpt lat="47.56425" lon="-2.27615">
        <ele>29.200000762939</ele>
        <time>2021-06-27T09:51:00.000Z</time>
      </trkpt>
      <trkpt lat="47.56426" lon="-2.27606">
        <ele>29.200000762939</ele>
        <time>2021-06-27T09:51:03.000Z</time>
      </trkpt>
      <trkpt lat="47.56425" lon="-2.27579">
        <ele>29.200000762939</ele>
        <time>2021-06-27T09:51:12.000Z</time>
      </trkpt>
      <trkpt lat="47.56422" lon="-2.27563">
        <ele>29.200000762939</ele>
        <time>2021-06-27T09:51:18.000Z</time>
      </trkpt>
      <trkpt lat="47.56421" lon="-2.27559">
        <ele>29.200000762939</ele>
        <time>2021-06-27T09:51:19.000Z</time>
      </trkpt>
      <trkpt lat="47.56421" lon="-2.27537">
        <ele>29.200000762939</ele>
        <time>2021-06-27T09:51:26.000Z</time>
      </trkpt>
      <trkpt lat="47.56424" lon="-2.2752">
        <ele>29.200000762939</ele>
        <time>2021-06-27T09:51:32.000Z</time>
      </trkpt>
      <trkpt lat="47.56427" lon="-2.275">
        <ele>29.200000762939</ele>
        <time>2021-06-27T09:51:38.000Z</time>
      </trkpt>
      <trkpt lat="47.56422" lon="-2.27492">
        <ele>29.200000762939</ele>
        <time>2021-06-27T09:51:42.000Z</time>
      </trkpt>
      <trkpt lat="47.56418" lon="-2.27491">
        <ele>29.200000762939</ele>
        <time>2021-06-27T09:51:44.000Z</time>
      </trkpt>
      <trkpt lat="47.56403" lon="-2.27481">
        <ele>29.200000762939</ele>
        <time>2021-06-27T09:51:52.000Z</time>
      </trkpt>
      <trkpt lat="47.56392" lon="-2.27469">
        <ele>29.200000762939</ele>
        <time>2021-06-27T09:51:56.000Z</time>
      </trkpt>
      <trkpt lat="47.56391" lon="-2.27464">
        <ele>29.200000762939</ele>
        <time>2021-06-27T09:51:57.000Z</time>
      </trkpt>
      <trkpt lat="47.56391" lon="-2.27451">
        <ele>29.200000762939</ele>
        <time>2021-06-27T09:52:00.000Z</time>
      </trkpt>
      <trkpt lat="47.5639" lon="-2.27442">
        <ele>28.799999237061</ele>
        <time>2021-06-27T09:52:02.000Z</time>
      </trkpt>
      <trkpt lat="47.5639" lon="-2.27438">
        <ele>28.200000762939</ele>
        <time>2021-06-27T09:52:03.000Z</time>
      </trkpt>
      <trkpt lat="47.5639" lon="-2.27432">
        <ele>27.799999237061</ele>
        <time>2021-06-27T09:52:04.000Z</time>
      </trkpt>
      <trkpt lat="47.56389" lon="-2.27427">
        <ele>27.39999961853</ele>
        <time>2021-06-27T09:52:05.000Z</time>
      </trkpt>
      <trkpt lat="47.56388" lon="-2.27422">
        <ele>27</ele>
        <time>2021-06-27T09:52:06.000Z</time>
      </trkpt>
      <trkpt lat="47.56388" lon="-2.27401">
        <ele>26.60000038147</ele>
        <time>2021-06-27T09:52:10.000Z</time>
      </trkpt>
      <trkpt lat="47.56388" lon="-2.27396">
        <ele>26.200000762939</ele>
        <time>2021-06-27T09:52:11.000Z</time>
      </trkpt>
      <trkpt lat="47.56389" lon="-2.2739">
        <ele>25.799999237061</ele>
        <time>2021-06-27T09:52:12.000Z</time>
      </trkpt>
      <trkpt lat="47.56389" lon="-2.27384">
        <ele>25.39999961853</ele>
        <time>2021-06-27T09:52:13.000Z</time>
      </trkpt>
      <trkpt lat="47.56389" lon="-2.27379">
        <ele>25</ele>
        <time>2021-06-27T09:52:14.000Z</time>
      </trkpt>
      <trkpt lat="47.5639" lon="-2.27362">
        <ele>24.60000038147</ele>
        <time>2021-06-27T09:52:17.000Z</time>
      </trkpt>
      <trkpt lat="47.5639" lon="-2.27356">
        <ele>24</ele>
        <time>2021-06-27T09:52:18.000Z</time>
      </trkpt>
      <trkpt lat="47.5639" lon="-2.2735">
        <ele>23.60000038147</ele>
        <time>2021-06-27T09:52:19.000Z</time>
      </trkpt>
      <trkpt lat="47.5639" lon="-2.27344">
        <ele>23.200000762939</ele>
        <time>2021-06-27T09:52:20.000Z</time>
      </trkpt>
      <trkpt lat="47.56391" lon="-2.27338">
        <ele>22.60000038147</ele>
        <time>2021-06-27T09:52:21.000Z</time>
      </trkpt>
      <trkpt lat="47.56391" lon="-2.27332">
        <ele>22.200000762939</ele>
        <time>2021-06-27T09:52:22.000Z</time>
      </trkpt>
      <trkpt lat="47.56391" lon="-2.27327">
        <ele>21.799999237061</ele>
        <time>2021-06-27T09:52:23.000Z</time>
      </trkpt>
      <trkpt lat="47.56393" lon="-2.27321">
        <ele>21.200000762939</ele>
        <time>2021-06-27T09:52:24.000Z</time>
      </trkpt>
      <trkpt lat="47.56395" lon="-2.27316">
        <ele>20.799999237061</ele>
        <time>2021-06-27T09:52:25.000Z</time>
      </trkpt>
      <trkpt lat="47.56398" lon="-2.27311">
        <ele>19.799999237061</ele>
        <time>2021-06-27T09:52:26.000Z</time>
      </trkpt>
      <trkpt lat="47.56401" lon="-2.27309">
        <ele>19.39999961853</ele>
        <time>2021-06-27T09:52:27.000Z</time>
      </trkpt>
      <trkpt lat="47.56404" lon="-2.27307">
        <ele>19</ele>
        <time>2021-06-27T09:52:28.000Z</time>
      </trkpt>
      <trkpt lat="47.56407" lon="-2.27306">
        <ele>18.60000038147</ele>
        <time>2021-06-27T09:52:29.000Z</time>
      </trkpt>
      <trkpt lat="47.5641" lon="-2.27304">
        <ele>18</ele>
        <time>2021-06-27T09:52:30.000Z</time>
      </trkpt>
      <trkpt lat="47.56414" lon="-2.27303">
        <ele>17.39999961853</ele>
        <time>2021-06-27T09:52:31.000Z</time>
      </trkpt>
      <trkpt lat="47.56418" lon="-2.27302">
        <ele>16.799999237061</ele>
        <time>2021-06-27T09:52:32.000Z</time>
      </trkpt>
      <trkpt lat="47.56422" lon="-2.27301">
        <ele>16.39999961853</ele>
        <time>2021-06-27T09:52:33.000Z</time>
      </trkpt>
      <trkpt lat="47.56427" lon="-2.273">
        <ele>15.800000190735</ele>
        <time>2021-06-27T09:52:34.000Z</time>
      </trkpt>
      <trkpt lat="47.56432" lon="-2.27299">
        <ele>15.199999809265</ele>
        <time>2021-06-27T09:52:35.000Z</time>
      </trkpt>
      <trkpt lat="47.56436" lon="-2.27298">
        <ele>14.60000038147</ele>
        <time>2021-06-27T09:52:36.000Z</time>
      </trkpt>
      <trkpt lat="47.56441" lon="-2.27297">
        <ele>14</ele>
        <time>2021-06-27T09:52:37.000Z</time>
      </trkpt>
      <trkpt lat="47.56446" lon="-2.27295">
        <ele>13.39999961853</ele>
        <time>2021-06-27T09:52:38.000Z</time>
      </trkpt>
      <trkpt lat="47.56451" lon="-2.27294">
        <ele>12.800000190735</ele>
        <time>2021-06-27T09:52:39.000Z</time>
      </trkpt>
      <trkpt lat="47.56456" lon="-2.27293">
        <ele>12.39999961853</ele>
        <time>2021-06-27T09:52:40.000Z</time>
      </trkpt>
      <trkpt lat="47.56462" lon="-2.27293">
        <ele>12</ele>
        <time>2021-06-27T09:52:41.000Z</time>
      </trkpt>
      <trkpt lat="47.56468" lon="-2.27291">
        <ele>11.39999961853</ele>
        <time>2021-06-27T09:52:42.000Z</time>
      </trkpt>
      <trkpt lat="47.56473" lon="-2.2729">
        <ele>11</ele>
        <time>2021-06-27T09:52:43.000Z</time>
      </trkpt>
      <trkpt lat="47.56485" lon="-2.27288">
        <ele>10.39999961853</ele>
        <time>2021-06-27T09:52:45.000Z</time>
      </trkpt>
      <trkpt lat="47.5649" lon="-2.27287">
        <ele>10</ele>
        <time>2021-06-27T09:52:46.000Z</time>
      </trkpt>
      <trkpt lat="47.56496" lon="-2.27286">
        <ele>9.6000003814697</ele>
        <time>2021-06-27T09:52:47.000Z</time>
      </trkpt>
      <trkpt lat="47.56502" lon="-2.27285">
        <ele>9.1999998092651</ele>
        <time>2021-06-27T09:52:48.000Z</time>
      </trkpt>
      <trkpt lat="47.56508" lon="-2.27284">
        <ele>8.8000001907349</ele>
        <time>2021-06-27T09:52:49.000Z</time>
      </trkpt>
      <trkpt lat="47.56514" lon="-2.27283">
        <ele>8.8000001907349</ele>
        <time>2021-06-27T09:52:50.000Z</time>
      </trkpt>
      <trkpt lat="47.5652" lon="-2.27281">
        <ele>8.3999996185303</ele>
        <time>2021-06-27T09:52:51.000Z</time>
      </trkpt>
      <trkpt lat="47.56527" lon="-2.27279">
        <ele>8</ele>
        <time>2021-06-27T09:52:52.000Z</time>
      </trkpt>
      <trkpt lat="47.56533" lon="-2.27278">
        <ele>7.5999999046326</ele>
        <time>2021-06-27T09:52:53.000Z</time>
      </trkpt>
      <trkpt lat="47.56539" lon="-2.27277">
        <ele>7.1999998092651</ele>
        <time>2021-06-27T09:52:54.000Z</time>
      </trkpt>
      <trkpt lat="47.56545" lon="-2.27276">
        <ele>6.8000001907349</ele>
        <time>2021-06-27T09:52:55.000Z</time>
      </trkpt>
      <trkpt lat="47.56551" lon="-2.27274">
        <ele>6.1999998092651</ele>
        <time>2021-06-27T09:52:56.000Z</time>
      </trkpt>
      <trkpt lat="47.56558" lon="-2.27273">
        <ele>5.8000001907349</ele>
        <time>2021-06-27T09:52:57.000Z</time>
      </trkpt>
      <trkpt lat="47.56564" lon="-2.27272">
        <ele>5.4000000953674</ele>
        <time>2021-06-27T09:52:58.000Z</time>
      </trkpt>
      <trkpt lat="47.5657" lon="-2.27271">
        <ele>5</ele>
        <time>2021-06-27T09:52:59.000Z</time>
      </trkpt>
      <trkpt lat="47.56575" lon="-2.2727">
        <ele>4.5999999046326</ele>
        <time>2021-06-27T09:53:00.000Z</time>
      </trkpt>
      <trkpt lat="47.56599" lon="-2.27266">
        <ele>4.5999999046326</ele>
        <time>2021-06-27T09:53:04.000Z</time>
      </trkpt>
      <trkpt lat="47.5663" lon="-2.27269">
        <ele>4.5999999046326</ele>
        <time>2021-06-27T09:53:08.000Z</time>
      </trkpt>
      <trkpt lat="47.56682" lon="-2.2728">
        <ele>4.5999999046326</ele>
        <time>2021-06-27T09:53:14.000Z</time>
      </trkpt>
      <trkpt lat="47.5674" lon="-2.27292">
        <ele>4.5999999046326</ele>
        <time>2021-06-27T09:53:21.000Z</time>
      </trkpt>
      <trkpt lat="47.56773" lon="-2.27299">
        <ele>4.5999999046326</ele>
        <time>2021-06-27T09:53:25.000Z</time>
      </trkpt>
      <trkpt lat="47.56835" lon="-2.27311">
        <ele>4.5999999046326</ele>
        <time>2021-06-27T09:53:32.000Z</time>
      </trkpt>
      <trkpt lat="47.56854" lon="-2.27314">
        <ele>5</ele>
        <time>2021-06-27T09:53:34.000Z</time>
      </trkpt>
      <trkpt lat="47.56864" lon="-2.27315">
        <ele>5.4000000953674</ele>
        <time>2021-06-27T09:53:35.000Z</time>
      </trkpt>
      <trkpt lat="47.56874" lon="-2.27317">
        <ele>5.8000001907349</ele>
        <time>2021-06-27T09:53:36.000Z</time>
      </trkpt>
      <trkpt lat="47.56884" lon="-2.2732">
        <ele>6.1999998092651</ele>
        <time>2021-06-27T09:53:37.000Z</time>
      </trkpt>
      <trkpt lat="47.56894" lon="-2.27322">
        <ele>6.5999999046326</ele>
        <time>2021-06-27T09:53:38.000Z</time>
      </trkpt>
      <trkpt lat="47.56903" lon="-2.27325">
        <ele>6.5999999046326</ele>
        <time>2021-06-27T09:53:39.000Z</time>
      </trkpt>
      <trkpt lat="47.56935" lon="-2.27334">
        <ele>6.5999999046326</ele>
        <time>2021-06-27T09:53:43.000Z</time>
      </trkpt>
      <trkpt lat="47.56946" lon="-2.27341">
        <ele>6.5999999046326</ele>
        <time>2021-06-27T09:53:46.000Z</time>
      </trkpt>
      <trkpt lat="47.56949" lon="-2.27347">
        <ele>6.5999999046326</ele>
        <time>2021-06-27T09:53:47.000Z</time>
      </trkpt>
      <trkpt lat="47.56952" lon="-2.27372">
        <ele>7</ele>
        <time>2021-06-27T09:53:50.000Z</time>
      </trkpt>
      <trkpt lat="47.56952" lon="-2.27383">
        <ele>7.4000000953674</ele>
        <time>2021-06-27T09:53:51.000Z</time>
      </trkpt>
      <trkpt lat="47.56951" lon="-2.27394">
        <ele>7.8000001907349</ele>
        <time>2021-06-27T09:53:52.000Z</time>
      </trkpt>
      <trkpt lat="47.56951" lon="-2.27404">
        <ele>8.1999998092651</ele>
        <time>2021-06-27T09:53:53.000Z</time>
      </trkpt>
      <trkpt lat="47.5695" lon="-2.27414">
        <ele>8.6000003814697</ele>
        <time>2021-06-27T09:53:54.000Z</time>
      </trkpt>
      <trkpt lat="47.56948" lon="-2.27422">
        <ele>8.6000003814697</ele>
        <time>2021-06-27T09:53:55.000Z</time>
      </trkpt>
      <trkpt lat="47.56945" lon="-2.27448">
        <ele>8.6000003814697</ele>
        <time>2021-06-27T09:53:59.000Z</time>
      </trkpt>
      <trkpt lat="47.56948" lon="-2.27456">
        <ele>8.6000003814697</ele>
        <time>2021-06-27T09:54:01.000Z</time>
      </trkpt>
      <trkpt lat="47.56952" lon="-2.27458">
        <ele>8.6000003814697</ele>
        <time>2021-06-27T09:54:02.000Z</time>
      </trkpt>
      <trkpt lat="47.56962" lon="-2.27459">
        <ele>8.6000003814697</ele>
        <time>2021-06-27T09:54:06.000Z</time>
      </trkpt>
      <trkpt lat="47.56962" lon="-2.27461">
        <ele>8.6000003814697</ele>
        <time>2021-06-27T09:54:08.000Z</time>
      </trkpt>
    </trkseg>
  </trk>
</gpx>